<?xml version='1.0' encoding='UTF-8'?><gpx version="1.1" creator="JPX - https://github.com/jenetics/jpx" xmlns="http://www.topografix.com/GPX/1/1"><trk><trkseg><trkpt lat="42.8200059" lon="11.5241915"><ele>1116.0</ele><time>2026-04-20T12:05:21.813Z</time></trkpt><trkpt lat="42.8199448" lon="11.5242214"><ele>1116.0</ele><time>2026-04-20T12:05:25.813Z</time></trkpt><trkpt lat="42.8198701" lon="11.5242985"><ele>1116.0</ele><time>2026-04-20T12:05:27.814Z</time></trkpt><trkpt lat="42.8197684" lon="11.5243965"><ele>1116.0</ele><time>2026-04-20T12:05:29.81Z</time></trkpt><trkpt lat="42.8197125" lon="11.5244611"><ele>1116.0</ele><time>2026-04-20T12:05:30.81Z</time></trkpt><trkpt lat="42.8196547" lon="11.5245282"><ele>1116.0</ele><time>2026-04-20T12:05:31.811Z</time></trkpt><trkpt lat="42.8195929" lon="11.5245972"><ele>1114.7142857142856</ele><time>2026-04-20T12:05:32.811Z</time></trkpt><trkpt lat="42.8195325" lon="11.5246623"><ele>1113.4285714285713</ele><time>2026-04-20T12:05:33.81Z</time></trkpt><trkpt lat="42.8194699" lon="11.524719"><ele>1112.142857142857</ele><time>2026-04-20T12:05:34.81Z</time></trkpt><trkpt lat="42.8194044" lon="11.5247725"><ele>1110.8571428571427</ele><time>2026-04-20T12:05:35.811Z</time></trkpt><trkpt lat="42.8193432" lon="11.5248232"><ele>1109.5714285714284</ele><time>2026-04-20T12:05:36.811Z</time></trkpt><trkpt lat="42.8192821" lon="11.5248702"><ele>1108.2857142857142</ele><time>2026-04-20T12:05:37.81Z</time></trkpt><trkpt lat="42.8192279" lon="11.524918"><ele>1107.0</ele><time>2026-04-20T12:05:38.81Z</time></trkpt><trkpt lat="42.8191313" lon="11.5250056"><ele>1107.0</ele><time>2026-04-20T12:05:40.811Z</time></trkpt><trkpt lat="42.8190506" lon="11.5251301"><ele>1107.0</ele><time>2026-04-20T12:05:42.814Z</time></trkpt><trkpt lat="42.8190161" lon="11.5252093"><ele>1107.0</ele><time>2026-04-20T12:05:43.813Z</time></trkpt><trkpt lat="42.8189848" lon="11.5253008"><ele>1107.0</ele><time>2026-04-20T12:05:44.812Z</time></trkpt><trkpt lat="42.8189575" lon="11.5253987"><ele>1107.0</ele><time>2026-04-20T12:05:45.813Z</time></trkpt><trkpt lat="42.8189299" lon="11.5255027"><ele>1107.0</ele><time>2026-04-20T12:05:46.813Z</time></trkpt><trkpt lat="42.8189057" lon="11.5256131"><ele>1108.2</ele><time>2026-04-20T12:05:47.811Z</time></trkpt><trkpt lat="42.8188827" lon="11.5257336"><ele>1109.4</ele><time>2026-04-20T12:05:48.813Z</time></trkpt><trkpt lat="42.8188586" lon="11.5258604"><ele>1110.6</ele><time>2026-04-20T12:05:49.811Z</time></trkpt><trkpt lat="42.8188352" lon="11.5259884"><ele>1111.8</ele><time>2026-04-20T12:05:50.812Z</time></trkpt><trkpt lat="42.8188115" lon="11.5261141"><ele>1113.0</ele><time>2026-04-20T12:05:51.811Z</time></trkpt><trkpt lat="42.8187865" lon="11.5262354"><ele>1114.8</ele><time>2026-04-20T12:05:52.811Z</time></trkpt><trkpt lat="42.8187634" lon="11.526358"><ele>1116.6</ele><time>2026-04-20T12:05:53.811Z</time></trkpt><trkpt lat="42.8187417" lon="11.5264816"><ele>1118.4</ele><time>2026-04-20T12:05:54.813Z</time></trkpt><trkpt lat="42.8187184" lon="11.5266119"><ele>1120.2</ele><time>2026-04-20T12:05:55.813Z</time></trkpt><trkpt lat="42.8186925" lon="11.5267513"><ele>1122.0</ele><time>2026-04-20T12:05:56.813Z</time></trkpt><trkpt lat="42.8186684" lon="11.5268938"><ele>1122.0</ele><time>2026-04-20T12:05:57.814Z</time></trkpt><trkpt lat="42.8186531" lon="11.527035"><ele>1122.0</ele><time>2026-04-20T12:05:58.812Z</time></trkpt><trkpt lat="42.8186477" lon="11.5271736"><ele>1122.0</ele><time>2026-04-20T12:05:59.813Z</time></trkpt><trkpt lat="42.8186497" lon="11.5273076"><ele>1122.0</ele><time>2026-04-20T12:06:00.811Z</time></trkpt><trkpt lat="42.8186581" lon="11.5274392"><ele>1122.0</ele><time>2026-04-20T12:06:01.811Z</time></trkpt><trkpt lat="42.8186733" lon="11.5275649"><ele>1120.4</ele><time>2026-04-20T12:06:02.812Z</time></trkpt><trkpt lat="42.8186977" lon="11.5276895"><ele>1118.8000000000002</ele><time>2026-04-20T12:06:03.811Z</time></trkpt><trkpt lat="42.8187264" lon="11.5278113"><ele>1117.2</ele><time>2026-04-20T12:06:04.812Z</time></trkpt><trkpt lat="42.8187555" lon="11.5279284"><ele>1115.6000000000001</ele><time>2026-04-20T12:06:05.813Z</time></trkpt><trkpt lat="42.8187858" lon="11.5280432"><ele>1114.0</ele><time>2026-04-20T12:06:06.817Z</time></trkpt><trkpt lat="42.8188163" lon="11.5281602"><ele>1111.3333333333333</ele><time>2026-04-20T12:06:07.813Z</time></trkpt><trkpt lat="42.8188438" lon="11.5282756"><ele>1108.6666666666665</ele><time>2026-04-20T12:06:08.814Z</time></trkpt><trkpt lat="42.8188675" lon="11.5283831"><ele>1106.0</ele><time>2026-04-20T12:06:09.813Z</time></trkpt><trkpt lat="42.8188889" lon="11.5284794"><ele>1103.3333333333333</ele><time>2026-04-20T12:06:10.81Z</time></trkpt><trkpt lat="42.8189088" lon="11.5285635"><ele>1100.6666666666667</ele><time>2026-04-20T12:06:11.813Z</time></trkpt><trkpt lat="42.8189674" lon="11.5286962"><ele>1098.0</ele><time>2026-04-20T12:06:13.815Z</time></trkpt><trkpt lat="42.8190817" lon="11.5287817"><ele>1095.4</ele><time>2026-04-20T12:06:15.815Z</time></trkpt><trkpt lat="42.819155" lon="11.5288217"><ele>1092.8</ele><time>2026-04-20T12:06:16.813Z</time></trkpt><trkpt lat="42.81924" lon="11.5288567"><ele>1090.2</ele><time>2026-04-20T12:06:17.814Z</time></trkpt><trkpt lat="42.81933" lon="11.528895"><ele>1087.6</ele><time>2026-04-20T12:06:18.813Z</time></trkpt><trkpt lat="42.8194267" lon="11.5289433"><ele>1085.0</ele><time>2026-04-20T12:06:19.813Z</time></trkpt><trkpt lat="42.8195283" lon="11.528995"><ele>1083.8</ele><time>2026-04-20T12:06:20.814Z</time></trkpt><trkpt lat="42.81963" lon="11.529045"><ele>1082.6</ele><time>2026-04-20T12:06:21.813Z</time></trkpt><trkpt lat="42.8197383" lon="11.52909"><ele>1081.4</ele><time>2026-04-20T12:06:22.813Z</time></trkpt><trkpt lat="42.8198433" lon="11.5291367"><ele>1080.2</ele><time>2026-04-20T12:06:23.813Z</time></trkpt><trkpt lat="42.819945" lon="11.5291883"><ele>1079.0</ele><time>2026-04-20T12:06:24.812Z</time></trkpt><trkpt lat="42.82004" lon="11.5292433"><ele>1079.0</ele><time>2026-04-20T12:06:25.813Z</time></trkpt><trkpt lat="42.82013" lon="11.5293017"><ele>1079.0</ele><time>2026-04-20T12:06:26.814Z</time></trkpt><trkpt lat="42.8202133" lon="11.5293533"><ele>1079.0</ele><time>2026-04-20T12:06:27.813Z</time></trkpt><trkpt lat="42.820295" lon="11.52939"><ele>1079.0</ele><time>2026-04-20T12:06:28.812Z</time></trkpt><trkpt lat="42.8203767" lon="11.52941"><ele>1079.0</ele><time>2026-04-20T12:06:29.81Z</time></trkpt><trkpt lat="42.8204533" lon="11.5294167"><ele>1079.0</ele><time>2026-04-20T12:06:30.81Z</time></trkpt><trkpt lat="42.8205283" lon="11.5294117"><ele>1078.8333333333335</ele><time>2026-04-20T12:06:31.811Z</time></trkpt><trkpt lat="42.8206017" lon="11.5293933"><ele>1078.6666666666667</ele><time>2026-04-20T12:06:32.811Z</time></trkpt><trkpt lat="42.82068" lon="11.5293633"><ele>1078.5</ele><time>2026-04-20T12:06:33.81Z</time></trkpt><trkpt lat="42.8207617" lon="11.529325"><ele>1078.3333333333333</ele><time>2026-04-20T12:06:34.812Z</time></trkpt><trkpt lat="42.8208483" lon="11.5292867"><ele>1078.1666666666665</ele><time>2026-04-20T12:06:35.813Z</time></trkpt><trkpt lat="42.8209317" lon="11.5292567"><ele>1078.0</ele><time>2026-04-20T12:06:36.814Z</time></trkpt><trkpt lat="42.8210167" lon="11.5292317"><ele>1075.8</ele><time>2026-04-20T12:06:37.813Z</time></trkpt><trkpt lat="42.8211033" lon="11.5292067"><ele>1073.6</ele><time>2026-04-20T12:06:38.814Z</time></trkpt><trkpt lat="42.821195" lon="11.529185"><ele>1071.4</ele><time>2026-04-20T12:06:39.812Z</time></trkpt><trkpt lat="42.821285" lon="11.529165"><ele>1069.2</ele><time>2026-04-20T12:06:40.81Z</time></trkpt><trkpt lat="42.821375" lon="11.52915"><ele>1067.0</ele><time>2026-04-20T12:06:41.812Z</time></trkpt><trkpt lat="42.821465" lon="11.5291417"><ele>1067.0</ele><time>2026-04-20T12:06:42.813Z</time></trkpt><trkpt lat="42.821555" lon="11.5291383"><ele>1067.0</ele><time>2026-04-20T12:06:43.813Z</time></trkpt><trkpt lat="42.82165" lon="11.529135"><ele>1067.0</ele><time>2026-04-20T12:06:44.814Z</time></trkpt><trkpt lat="42.8217467" lon="11.5291333"><ele>1067.0</ele><time>2026-04-20T12:06:45.811Z</time></trkpt><trkpt lat="42.82184" lon="11.5291333"><ele>1067.0</ele><time>2026-04-20T12:06:46.814Z</time></trkpt><trkpt lat="42.8219317" lon="11.5291317"><ele>1064.6</ele><time>2026-04-20T12:06:47.813Z</time></trkpt><trkpt lat="42.8220233" lon="11.5291283"><ele>1062.2</ele><time>2026-04-20T12:06:48.81Z</time></trkpt><trkpt lat="42.822115" lon="11.5291267"><ele>1059.8</ele><time>2026-04-20T12:06:49.814Z</time></trkpt><trkpt lat="42.8222033" lon="11.52914"><ele>1057.4</ele><time>2026-04-20T12:06:50.816Z</time></trkpt><trkpt lat="42.8222883" lon="11.5291683"><ele>1055.0</ele><time>2026-04-20T12:06:51.814Z</time></trkpt><trkpt lat="42.822375" lon="11.5292083"><ele>1055.0</ele><time>2026-04-20T12:06:52.812Z</time></trkpt><trkpt lat="42.8224583" lon="11.5292533"><ele>1055.0</ele><time>2026-04-20T12:06:53.814Z</time></trkpt><trkpt lat="42.8225417" lon="11.5293"><ele>1055.0</ele><time>2026-04-20T12:06:54.814Z</time></trkpt><trkpt lat="42.8226167" lon="11.5293567"><ele>1055.0</ele><time>2026-04-20T12:06:55.813Z</time></trkpt><trkpt lat="42.8227" lon="11.5294183"><ele>1055.0</ele><time>2026-04-20T12:06:56.815Z</time></trkpt><trkpt lat="42.82278" lon="11.5294883"><ele>1052.6</ele><time>2026-04-20T12:06:57.813Z</time></trkpt><trkpt lat="42.82286" lon="11.52956"><ele>1050.2</ele><time>2026-04-20T12:06:58.814Z</time></trkpt><trkpt lat="42.822945" lon="11.5296367"><ele>1047.8</ele><time>2026-04-20T12:06:59.813Z</time></trkpt><trkpt lat="42.82303" lon="11.529715"><ele>1045.4</ele><time>2026-04-20T12:07:00.813Z</time></trkpt><trkpt lat="42.8231133" lon="11.529795"><ele>1043.0</ele><time>2026-04-20T12:07:01.813Z</time></trkpt><trkpt lat="42.8231867" lon="11.529875"><ele>1043.0</ele><time>2026-04-20T12:07:02.814Z</time></trkpt><trkpt lat="42.823265" lon="11.5299533"><ele>1043.0</ele><time>2026-04-20T12:07:03.812Z</time></trkpt><trkpt lat="42.8233383" lon="11.53003"><ele>1043.0</ele><time>2026-04-20T12:07:04.814Z</time></trkpt><trkpt lat="42.823405" lon="11.530115"><ele>1043.0</ele><time>2026-04-20T12:07:05.813Z</time></trkpt><trkpt lat="42.8234717" lon="11.5302133"><ele>1043.0</ele><time>2026-04-20T12:07:06.813Z</time></trkpt><trkpt lat="42.823535" lon="11.5303183"><ele>1042.0</ele><time>2026-04-20T12:07:07.813Z</time></trkpt><trkpt lat="42.8235983" lon="11.5304217"><ele>1041.0</ele><time>2026-04-20T12:07:08.814Z</time></trkpt><trkpt lat="42.823655" lon="11.5305167"><ele>1040.0</ele><time>2026-04-20T12:07:09.813Z</time></trkpt><trkpt lat="42.8236917" lon="11.5306017"><ele>1039.0</ele><time>2026-04-20T12:07:10.814Z</time></trkpt><trkpt lat="42.8237083" lon="11.5307783"><ele>1038.0</ele><time>2026-04-20T12:07:12.814Z</time></trkpt><trkpt lat="42.8236833" lon="11.5308817"><ele>1038.0</ele><time>2026-04-20T12:07:13.813Z</time></trkpt><trkpt lat="42.823645" lon="11.5309817"><ele>1038.0</ele><time>2026-04-20T12:07:14.813Z</time></trkpt><trkpt lat="42.8236" lon="11.5310783"><ele>1038.0</ele><time>2026-04-20T12:07:15.814Z</time></trkpt><trkpt lat="42.8235583" lon="11.531175"><ele>1038.0</ele><time>2026-04-20T12:07:16.813Z</time></trkpt><trkpt lat="42.823525" lon="11.5312767"><ele>1038.0</ele><time>2026-04-20T12:07:17.814Z</time></trkpt><trkpt lat="42.8235017" lon="11.5313767"><ele>1038.0</ele><time>2026-04-20T12:07:18.813Z</time></trkpt><trkpt lat="42.82349" lon="11.5314767"><ele>1036.142857142857</ele><time>2026-04-20T12:07:19.812Z</time></trkpt><trkpt lat="42.823495" lon="11.5315767"><ele>1034.2857142857142</ele><time>2026-04-20T12:07:20.813Z</time></trkpt><trkpt lat="42.823515" lon="11.5316717"><ele>1032.4285714285713</ele><time>2026-04-20T12:07:21.813Z</time></trkpt><trkpt lat="42.8235467" lon="11.5317617"><ele>1030.5714285714284</ele><time>2026-04-20T12:07:22.812Z</time></trkpt><trkpt lat="42.8235817" lon="11.5318367"><ele>1028.7142857142858</ele><time>2026-04-20T12:07:23.812Z</time></trkpt><trkpt lat="42.8236267" lon="11.5318983"><ele>1026.8571428571427</ele><time>2026-04-20T12:07:24.812Z</time></trkpt><trkpt lat="42.8236817" lon="11.53195"><ele>1025.0</ele><time>2026-04-20T12:07:25.813Z</time></trkpt><trkpt lat="42.823745" lon="11.5319817"><ele>1025.0</ele><time>2026-04-20T12:07:26.81Z</time></trkpt><trkpt lat="42.82382" lon="11.5320033"><ele>1025.0</ele><time>2026-04-20T12:07:27.813Z</time></trkpt><trkpt lat="42.8239033" lon="11.53201"><ele>1025.0</ele><time>2026-04-20T12:07:28.812Z</time></trkpt><trkpt lat="42.82399" lon="11.5320117"><ele>1025.0</ele><time>2026-04-20T12:07:29.814Z</time></trkpt><trkpt lat="42.8240817" lon="11.5320117"><ele>1025.0</ele><time>2026-04-20T12:07:30.812Z</time></trkpt><trkpt lat="42.824175" lon="11.5320183"><ele>1025.0</ele><time>2026-04-20T12:07:31.812Z</time></trkpt><trkpt lat="42.8242667" lon="11.53203"><ele>1023.8333333333334</ele><time>2026-04-20T12:07:32.814Z</time></trkpt><trkpt lat="42.824355" lon="11.5320467"><ele>1022.6666666666667</ele><time>2026-04-20T12:07:33.812Z</time></trkpt><trkpt lat="42.82444" lon="11.5320667"><ele>1021.5</ele><time>2026-04-20T12:07:34.811Z</time></trkpt><trkpt lat="42.8245217" lon="11.5320883"><ele>1020.3333333333333</ele><time>2026-04-20T12:07:35.811Z</time></trkpt><trkpt lat="42.8246017" lon="11.5321033"><ele>1019.1666666666666</ele><time>2026-04-20T12:07:36.81Z</time></trkpt><trkpt lat="42.82468" lon="11.5321117"><ele>1018.0</ele><time>2026-04-20T12:07:37.813Z</time></trkpt><trkpt lat="42.8247567" lon="11.53211"><ele>1015.6666666666666</ele><time>2026-04-20T12:07:38.811Z</time></trkpt><trkpt lat="42.824835" lon="11.532105"><ele>1013.3333333333333</ele><time>2026-04-20T12:07:39.81Z</time></trkpt><trkpt lat="42.8249133" lon="11.5320917"><ele>1011.0</ele><time>2026-04-20T12:07:40.811Z</time></trkpt><trkpt lat="42.8249933" lon="11.5320783"><ele>1008.6666666666667</ele><time>2026-04-20T12:07:41.813Z</time></trkpt><trkpt lat="42.8250717" lon="11.5320667"><ele>1006.3333333333334</ele><time>2026-04-20T12:07:42.813Z</time></trkpt><trkpt lat="42.82515" lon="11.53205"><ele>1004.0</ele><time>2026-04-20T12:07:43.813Z</time></trkpt><trkpt lat="42.8252283" lon="11.5320283"><ele>1004.0000000000001</ele><time>2026-04-20T12:07:44.814Z</time></trkpt><trkpt lat="42.8253133" lon="11.5320117"><ele>1004.0</ele><time>2026-04-20T12:07:45.816Z</time></trkpt><trkpt lat="42.8253967" lon="11.532"><ele>1004.0</ele><time>2026-04-20T12:07:46.813Z</time></trkpt><trkpt lat="42.8254833" lon="11.531995"><ele>1004.0</ele><time>2026-04-20T12:07:47.812Z</time></trkpt><trkpt lat="42.8255683" lon="11.5319967"><ele>1004.0000000000001</ele><time>2026-04-20T12:07:48.813Z</time></trkpt><trkpt lat="42.8256467" lon="11.5319983"><ele>1004.0</ele><time>2026-04-20T12:07:49.813Z</time></trkpt><trkpt lat="42.8257267" lon="11.5320067"><ele>1003.9999999999999</ele><time>2026-04-20T12:07:50.814Z</time></trkpt><trkpt lat="42.8257983" lon="11.5320217"><ele>1004.0</ele><time>2026-04-20T12:07:51.813Z</time></trkpt><trkpt lat="42.8258633" lon="11.53205"><ele>1003.9999999999999</ele><time>2026-04-20T12:07:52.812Z</time></trkpt><trkpt lat="42.8259233" lon="11.5320883"><ele>1003.9999999999999</ele><time>2026-04-20T12:07:53.812Z</time></trkpt><trkpt lat="42.825985" lon="11.53213"><ele>1004.0</ele><time>2026-04-20T12:07:54.812Z</time></trkpt><trkpt lat="42.826045" lon="11.53217"><ele>1003.9999999999999</ele><time>2026-04-20T12:07:55.814Z</time></trkpt><trkpt lat="42.8261067" lon="11.5322267"><ele>1003.9999999999999</ele><time>2026-04-20T12:07:56.814Z</time></trkpt><trkpt lat="42.8261617" lon="11.532295"><ele>1000.2857142857142</ele><time>2026-04-20T12:07:57.813Z</time></trkpt><trkpt lat="42.82621" lon="11.532375"><ele>996.5714285714286</ele><time>2026-04-20T12:07:58.813Z</time></trkpt><trkpt lat="42.82625" lon="11.5324633"><ele>992.8571428571429</ele><time>2026-04-20T12:07:59.815Z</time></trkpt><trkpt lat="42.8262767" lon="11.5325533"><ele>989.1428571428571</ele><time>2026-04-20T12:08:00.814Z</time></trkpt><trkpt lat="42.826285" lon="11.5326533"><ele>985.4285714285716</ele><time>2026-04-20T12:08:01.814Z</time></trkpt><trkpt lat="42.8262833" lon="11.5327483"><ele>981.7142857142858</ele><time>2026-04-20T12:08:02.814Z</time></trkpt><trkpt lat="42.8262617" lon="11.53284"><ele>978.0</ele><time>2026-04-20T12:08:03.813Z</time></trkpt><trkpt lat="42.8262283" lon="11.5329183"><ele>978.8333333333334</ele><time>2026-04-20T12:08:04.813Z</time></trkpt><trkpt lat="42.8261767" lon="11.5329783"><ele>979.6666666666667</ele><time>2026-04-20T12:08:05.813Z</time></trkpt><trkpt lat="42.826055" lon="11.53305"><ele>980.5</ele><time>2026-04-20T12:08:07.814Z</time></trkpt><trkpt lat="42.8259833" lon="11.5330767"><ele>981.3333333333334</ele><time>2026-04-20T12:08:08.813Z</time></trkpt><trkpt lat="42.82591" lon="11.533105"><ele>982.1666666666667</ele><time>2026-04-20T12:08:09.812Z</time></trkpt><trkpt lat="42.825845" lon="11.533135"><ele>983.0</ele><time>2026-04-20T12:08:10.812Z</time></trkpt><trkpt lat="42.8257817" lon="11.5331633"><ele>983.0000000000001</ele><time>2026-04-20T12:08:11.814Z</time></trkpt><trkpt lat="42.8256783" lon="11.5332583"><ele>983.0</ele><time>2026-04-20T12:08:13.813Z</time></trkpt><trkpt lat="42.8256333" lon="11.53333"><ele>983.0</ele><time>2026-04-20T12:08:14.814Z</time></trkpt><trkpt lat="42.82559" lon="11.53341"><ele>983.0</ele><time>2026-04-20T12:08:15.813Z</time></trkpt><trkpt lat="42.825555" lon="11.5334967"><ele>983.0000000000001</ele><time>2026-04-20T12:08:16.813Z</time></trkpt><trkpt lat="42.82553" lon="11.5335917"><ele>983.0</ele><time>2026-04-20T12:08:17.813Z</time></trkpt><trkpt lat="42.8255183" lon="11.5336983"><ele>981.8333333333334</ele><time>2026-04-20T12:08:18.813Z</time></trkpt><trkpt lat="42.8255267" lon="11.5338117"><ele>980.6666666666667</ele><time>2026-04-20T12:08:19.813Z</time></trkpt><trkpt lat="42.8255383" lon="11.53393"><ele>979.5</ele><time>2026-04-20T12:08:20.815Z</time></trkpt><trkpt lat="42.8255433" lon="11.53405"><ele>978.3333333333333</ele><time>2026-04-20T12:08:21.812Z</time></trkpt><trkpt lat="42.82555" lon="11.5341667"><ele>977.1666666666666</ele><time>2026-04-20T12:08:22.813Z</time></trkpt><trkpt lat="42.8255567" lon="11.5342733"><ele>976.0</ele><time>2026-04-20T12:08:23.814Z</time></trkpt><trkpt lat="42.825575" lon="11.5343767"><ele>975.9999999999999</ele><time>2026-04-20T12:08:24.814Z</time></trkpt><trkpt lat="42.825605" lon="11.534475"><ele>976.0</ele><time>2026-04-20T12:08:25.813Z</time></trkpt><trkpt lat="42.8256433" lon="11.53456"><ele>976.0</ele><time>2026-04-20T12:08:26.814Z</time></trkpt><trkpt lat="42.8257" lon="11.5346233"><ele>976.0</ele><time>2026-04-20T12:08:27.814Z</time></trkpt><trkpt lat="42.8257633" lon="11.53467"><ele>975.9999999999999</ele><time>2026-04-20T12:08:28.813Z</time></trkpt><trkpt lat="42.82584" lon="11.5347033"><ele>976.0</ele><time>2026-04-20T12:08:29.812Z</time></trkpt><trkpt lat="42.8259167" lon="11.53472"><ele>975.7142857142856</ele><time>2026-04-20T12:08:30.811Z</time></trkpt><trkpt lat="42.825995" lon="11.5347183"><ele>975.4285714285713</ele><time>2026-04-20T12:08:31.812Z</time></trkpt><trkpt lat="42.8260667" lon="11.534705"><ele>975.1428571428571</ele><time>2026-04-20T12:08:32.811Z</time></trkpt><trkpt lat="42.8261367" lon="11.534685"><ele>974.8571428571428</ele><time>2026-04-20T12:08:33.813Z</time></trkpt><trkpt lat="42.8262033" lon="11.534655"><ele>974.5714285714284</ele><time>2026-04-20T12:08:34.815Z</time></trkpt><trkpt lat="42.8262717" lon="11.53462"><ele>974.2857142857143</ele><time>2026-04-20T12:08:35.815Z</time></trkpt><trkpt lat="42.826345" lon="11.5345867"><ele>974.0</ele><time>2026-04-20T12:08:36.814Z</time></trkpt><trkpt lat="42.8264233" lon="11.53455"><ele>972.4000000000001</ele><time>2026-04-20T12:08:37.812Z</time></trkpt><trkpt lat="42.82651" lon="11.534505"><ele>970.8000000000001</ele><time>2026-04-20T12:08:38.811Z</time></trkpt><trkpt lat="42.82661" lon="11.5344633"><ele>969.1999999999999</ele><time>2026-04-20T12:08:39.813Z</time></trkpt><trkpt lat="42.826715" lon="11.5344267"><ele>967.5999999999999</ele><time>2026-04-20T12:08:40.812Z</time></trkpt><trkpt lat="42.82682" lon="11.5343867"><ele>966.0</ele><time>2026-04-20T12:08:41.812Z</time></trkpt><trkpt lat="42.8269233" lon="11.534345"><ele>964.5</ele><time>2026-04-20T12:08:42.811Z</time></trkpt><trkpt lat="42.8270267" lon="11.5343083"><ele>963.0</ele><time>2026-04-20T12:08:43.813Z</time></trkpt><trkpt lat="42.8271317" lon="11.5342783"><ele>961.5</ele><time>2026-04-20T12:08:44.813Z</time></trkpt><trkpt lat="42.8272467" lon="11.5342517"><ele>960.0</ele><time>2026-04-20T12:08:45.814Z</time></trkpt><trkpt lat="42.8273683" lon="11.5342283"><ele>960.0</ele><time>2026-04-20T12:08:46.813Z</time></trkpt><trkpt lat="42.8274917" lon="11.5342017"><ele>960.0</ele><time>2026-04-20T12:08:47.813Z</time></trkpt><trkpt lat="42.8276133" lon="11.5341733"><ele>960.0</ele><time>2026-04-20T12:08:48.813Z</time></trkpt><trkpt lat="42.8277317" lon="11.5341483"><ele>960.0</ele><time>2026-04-20T12:08:49.811Z</time></trkpt><trkpt lat="42.82785" lon="11.5341183"><ele>959.25</ele><time>2026-04-20T12:08:50.814Z</time></trkpt><trkpt lat="42.8279683" lon="11.534085"><ele>958.5</ele><time>2026-04-20T12:08:51.812Z</time></trkpt><trkpt lat="42.82809" lon="11.53406"><ele>957.75</ele><time>2026-04-20T12:08:52.812Z</time></trkpt><trkpt lat="42.8282117" lon="11.534045"><ele>957.0</ele><time>2026-04-20T12:08:53.813Z</time></trkpt><trkpt lat="42.82834" lon="11.534035"><ele>957.0</ele><time>2026-04-20T12:08:54.813Z</time></trkpt><trkpt lat="42.8284733" lon="11.5340267"><ele>957.0</ele><time>2026-04-20T12:08:55.812Z</time></trkpt><trkpt lat="42.82861" lon="11.53402"><ele>957.0</ele><time>2026-04-20T12:08:56.814Z</time></trkpt><trkpt lat="42.82874" lon="11.5340133"><ele>957.0</ele><time>2026-04-20T12:08:57.813Z</time></trkpt><trkpt lat="42.8288667" lon="11.5340067"><ele>954.6</ele><time>2026-04-20T12:08:58.814Z</time></trkpt><trkpt lat="42.8289833" lon="11.5340117"><ele>952.2</ele><time>2026-04-20T12:08:59.813Z</time></trkpt><trkpt lat="42.8290917" lon="11.5340183"><ele>949.8</ele><time>2026-04-20T12:09:00.814Z</time></trkpt><trkpt lat="42.8291867" lon="11.5340333"><ele>947.4</ele><time>2026-04-20T12:09:01.813Z</time></trkpt><trkpt lat="42.8292783" lon="11.5340533"><ele>945.0</ele><time>2026-04-20T12:09:02.814Z</time></trkpt><trkpt lat="42.829375" lon="11.5340783"><ele>942.1666666666666</ele><time>2026-04-20T12:09:03.81Z</time></trkpt><trkpt lat="42.82946" lon="11.534125"><ele>939.3333333333333</ele><time>2026-04-20T12:09:04.813Z</time></trkpt><trkpt lat="42.82953" lon="11.5341833"><ele>936.5</ele><time>2026-04-20T12:09:05.813Z</time></trkpt><trkpt lat="42.8295933" lon="11.53426"><ele>933.6666666666666</ele><time>2026-04-20T12:09:06.814Z</time></trkpt><trkpt lat="42.82964" lon="11.5343617"><ele>930.8333333333333</ele><time>2026-04-20T12:09:07.813Z</time></trkpt><trkpt lat="42.8296833" lon="11.5344717"><ele>928.0</ele><time>2026-04-20T12:09:08.814Z</time></trkpt><trkpt lat="42.82973" lon="11.534595"><ele>928.0</ele><time>2026-04-20T12:09:09.81Z</time></trkpt><trkpt lat="42.82978" lon="11.5347233"><ele>928.0</ele><time>2026-04-20T12:09:10.814Z</time></trkpt><trkpt lat="42.8298333" lon="11.53486"><ele>928.0</ele><time>2026-04-20T12:09:11.812Z</time></trkpt><trkpt lat="42.82989" lon="11.5349967"><ele>928.0</ele><time>2026-04-20T12:09:12.812Z</time></trkpt><trkpt lat="42.8299483" lon="11.53514"><ele>928.0</ele><time>2026-04-20T12:09:13.814Z</time></trkpt><trkpt lat="42.830005" lon="11.5352817"><ele>928.0</ele><time>2026-04-20T12:09:14.815Z</time></trkpt><trkpt lat="42.83006" lon="11.5354217"><ele>928.0</ele><time>2026-04-20T12:09:15.809Z</time></trkpt><trkpt lat="42.83011" lon="11.5355567"><ele>928.0</ele><time>2026-04-20T12:09:16.813Z</time></trkpt><trkpt lat="42.830155" lon="11.5356833"><ele>928.0</ele><time>2026-04-20T12:09:17.814Z</time></trkpt><trkpt lat="42.8302017" lon="11.5358017"><ele>924.5999999999999</ele><time>2026-04-20T12:09:18.813Z</time></trkpt><trkpt lat="42.83025" lon="11.5359117"><ele>921.1999999999999</ele><time>2026-04-20T12:09:19.814Z</time></trkpt><trkpt lat="42.830295" lon="11.5360233"><ele>917.8</ele><time>2026-04-20T12:09:20.815Z</time></trkpt><trkpt lat="42.8303333" lon="11.5361433"><ele>914.4</ele><time>2026-04-20T12:09:21.813Z</time></trkpt><trkpt lat="42.830375" lon="11.5362767"><ele>911.0</ele><time>2026-04-20T12:09:22.814Z</time></trkpt><trkpt lat="42.8304267" lon="11.5364217"><ele>911.0</ele><time>2026-04-20T12:09:23.812Z</time></trkpt><trkpt lat="42.8304817" lon="11.5365733"><ele>911.0</ele><time>2026-04-20T12:09:24.813Z</time></trkpt><trkpt lat="42.830545" lon="11.5367267"><ele>911.0</ele><time>2026-04-20T12:09:25.813Z</time></trkpt><trkpt lat="42.8306133" lon="11.5368733"><ele>911.0</ele><time>2026-04-20T12:09:26.813Z</time></trkpt><trkpt lat="42.8306817" lon="11.5370117"><ele>911.4</ele><time>2026-04-20T12:09:27.813Z</time></trkpt><trkpt lat="42.8307533" lon="11.5371333"><ele>911.8</ele><time>2026-04-20T12:09:28.815Z</time></trkpt><trkpt lat="42.8308267" lon="11.537245"><ele>912.1999999999999</ele><time>2026-04-20T12:09:29.813Z</time></trkpt><trkpt lat="42.8309" lon="11.5373583"><ele>912.5999999999999</ele><time>2026-04-20T12:09:30.815Z</time></trkpt><trkpt lat="42.8309767" lon="11.5374717"><ele>913.0</ele><time>2026-04-20T12:09:31.813Z</time></trkpt><trkpt lat="42.8310567" lon="11.5375867"><ele>911.0</ele><time>2026-04-20T12:09:32.814Z</time></trkpt><trkpt lat="42.8311333" lon="11.5377067"><ele>909.0</ele><time>2026-04-20T12:09:33.813Z</time></trkpt><trkpt lat="42.8312117" lon="11.537825"><ele>907.0</ele><time>2026-04-20T12:09:34.812Z</time></trkpt><trkpt lat="42.8312917" lon="11.537945"><ele>905.0</ele><time>2026-04-20T12:09:35.811Z</time></trkpt><trkpt lat="42.831375" lon="11.5380633"><ele>905.0</ele><time>2026-04-20T12:09:36.811Z</time></trkpt><trkpt lat="42.8314533" lon="11.5381767"><ele>905.0</ele><time>2026-04-20T12:09:37.81Z</time></trkpt><trkpt lat="42.831525" lon="11.538285"><ele>905.0</ele><time>2026-04-20T12:09:38.814Z</time></trkpt><trkpt lat="42.8315917" lon="11.5383867"><ele>905.0</ele><time>2026-04-20T12:09:39.813Z</time></trkpt><trkpt lat="42.8316567" lon="11.5384783"><ele>905.0</ele><time>2026-04-20T12:09:40.812Z</time></trkpt><trkpt lat="42.8317133" lon="11.5385617"><ele>905.0000000000001</ele><time>2026-04-20T12:09:41.813Z</time></trkpt><trkpt lat="42.8317633" lon="11.5386417"><ele>905.0</ele><time>2026-04-20T12:09:42.815Z</time></trkpt><trkpt lat="42.8317983" lon="11.5387317"><ele>905.0</ele><time>2026-04-20T12:09:43.817Z</time></trkpt><trkpt lat="42.8318267" lon="11.5388317"><ele>905.0</ele><time>2026-04-20T12:09:44.818Z</time></trkpt><trkpt lat="42.83185" lon="11.5389383"><ele>905.0000000000001</ele><time>2026-04-20T12:09:45.813Z</time></trkpt><trkpt lat="42.8318683" lon="11.5390467"><ele>905.0</ele><time>2026-04-20T12:09:46.813Z</time></trkpt><trkpt lat="42.8318867" lon="11.539155"><ele>902.5000000000001</ele><time>2026-04-20T12:09:47.81Z</time></trkpt><trkpt lat="42.83191" lon="11.539255"><ele>900.0</ele><time>2026-04-20T12:09:48.81Z</time></trkpt><trkpt lat="42.8319483" lon="11.5393467"><ele>897.5</ele><time>2026-04-20T12:09:49.811Z</time></trkpt><trkpt lat="42.832" lon="11.539425"><ele>895.0</ele><time>2026-04-20T12:09:50.813Z</time></trkpt><trkpt lat="42.832065" lon="11.5394933"><ele>892.5000000000001</ele><time>2026-04-20T12:09:51.81Z</time></trkpt><trkpt lat="42.8321417" lon="11.53955"><ele>890.0</ele><time>2026-04-20T12:09:52.811Z</time></trkpt><trkpt lat="42.8322267" lon="11.5395983"><ele>889.2</ele><time>2026-04-20T12:09:53.81Z</time></trkpt><trkpt lat="42.8323167" lon="11.5396483"><ele>888.4</ele><time>2026-04-20T12:09:54.816Z</time></trkpt><trkpt lat="42.8324117" lon="11.5397017"><ele>887.5999999999999</ele><time>2026-04-20T12:09:55.813Z</time></trkpt><trkpt lat="42.8325067" lon="11.5397567"><ele>886.8</ele><time>2026-04-20T12:09:56.814Z</time></trkpt><trkpt lat="42.8325983" lon="11.539805"><ele>886.0</ele><time>2026-04-20T12:09:57.813Z</time></trkpt><trkpt lat="42.8326867" lon="11.5398483"><ele>885.1666666666666</ele><time>2026-04-20T12:09:58.809Z</time></trkpt><trkpt lat="42.83277" lon="11.5398933"><ele>884.3333333333333</ele><time>2026-04-20T12:09:59.812Z</time></trkpt><trkpt lat="42.8328467" lon="11.5399367"><ele>883.5</ele><time>2026-04-20T12:10:00.814Z</time></trkpt><trkpt lat="42.832925" lon="11.5399833"><ele>882.6666666666667</ele><time>2026-04-20T12:10:01.814Z</time></trkpt><trkpt lat="42.8330033" lon="11.540035"><ele>881.8333333333334</ele><time>2026-04-20T12:10:02.815Z</time></trkpt><trkpt lat="42.83308" lon="11.5400983"><ele>881.0</ele><time>2026-04-20T12:10:03.814Z</time></trkpt><trkpt lat="42.8331617" lon="11.5401733"><ele>881.0</ele><time>2026-04-20T12:10:04.813Z</time></trkpt><trkpt lat="42.8332417" lon="11.5402533"><ele>880.9999999999999</ele><time>2026-04-20T12:10:05.814Z</time></trkpt><trkpt lat="42.8333267" lon="11.5403367"><ele>880.9999999999999</ele><time>2026-04-20T12:10:06.812Z</time></trkpt><trkpt lat="42.83341" lon="11.54042"><ele>881.0</ele><time>2026-04-20T12:10:07.813Z</time></trkpt><trkpt lat="42.83349" lon="11.5405067"><ele>881.0</ele><time>2026-04-20T12:10:08.815Z</time></trkpt><trkpt lat="42.83357" lon="11.5405983"><ele>880.1999999999999</ele><time>2026-04-20T12:10:09.814Z</time></trkpt><trkpt lat="42.8336467" lon="11.540695"><ele>879.3999999999999</ele><time>2026-04-20T12:10:10.814Z</time></trkpt><trkpt lat="42.8337233" lon="11.5407933"><ele>878.6</ele><time>2026-04-20T12:10:11.813Z</time></trkpt><trkpt lat="42.8338017" lon="11.5408933"><ele>877.8</ele><time>2026-04-20T12:10:12.812Z</time></trkpt><trkpt lat="42.8338783" lon="11.5409983"><ele>877.0</ele><time>2026-04-20T12:10:13.814Z</time></trkpt><trkpt lat="42.8339533" lon="11.5411083"><ele>877.4000000000001</ele><time>2026-04-20T12:10:14.814Z</time></trkpt><trkpt lat="42.8340233" lon="11.54122"><ele>877.8000000000001</ele><time>2026-04-20T12:10:15.812Z</time></trkpt><trkpt lat="42.8340733" lon="11.5413383"><ele>878.2</ele><time>2026-04-20T12:10:16.814Z</time></trkpt><trkpt lat="42.834115" lon="11.541465"><ele>878.6</ele><time>2026-04-20T12:10:17.81Z</time></trkpt><trkpt lat="42.8341433" lon="11.54161"><ele>879.0</ele><time>2026-04-20T12:10:18.811Z</time></trkpt><trkpt lat="42.834165" lon="11.54177"><ele>879.0</ele><time>2026-04-20T12:10:19.811Z</time></trkpt><trkpt lat="42.83418" lon="11.5419367"><ele>879.0</ele><time>2026-04-20T12:10:20.812Z</time></trkpt><trkpt lat="42.8341983" lon="11.542105"><ele>879.0</ele><time>2026-04-20T12:10:21.812Z</time></trkpt><trkpt lat="42.8342183" lon="11.54228"><ele>879.0</ele><time>2026-04-20T12:10:22.811Z</time></trkpt><trkpt lat="42.8342367" lon="11.5424567"><ele>878.0</ele><time>2026-04-20T12:10:23.812Z</time></trkpt><trkpt lat="42.834255" lon="11.5426383"><ele>877.0</ele><time>2026-04-20T12:10:24.813Z</time></trkpt><trkpt lat="42.8342733" lon="11.5428183"><ele>876.0</ele><time>2026-04-20T12:10:25.814Z</time></trkpt><trkpt lat="42.8342883" lon="11.542995"><ele>875.0</ele><time>2026-04-20T12:10:26.814Z</time></trkpt><trkpt lat="42.8342933" lon="11.5431617"><ele>873.4</ele><time>2026-04-20T12:10:27.813Z</time></trkpt><trkpt lat="42.83429" lon="11.5433183"><ele>871.8</ele><time>2026-04-20T12:10:28.81Z</time></trkpt><trkpt lat="42.8342767" lon="11.54346"><ele>870.2</ele><time>2026-04-20T12:10:29.81Z</time></trkpt><trkpt lat="42.8342417" lon="11.5435833"><ele>868.6</ele><time>2026-04-20T12:10:30.81Z</time></trkpt><trkpt lat="42.8341867" lon="11.5436967"><ele>867.0</ele><time>2026-04-20T12:10:31.814Z</time></trkpt><trkpt lat="42.83413" lon="11.5438033"><ele>866.5</ele><time>2026-04-20T12:10:32.814Z</time></trkpt><trkpt lat="42.8340717" lon="11.5439067"><ele>866.0</ele><time>2026-04-20T12:10:33.81Z</time></trkpt><trkpt lat="42.8340167" lon="11.5440067"><ele>865.5</ele><time>2026-04-20T12:10:34.81Z</time></trkpt><trkpt lat="42.8339683" lon="11.5441067"><ele>865.0</ele><time>2026-04-20T12:10:35.811Z</time></trkpt><trkpt lat="42.833925" lon="11.5442067"><ele>864.5</ele><time>2026-04-20T12:10:36.81Z</time></trkpt><trkpt lat="42.8338867" lon="11.54431"><ele>864.0</ele><time>2026-04-20T12:10:37.812Z</time></trkpt><trkpt lat="42.8338583" lon="11.5444217"><ele>864.0</ele><time>2026-04-20T12:10:38.81Z</time></trkpt><trkpt lat="42.833835" lon="11.5445383"><ele>864.0000000000001</ele><time>2026-04-20T12:10:39.81Z</time></trkpt><trkpt lat="42.8338217" lon="11.5446633"><ele>864.0000000000001</ele><time>2026-04-20T12:10:40.811Z</time></trkpt><trkpt lat="42.833815" lon="11.544795"><ele>864.0</ele><time>2026-04-20T12:10:41.813Z</time></trkpt><trkpt lat="42.833815" lon="11.5449333"><ele>864.0</ele><time>2026-04-20T12:10:42.813Z</time></trkpt><trkpt lat="42.833815" lon="11.5450667"><ele>863.4000000000001</ele><time>2026-04-20T12:10:43.814Z</time></trkpt><trkpt lat="42.8338167" lon="11.545195"><ele>862.8000000000001</ele><time>2026-04-20T12:10:44.813Z</time></trkpt><trkpt lat="42.8338167" lon="11.5453167"><ele>862.1999999999999</ele><time>2026-04-20T12:10:45.814Z</time></trkpt><trkpt lat="42.8338183" lon="11.5454367"><ele>861.5999999999999</ele><time>2026-04-20T12:10:46.814Z</time></trkpt><trkpt lat="42.8338267" lon="11.5455567"><ele>861.0</ele><time>2026-04-20T12:10:47.812Z</time></trkpt><trkpt lat="42.8338583" lon="11.5456717"><ele>860.0</ele><time>2026-04-20T12:10:48.812Z</time></trkpt><trkpt lat="42.833905" lon="11.5457767"><ele>859.0</ele><time>2026-04-20T12:10:49.813Z</time></trkpt><trkpt lat="42.833965" lon="11.545865"><ele>858.0</ele><time>2026-04-20T12:10:50.814Z</time></trkpt><trkpt lat="42.8340267" lon="11.54594"><ele>857.0</ele><time>2026-04-20T12:10:51.813Z</time></trkpt><trkpt lat="42.8340867" lon="11.546005"><ele>856.0</ele><time>2026-04-20T12:10:52.813Z</time></trkpt><trkpt lat="42.8341417" lon="11.5460583"><ele>855.0</ele><time>2026-04-20T12:10:53.812Z</time></trkpt><trkpt lat="42.8341967" lon="11.5461017"><ele>855.0</ele><time>2026-04-20T12:10:54.815Z</time></trkpt><trkpt lat="42.8342967" lon="11.5461667"><ele>855.0</ele><time>2026-04-20T12:10:56.814Z</time></trkpt><trkpt lat="42.834375" lon="11.5462267"><ele>855.0</ele><time>2026-04-20T12:10:58.815Z</time></trkpt><trkpt lat="42.8344333" lon="11.5462867"><ele>855.0</ele><time>2026-04-20T12:11:00.811Z</time></trkpt><trkpt lat="42.834525" lon="11.5463367"><ele>855.0</ele><time>2026-04-20T12:11:21.809Z</time></trkpt><trkpt lat="42.8346317" lon="11.5463517"><ele>855.5</ele><time>2026-04-20T12:11:23.811Z</time></trkpt><trkpt lat="42.8346983" lon="11.5463733"><ele>856.0</ele><time>2026-04-20T12:11:24.813Z</time></trkpt><trkpt lat="42.8347733" lon="11.5464067"><ele>856.5</ele><time>2026-04-20T12:11:25.814Z</time></trkpt><trkpt lat="42.8348583" lon="11.5464533"><ele>857.0</ele><time>2026-04-20T12:11:26.814Z</time></trkpt><trkpt lat="42.83494" lon="11.5465067"><ele>857.5</ele><time>2026-04-20T12:11:27.814Z</time></trkpt><trkpt lat="42.8350233" lon="11.5465583"><ele>858.0</ele><time>2026-04-20T12:11:28.813Z</time></trkpt><trkpt lat="42.83511" lon="11.546605"><ele>858.5999999999999</ele><time>2026-04-20T12:11:29.815Z</time></trkpt><trkpt lat="42.8351983" lon="11.5466517"><ele>859.1999999999999</ele><time>2026-04-20T12:11:30.81Z</time></trkpt><trkpt lat="42.83529" lon="11.5467"><ele>859.8</ele><time>2026-04-20T12:11:31.811Z</time></trkpt><trkpt lat="42.835385" lon="11.54675"><ele>860.4</ele><time>2026-04-20T12:11:32.812Z</time></trkpt><trkpt lat="42.835485" lon="11.5468033"><ele>861.0</ele><time>2026-04-20T12:11:33.813Z</time></trkpt><trkpt lat="42.8355883" lon="11.546855"><ele>861.0</ele><time>2026-04-20T12:11:34.814Z</time></trkpt><trkpt lat="42.8356917" lon="11.54691"><ele>860.9999999999999</ele><time>2026-04-20T12:11:35.814Z</time></trkpt><trkpt lat="42.8357917" lon="11.5469683"><ele>860.9999999999999</ele><time>2026-04-20T12:11:36.813Z</time></trkpt><trkpt lat="42.835895" lon="11.547035"><ele>861.0</ele><time>2026-04-20T12:11:37.814Z</time></trkpt><trkpt lat="42.8359933" lon="11.5471117"><ele>861.0</ele><time>2026-04-20T12:11:38.814Z</time></trkpt><trkpt lat="42.8360917" lon="11.5471933"><ele>863.75</ele><time>2026-04-20T12:11:39.814Z</time></trkpt><trkpt lat="42.83619" lon="11.547275"><ele>866.5</ele><time>2026-04-20T12:11:40.813Z</time></trkpt><trkpt lat="42.8362917" lon="11.54735"><ele>869.25</ele><time>2026-04-20T12:11:41.815Z</time></trkpt><trkpt lat="42.8363917" lon="11.547415"><ele>872.0</ele><time>2026-04-20T12:11:42.814Z</time></trkpt><trkpt lat="42.8364933" lon="11.5474783"><ele>872.0</ele><time>2026-04-20T12:11:43.815Z</time></trkpt><trkpt lat="42.836595" lon="11.5475283"><ele>872.0</ele><time>2026-04-20T12:11:44.813Z</time></trkpt><trkpt lat="42.8366967" lon="11.5475633"><ele>872.0</ele><time>2026-04-20T12:11:45.813Z</time></trkpt><trkpt lat="42.8368017" lon="11.547585"><ele>872.0</ele><time>2026-04-20T12:11:46.814Z</time></trkpt><trkpt lat="42.836905" lon="11.5475933"><ele>872.0</ele><time>2026-04-20T12:11:47.814Z</time></trkpt><trkpt lat="42.837005" lon="11.5475933"><ele>873.5000000000001</ele><time>2026-04-20T12:11:48.813Z</time></trkpt><trkpt lat="42.8371" lon="11.5475817"><ele>875.0</ele><time>2026-04-20T12:11:49.814Z</time></trkpt><trkpt lat="42.8371833" lon="11.5475583"><ele>876.5</ele><time>2026-04-20T12:11:50.815Z</time></trkpt><trkpt lat="42.83726" lon="11.5475167"><ele>878.0</ele><time>2026-04-20T12:11:51.816Z</time></trkpt><trkpt lat="42.8373283" lon="11.5474683"><ele>879.5000000000001</ele><time>2026-04-20T12:11:52.814Z</time></trkpt><trkpt lat="42.8373917" lon="11.5474033"><ele>881.0</ele><time>2026-04-20T12:11:53.814Z</time></trkpt><trkpt lat="42.8374567" lon="11.5473333"><ele>881.0000000000001</ele><time>2026-04-20T12:11:54.814Z</time></trkpt><trkpt lat="42.8375233" lon="11.5472783"><ele>881.0</ele><time>2026-04-20T12:11:55.813Z</time></trkpt><trkpt lat="42.837595" lon="11.5472467"><ele>881.0</ele><time>2026-04-20T12:11:56.814Z</time></trkpt><trkpt lat="42.8376733" lon="11.5472333"><ele>881.0</ele><time>2026-04-20T12:11:57.814Z</time></trkpt><trkpt lat="42.8377567" lon="11.54723"><ele>881.0000000000001</ele><time>2026-04-20T12:11:58.814Z</time></trkpt><trkpt lat="42.8378333" lon="11.5472117"><ele>881.0</ele><time>2026-04-20T12:11:59.814Z</time></trkpt><trkpt lat="42.837905" lon="11.5471667"><ele>882.3333333333334</ele><time>2026-04-20T12:12:00.814Z</time></trkpt><trkpt lat="42.8379717" lon="11.5470983"><ele>883.6666666666667</ele><time>2026-04-20T12:12:01.814Z</time></trkpt><trkpt lat="42.8380383" lon="11.5470383"><ele>885.0</ele><time>2026-04-20T12:12:02.816Z</time></trkpt><trkpt lat="42.8381083" lon="11.5469967"><ele>886.3333333333333</ele><time>2026-04-20T12:12:03.811Z</time></trkpt><trkpt lat="42.8381783" lon="11.5469683"><ele>887.6666666666666</ele><time>2026-04-20T12:12:04.81Z</time></trkpt><trkpt lat="42.83826" lon="11.54697"><ele>889.0</ele><time>2026-04-20T12:12:05.814Z</time></trkpt><trkpt lat="42.8383467" lon="11.546975"><ele>889.0</ele><time>2026-04-20T12:12:06.811Z</time></trkpt><trkpt lat="42.83844" lon="11.5469783"><ele>889.0</ele><time>2026-04-20T12:12:07.812Z</time></trkpt><trkpt lat="42.8385517" lon="11.54698"><ele>889.0</ele><time>2026-04-20T12:12:08.813Z</time></trkpt><trkpt lat="42.8386783" lon="11.5469883"><ele>889.0</ele><time>2026-04-20T12:12:09.813Z</time></trkpt><trkpt lat="42.8388033" lon="11.5469933"><ele>888.6</ele><time>2026-04-20T12:12:10.817Z</time></trkpt><trkpt lat="42.8389217" lon="11.547005"><ele>888.2</ele><time>2026-04-20T12:12:11.814Z</time></trkpt><trkpt lat="42.83903" lon="11.54703"><ele>887.8000000000001</ele><time>2026-04-20T12:12:12.815Z</time></trkpt><trkpt lat="42.83913" lon="11.5470817"><ele>887.4000000000001</ele><time>2026-04-20T12:12:13.815Z</time></trkpt><trkpt lat="42.8392233" lon="11.5471533"><ele>887.0</ele><time>2026-04-20T12:12:14.815Z</time></trkpt><trkpt lat="42.8393083" lon="11.5472333"><ele>889.5000000000001</ele><time>2026-04-20T12:12:15.814Z</time></trkpt><trkpt lat="42.8393883" lon="11.5473083"><ele>892.0</ele><time>2026-04-20T12:12:16.814Z</time></trkpt><trkpt lat="42.839455" lon="11.547375"><ele>894.5</ele><time>2026-04-20T12:12:17.813Z</time></trkpt><trkpt lat="42.8395117" lon="11.5474333"><ele>897.0</ele><time>2026-04-20T12:12:18.814Z</time></trkpt><trkpt lat="42.8396117" lon="11.5474833"><ele>899.5000000000001</ele><time>2026-04-20T12:12:20.814Z</time></trkpt><trkpt lat="42.839675" lon="11.547455"><ele>902.0</ele><time>2026-04-20T12:12:21.814Z</time></trkpt><trkpt lat="42.83974" lon="11.5474067"><ele>902.0000000000001</ele><time>2026-04-20T12:12:22.814Z</time></trkpt><trkpt lat="42.839805" lon="11.54734"><ele>902.0</ele><time>2026-04-20T12:12:23.815Z</time></trkpt><trkpt lat="42.8398633" lon="11.5472517"><ele>902.0</ele><time>2026-04-20T12:12:24.813Z</time></trkpt><trkpt lat="42.83992" lon="11.5471567"><ele>902.0</ele><time>2026-04-20T12:12:25.814Z</time></trkpt><trkpt lat="42.8399767" lon="11.5470617"><ele>902.0000000000001</ele><time>2026-04-20T12:12:26.813Z</time></trkpt><trkpt lat="42.8400283" lon="11.5469683"><ele>902.0</ele><time>2026-04-20T12:12:27.814Z</time></trkpt><trkpt lat="42.840085" lon="11.5468833"><ele>902.2</ele><time>2026-04-20T12:12:28.814Z</time></trkpt><trkpt lat="42.8401467" lon="11.5468083"><ele>902.4000000000001</ele><time>2026-04-20T12:12:29.817Z</time></trkpt><trkpt lat="42.840215" lon="11.546745"><ele>902.5999999999999</ele><time>2026-04-20T12:12:30.813Z</time></trkpt><trkpt lat="42.84028" lon="11.5466967"><ele>902.8</ele><time>2026-04-20T12:12:31.813Z</time></trkpt><trkpt lat="42.8403883" lon="11.54662"><ele>903.0</ele><time>2026-04-20T12:12:33.814Z</time></trkpt><trkpt lat="42.8405017" lon="11.5465617"><ele>903.0</ele><time>2026-04-20T12:12:35.814Z</time></trkpt><trkpt lat="42.8406333" lon="11.5465633"><ele>903.0</ele><time>2026-04-20T12:12:37.814Z</time></trkpt><trkpt lat="42.8407067" lon="11.54659"><ele>903.0</ele><time>2026-04-20T12:12:38.812Z</time></trkpt><trkpt lat="42.8407933" lon="11.546615"><ele>903.0</ele><time>2026-04-20T12:12:39.811Z</time></trkpt><trkpt lat="42.8408933" lon="11.54663"><ele>903.0</ele><time>2026-04-20T12:12:40.814Z</time></trkpt><trkpt lat="42.840995" lon="11.546645"><ele>902.4</ele><time>2026-04-20T12:12:41.815Z</time></trkpt><trkpt lat="42.84109" lon="11.546655"><ele>901.8</ele><time>2026-04-20T12:12:42.813Z</time></trkpt><trkpt lat="42.8412" lon="11.5466633"><ele>901.2</ele><time>2026-04-20T12:12:43.814Z</time></trkpt><trkpt lat="42.8413067" lon="11.5466617"><ele>900.6</ele><time>2026-04-20T12:12:44.812Z</time></trkpt><trkpt lat="42.8414033" lon="11.5466467"><ele>900.0</ele><time>2026-04-20T12:12:45.812Z</time></trkpt><trkpt lat="42.8415017" lon="11.5466283"><ele>900.0</ele><time>2026-04-20T12:12:46.814Z</time></trkpt><trkpt lat="42.8415933" lon="11.546615"><ele>900.0</ele><time>2026-04-20T12:12:47.811Z</time></trkpt><trkpt lat="42.8416733" lon="11.5466183"><ele>900.0</ele><time>2026-04-20T12:12:48.814Z</time></trkpt><trkpt lat="42.8417417" lon="11.5466283"><ele>900.0</ele><time>2026-04-20T12:12:49.814Z</time></trkpt><trkpt lat="42.8418717" lon="11.54667"><ele>900.0</ele><time>2026-04-20T12:12:51.814Z</time></trkpt><trkpt lat="42.8419483" lon="11.5466917"><ele>897.6666666666666</ele><time>2026-04-20T12:12:52.813Z</time></trkpt><trkpt lat="42.8420267" lon="11.5467167"><ele>895.3333333333333</ele><time>2026-04-20T12:12:53.814Z</time></trkpt><trkpt lat="42.8421" lon="11.54675"><ele>893.0</ele><time>2026-04-20T12:12:54.815Z</time></trkpt><trkpt lat="42.8421633" lon="11.5467883"><ele>890.6666666666666</ele><time>2026-04-20T12:12:55.814Z</time></trkpt><trkpt lat="42.84222" lon="11.546845"><ele>888.3333333333333</ele><time>2026-04-20T12:12:56.814Z</time></trkpt><trkpt lat="42.8422667" lon="11.546935"><ele>886.0</ele><time>2026-04-20T12:12:57.814Z</time></trkpt><trkpt lat="42.8423083" lon="11.5470383"><ele>888.4999999999999</ele><time>2026-04-20T12:12:58.811Z</time></trkpt><trkpt lat="42.8423533" lon="11.5471383"><ele>891.0</ele><time>2026-04-20T12:12:59.81Z</time></trkpt><trkpt lat="42.84241" lon="11.5472183"><ele>893.5</ele><time>2026-04-20T12:13:00.81Z</time></trkpt><trkpt lat="42.8424783" lon="11.5472783"><ele>896.0</ele><time>2026-04-20T12:13:01.812Z</time></trkpt><trkpt lat="42.8425667" lon="11.5473167"><ele>898.4999999999999</ele><time>2026-04-20T12:13:02.813Z</time></trkpt><trkpt lat="42.8426483" lon="11.5473533"><ele>901.0</ele><time>2026-04-20T12:13:03.814Z</time></trkpt><trkpt lat="42.8427283" lon="11.5473917"><ele>900.9999999999999</ele><time>2026-04-20T12:13:04.811Z</time></trkpt><trkpt lat="42.8428067" lon="11.5474283"><ele>901.0</ele><time>2026-04-20T12:13:05.81Z</time></trkpt><trkpt lat="42.84288" lon="11.54745"><ele>901.0</ele><time>2026-04-20T12:13:06.811Z</time></trkpt><trkpt lat="42.8429517" lon="11.5474633"><ele>901.0</ele><time>2026-04-20T12:13:07.811Z</time></trkpt><trkpt lat="42.8430283" lon="11.547465"><ele>900.9999999999999</ele><time>2026-04-20T12:13:08.811Z</time></trkpt><trkpt lat="42.8431117" lon="11.5474383"><ele>901.0</ele><time>2026-04-20T12:13:09.811Z</time></trkpt><trkpt lat="42.8431917" lon="11.5473967"><ele>901.0</ele><time>2026-04-20T12:13:10.81Z</time></trkpt><trkpt lat="42.84327" lon="11.54735"><ele>901.0000000000001</ele><time>2026-04-20T12:13:11.817Z</time></trkpt><trkpt lat="42.8433383" lon="11.5473033"><ele>901.0</ele><time>2026-04-20T12:13:12.814Z</time></trkpt><trkpt lat="42.8434017" lon="11.54727"><ele>901.0</ele><time>2026-04-20T12:13:13.814Z</time></trkpt><trkpt lat="42.84347" lon="11.547255"><ele>901.0000000000001</ele><time>2026-04-20T12:13:14.814Z</time></trkpt><trkpt lat="42.8435367" lon="11.54726"><ele>901.0</ele><time>2026-04-20T12:13:15.814Z</time></trkpt><trkpt lat="42.843605" lon="11.547275"><ele>901.0</ele><time>2026-04-20T12:13:16.814Z</time></trkpt><trkpt lat="42.843675" lon="11.5473017"><ele>900.8333333333333</ele><time>2026-04-20T12:13:17.813Z</time></trkpt><trkpt lat="42.8437483" lon="11.5473467"><ele>900.6666666666666</ele><time>2026-04-20T12:13:18.811Z</time></trkpt><trkpt lat="42.8438283" lon="11.547405"><ele>900.5</ele><time>2026-04-20T12:13:19.81Z</time></trkpt><trkpt lat="42.843905" lon="11.54746"><ele>900.3333333333333</ele><time>2026-04-20T12:13:20.811Z</time></trkpt><trkpt lat="42.84398" lon="11.5475117"><ele>900.1666666666666</ele><time>2026-04-20T12:13:21.81Z</time></trkpt><trkpt lat="42.8440483" lon="11.5475533"><ele>900.0</ele><time>2026-04-20T12:13:22.811Z</time></trkpt><trkpt lat="42.8441817" lon="11.54751"><ele>900.0</ele><time>2026-04-20T12:13:24.813Z</time></trkpt><trkpt lat="42.844255" lon="11.5474433"><ele>900.0</ele><time>2026-04-20T12:13:25.814Z</time></trkpt><trkpt lat="42.84433" lon="11.5473917"><ele>900.0</ele><time>2026-04-20T12:13:26.813Z</time></trkpt><trkpt lat="42.8444033" lon="11.5473517"><ele>900.0</ele><time>2026-04-20T12:13:27.812Z</time></trkpt><trkpt lat="42.8444817" lon="11.5473167"><ele>900.0</ele><time>2026-04-20T12:13:28.811Z</time></trkpt><trkpt lat="42.8445617" lon="11.5472783"><ele>900.0</ele><time>2026-04-20T12:13:29.813Z</time></trkpt><trkpt lat="42.844635" lon="11.5472317"><ele>899.0</ele><time>2026-04-20T12:13:30.813Z</time></trkpt><trkpt lat="42.844705" lon="11.5471633"><ele>898.0</ele><time>2026-04-20T12:13:31.813Z</time></trkpt><trkpt lat="42.844765" lon="11.5470683"><ele>897.0</ele><time>2026-04-20T12:13:32.811Z</time></trkpt><trkpt lat="42.8448133" lon="11.54696"><ele>896.0</ele><time>2026-04-20T12:13:33.814Z</time></trkpt><trkpt lat="42.8448633" lon="11.5468517"><ele>895.0</ele><time>2026-04-20T12:13:34.81Z</time></trkpt><trkpt lat="42.844915" lon="11.5467417"><ele>895.0</ele><time>2026-04-20T12:13:35.812Z</time></trkpt><trkpt lat="42.8449683" lon="11.5466533"><ele>895.0</ele><time>2026-04-20T12:13:36.813Z</time></trkpt><trkpt lat="42.8450217" lon="11.546585"><ele>895.0</ele><time>2026-04-20T12:13:37.816Z</time></trkpt><trkpt lat="42.84508" lon="11.54653"><ele>895.0</ele><time>2026-04-20T12:13:38.81Z</time></trkpt><trkpt lat="42.8451433" lon="11.546485"><ele>895.0</ele><time>2026-04-20T12:13:39.814Z</time></trkpt><trkpt lat="42.8452083" lon="11.5464417"><ele>895.0</ele><time>2026-04-20T12:13:40.813Z</time></trkpt><trkpt lat="42.845275" lon="11.5463983"><ele>895.0</ele><time>2026-04-20T12:13:41.811Z</time></trkpt><trkpt lat="42.8453417" lon="11.5463517"><ele>894.9999999999999</ele><time>2026-04-20T12:13:42.811Z</time></trkpt><trkpt lat="42.8454067" lon="11.546305"><ele>895.0</ele><time>2026-04-20T12:13:43.813Z</time></trkpt><trkpt lat="42.8454733" lon="11.5462617"><ele>895.0</ele><time>2026-04-20T12:13:44.813Z</time></trkpt><trkpt lat="42.845545" lon="11.5462233"><ele>895.0</ele><time>2026-04-20T12:13:45.81Z</time></trkpt><trkpt lat="42.84562" lon="11.5461817"><ele>894.9999999999999</ele><time>2026-04-20T12:13:46.812Z</time></trkpt><trkpt lat="42.8457" lon="11.5461467"><ele>895.0</ele><time>2026-04-20T12:13:47.813Z</time></trkpt><trkpt lat="42.84578" lon="11.5461217"><ele>895.0</ele><time>2026-04-20T12:13:48.812Z</time></trkpt><trkpt lat="42.8458567" lon="11.5460933"><ele>895.0</ele><time>2026-04-20T12:13:49.811Z</time></trkpt><trkpt lat="42.84593" lon="11.54606"><ele>895.0</ele><time>2026-04-20T12:13:50.809Z</time></trkpt><trkpt lat="42.8460033" lon="11.546025"><ele>895.0</ele><time>2026-04-20T12:13:51.818Z</time></trkpt><trkpt lat="42.8461533" lon="11.5458883"><ele>895.0</ele><time>2026-04-20T12:13:54.811Z</time></trkpt><trkpt lat="42.846225" lon="11.5458383"><ele>894.6666666666666</ele><time>2026-04-20T12:13:55.81Z</time></trkpt><trkpt lat="42.8462867" lon="11.5458017"><ele>894.3333333333333</ele><time>2026-04-20T12:13:56.812Z</time></trkpt><trkpt lat="42.846365" lon="11.5457267"><ele>894.0</ele><time>2026-04-20T12:13:58.81Z</time></trkpt><trkpt lat="42.8464367" lon="11.5456533"><ele>893.6666666666667</ele><time>2026-04-20T12:14:00.81Z</time></trkpt><trkpt lat="42.8465" lon="11.5455983"><ele>893.3333333333334</ele><time>2026-04-20T12:14:02.811Z</time></trkpt><trkpt lat="42.84655" lon="11.5455383"><ele>893.0</ele><time>2026-04-20T12:14:05.811Z</time></trkpt><trkpt lat="42.8466133" lon="11.5455033"><ele>893.0</ele><time>2026-04-20T12:15:07.817Z</time></trkpt><trkpt lat="42.8466917" lon="11.5454717"><ele>893.0</ele><time>2026-04-20T12:15:09.812Z</time></trkpt><trkpt lat="42.846825" lon="11.54547"><ele>893.0</ele><time>2026-04-20T12:15:11.813Z</time></trkpt><trkpt lat="42.8468983" lon="11.5454817"><ele>893.0</ele><time>2026-04-20T12:15:12.816Z</time></trkpt><trkpt lat="42.84697" lon="11.54551"><ele>893.0</ele><time>2026-04-20T12:15:13.813Z</time></trkpt><trkpt lat="42.847075" lon="11.5456083"><ele>893.8333333333334</ele><time>2026-04-20T12:15:15.813Z</time></trkpt><trkpt lat="42.8471217" lon="11.5456733"><ele>894.6666666666667</ele><time>2026-04-20T12:15:16.813Z</time></trkpt><trkpt lat="42.84718" lon="11.5457417"><ele>895.5</ele><time>2026-04-20T12:15:17.813Z</time></trkpt><trkpt lat="42.847245" lon="11.5458133"><ele>896.3333333333333</ele><time>2026-04-20T12:15:18.81Z</time></trkpt><trkpt lat="42.84732" lon="11.5458867"><ele>897.1666666666666</ele><time>2026-04-20T12:15:19.81Z</time></trkpt><trkpt lat="42.8473967" lon="11.54596"><ele>898.0</ele><time>2026-04-20T12:15:20.811Z</time></trkpt><trkpt lat="42.8474783" lon="11.5460433"><ele>898.0</ele><time>2026-04-20T12:15:21.811Z</time></trkpt><trkpt lat="42.8475583" lon="11.54613"><ele>898.0</ele><time>2026-04-20T12:15:22.809Z</time></trkpt><trkpt lat="42.8476467" lon="11.54622"><ele>898.0</ele><time>2026-04-20T12:15:23.81Z</time></trkpt><trkpt lat="42.8477333" lon="11.546315"><ele>898.0</ele><time>2026-04-20T12:15:24.81Z</time></trkpt><trkpt lat="42.84782" lon="11.546415"><ele>898.0</ele><time>2026-04-20T12:15:25.811Z</time></trkpt><trkpt lat="42.8479083" lon="11.546525"><ele>899.5999999999999</ele><time>2026-04-20T12:15:26.811Z</time></trkpt><trkpt lat="42.847985" lon="11.5466333"><ele>901.1999999999999</ele><time>2026-04-20T12:15:27.809Z</time></trkpt><trkpt lat="42.8480583" lon="11.5467367"><ele>902.8</ele><time>2026-04-20T12:15:28.81Z</time></trkpt><trkpt lat="42.848125" lon="11.546835"><ele>904.4</ele><time>2026-04-20T12:15:29.814Z</time></trkpt><trkpt lat="42.848185" lon="11.5469317"><ele>906.0</ele><time>2026-04-20T12:15:30.813Z</time></trkpt><trkpt lat="42.8482417" lon="11.5470233"><ele>904.6666666666666</ele><time>2026-04-20T12:15:31.813Z</time></trkpt><trkpt lat="42.8482983" lon="11.5471117"><ele>903.3333333333333</ele><time>2026-04-20T12:15:32.813Z</time></trkpt><trkpt lat="42.848355" lon="11.5471883"><ele>902.0</ele><time>2026-04-20T12:15:33.812Z</time></trkpt><trkpt lat="42.8484167" lon="11.54725"><ele>900.6666666666666</ele><time>2026-04-20T12:15:34.813Z</time></trkpt><trkpt lat="42.8484817" lon="11.5472933"><ele>899.3333333333333</ele><time>2026-04-20T12:15:35.813Z</time></trkpt><trkpt lat="42.848555" lon="11.5473167"><ele>898.0</ele><time>2026-04-20T12:15:36.814Z</time></trkpt><trkpt lat="42.8486367" lon="11.5473317"><ele>897.8</ele><time>2026-04-20T12:15:37.811Z</time></trkpt><trkpt lat="42.848725" lon="11.5473333"><ele>897.5999999999999</ele><time>2026-04-20T12:15:38.813Z</time></trkpt><trkpt lat="42.848825" lon="11.5473233"><ele>897.4000000000001</ele><time>2026-04-20T12:15:39.815Z</time></trkpt><trkpt lat="42.8489317" lon="11.547295"><ele>897.2</ele><time>2026-04-20T12:15:40.814Z</time></trkpt><trkpt lat="42.8490383" lon="11.5472633"><ele>897.0</ele><time>2026-04-20T12:15:41.814Z</time></trkpt><trkpt lat="42.8491483" lon="11.54724"><ele>897.0</ele><time>2026-04-20T12:15:42.814Z</time></trkpt><trkpt lat="42.8492583" lon="11.5472283"><ele>897.0</ele><time>2026-04-20T12:15:43.813Z</time></trkpt><trkpt lat="42.8493617" lon="11.547225"><ele>897.0</ele><time>2026-04-20T12:15:44.814Z</time></trkpt><trkpt lat="42.8494633" lon="11.5472233"><ele>897.0</ele><time>2026-04-20T12:15:45.813Z</time></trkpt><trkpt lat="42.84956" lon="11.54722"><ele>897.0</ele><time>2026-04-20T12:15:46.814Z</time></trkpt><trkpt lat="42.849655" lon="11.54722"><ele>896.5</ele><time>2026-04-20T12:15:47.814Z</time></trkpt><trkpt lat="42.8497467" lon="11.54723"><ele>896.0</ele><time>2026-04-20T12:15:48.81Z</time></trkpt><trkpt lat="42.8498317" lon="11.54726"><ele>895.5</ele><time>2026-04-20T12:15:49.812Z</time></trkpt><trkpt lat="42.8499117" lon="11.54731"><ele>895.0</ele><time>2026-04-20T12:15:50.814Z</time></trkpt><trkpt lat="42.84998" lon="11.5473833"><ele>894.5</ele><time>2026-04-20T12:15:51.81Z</time></trkpt><trkpt lat="42.8500383" lon="11.547465"><ele>894.0</ele><time>2026-04-20T12:15:52.811Z</time></trkpt><trkpt lat="42.850085" lon="11.5475467"><ele>893.0</ele><time>2026-04-20T12:15:53.811Z</time></trkpt><trkpt lat="42.8501267" lon="11.5476217"><ele>892.0</ele><time>2026-04-20T12:15:54.811Z</time></trkpt><trkpt lat="42.8501783" lon="11.5476783"><ele>891.0</ele><time>2026-04-20T12:15:55.812Z</time></trkpt><trkpt lat="42.850295" lon="11.5477417"><ele>890.0</ele><time>2026-04-20T12:15:57.81Z</time></trkpt><trkpt lat="42.8503633" lon="11.5477183"><ele>889.0</ele><time>2026-04-20T12:15:58.811Z</time></trkpt><trkpt lat="42.8504383" lon="11.5476633"><ele>888.0</ele><time>2026-04-20T12:15:59.815Z</time></trkpt><trkpt lat="42.8505083" lon="11.5476183"><ele>888.0</ele><time>2026-04-20T12:16:00.814Z</time></trkpt><trkpt lat="42.8505767" lon="11.5475967"><ele>888.0</ele><time>2026-04-20T12:16:01.813Z</time></trkpt><trkpt lat="42.8506483" lon="11.5476117"><ele>888.0</ele><time>2026-04-20T12:16:02.814Z</time></trkpt><trkpt lat="42.8507133" lon="11.547665"><ele>888.0</ele><time>2026-04-20T12:16:03.814Z</time></trkpt><trkpt lat="42.850765" lon="11.54775"><ele>888.0</ele><time>2026-04-20T12:16:04.812Z</time></trkpt><trkpt lat="42.8508017" lon="11.5478517"><ele>888.0</ele><time>2026-04-20T12:16:05.814Z</time></trkpt><trkpt lat="42.8508317" lon="11.547955"><ele>887.0</ele><time>2026-04-20T12:16:06.811Z</time></trkpt><trkpt lat="42.8508667" lon="11.548055"><ele>886.0</ele><time>2026-04-20T12:16:07.813Z</time></trkpt><trkpt lat="42.8509067" lon="11.5481483"><ele>885.0</ele><time>2026-04-20T12:16:08.814Z</time></trkpt><trkpt lat="42.8509533" lon="11.548225"><ele>884.0</ele><time>2026-04-20T12:16:09.814Z</time></trkpt><trkpt lat="42.8510117" lon="11.5482883"><ele>883.0</ele><time>2026-04-20T12:16:10.813Z</time></trkpt><trkpt lat="42.8510817" lon="11.5483433"><ele>882.0</ele><time>2026-04-20T12:16:11.814Z</time></trkpt><trkpt lat="42.8511617" lon="11.5483917"><ele>882.0</ele><time>2026-04-20T12:16:12.814Z</time></trkpt><trkpt lat="42.8512433" lon="11.5484467"><ele>882.0</ele><time>2026-04-20T12:16:13.814Z</time></trkpt><trkpt lat="42.85132" lon="11.5485217"><ele>882.0</ele><time>2026-04-20T12:16:14.813Z</time></trkpt><trkpt lat="42.8513833" lon="11.5486183"><ele>882.0</ele><time>2026-04-20T12:16:15.814Z</time></trkpt><trkpt lat="42.8514367" lon="11.5487283"><ele>882.0</ele><time>2026-04-20T12:16:16.814Z</time></trkpt><trkpt lat="42.8514717" lon="11.5488517"><ele>882.0</ele><time>2026-04-20T12:16:17.814Z</time></trkpt><trkpt lat="42.8514917" lon="11.548975"><ele>882.0</ele><time>2026-04-20T12:16:18.812Z</time></trkpt><trkpt lat="42.8515017" lon="11.549095"><ele>882.0</ele><time>2026-04-20T12:16:19.817Z</time></trkpt><trkpt lat="42.8515067" lon="11.5492183"><ele>882.0</ele><time>2026-04-20T12:16:20.814Z</time></trkpt><trkpt lat="42.8515133" lon="11.5493383"><ele>882.0</ele><time>2026-04-20T12:16:21.812Z</time></trkpt><trkpt lat="42.8515233" lon="11.54946"><ele>881.8</ele><time>2026-04-20T12:16:22.813Z</time></trkpt><trkpt lat="42.8515417" lon="11.5495817"><ele>881.6</ele><time>2026-04-20T12:16:23.813Z</time></trkpt><trkpt lat="42.851565" lon="11.549705"><ele>881.3999999999999</ele><time>2026-04-20T12:16:24.813Z</time></trkpt><trkpt lat="42.8515983" lon="11.5498317"><ele>881.1999999999999</ele><time>2026-04-20T12:16:25.813Z</time></trkpt><trkpt lat="42.8516383" lon="11.5499617"><ele>881.0</ele><time>2026-04-20T12:16:26.812Z</time></trkpt><trkpt lat="42.8516817" lon="11.5500967"><ele>881.0</ele><time>2026-04-20T12:16:27.812Z</time></trkpt><trkpt lat="42.851725" lon="11.5502333"><ele>880.9999999999999</ele><time>2026-04-20T12:16:28.812Z</time></trkpt><trkpt lat="42.851765" lon="11.5503717"><ele>880.9999999999999</ele><time>2026-04-20T12:16:29.814Z</time></trkpt><trkpt lat="42.8518" lon="11.5505133"><ele>881.0</ele><time>2026-04-20T12:16:30.81Z</time></trkpt><trkpt lat="42.8518283" lon="11.5506567"><ele>881.0</ele><time>2026-04-20T12:16:31.814Z</time></trkpt><trkpt lat="42.8518583" lon="11.5507983"><ele>878.0</ele><time>2026-04-20T12:16:32.811Z</time></trkpt><trkpt lat="42.85188" lon="11.55094"><ele>874.9999999999999</ele><time>2026-04-20T12:16:33.813Z</time></trkpt><trkpt lat="42.8519" lon="11.5510783"><ele>871.9999999999999</ele><time>2026-04-20T12:16:34.813Z</time></trkpt><trkpt lat="42.85192" lon="11.551205"><ele>869.0</ele><time>2026-04-20T12:16:35.814Z</time></trkpt><trkpt lat="42.851945" lon="11.5513133"><ele>866.0</ele><time>2026-04-20T12:16:36.811Z</time></trkpt><trkpt lat="42.85198" lon="11.5514017"><ele>866.0</ele><time>2026-04-20T12:16:37.811Z</time></trkpt><trkpt lat="42.8520617" lon="11.5514983"><ele>866.0</ele><time>2026-04-20T12:16:39.814Z</time></trkpt><trkpt lat="42.8521667" lon="11.5514733"><ele>866.0</ele><time>2026-04-20T12:16:41.814Z</time></trkpt><trkpt lat="42.8522717" lon="11.55126"><ele>866.0</ele><time>2026-04-20T12:16:43.814Z</time></trkpt><trkpt lat="42.8523333" lon="11.5511083"><ele>865.75</ele><time>2026-04-20T12:16:44.811Z</time></trkpt><trkpt lat="42.852405" lon="11.5509683"><ele>865.5</ele><time>2026-04-20T12:16:45.811Z</time></trkpt><trkpt lat="42.8524717" lon="11.550835"><ele>865.25</ele><time>2026-04-20T12:16:46.811Z</time></trkpt><trkpt lat="42.8525333" lon="11.5507067"><ele>865.0</ele><time>2026-04-20T12:16:47.811Z</time></trkpt><trkpt lat="42.852575" lon="11.550585"><ele>865.0</ele><time>2026-04-20T12:16:48.811Z</time></trkpt><trkpt lat="42.852605" lon="11.55046"><ele>865.0</ele><time>2026-04-20T12:16:49.811Z</time></trkpt><trkpt lat="42.8526133" lon="11.550325"><ele>865.0</ele><time>2026-04-20T12:16:50.812Z</time></trkpt><trkpt lat="42.8526167" lon="11.5501817"><ele>865.0</ele><time>2026-04-20T12:16:51.809Z</time></trkpt><trkpt lat="42.85262" lon="11.5500367"><ele>865.0</ele><time>2026-04-20T12:16:52.811Z</time></trkpt><trkpt lat="42.85264" lon="11.5498917"><ele>859.75</ele><time>2026-04-20T12:16:53.811Z</time></trkpt><trkpt lat="42.85267" lon="11.5497583"><ele>854.5</ele><time>2026-04-20T12:16:54.811Z</time></trkpt><trkpt lat="42.8527067" lon="11.5496233"><ele>849.25</ele><time>2026-04-20T12:16:55.812Z</time></trkpt><trkpt lat="42.852775" lon="11.5494917"><ele>844.0</ele><time>2026-04-20T12:16:56.811Z</time></trkpt><trkpt lat="42.8528517" lon="11.5493467"><ele>843.4000000000001</ele><time>2026-04-20T12:16:57.81Z</time></trkpt><trkpt lat="42.852935" lon="11.54921"><ele>842.8</ele><time>2026-04-20T12:16:58.817Z</time></trkpt><trkpt lat="42.85301" lon="11.5490817"><ele>842.2</ele><time>2026-04-20T12:16:59.81Z</time></trkpt><trkpt lat="42.8530783" lon="11.548975"><ele>841.5999999999999</ele><time>2026-04-20T12:17:00.811Z</time></trkpt><trkpt lat="42.8531433" lon="11.5488917"><ele>841.0</ele><time>2026-04-20T12:17:01.811Z</time></trkpt><trkpt lat="42.8532067" lon="11.5488317"><ele>840.9999999999999</ele><time>2026-04-20T12:17:02.809Z</time></trkpt><trkpt lat="42.853295" lon="11.548825"><ele>841.0</ele><time>2026-04-20T12:17:03.81Z</time></trkpt><trkpt lat="42.8533733" lon="11.5488617"><ele>841.0</ele><time>2026-04-20T12:17:04.814Z</time></trkpt><trkpt lat="42.8534383" lon="11.5489533"><ele>841.0</ele><time>2026-04-20T12:17:05.813Z</time></trkpt><trkpt lat="42.8534917" lon="11.5490583"><ele>840.9999999999999</ele><time>2026-04-20T12:17:06.814Z</time></trkpt><trkpt lat="42.853515" lon="11.5491583"><ele>841.0</ele><time>2026-04-20T12:17:07.813Z</time></trkpt><trkpt lat="42.853525" lon="11.54927"><ele>837.8333333333333</ele><time>2026-04-20T12:17:08.814Z</time></trkpt><trkpt lat="42.8535317" lon="11.54938"><ele>834.6666666666666</ele><time>2026-04-20T12:17:09.814Z</time></trkpt><trkpt lat="42.8535367" lon="11.5494867"><ele>831.5</ele><time>2026-04-20T12:17:10.813Z</time></trkpt><trkpt lat="42.8535383" lon="11.5495883"><ele>828.3333333333333</ele><time>2026-04-20T12:17:11.813Z</time></trkpt><trkpt lat="42.85354" lon="11.5496917"><ele>825.1666666666666</ele><time>2026-04-20T12:17:12.81Z</time></trkpt><trkpt lat="42.85355" lon="11.549795"><ele>822.0</ele><time>2026-04-20T12:17:13.812Z</time></trkpt><trkpt lat="42.8535667" lon="11.549895"><ele>822.1666666666666</ele><time>2026-04-20T12:17:14.811Z</time></trkpt><trkpt lat="42.8535883" lon="11.5499883"><ele>822.3333333333333</ele><time>2026-04-20T12:17:15.811Z</time></trkpt><trkpt lat="42.8536067" lon="11.5500817"><ele>822.5</ele><time>2026-04-20T12:17:16.813Z</time></trkpt><trkpt lat="42.8536333" lon="11.5501717"><ele>822.6666666666666</ele><time>2026-04-20T12:17:17.811Z</time></trkpt><trkpt lat="42.8536533" lon="11.550275"><ele>822.8333333333333</ele><time>2026-04-20T12:17:18.811Z</time></trkpt><trkpt lat="42.8536617" lon="11.5503817"><ele>823.0</ele><time>2026-04-20T12:17:19.81Z</time></trkpt><trkpt lat="42.8536567" lon="11.5504933"><ele>823.0</ele><time>2026-04-20T12:17:20.811Z</time></trkpt><trkpt lat="42.8536433" lon="11.55061"><ele>823.0</ele><time>2026-04-20T12:17:21.81Z</time></trkpt><trkpt lat="42.8536233" lon="11.5507317"><ele>823.0</ele><time>2026-04-20T12:17:22.81Z</time></trkpt><trkpt lat="42.853605" lon="11.5508617"><ele>823.0</ele><time>2026-04-20T12:17:23.812Z</time></trkpt><trkpt lat="42.8535883" lon="11.5509967"><ele>823.0</ele><time>2026-04-20T12:17:24.814Z</time></trkpt><trkpt lat="42.8535817" lon="11.5511367"><ele>823.4</ele><time>2026-04-20T12:17:25.814Z</time></trkpt><trkpt lat="42.853575" lon="11.551275"><ele>823.8</ele><time>2026-04-20T12:17:26.813Z</time></trkpt><trkpt lat="42.8535733" lon="11.5514133"><ele>824.2</ele><time>2026-04-20T12:17:27.814Z</time></trkpt><trkpt lat="42.85358" lon="11.5515467"><ele>824.6</ele><time>2026-04-20T12:17:28.813Z</time></trkpt><trkpt lat="42.8535933" lon="11.5516667"><ele>825.0</ele><time>2026-04-20T12:17:29.814Z</time></trkpt><trkpt lat="42.85362" lon="11.55178"><ele>825.0</ele><time>2026-04-20T12:17:30.815Z</time></trkpt><trkpt lat="42.853645" lon="11.55189"><ele>825.0</ele><time>2026-04-20T12:17:31.814Z</time></trkpt><trkpt lat="42.8536733" lon="11.5519933"><ele>825.0</ele><time>2026-04-20T12:17:32.814Z</time></trkpt><trkpt lat="42.8537" lon="11.5520967"><ele>825.0</ele><time>2026-04-20T12:17:33.814Z</time></trkpt><trkpt lat="42.85373" lon="11.5521967"><ele>825.0</ele><time>2026-04-20T12:17:34.814Z</time></trkpt><trkpt lat="42.853765" lon="11.5523017"><ele>825.0</ele><time>2026-04-20T12:17:35.81Z</time></trkpt><trkpt lat="42.8538083" lon="11.5524067"><ele>825.8</ele><time>2026-04-20T12:17:36.813Z</time></trkpt><trkpt lat="42.85386" lon="11.5525083"><ele>826.6</ele><time>2026-04-20T12:17:37.813Z</time></trkpt><trkpt lat="42.8539233" lon="11.5526017"><ele>827.4000000000001</ele><time>2026-04-20T12:17:38.811Z</time></trkpt><trkpt lat="42.8539917" lon="11.552685"><ele>828.2</ele><time>2026-04-20T12:17:39.814Z</time></trkpt><trkpt lat="42.8540633" lon="11.55276"><ele>829.0</ele><time>2026-04-20T12:17:40.812Z</time></trkpt><trkpt lat="42.854145" lon="11.5528267"><ele>829.8333333333333</ele><time>2026-04-20T12:17:41.812Z</time></trkpt><trkpt lat="42.8542317" lon="11.5528733"><ele>830.6666666666666</ele><time>2026-04-20T12:17:42.813Z</time></trkpt><trkpt lat="42.8543083" lon="11.5529033"><ele>831.5</ele><time>2026-04-20T12:17:43.811Z</time></trkpt><trkpt lat="42.8543883" lon="11.5529333"><ele>832.3333333333333</ele><time>2026-04-20T12:17:44.812Z</time></trkpt><trkpt lat="42.8544767" lon="11.55297"><ele>833.1666666666666</ele><time>2026-04-20T12:17:45.814Z</time></trkpt><trkpt lat="42.8545583" lon="11.5530217"><ele>834.0</ele><time>2026-04-20T12:17:46.814Z</time></trkpt><trkpt lat="42.8546417" lon="11.5530783"><ele>832.3333333333334</ele><time>2026-04-20T12:17:47.811Z</time></trkpt><trkpt lat="42.8547167" lon="11.55314"><ele>830.6666666666667</ele><time>2026-04-20T12:17:48.812Z</time></trkpt><trkpt lat="42.8547933" lon="11.5532"><ele>829.0</ele><time>2026-04-20T12:17:49.811Z</time></trkpt><trkpt lat="42.85487" lon="11.5532583"><ele>827.3333333333334</ele><time>2026-04-20T12:17:50.811Z</time></trkpt><trkpt lat="42.8549467" lon="11.553315"><ele>825.6666666666667</ele><time>2026-04-20T12:17:51.814Z</time></trkpt><trkpt lat="42.8550217" lon="11.5533633"><ele>824.0</ele><time>2026-04-20T12:17:52.813Z</time></trkpt><trkpt lat="42.855095" lon="11.5534067"><ele>823.5000000000001</ele><time>2026-04-20T12:17:53.814Z</time></trkpt><trkpt lat="42.85516" lon="11.55346"><ele>823.0</ele><time>2026-04-20T12:17:54.814Z</time></trkpt><trkpt lat="42.8552183" lon="11.5535083"><ele>822.5</ele><time>2026-04-20T12:17:55.811Z</time></trkpt><trkpt lat="42.8552967" lon="11.5535667"><ele>822.0</ele><time>2026-04-20T12:17:57.813Z</time></trkpt><trkpt lat="42.855375" lon="11.5535733"><ele>821.5000000000001</ele><time>2026-04-20T12:18:34.81Z</time></trkpt><trkpt lat="42.85549" lon="11.553525"><ele>821.0</ele><time>2026-04-20T12:18:36.813Z</time></trkpt><trkpt lat="42.8555683" lon="11.5534833"><ele>821.0</ele><time>2026-04-20T12:18:37.813Z</time></trkpt><trkpt lat="42.8556567" lon="11.5534333"><ele>821.0</ele><time>2026-04-20T12:18:38.814Z</time></trkpt><trkpt lat="42.85576" lon="11.5533833"><ele>821.0</ele><time>2026-04-20T12:18:39.813Z</time></trkpt><trkpt lat="42.8558683" lon="11.553325"><ele>821.0</ele><time>2026-04-20T12:18:40.814Z</time></trkpt><trkpt lat="42.855975" lon="11.5532467"><ele>821.0</ele><time>2026-04-20T12:18:41.813Z</time></trkpt><trkpt lat="42.85608" lon="11.5531567"><ele>821.75</ele><time>2026-04-20T12:18:42.813Z</time></trkpt><trkpt lat="42.8561817" lon="11.5530467"><ele>822.5</ele><time>2026-04-20T12:18:43.813Z</time></trkpt><trkpt lat="42.8562717" lon="11.552905"><ele>823.25</ele><time>2026-04-20T12:18:44.813Z</time></trkpt><trkpt lat="42.85636" lon="11.5527633"><ele>824.0</ele><time>2026-04-20T12:18:45.813Z</time></trkpt><trkpt lat="42.856455" lon="11.5526367"><ele>821.25</ele><time>2026-04-20T12:18:46.814Z</time></trkpt><trkpt lat="42.8565617" lon="11.55253"><ele>818.5</ele><time>2026-04-20T12:18:47.814Z</time></trkpt><trkpt lat="42.8566833" lon="11.55243"><ele>815.75</ele><time>2026-04-20T12:18:48.812Z</time></trkpt><trkpt lat="42.85681" lon="11.5523417"><ele>813.0</ele><time>2026-04-20T12:18:49.813Z</time></trkpt><trkpt lat="42.8569417" lon="11.5522733"><ele>813.0</ele><time>2026-04-20T12:18:50.812Z</time></trkpt><trkpt lat="42.8570817" lon="11.55223"><ele>813.0</ele><time>2026-04-20T12:18:51.813Z</time></trkpt><trkpt lat="42.85722" lon="11.5521933"><ele>813.0</ele><time>2026-04-20T12:18:52.812Z</time></trkpt><trkpt lat="42.8573583" lon="11.55216"><ele>813.0</ele><time>2026-04-20T12:18:53.811Z</time></trkpt><trkpt lat="42.8574967" lon="11.55213"><ele>815.25</ele><time>2026-04-20T12:18:54.812Z</time></trkpt><trkpt lat="42.8576317" lon="11.5520933"><ele>817.5</ele><time>2026-04-20T12:18:55.81Z</time></trkpt><trkpt lat="42.857765" lon="11.5520417"><ele>819.75</ele><time>2026-04-20T12:18:56.813Z</time></trkpt><trkpt lat="42.8579017" lon="11.5519783"><ele>822.0</ele><time>2026-04-20T12:18:57.812Z</time></trkpt><trkpt lat="42.8580233" lon="11.5518717"><ele>814.75</ele><time>2026-04-20T12:18:58.813Z</time></trkpt><trkpt lat="42.8581317" lon="11.551735"><ele>807.5</ele><time>2026-04-20T12:18:59.813Z</time></trkpt><trkpt lat="42.85823" lon="11.551585"><ele>800.25</ele><time>2026-04-20T12:19:00.813Z</time></trkpt><trkpt lat="42.8583283" lon="11.5514483"><ele>793.0</ele><time>2026-04-20T12:19:01.813Z</time></trkpt><trkpt lat="42.858435" lon="11.5513233"><ele>788.75</ele><time>2026-04-20T12:19:02.813Z</time></trkpt><trkpt lat="42.858545" lon="11.5512033"><ele>784.5</ele><time>2026-04-20T12:19:03.813Z</time></trkpt><trkpt lat="42.85866" lon="11.5510967"><ele>780.25</ele><time>2026-04-20T12:19:04.813Z</time></trkpt><trkpt lat="42.85878" lon="11.551"><ele>776.0</ele><time>2026-04-20T12:19:05.813Z</time></trkpt><trkpt lat="42.858905" lon="11.5509183"><ele>776.0</ele><time>2026-04-20T12:19:06.812Z</time></trkpt><trkpt lat="42.85904" lon="11.550865"><ele>776.0</ele><time>2026-04-20T12:19:07.814Z</time></trkpt><trkpt lat="42.8591817" lon="11.55083"><ele>776.0</ele><time>2026-04-20T12:19:08.814Z</time></trkpt><trkpt lat="42.859325" lon="11.5508083"><ele>776.0</ele><time>2026-04-20T12:19:09.817Z</time></trkpt><trkpt lat="42.8594683" lon="11.5507833"><ele>778.5</ele><time>2026-04-20T12:19:10.812Z</time></trkpt><trkpt lat="42.8596117" lon="11.550755"><ele>781.0</ele><time>2026-04-20T12:19:11.812Z</time></trkpt><trkpt lat="42.8597567" lon="11.5507267"><ele>783.5</ele><time>2026-04-20T12:19:12.812Z</time></trkpt><trkpt lat="42.8599" lon="11.5506917"><ele>786.0</ele><time>2026-04-20T12:19:13.813Z</time></trkpt><trkpt lat="42.860045" lon="11.5506517"><ele>789.0</ele><time>2026-04-20T12:19:14.813Z</time></trkpt><trkpt lat="42.8601867" lon="11.5506083"><ele>792.0</ele><time>2026-04-20T12:19:15.813Z</time></trkpt><trkpt lat="42.860325" lon="11.5505467"><ele>795.0</ele><time>2026-04-20T12:19:16.812Z</time></trkpt><trkpt lat="42.8604583" lon="11.550455"><ele>798.0</ele><time>2026-04-20T12:19:17.813Z</time></trkpt><trkpt lat="42.8605883" lon="11.55035"><ele>790.6666666666667</ele><time>2026-04-20T12:19:18.812Z</time></trkpt><trkpt lat="42.8607183" lon="11.5502383"><ele>783.3333333333334</ele><time>2026-04-20T12:19:19.812Z</time></trkpt><trkpt lat="42.8608517" lon="11.5501283"><ele>776.0</ele><time>2026-04-20T12:19:20.814Z</time></trkpt><trkpt lat="42.86099" lon="11.55002"><ele>776.0</ele><time>2026-04-20T12:19:21.813Z</time></trkpt><trkpt lat="42.86113" lon="11.5499167"><ele>776.0</ele><time>2026-04-20T12:19:22.812Z</time></trkpt><trkpt lat="42.86128" lon="11.5498233"><ele>776.0</ele><time>2026-04-20T12:19:23.813Z</time></trkpt><trkpt lat="42.8614317" lon="11.5497483"><ele>776.0</ele><time>2026-04-20T12:19:24.81Z</time></trkpt><trkpt lat="42.861585" lon="11.549685"><ele>776.0</ele><time>2026-04-20T12:19:25.814Z</time></trkpt><trkpt lat="42.8617383" lon="11.5496333"><ele>776.0</ele><time>2026-04-20T12:19:26.811Z</time></trkpt><trkpt lat="42.8618917" lon="11.5496017"><ele>774.5</ele><time>2026-04-20T12:19:27.814Z</time></trkpt><trkpt lat="42.8620433" lon="11.5495833"><ele>773.0</ele><time>2026-04-20T12:19:28.813Z</time></trkpt><trkpt lat="42.8621917" lon="11.5495817"><ele>771.5</ele><time>2026-04-20T12:19:29.811Z</time></trkpt><trkpt lat="42.86233" lon="11.5495933"><ele>770.0</ele><time>2026-04-20T12:19:30.811Z</time></trkpt><trkpt lat="42.862455" lon="11.54961"><ele>770.0000000000001</ele><time>2026-04-20T12:19:31.813Z</time></trkpt><trkpt lat="42.8625667" lon="11.54963"><ele>770.0</ele><time>2026-04-20T12:19:32.811Z</time></trkpt><trkpt lat="42.8626617" lon="11.5496483"><ele>770.0</ele><time>2026-04-20T12:19:33.813Z</time></trkpt><trkpt lat="42.8627417" lon="11.5496517"><ele>770.0</ele><time>2026-04-20T12:19:34.813Z</time></trkpt><trkpt lat="42.8628117" lon="11.5496283"><ele>770.0000000000001</ele><time>2026-04-20T12:19:35.812Z</time></trkpt><trkpt lat="42.8628617" lon="11.549575"><ele>770.0</ele><time>2026-04-20T12:19:36.815Z</time></trkpt><trkpt lat="42.86288" lon="11.5494317"><ele>763.25</ele><time>2026-04-20T12:19:38.814Z</time></trkpt><trkpt lat="42.862805" lon="11.5493083"><ele>756.5</ele><time>2026-04-20T12:19:40.813Z</time></trkpt><trkpt lat="42.8626483" lon="11.54922"><ele>749.75</ele><time>2026-04-20T12:19:42.814Z</time></trkpt><trkpt lat="42.8625117" lon="11.5491767"><ele>743.0</ele><time>2026-04-20T12:19:43.813Z</time></trkpt><trkpt lat="42.8623817" lon="11.5491317"><ele>743.0</ele><time>2026-04-20T12:19:44.814Z</time></trkpt><trkpt lat="42.8622617" lon="11.5490867"><ele>743.0</ele><time>2026-04-20T12:19:45.814Z</time></trkpt><trkpt lat="42.8621233" lon="11.54905"><ele>743.0</ele><time>2026-04-20T12:19:46.815Z</time></trkpt><trkpt lat="42.8619833" lon="11.549025"><ele>743.0</ele><time>2026-04-20T12:19:47.813Z</time></trkpt><trkpt lat="42.8618483" lon="11.5490117"><ele>743.0</ele><time>2026-04-20T12:19:48.813Z</time></trkpt><trkpt lat="42.8617167" lon="11.5489967"><ele>743.0</ele><time>2026-04-20T12:19:49.81Z</time></trkpt><trkpt lat="42.8615883" lon="11.5489817"><ele>743.0</ele><time>2026-04-20T12:19:50.812Z</time></trkpt><trkpt lat="42.8614617" lon="11.5489617"><ele>743.0</ele><time>2026-04-20T12:19:51.815Z</time></trkpt><trkpt lat="42.8613417" lon="11.5489383"><ele>743.0</ele><time>2026-04-20T12:19:52.813Z</time></trkpt><trkpt lat="42.86123" lon="11.5489"><ele>743.0</ele><time>2026-04-20T12:19:53.813Z</time></trkpt><trkpt lat="42.8611317" lon="11.54883"><ele>743.0</ele><time>2026-04-20T12:19:54.812Z</time></trkpt><trkpt lat="42.8610517" lon="11.54872"><ele>743.0</ele><time>2026-04-20T12:19:55.813Z</time></trkpt><trkpt lat="42.861" lon="11.5485917"><ele>743.0</ele><time>2026-04-20T12:19:56.813Z</time></trkpt><trkpt lat="42.8609733" lon="11.548445"><ele>737.75</ele><time>2026-04-20T12:19:57.813Z</time></trkpt><trkpt lat="42.8609683" lon="11.548285"><ele>732.5</ele><time>2026-04-20T12:19:58.814Z</time></trkpt><trkpt lat="42.8609883" lon="11.5481217"><ele>727.25</ele><time>2026-04-20T12:19:59.814Z</time></trkpt><trkpt lat="42.8610233" lon="11.5479567"><ele>722.0</ele><time>2026-04-20T12:20:00.813Z</time></trkpt><trkpt lat="42.8610667" lon="11.5477867"><ele>720.25</ele><time>2026-04-20T12:20:01.813Z</time></trkpt><trkpt lat="42.86112" lon="11.5476117"><ele>718.5</ele><time>2026-04-20T12:20:02.814Z</time></trkpt><trkpt lat="42.8611817" lon="11.54743"><ele>716.75</ele><time>2026-04-20T12:20:03.814Z</time></trkpt><trkpt lat="42.86125" lon="11.54724"><ele>715.0</ele><time>2026-04-20T12:20:04.814Z</time></trkpt><trkpt lat="42.8613233" lon="11.547045"><ele>712.6666666666667</ele><time>2026-04-20T12:20:05.814Z</time></trkpt><trkpt lat="42.8614033" lon="11.54685"><ele>710.3333333333334</ele><time>2026-04-20T12:20:06.816Z</time></trkpt><trkpt lat="42.8614867" lon="11.5466533"><ele>708.0</ele><time>2026-04-20T12:20:07.813Z</time></trkpt><trkpt lat="42.8615733" lon="11.54646"><ele>708.0</ele><time>2026-04-20T12:20:08.813Z</time></trkpt><trkpt lat="42.8616667" lon="11.5462733"><ele>708.0</ele><time>2026-04-20T12:20:09.813Z</time></trkpt><trkpt lat="42.86176" lon="11.5460867"><ele>708.0</ele><time>2026-04-20T12:20:10.809Z</time></trkpt><trkpt lat="42.8618567" lon="11.5459033"><ele>704.6666666666666</ele><time>2026-04-20T12:20:11.811Z</time></trkpt><trkpt lat="42.8619583" lon="11.54573"><ele>701.3333333333333</ele><time>2026-04-20T12:20:12.813Z</time></trkpt><trkpt lat="42.8620667" lon="11.54557"><ele>698.0</ele><time>2026-04-20T12:20:13.812Z</time></trkpt><trkpt lat="42.8621883" lon="11.5454367"><ele>703.3333333333333</ele><time>2026-04-20T12:20:14.814Z</time></trkpt><trkpt lat="42.86232" lon="11.5453183"><ele>708.6666666666666</ele><time>2026-04-20T12:20:15.814Z</time></trkpt><trkpt lat="42.8624617" lon="11.5452217"><ele>714.0</ele><time>2026-04-20T12:20:16.814Z</time></trkpt><trkpt lat="42.8626133" lon="11.5451433"><ele>710.6666666666666</ele><time>2026-04-20T12:20:17.81Z</time></trkpt><trkpt lat="42.8627633" lon="11.5450883"><ele>707.3333333333333</ele><time>2026-04-20T12:20:18.812Z</time></trkpt><trkpt lat="42.8629167" lon="11.545065"><ele>704.0</ele><time>2026-04-20T12:20:19.819Z</time></trkpt><trkpt lat="42.8630733" lon="11.5450633"><ele>704.0</ele><time>2026-04-20T12:20:20.811Z</time></trkpt><trkpt lat="42.863235" lon="11.5450767"><ele>704.0</ele><time>2026-04-20T12:20:21.811Z</time></trkpt><trkpt lat="42.863395" lon="11.5451017"><ele>704.0</ele><time>2026-04-20T12:20:22.814Z</time></trkpt><trkpt lat="42.86356" lon="11.5451283"><ele>703.3333333333333</ele><time>2026-04-20T12:20:23.814Z</time></trkpt><trkpt lat="42.863725" lon="11.54515"><ele>702.6666666666666</ele><time>2026-04-20T12:20:24.811Z</time></trkpt><trkpt lat="42.8638933" lon="11.54517"><ele>702.0</ele><time>2026-04-20T12:20:25.812Z</time></trkpt><trkpt lat="42.8640633" lon="11.5451817"><ele>702.0</ele><time>2026-04-20T12:20:26.815Z</time></trkpt><trkpt lat="42.86423" lon="11.5451783"><ele>702.0</ele><time>2026-04-20T12:20:27.811Z</time></trkpt><trkpt lat="42.8643917" lon="11.5451683"><ele>702.0</ele><time>2026-04-20T12:20:28.813Z</time></trkpt><trkpt lat="42.86455" lon="11.5451583"><ele>702.3333333333334</ele><time>2026-04-20T12:20:29.813Z</time></trkpt><trkpt lat="42.864705" lon="11.5451633"><ele>702.6666666666667</ele><time>2026-04-20T12:20:30.811Z</time></trkpt><trkpt lat="42.86486" lon="11.545195"><ele>703.0</ele><time>2026-04-20T12:20:31.813Z</time></trkpt><trkpt lat="42.86501" lon="11.5452583"><ele>705.3333333333334</ele><time>2026-04-20T12:20:32.813Z</time></trkpt><trkpt lat="42.8651567" lon="11.5453267"><ele>707.6666666666666</ele><time>2026-04-20T12:20:33.814Z</time></trkpt><trkpt lat="42.8653033" lon="11.5453783"><ele>710.0</ele><time>2026-04-20T12:20:34.815Z</time></trkpt><trkpt lat="42.865455" lon="11.5454083"><ele>703.3333333333333</ele><time>2026-04-20T12:20:35.819Z</time></trkpt><trkpt lat="42.865605" lon="11.5454133"><ele>696.6666666666666</ele><time>2026-04-20T12:20:36.813Z</time></trkpt><trkpt lat="42.8657567" lon="11.5454033"><ele>690.0</ele><time>2026-04-20T12:20:37.814Z</time></trkpt><trkpt lat="42.8659067" lon="11.5453833"><ele>694.0</ele><time>2026-04-20T12:20:38.812Z</time></trkpt><trkpt lat="42.8660533" lon="11.54536"><ele>698.0</ele><time>2026-04-20T12:20:39.812Z</time></trkpt><trkpt lat="42.8662017" lon="11.5453383"><ele>702.0</ele><time>2026-04-20T12:20:40.814Z</time></trkpt><trkpt lat="42.8663533" lon="11.5453217"><ele>706.0</ele><time>2026-04-20T12:20:41.817Z</time></trkpt><trkpt lat="42.8665067" lon="11.5453033"><ele>706.0</ele><time>2026-04-20T12:20:42.813Z</time></trkpt><trkpt lat="42.8666583" lon="11.5452817"><ele>706.0</ele><time>2026-04-20T12:20:43.814Z</time></trkpt><trkpt lat="42.866815" lon="11.5452617"><ele>706.0</ele><time>2026-04-20T12:20:44.818Z</time></trkpt><trkpt lat="42.86697" lon="11.5452417"><ele>704.0</ele><time>2026-04-20T12:20:45.813Z</time></trkpt><trkpt lat="42.86712" lon="11.5452217"><ele>702.0</ele><time>2026-04-20T12:20:46.813Z</time></trkpt><trkpt lat="42.8672717" lon="11.5452"><ele>700.0</ele><time>2026-04-20T12:20:47.814Z</time></trkpt><trkpt lat="42.8674217" lon="11.54518"><ele>700.0</ele><time>2026-04-20T12:20:48.814Z</time></trkpt><trkpt lat="42.8675683" lon="11.54516"><ele>700.0</ele><time>2026-04-20T12:20:49.814Z</time></trkpt><trkpt lat="42.8677117" lon="11.5451467"><ele>700.0</ele><time>2026-04-20T12:20:50.814Z</time></trkpt><trkpt lat="42.8678517" lon="11.5451433"><ele>700.0</ele><time>2026-04-20T12:20:51.814Z</time></trkpt><trkpt lat="42.86799" lon="11.5451617"><ele>698.5</ele><time>2026-04-20T12:20:52.82Z</time></trkpt><trkpt lat="42.8681283" lon="11.5451933"><ele>697.0</ele><time>2026-04-20T12:20:53.813Z</time></trkpt><trkpt lat="42.8682583" lon="11.5452167"><ele>695.5</ele><time>2026-04-20T12:20:54.813Z</time></trkpt><trkpt lat="42.8683733" lon="11.5452133"><ele>694.0</ele><time>2026-04-20T12:20:55.816Z</time></trkpt><trkpt lat="42.8684767" lon="11.5451783"><ele>690.4000000000001</ele><time>2026-04-20T12:20:56.811Z</time></trkpt><trkpt lat="42.8685667" lon="11.5451167"><ele>686.8</ele><time>2026-04-20T12:20:57.814Z</time></trkpt><trkpt lat="42.8686483" lon="11.5450133"><ele>683.2</ele><time>2026-04-20T12:20:58.811Z</time></trkpt><trkpt lat="42.8687217" lon="11.544895"><ele>679.5999999999999</ele><time>2026-04-20T12:20:59.81Z</time></trkpt><trkpt lat="42.8687983" lon="11.5447867"><ele>676.0</ele><time>2026-04-20T12:21:00.814Z</time></trkpt><trkpt lat="42.868885" lon="11.5447017"><ele>676.0</ele><time>2026-04-20T12:21:01.815Z</time></trkpt><trkpt lat="42.8689767" lon="11.5446383"><ele>676.0</ele><time>2026-04-20T12:21:02.814Z</time></trkpt><trkpt lat="42.8690733" lon="11.544585"><ele>676.0</ele><time>2026-04-20T12:21:03.81Z</time></trkpt><trkpt lat="42.8691667" lon="11.5445267"><ele>676.0</ele><time>2026-04-20T12:21:04.815Z</time></trkpt><trkpt lat="42.8692517" lon="11.5444617"><ele>676.0</ele><time>2026-04-20T12:21:05.813Z</time></trkpt><trkpt lat="42.86933" lon="11.5443883"><ele>673.1666666666667</ele><time>2026-04-20T12:21:06.813Z</time></trkpt><trkpt lat="42.8694" lon="11.544305"><ele>670.3333333333334</ele><time>2026-04-20T12:21:07.814Z</time></trkpt><trkpt lat="42.86945" lon="11.5442067"><ele>667.5</ele><time>2026-04-20T12:21:08.813Z</time></trkpt><trkpt lat="42.86948" lon="11.5441"><ele>664.6666666666666</ele><time>2026-04-20T12:21:09.814Z</time></trkpt><trkpt lat="42.8694883" lon="11.5439817"><ele>661.8333333333333</ele><time>2026-04-20T12:21:10.813Z</time></trkpt><trkpt lat="42.8694867" lon="11.54386"><ele>659.0</ele><time>2026-04-20T12:21:11.811Z</time></trkpt><trkpt lat="42.8694867" lon="11.5437367"><ele>660.6</ele><time>2026-04-20T12:21:12.814Z</time></trkpt><trkpt lat="42.8694983" lon="11.5436133"><ele>662.2</ele><time>2026-04-20T12:21:13.814Z</time></trkpt><trkpt lat="42.869525" lon="11.543495"><ele>663.8000000000001</ele><time>2026-04-20T12:21:14.815Z</time></trkpt><trkpt lat="42.8695567" lon="11.5433733"><ele>665.4000000000001</ele><time>2026-04-20T12:21:15.814Z</time></trkpt><trkpt lat="42.8696017" lon="11.5432583"><ele>667.0</ele><time>2026-04-20T12:21:16.814Z</time></trkpt><trkpt lat="42.869655" lon="11.54315"><ele>667.0</ele><time>2026-04-20T12:21:17.815Z</time></trkpt><trkpt lat="42.869715" lon="11.543045"><ele>667.0</ele><time>2026-04-20T12:21:18.814Z</time></trkpt><trkpt lat="42.8697717" lon="11.5429433"><ele>667.0</ele><time>2026-04-20T12:21:19.814Z</time></trkpt><trkpt lat="42.869825" lon="11.54284"><ele>667.0</ele><time>2026-04-20T12:21:20.814Z</time></trkpt><trkpt lat="42.8698783" lon="11.5427383"><ele>667.0</ele><time>2026-04-20T12:21:21.81Z</time></trkpt><trkpt lat="42.8699317" lon="11.5426383"><ele>667.0</ele><time>2026-04-20T12:21:22.81Z</time></trkpt><trkpt lat="42.8699817" lon="11.5425367"><ele>667.0</ele><time>2026-04-20T12:21:23.811Z</time></trkpt><trkpt lat="42.8700267" lon="11.5424333"><ele>667.0</ele><time>2026-04-20T12:21:24.813Z</time></trkpt><trkpt lat="42.870075" lon="11.542335"><ele>667.0</ele><time>2026-04-20T12:21:25.814Z</time></trkpt><trkpt lat="42.87013" lon="11.542235"><ele>667.0</ele><time>2026-04-20T12:21:26.814Z</time></trkpt><trkpt lat="42.8701867" lon="11.5421367"><ele>667.0</ele><time>2026-04-20T12:21:27.814Z</time></trkpt><trkpt lat="42.8702317" lon="11.542035"><ele>666.6666666666667</ele><time>2026-04-20T12:21:28.814Z</time></trkpt><trkpt lat="42.87028" lon="11.541935"><ele>666.3333333333334</ele><time>2026-04-20T12:21:29.814Z</time></trkpt><trkpt lat="42.870325" lon="11.5418433"><ele>666.0</ele><time>2026-04-20T12:21:30.812Z</time></trkpt><trkpt lat="42.87037" lon="11.5417667"><ele>665.6666666666666</ele><time>2026-04-20T12:21:31.812Z</time></trkpt><trkpt lat="42.8704117" lon="11.5416983"><ele>665.3333333333333</ele><time>2026-04-20T12:21:32.819Z</time></trkpt><trkpt lat="42.870475" lon="11.541565"><ele>665.0</ele><time>2026-04-20T12:21:34.81Z</time></trkpt><trkpt lat="42.8705317" lon="11.541455"><ele>665.0</ele><time>2026-04-20T12:21:36.816Z</time></trkpt><trkpt lat="42.8705817" lon="11.5413467"><ele>665.0</ele><time>2026-04-20T12:21:38.811Z</time></trkpt><trkpt lat="42.8706233" lon="11.54125"><ele>665.0</ele><time>2026-04-20T12:21:40.814Z</time></trkpt><trkpt lat="42.8706667" lon="11.5411583"><ele>665.0</ele><time>2026-04-20T12:21:42.813Z</time></trkpt><trkpt lat="42.8707217" lon="11.5410433"><ele>665.0</ele><time>2026-04-20T12:21:44.812Z</time></trkpt><trkpt lat="42.8707867" lon="11.540915"><ele>664.6666666666666</ele><time>2026-04-20T12:21:46.81Z</time></trkpt><trkpt lat="42.8708617" lon="11.5408017"><ele>664.3333333333333</ele><time>2026-04-20T12:21:48.811Z</time></trkpt><trkpt lat="42.8709233" lon="11.540705"><ele>664.0</ele><time>2026-04-20T12:21:50.811Z</time></trkpt><trkpt lat="42.8709767" lon="11.5406283"><ele>663.6666666666666</ele><time>2026-04-20T12:21:52.81Z</time></trkpt><trkpt lat="42.8710417" lon="11.540605"><ele>663.3333333333334</ele><time>2026-04-20T12:21:57.814Z</time></trkpt><trkpt lat="42.871055" lon="11.54052"><ele>663.0</ele><time>2026-04-20T12:23:42.814Z</time></trkpt><trkpt lat="42.871125" lon="11.5406383"><ele>662.5714285714286</ele><time>2026-04-20T12:31:13.234Z</time></trkpt><trkpt lat="42.8710733" lon="11.5405817"><ele>662.1428571428571</ele><time>2026-04-20T12:31:22.811Z</time></trkpt><trkpt lat="42.87105" lon="11.5405017"><ele>661.7142857142858</ele><time>2026-04-20T12:31:32.815Z</time></trkpt><trkpt lat="42.870975" lon="11.5405417"><ele>661.2857142857142</ele><time>2026-04-20T12:32:28.811Z</time></trkpt><trkpt lat="42.8709833" lon="11.540455"><ele>660.8571428571429</ele><time>2026-04-20T12:32:36.815Z</time></trkpt><trkpt lat="42.8710317" lon="11.5404"><ele>660.4285714285714</ele><time>2026-04-20T12:32:42.815Z</time></trkpt><trkpt lat="42.87114" lon="11.5403583"><ele>660.0</ele><time>2026-04-20T12:33:17.813Z</time></trkpt><trkpt lat="42.8711767" lon="11.5402617"><ele>660.0</ele><time>2026-04-20T12:33:19.814Z</time></trkpt><trkpt lat="42.87125" lon="11.5401967"><ele>660.0</ele><time>2026-04-20T12:33:21.813Z</time></trkpt><trkpt lat="42.871365" lon="11.540165"><ele>660.0</ele><time>2026-04-20T12:33:23.814Z</time></trkpt><trkpt lat="42.871445" lon="11.5401683"><ele>660.0</ele><time>2026-04-20T12:33:24.815Z</time></trkpt><trkpt lat="42.8715333" lon="11.5401767"><ele>660.0</ele><time>2026-04-20T12:33:25.813Z</time></trkpt><trkpt lat="42.8716217" lon="11.540185"><ele>660.0</ele><time>2026-04-20T12:33:26.813Z</time></trkpt><trkpt lat="42.8717117" lon="11.54018"><ele>660.0</ele><time>2026-04-20T12:33:27.814Z</time></trkpt><trkpt lat="42.8717983" lon="11.540165"><ele>660.0</ele><time>2026-04-20T12:33:28.813Z</time></trkpt><trkpt lat="42.8718767" lon="11.5401167"><ele>660.0</ele><time>2026-04-20T12:33:29.811Z</time></trkpt><trkpt lat="42.8719417" lon="11.5400417"><ele>660.0</ele><time>2026-04-20T12:33:30.811Z</time></trkpt><trkpt lat="42.872" lon="11.5399467"><ele>660.0</ele><time>2026-04-20T12:33:31.81Z</time></trkpt><trkpt lat="42.8720533" lon="11.539825"><ele>657.6</ele><time>2026-04-20T12:33:32.809Z</time></trkpt><trkpt lat="42.872085" lon="11.53969"><ele>655.2</ele><time>2026-04-20T12:33:33.813Z</time></trkpt><trkpt lat="42.8721167" lon="11.5395833"><ele>652.8</ele><time>2026-04-20T12:33:34.812Z</time></trkpt><trkpt lat="42.8721467" lon="11.53949"><ele>650.4</ele><time>2026-04-20T12:33:35.812Z</time></trkpt><trkpt lat="42.872165" lon="11.5394"><ele>648.0</ele><time>2026-04-20T12:33:36.813Z</time></trkpt><trkpt lat="42.8721983" lon="11.539245"><ele>648.0</ele><time>2026-04-20T12:33:38.811Z</time></trkpt><trkpt lat="42.87224" lon="11.539095"><ele>648.0</ele><time>2026-04-20T12:33:40.811Z</time></trkpt><trkpt lat="42.8722733" lon="11.5390117"><ele>648.0</ele><time>2026-04-20T12:33:41.811Z</time></trkpt><trkpt lat="42.872305" lon="11.5389167"><ele>648.0</ele><time>2026-04-20T12:33:42.811Z</time></trkpt><trkpt lat="42.872335" lon="11.5388017"><ele>648.0</ele><time>2026-04-20T12:33:43.82Z</time></trkpt><trkpt lat="42.8723567" lon="11.538665"><ele>649.75</ele><time>2026-04-20T12:33:44.814Z</time></trkpt><trkpt lat="42.8723817" lon="11.5385167"><ele>651.5</ele><time>2026-04-20T12:33:45.813Z</time></trkpt><trkpt lat="42.8724083" lon="11.5383617"><ele>653.25</ele><time>2026-04-20T12:33:46.814Z</time></trkpt><trkpt lat="42.872435" lon="11.53821"><ele>655.0</ele><time>2026-04-20T12:33:47.81Z</time></trkpt><trkpt lat="42.8724517" lon="11.53806"><ele>655.0</ele><time>2026-04-20T12:33:48.811Z</time></trkpt><trkpt lat="42.87247" lon="11.5379267"><ele>655.0</ele><time>2026-04-20T12:33:49.81Z</time></trkpt><trkpt lat="42.8724967" lon="11.5378133"><ele>655.0</ele><time>2026-04-20T12:33:50.812Z</time></trkpt><trkpt lat="42.87253" lon="11.537725"><ele>655.0</ele><time>2026-04-20T12:33:51.811Z</time></trkpt><trkpt lat="42.87258" lon="11.537665"><ele>655.0</ele><time>2026-04-20T12:33:52.811Z</time></trkpt><trkpt lat="42.8726517" lon="11.5376517"><ele>655.0</ele><time>2026-04-20T12:33:53.811Z</time></trkpt><trkpt lat="42.8727333" lon="11.5376983"><ele>651.5</ele><time>2026-04-20T12:33:54.815Z</time></trkpt><trkpt lat="42.8728133" lon="11.5378083"><ele>648.0</ele><time>2026-04-20T12:33:55.814Z</time></trkpt><trkpt lat="42.8728567" lon="11.5379733"><ele>644.5</ele><time>2026-04-20T12:33:56.815Z</time></trkpt><trkpt lat="42.8728417" lon="11.5381467"><ele>641.0</ele><time>2026-04-20T12:33:57.902Z</time></trkpt><trkpt lat="42.8728283" lon="11.5383083"><ele>639.0</ele><time>2026-04-20T12:33:58.811Z</time></trkpt><trkpt lat="42.8728167" lon="11.53849"><ele>637.0</ele><time>2026-04-20T12:33:59.811Z</time></trkpt><trkpt lat="42.8727967" lon="11.5386767"><ele>635.0</ele><time>2026-04-20T12:34:00.814Z</time></trkpt><trkpt lat="42.8727767" lon="11.5388817"><ele>633.0</ele><time>2026-04-20T12:34:01.813Z</time></trkpt><trkpt lat="42.87276" lon="11.5390983"><ele>630.3333333333334</ele><time>2026-04-20T12:34:02.812Z</time></trkpt><trkpt lat="42.8727467" lon="11.539325"><ele>627.6666666666667</ele><time>2026-04-20T12:34:03.811Z</time></trkpt><trkpt lat="42.8727283" lon="11.53956"><ele>625.0</ele><time>2026-04-20T12:34:04.812Z</time></trkpt><trkpt lat="42.87271" lon="11.5397967"><ele>623.3333333333334</ele><time>2026-04-20T12:34:05.811Z</time></trkpt><trkpt lat="42.8726933" lon="11.5400317"><ele>621.6666666666666</ele><time>2026-04-20T12:34:06.811Z</time></trkpt><trkpt lat="42.8726817" lon="11.54026"><ele>620.0</ele><time>2026-04-20T12:34:07.81Z</time></trkpt><trkpt lat="42.8726817" lon="11.54048"><ele>620.0</ele><time>2026-04-20T12:34:08.812Z</time></trkpt><trkpt lat="42.87269" lon="11.54069"><ele>620.0</ele><time>2026-04-20T12:34:09.81Z</time></trkpt><trkpt lat="42.8727183" lon="11.5408933"><ele>620.0</ele><time>2026-04-20T12:34:10.81Z</time></trkpt><trkpt lat="42.8727467" lon="11.5410833"><ele>620.0</ele><time>2026-04-20T12:34:11.816Z</time></trkpt><trkpt lat="42.8727817" lon="11.5412683"><ele>620.0</ele><time>2026-04-20T12:34:12.814Z</time></trkpt><trkpt lat="42.8728167" lon="11.541445"><ele>620.0</ele><time>2026-04-20T12:34:13.813Z</time></trkpt><trkpt lat="42.8728517" lon="11.5416067"><ele>620.0</ele><time>2026-04-20T12:34:14.814Z</time></trkpt><trkpt lat="42.8728883" lon="11.5417433"><ele>620.0</ele><time>2026-04-20T12:34:15.816Z</time></trkpt><trkpt lat="42.8729433" lon="11.5418567"><ele>620.0</ele><time>2026-04-20T12:34:16.814Z</time></trkpt><trkpt lat="42.8730183" lon="11.5419467"><ele>620.0</ele><time>2026-04-20T12:34:17.81Z</time></trkpt><trkpt lat="42.87311" lon="11.5420033"><ele>620.0</ele><time>2026-04-20T12:34:18.811Z</time></trkpt><trkpt lat="42.8732183" lon="11.54202"><ele>620.0</ele><time>2026-04-20T12:34:19.813Z</time></trkpt><trkpt lat="42.873335" lon="11.5419967"><ele>620.0</ele><time>2026-04-20T12:34:20.812Z</time></trkpt><trkpt lat="42.873455" lon="11.541925"><ele>619.6666666666666</ele><time>2026-04-20T12:34:21.81Z</time></trkpt><trkpt lat="42.873575" lon="11.5418083"><ele>619.3333333333334</ele><time>2026-04-20T12:34:22.811Z</time></trkpt><trkpt lat="42.8736917" lon="11.541665"><ele>619.0</ele><time>2026-04-20T12:34:23.811Z</time></trkpt><trkpt lat="42.87381" lon="11.54151"><ele>619.0</ele><time>2026-04-20T12:34:24.814Z</time></trkpt><trkpt lat="42.8739367" lon="11.5413517"><ele>619.0</ele><time>2026-04-20T12:34:25.814Z</time></trkpt><trkpt lat="42.8740617" lon="11.5411917"><ele>619.0</ele><time>2026-04-20T12:34:26.814Z</time></trkpt><trkpt lat="42.8741883" lon="11.5410417"><ele>621.0</ele><time>2026-04-20T12:34:27.814Z</time></trkpt><trkpt lat="42.874305" lon="11.5408917"><ele>623.0</ele><time>2026-04-20T12:34:28.81Z</time></trkpt><trkpt lat="42.874415" lon="11.540735"><ele>625.0</ele><time>2026-04-20T12:34:29.81Z</time></trkpt><trkpt lat="42.8745117" lon="11.5405683"><ele>625.0</ele><time>2026-04-20T12:34:30.812Z</time></trkpt><trkpt lat="42.874585" lon="11.5403833"><ele>625.0</ele><time>2026-04-20T12:34:31.81Z</time></trkpt><trkpt lat="42.8746533" lon="11.54019"><ele>625.0</ele><time>2026-04-20T12:34:32.811Z</time></trkpt><trkpt lat="42.8747167" lon="11.539995"><ele>621.3333333333334</ele><time>2026-04-20T12:34:33.81Z</time></trkpt><trkpt lat="42.87478" lon="11.5397967"><ele>617.6666666666666</ele><time>2026-04-20T12:34:34.809Z</time></trkpt><trkpt lat="42.8748483" lon="11.5396033"><ele>614.0</ele><time>2026-04-20T12:34:35.81Z</time></trkpt><trkpt lat="42.8749167" lon="11.5394083"><ele>614.0</ele><time>2026-04-20T12:34:36.809Z</time></trkpt><trkpt lat="42.8749817" lon="11.5392117"><ele>614.0</ele><time>2026-04-20T12:34:37.81Z</time></trkpt><trkpt lat="42.8750467" lon="11.539015"><ele>614.0</ele><time>2026-04-20T12:34:38.811Z</time></trkpt><trkpt lat="42.8751067" lon="11.538815"><ele>621.0</ele><time>2026-04-20T12:34:39.811Z</time></trkpt><trkpt lat="42.87516" lon="11.53861"><ele>628.0</ele><time>2026-04-20T12:34:40.81Z</time></trkpt><trkpt lat="42.875215" lon="11.5384167"><ele>635.0</ele><time>2026-04-20T12:34:41.813Z</time></trkpt><trkpt lat="42.8752833" lon="11.53824"><ele>635.0</ele><time>2026-04-20T12:34:42.811Z</time></trkpt><trkpt lat="42.8753733" lon="11.5380883"><ele>635.0</ele><time>2026-04-20T12:34:43.813Z</time></trkpt><trkpt lat="42.8754883" lon="11.53796"><ele>635.0</ele><time>2026-04-20T12:34:44.813Z</time></trkpt><trkpt lat="42.8756217" lon="11.5378567"><ele>635.0</ele><time>2026-04-20T12:34:45.814Z</time></trkpt><trkpt lat="42.8757583" lon="11.537765"><ele>631.0</ele><time>2026-04-20T12:34:46.813Z</time></trkpt><trkpt lat="42.8758917" lon="11.5376617"><ele>627.0</ele><time>2026-04-20T12:34:47.81Z</time></trkpt><trkpt lat="42.8760083" lon="11.5375317"><ele>623.0</ele><time>2026-04-20T12:34:48.81Z</time></trkpt><trkpt lat="42.87611" lon="11.5373717"><ele>630.0</ele><time>2026-04-20T12:34:49.81Z</time></trkpt><trkpt lat="42.8761983" lon="11.5371933"><ele>637.0</ele><time>2026-04-20T12:34:50.81Z</time></trkpt><trkpt lat="42.876285" lon="11.5370067"><ele>644.0</ele><time>2026-04-20T12:34:51.81Z</time></trkpt><trkpt lat="42.8763733" lon="11.5368217"><ele>644.0</ele><time>2026-04-20T12:34:52.81Z</time></trkpt><trkpt lat="42.8764633" lon="11.5366383"><ele>644.0</ele><time>2026-04-20T12:34:53.81Z</time></trkpt><trkpt lat="42.876555" lon="11.5364567"><ele>644.0</ele><time>2026-04-20T12:34:54.814Z</time></trkpt><trkpt lat="42.8766483" lon="11.5362817"><ele>641.6666666666666</ele><time>2026-04-20T12:34:55.814Z</time></trkpt><trkpt lat="42.8767433" lon="11.5361133"><ele>639.3333333333334</ele><time>2026-04-20T12:34:56.81Z</time></trkpt><trkpt lat="42.876845" lon="11.53595"><ele>637.0</ele><time>2026-04-20T12:34:57.813Z</time></trkpt><trkpt lat="42.8769467" lon="11.5357967"><ele>640.5</ele><time>2026-04-20T12:34:58.813Z</time></trkpt><trkpt lat="42.8770483" lon="11.53567"><ele>644.0</ele><time>2026-04-20T12:34:59.81Z</time></trkpt><trkpt lat="42.877155" lon="11.5355683"><ele>647.5</ele><time>2026-04-20T12:35:00.81Z</time></trkpt><trkpt lat="42.8772817" lon="11.5354983"><ele>651.0</ele><time>2026-04-20T12:35:01.81Z</time></trkpt><trkpt lat="42.8774183" lon="11.5354583"><ele>651.0</ele><time>2026-04-20T12:35:02.813Z</time></trkpt><trkpt lat="42.8775617" lon="11.5354467"><ele>651.0</ele><time>2026-04-20T12:35:03.81Z</time></trkpt><trkpt lat="42.87771" lon="11.53544"><ele>651.0</ele><time>2026-04-20T12:35:04.811Z</time></trkpt><trkpt lat="42.8778667" lon="11.5354233"><ele>651.0</ele><time>2026-04-20T12:35:05.811Z</time></trkpt><trkpt lat="42.878025" lon="11.5353867"><ele>645.3333333333334</ele><time>2026-04-20T12:35:06.81Z</time></trkpt><trkpt lat="42.8781833" lon="11.5353367"><ele>639.6666666666667</ele><time>2026-04-20T12:35:07.81Z</time></trkpt><trkpt lat="42.87834" lon="11.535285"><ele>634.0</ele><time>2026-04-20T12:35:08.811Z</time></trkpt><trkpt lat="42.8784917" lon="11.53525"><ele>632.75</ele><time>2026-04-20T12:35:09.81Z</time></trkpt><trkpt lat="42.878645" lon="11.5352533"><ele>631.5</ele><time>2026-04-20T12:35:10.811Z</time></trkpt><trkpt lat="42.8787933" lon="11.535295"><ele>630.25</ele><time>2026-04-20T12:35:11.814Z</time></trkpt><trkpt lat="42.8789333" lon="11.5353433"><ele>629.0</ele><time>2026-04-20T12:35:12.813Z</time></trkpt><trkpt lat="42.879065" lon="11.53546"><ele>633.0</ele><time>2026-04-20T12:35:13.81Z</time></trkpt><trkpt lat="42.8791917" lon="11.535565"><ele>637.0</ele><time>2026-04-20T12:35:14.813Z</time></trkpt><trkpt lat="42.8793133" lon="11.5356567"><ele>641.0</ele><time>2026-04-20T12:35:15.813Z</time></trkpt><trkpt lat="42.87944" lon="11.5357317"><ele>645.0</ele><time>2026-04-20T12:35:16.811Z</time></trkpt><trkpt lat="42.8795833" lon="11.5357917"><ele>645.0</ele><time>2026-04-20T12:35:17.812Z</time></trkpt><trkpt lat="42.879725" lon="11.535835"><ele>645.0</ele><time>2026-04-20T12:35:18.811Z</time></trkpt><trkpt lat="42.8798533" lon="11.535885"><ele>645.0</ele><time>2026-04-20T12:35:19.811Z</time></trkpt><trkpt lat="42.87997" lon="11.5359717"><ele>645.0</ele><time>2026-04-20T12:35:20.812Z</time></trkpt><trkpt lat="42.88007" lon="11.5360883"><ele>647.0</ele><time>2026-04-20T12:35:21.812Z</time></trkpt><trkpt lat="42.8801483" lon="11.5362383"><ele>649.0</ele><time>2026-04-20T12:35:22.812Z</time></trkpt><trkpt lat="42.880205" lon="11.5364"><ele>651.0</ele><time>2026-04-20T12:35:23.812Z</time></trkpt><trkpt lat="42.880245" lon="11.5365783"><ele>653.0</ele><time>2026-04-20T12:35:24.813Z</time></trkpt><trkpt lat="42.8802817" lon="11.5367617"><ele>653.0</ele><time>2026-04-20T12:35:25.813Z</time></trkpt><trkpt lat="42.8803167" lon="11.5369467"><ele>653.0</ele><time>2026-04-20T12:35:26.811Z</time></trkpt><trkpt lat="42.8803667" lon="11.537135"><ele>653.0</ele><time>2026-04-20T12:35:27.814Z</time></trkpt><trkpt lat="42.8804317" lon="11.53731"><ele>653.0</ele><time>2026-04-20T12:35:28.813Z</time></trkpt><trkpt lat="42.8805083" lon="11.5374717"><ele>654.5</ele><time>2026-04-20T12:35:29.812Z</time></trkpt><trkpt lat="42.880605" lon="11.537615"><ele>656.0</ele><time>2026-04-20T12:35:30.81Z</time></trkpt><trkpt lat="42.8807117" lon="11.537745"><ele>657.5</ele><time>2026-04-20T12:35:31.809Z</time></trkpt><trkpt lat="42.880835" lon="11.53786"><ele>659.0</ele><time>2026-04-20T12:35:32.813Z</time></trkpt><trkpt lat="42.8809667" lon="11.5379583"><ele>660.5</ele><time>2026-04-20T12:35:33.81Z</time></trkpt><trkpt lat="42.8811083" lon="11.538025"><ele>662.0</ele><time>2026-04-20T12:35:34.809Z</time></trkpt><trkpt lat="42.881255" lon="11.5380533"><ele>663.5</ele><time>2026-04-20T12:35:35.812Z</time></trkpt><trkpt lat="42.8814033" lon="11.5380483"><ele>665.0</ele><time>2026-04-20T12:35:36.812Z</time></trkpt><trkpt lat="42.88155" lon="11.5380167"><ele>665.0</ele><time>2026-04-20T12:35:37.813Z</time></trkpt><trkpt lat="42.8816967" lon="11.5379767"><ele>665.0</ele><time>2026-04-20T12:35:38.811Z</time></trkpt><trkpt lat="42.8818417" lon="11.5379267"><ele>665.0</ele><time>2026-04-20T12:35:39.813Z</time></trkpt><trkpt lat="42.8819817" lon="11.5378617"><ele>665.0</ele><time>2026-04-20T12:35:40.813Z</time></trkpt><trkpt lat="42.882125" lon="11.537795"><ele>664.3333333333333</ele><time>2026-04-20T12:35:41.813Z</time></trkpt><trkpt lat="42.8822667" lon="11.5377217"><ele>663.6666666666666</ele><time>2026-04-20T12:35:42.814Z</time></trkpt><trkpt lat="42.8824067" lon="11.5376333"><ele>663.0</ele><time>2026-04-20T12:35:43.812Z</time></trkpt><trkpt lat="42.882545" lon="11.5375317"><ele>661.6666666666666</ele><time>2026-04-20T12:35:44.813Z</time></trkpt><trkpt lat="42.882685" lon="11.5374267"><ele>660.3333333333333</ele><time>2026-04-20T12:35:45.812Z</time></trkpt><trkpt lat="42.8828333" lon="11.5373333"><ele>659.0</ele><time>2026-04-20T12:35:46.814Z</time></trkpt><trkpt lat="42.8829883" lon="11.5372483"><ele>659.0</ele><time>2026-04-20T12:35:47.812Z</time></trkpt><trkpt lat="42.8831483" lon="11.5371733"><ele>659.0</ele><time>2026-04-20T12:35:48.81Z</time></trkpt><trkpt lat="42.8833133" lon="11.5371083"><ele>659.0</ele><time>2026-04-20T12:35:49.81Z</time></trkpt><trkpt lat="42.8834683" lon="11.5370517"><ele>657.25</ele><time>2026-04-20T12:35:50.816Z</time></trkpt><trkpt lat="42.883605" lon="11.537005"><ele>655.5</ele><time>2026-04-20T12:35:51.81Z</time></trkpt><trkpt lat="42.88373" lon="11.5369683"><ele>653.75</ele><time>2026-04-20T12:35:52.81Z</time></trkpt><trkpt lat="42.8838517" lon="11.536935"><ele>652.0</ele><time>2026-04-20T12:35:53.81Z</time></trkpt><trkpt lat="42.88397" lon="11.5368983"><ele>652.0</ele><time>2026-04-20T12:35:54.814Z</time></trkpt><trkpt lat="42.88409" lon="11.5368633"><ele>652.0</ele><time>2026-04-20T12:35:55.813Z</time></trkpt><trkpt lat="42.8842067" lon="11.5368283"><ele>652.0</ele><time>2026-04-20T12:35:56.813Z</time></trkpt><trkpt lat="42.88432" lon="11.5367867"><ele>652.0</ele><time>2026-04-20T12:35:57.812Z</time></trkpt><trkpt lat="42.8844333" lon="11.5367467"><ele>651.0</ele><time>2026-04-20T12:35:58.812Z</time></trkpt><trkpt lat="42.8845417" lon="11.5367"><ele>650.0</ele><time>2026-04-20T12:35:59.811Z</time></trkpt><trkpt lat="42.8846467" lon="11.5366483"><ele>649.0</ele><time>2026-04-20T12:36:00.809Z</time></trkpt><trkpt lat="42.8847483" lon="11.5365967"><ele>648.0</ele><time>2026-04-20T12:36:01.81Z</time></trkpt><trkpt lat="42.88485" lon="11.5365383"><ele>647.0</ele><time>2026-04-20T12:36:02.814Z</time></trkpt><trkpt lat="42.884955" lon="11.5364817"><ele>647.0</ele><time>2026-04-20T12:36:03.81Z</time></trkpt><trkpt lat="42.885065" lon="11.53642"><ele>647.0</ele><time>2026-04-20T12:36:04.818Z</time></trkpt><trkpt lat="42.8851733" lon="11.5363567"><ele>647.0</ele><time>2026-04-20T12:36:05.811Z</time></trkpt><trkpt lat="42.8852833" lon="11.5362967"><ele>647.0</ele><time>2026-04-20T12:36:06.813Z</time></trkpt><trkpt lat="42.88539" lon="11.5362383"><ele>646.25</ele><time>2026-04-20T12:36:07.813Z</time></trkpt><trkpt lat="42.8854983" lon="11.5361783"><ele>645.5</ele><time>2026-04-20T12:36:08.813Z</time></trkpt><trkpt lat="42.88561" lon="11.536115"><ele>644.75</ele><time>2026-04-20T12:36:09.813Z</time></trkpt><trkpt lat="42.88572" lon="11.5360517"><ele>644.0</ele><time>2026-04-20T12:36:10.814Z</time></trkpt><trkpt lat="42.8858333" lon="11.5359883"><ele>642.5</ele><time>2026-04-20T12:36:11.814Z</time></trkpt><trkpt lat="42.8859517" lon="11.53593"><ele>641.0</ele><time>2026-04-20T12:36:12.814Z</time></trkpt><trkpt lat="42.88607" lon="11.5358683"><ele>639.5</ele><time>2026-04-20T12:36:13.814Z</time></trkpt><trkpt lat="42.8861883" lon="11.53581"><ele>638.0</ele><time>2026-04-20T12:36:14.811Z</time></trkpt><trkpt lat="42.8863117" lon="11.5357583"><ele>638.0</ele><time>2026-04-20T12:36:15.813Z</time></trkpt><trkpt lat="42.8864383" lon="11.53572"><ele>638.0</ele><time>2026-04-20T12:36:16.815Z</time></trkpt><trkpt lat="42.886565" lon="11.5357033"><ele>638.0</ele><time>2026-04-20T12:36:17.813Z</time></trkpt><trkpt lat="42.8866917" lon="11.5356983"><ele>638.0</ele><time>2026-04-20T12:36:18.811Z</time></trkpt><trkpt lat="42.8868167" lon="11.5357"><ele>637.75</ele><time>2026-04-20T12:36:19.81Z</time></trkpt><trkpt lat="42.8869417" lon="11.5357067"><ele>637.5</ele><time>2026-04-20T12:36:20.811Z</time></trkpt><trkpt lat="42.8870667" lon="11.535715"><ele>637.25</ele><time>2026-04-20T12:36:21.81Z</time></trkpt><trkpt lat="42.88719" lon="11.5357217"><ele>637.0</ele><time>2026-04-20T12:36:22.811Z</time></trkpt><trkpt lat="42.887315" lon="11.5357283"><ele>637.0</ele><time>2026-04-20T12:36:23.811Z</time></trkpt><trkpt lat="42.8874383" lon="11.53573"><ele>637.0</ele><time>2026-04-20T12:36:24.818Z</time></trkpt><trkpt lat="42.8875633" lon="11.535735"><ele>637.0</ele><time>2026-04-20T12:36:25.812Z</time></trkpt><trkpt lat="42.8876883" lon="11.5357467"><ele>637.0</ele><time>2026-04-20T12:36:26.815Z</time></trkpt><trkpt lat="42.887815" lon="11.5357633"><ele>636.5</ele><time>2026-04-20T12:36:27.814Z</time></trkpt><trkpt lat="42.8879367" lon="11.5357867"><ele>636.0</ele><time>2026-04-20T12:36:28.809Z</time></trkpt><trkpt lat="42.8880583" lon="11.5358183"><ele>635.5</ele><time>2026-04-20T12:36:29.811Z</time></trkpt><trkpt lat="42.888175" lon="11.535855"><ele>635.0</ele><time>2026-04-20T12:36:30.81Z</time></trkpt><trkpt lat="42.8882883" lon="11.5358867"><ele>635.0</ele><time>2026-04-20T12:36:31.811Z</time></trkpt><trkpt lat="42.8883933" lon="11.5359183"><ele>635.0</ele><time>2026-04-20T12:36:32.81Z</time></trkpt><trkpt lat="42.88849" lon="11.5359533"><ele>635.0</ele><time>2026-04-20T12:36:33.811Z</time></trkpt><trkpt lat="42.8885817" lon="11.535995"><ele>635.0</ele><time>2026-04-20T12:36:34.811Z</time></trkpt><trkpt lat="42.888675" lon="11.53605"><ele>635.0</ele><time>2026-04-20T12:36:35.811Z</time></trkpt><trkpt lat="42.8887733" lon="11.5361033"><ele>634.4</ele><time>2026-04-20T12:36:36.81Z</time></trkpt><trkpt lat="42.8888717" lon="11.5361633"><ele>633.8</ele><time>2026-04-20T12:36:37.813Z</time></trkpt><trkpt lat="42.88897" lon="11.53622"><ele>633.2</ele><time>2026-04-20T12:36:38.812Z</time></trkpt><trkpt lat="42.8890733" lon="11.53628"><ele>632.6</ele><time>2026-04-20T12:36:39.814Z</time></trkpt><trkpt lat="42.8891733" lon="11.5363433"><ele>632.0</ele><time>2026-04-20T12:36:40.81Z</time></trkpt><trkpt lat="42.8892733" lon="11.5364183"><ele>631.0</ele><time>2026-04-20T12:36:41.811Z</time></trkpt><trkpt lat="42.889375" lon="11.5364983"><ele>630.0</ele><time>2026-04-20T12:36:42.811Z</time></trkpt><trkpt lat="42.8894717" lon="11.53657"><ele>629.0</ele><time>2026-04-20T12:36:43.81Z</time></trkpt><trkpt lat="42.8895683" lon="11.5366467"><ele>628.0</ele><time>2026-04-20T12:36:44.815Z</time></trkpt><trkpt lat="42.8896667" lon="11.5367217"><ele>628.0</ele><time>2026-04-20T12:36:45.813Z</time></trkpt><trkpt lat="42.8897683" lon="11.5367983"><ele>628.0</ele><time>2026-04-20T12:36:46.814Z</time></trkpt><trkpt lat="42.8898733" lon="11.536875"><ele>628.0</ele><time>2026-04-20T12:36:47.811Z</time></trkpt><trkpt lat="42.8899783" lon="11.53695"><ele>628.0</ele><time>2026-04-20T12:36:48.81Z</time></trkpt><trkpt lat="42.890085" lon="11.537025"><ele>626.75</ele><time>2026-04-20T12:36:49.813Z</time></trkpt><trkpt lat="42.890195" lon="11.5370967"><ele>625.5</ele><time>2026-04-20T12:36:50.811Z</time></trkpt><trkpt lat="42.8903033" lon="11.5371733"><ele>624.25</ele><time>2026-04-20T12:36:51.812Z</time></trkpt><trkpt lat="42.8904133" lon="11.5372433"><ele>623.0</ele><time>2026-04-20T12:36:52.812Z</time></trkpt><trkpt lat="42.89052" lon="11.5373133"><ele>623.0</ele><time>2026-04-20T12:36:53.81Z</time></trkpt><trkpt lat="42.8906267" lon="11.53738"><ele>623.0</ele><time>2026-04-20T12:36:54.809Z</time></trkpt><trkpt lat="42.8907317" lon="11.5374433"><ele>623.0</ele><time>2026-04-20T12:36:55.814Z</time></trkpt><trkpt lat="42.8908333" lon="11.5375083"><ele>623.0</ele><time>2026-04-20T12:36:56.814Z</time></trkpt><trkpt lat="42.8909367" lon="11.5375717"><ele>623.5</ele><time>2026-04-20T12:36:57.813Z</time></trkpt><trkpt lat="42.8910383" lon="11.5376433"><ele>624.0</ele><time>2026-04-20T12:36:58.811Z</time></trkpt><trkpt lat="42.8911433" lon="11.5377117"><ele>624.5</ele><time>2026-04-20T12:36:59.811Z</time></trkpt><trkpt lat="42.8912517" lon="11.5377817"><ele>625.0</ele><time>2026-04-20T12:37:00.811Z</time></trkpt><trkpt lat="42.89136" lon="11.537855"><ele>625.0</ele><time>2026-04-20T12:37:01.811Z</time></trkpt><trkpt lat="42.8914717" lon="11.5379283"><ele>625.0</ele><time>2026-04-20T12:37:02.811Z</time></trkpt><trkpt lat="42.8915783" lon="11.538"><ele>625.0</ele><time>2026-04-20T12:37:03.81Z</time></trkpt><trkpt lat="42.891685" lon="11.53807"><ele>625.0</ele><time>2026-04-20T12:37:04.813Z</time></trkpt><trkpt lat="42.8917883" lon="11.5381417"><ele>625.0</ele><time>2026-04-20T12:37:05.811Z</time></trkpt><trkpt lat="42.8918883" lon="11.5382283"><ele>625.0</ele><time>2026-04-20T12:37:06.81Z</time></trkpt><trkpt lat="42.89198" lon="11.5383217"><ele>625.0</ele><time>2026-04-20T12:37:07.811Z</time></trkpt><trkpt lat="42.89205" lon="11.5384483"><ele>625.0</ele><time>2026-04-20T12:37:08.811Z</time></trkpt><trkpt lat="42.8921067" lon="11.538585"><ele>624.4</ele><time>2026-04-20T12:37:09.813Z</time></trkpt><trkpt lat="42.8921517" lon="11.5387267"><ele>623.8</ele><time>2026-04-20T12:37:10.812Z</time></trkpt><trkpt lat="42.89218" lon="11.5388683"><ele>623.2</ele><time>2026-04-20T12:37:11.814Z</time></trkpt><trkpt lat="42.8922033" lon="11.5390117"><ele>622.6</ele><time>2026-04-20T12:37:12.81Z</time></trkpt><trkpt lat="42.8922267" lon="11.5391567"><ele>622.0</ele><time>2026-04-20T12:37:13.811Z</time></trkpt><trkpt lat="42.8922483" lon="11.5393083"><ele>622.0</ele><time>2026-04-20T12:37:14.813Z</time></trkpt><trkpt lat="42.8922817" lon="11.5394583"><ele>622.0</ele><time>2026-04-20T12:37:15.81Z</time></trkpt><trkpt lat="42.892315" lon="11.5396067"><ele>622.0</ele><time>2026-04-20T12:37:16.811Z</time></trkpt><trkpt lat="42.8923467" lon="11.5397633"><ele>622.0</ele><time>2026-04-20T12:37:17.81Z</time></trkpt><trkpt lat="42.89238" lon="11.539925"><ele>621.5</ele><time>2026-04-20T12:37:18.809Z</time></trkpt><trkpt lat="42.8924133" lon="11.5400817"><ele>621.0</ele><time>2026-04-20T12:37:19.812Z</time></trkpt><trkpt lat="42.8924333" lon="11.5402383"><ele>620.5</ele><time>2026-04-20T12:37:20.812Z</time></trkpt><trkpt lat="42.8924583" lon="11.5403917"><ele>620.0</ele><time>2026-04-20T12:37:21.811Z</time></trkpt><trkpt lat="42.8924833" lon="11.54055"><ele>619.25</ele><time>2026-04-20T12:37:22.811Z</time></trkpt><trkpt lat="42.89251" lon="11.5407117"><ele>618.5</ele><time>2026-04-20T12:37:23.812Z</time></trkpt><trkpt lat="42.89254" lon="11.5408733"><ele>617.75</ele><time>2026-04-20T12:37:24.812Z</time></trkpt><trkpt lat="42.8925683" lon="11.5410383"><ele>617.0</ele><time>2026-04-20T12:37:25.812Z</time></trkpt><trkpt lat="42.8925967" lon="11.5412033"><ele>617.0</ele><time>2026-04-20T12:37:26.811Z</time></trkpt><trkpt lat="42.892625" lon="11.5413733"><ele>617.0</ele><time>2026-04-20T12:37:27.814Z</time></trkpt><trkpt lat="42.8926533" lon="11.5415433"><ele>617.0</ele><time>2026-04-20T12:37:28.81Z</time></trkpt><trkpt lat="42.8926817" lon="11.5417217"><ele>617.0</ele><time>2026-04-20T12:37:29.811Z</time></trkpt><trkpt lat="42.89271" lon="11.5418983"><ele>616.25</ele><time>2026-04-20T12:37:30.811Z</time></trkpt><trkpt lat="42.892745" lon="11.5420717"><ele>615.5</ele><time>2026-04-20T12:37:31.811Z</time></trkpt><trkpt lat="42.89278" lon="11.5422417"><ele>614.75</ele><time>2026-04-20T12:37:32.81Z</time></trkpt><trkpt lat="42.8928117" lon="11.5424167"><ele>614.0</ele><time>2026-04-20T12:37:33.81Z</time></trkpt><trkpt lat="42.8928417" lon="11.54259"><ele>614.0</ele><time>2026-04-20T12:37:34.81Z</time></trkpt><trkpt lat="42.8928733" lon="11.5427633"><ele>614.0</ele><time>2026-04-20T12:37:35.811Z</time></trkpt><trkpt lat="42.8929067" lon="11.5429333"><ele>614.0</ele><time>2026-04-20T12:37:36.811Z</time></trkpt><trkpt lat="42.892935" lon="11.543105"><ele>614.0</ele><time>2026-04-20T12:37:37.81Z</time></trkpt><trkpt lat="42.8929617" lon="11.5432817"><ele>613.5</ele><time>2026-04-20T12:37:38.811Z</time></trkpt><trkpt lat="42.8929867" lon="11.5434583"><ele>613.0</ele><time>2026-04-20T12:37:39.811Z</time></trkpt><trkpt lat="42.893005" lon="11.5436383"><ele>612.5</ele><time>2026-04-20T12:37:40.811Z</time></trkpt><trkpt lat="42.8930317" lon="11.5438167"><ele>612.0</ele><time>2026-04-20T12:37:41.814Z</time></trkpt><trkpt lat="42.89306" lon="11.5439967"><ele>610.75</ele><time>2026-04-20T12:37:42.814Z</time></trkpt><trkpt lat="42.8930933" lon="11.5441783"><ele>609.5</ele><time>2026-04-20T12:37:43.814Z</time></trkpt><trkpt lat="42.8931317" lon="11.5443617"><ele>608.25</ele><time>2026-04-20T12:37:44.813Z</time></trkpt><trkpt lat="42.8931783" lon="11.5445383"><ele>607.0</ele><time>2026-04-20T12:37:45.814Z</time></trkpt><trkpt lat="42.8932367" lon="11.5447117"><ele>607.0</ele><time>2026-04-20T12:37:46.813Z</time></trkpt><trkpt lat="42.8933067" lon="11.54489"><ele>607.0</ele><time>2026-04-20T12:37:47.814Z</time></trkpt><trkpt lat="42.8933867" lon="11.5450583"><ele>607.0</ele><time>2026-04-20T12:37:48.814Z</time></trkpt><trkpt lat="42.893475" lon="11.5452183"><ele>607.0</ele><time>2026-04-20T12:37:49.813Z</time></trkpt><trkpt lat="42.893565" lon="11.545375"><ele>608.25</ele><time>2026-04-20T12:37:50.813Z</time></trkpt><trkpt lat="42.8936567" lon="11.545525"><ele>609.5</ele><time>2026-04-20T12:37:51.814Z</time></trkpt><trkpt lat="42.893745" lon="11.5456767"><ele>610.75</ele><time>2026-04-20T12:37:52.814Z</time></trkpt><trkpt lat="42.89383" lon="11.5458283"><ele>612.0</ele><time>2026-04-20T12:37:53.813Z</time></trkpt><trkpt lat="42.8939133" lon="11.5459783"><ele>612.0</ele><time>2026-04-20T12:37:54.814Z</time></trkpt><trkpt lat="42.8939917" lon="11.5461317"><ele>612.0</ele><time>2026-04-20T12:37:55.814Z</time></trkpt><trkpt lat="42.8940633" lon="11.5462883"><ele>612.0</ele><time>2026-04-20T12:37:56.814Z</time></trkpt><trkpt lat="42.8941317" lon="11.5464533"><ele>612.0</ele><time>2026-04-20T12:37:57.814Z</time></trkpt><trkpt lat="42.8941933" lon="11.5466217"><ele>610.75</ele><time>2026-04-20T12:37:58.812Z</time></trkpt><trkpt lat="42.8942533" lon="11.54679"><ele>609.5</ele><time>2026-04-20T12:37:59.814Z</time></trkpt><trkpt lat="42.894315" lon="11.5469583"><ele>608.25</ele><time>2026-04-20T12:38:00.814Z</time></trkpt><trkpt lat="42.8943767" lon="11.5471267"><ele>607.0</ele><time>2026-04-20T12:38:01.815Z</time></trkpt><trkpt lat="42.8944383" lon="11.5472983"><ele>609.75</ele><time>2026-04-20T12:38:02.814Z</time></trkpt><trkpt lat="42.8944967" lon="11.5474733"><ele>612.5</ele><time>2026-04-20T12:38:03.814Z</time></trkpt><trkpt lat="42.89455" lon="11.5476533"><ele>615.25</ele><time>2026-04-20T12:38:04.815Z</time></trkpt><trkpt lat="42.89459" lon="11.54784"><ele>618.0</ele><time>2026-04-20T12:38:05.813Z</time></trkpt><trkpt lat="42.89462" lon="11.548035"><ele>620.75</ele><time>2026-04-20T12:38:06.814Z</time></trkpt><trkpt lat="42.8946533" lon="11.5482267"><ele>623.5</ele><time>2026-04-20T12:38:07.812Z</time></trkpt><trkpt lat="42.8946883" lon="11.5484183"><ele>626.25</ele><time>2026-04-20T12:38:08.811Z</time></trkpt><trkpt lat="42.8947183" lon="11.548615"><ele>629.0</ele><time>2026-04-20T12:38:09.812Z</time></trkpt><trkpt lat="42.894755" lon="11.548805"><ele>630.0</ele><time>2026-04-20T12:38:10.811Z</time></trkpt><trkpt lat="42.8947983" lon="11.5489917"><ele>631.0</ele><time>2026-04-20T12:38:11.814Z</time></trkpt><trkpt lat="42.8948483" lon="11.5491783"><ele>632.0</ele><time>2026-04-20T12:38:12.814Z</time></trkpt><trkpt lat="42.894905" lon="11.5493583"><ele>633.0</ele><time>2026-04-20T12:38:13.814Z</time></trkpt><trkpt lat="42.89498" lon="11.5495383"><ele>633.25</ele><time>2026-04-20T12:38:14.813Z</time></trkpt><trkpt lat="42.8950533" lon="11.549715"><ele>633.5</ele><time>2026-04-20T12:38:15.814Z</time></trkpt><trkpt lat="42.89512" lon="11.549895"><ele>633.75</ele><time>2026-04-20T12:38:16.814Z</time></trkpt><trkpt lat="42.895185" lon="11.550075"><ele>634.0</ele><time>2026-04-20T12:38:17.813Z</time></trkpt><trkpt lat="42.89525" lon="11.55026"><ele>635.6666666666667</ele><time>2026-04-20T12:38:18.814Z</time></trkpt><trkpt lat="42.8953217" lon="11.5504433"><ele>637.3333333333334</ele><time>2026-04-20T12:38:19.814Z</time></trkpt><trkpt lat="42.8953933" lon="11.5506333"><ele>639.0</ele><time>2026-04-20T12:38:20.813Z</time></trkpt><trkpt lat="42.8954633" lon="11.55083"><ele>639.0</ele><time>2026-04-20T12:38:21.813Z</time></trkpt><trkpt lat="42.8955317" lon="11.551025"><ele>639.0</ele><time>2026-04-20T12:38:22.814Z</time></trkpt><trkpt lat="42.8956" lon="11.55122"><ele>639.0</ele><time>2026-04-20T12:38:23.814Z</time></trkpt><trkpt lat="42.89568" lon="11.551415"><ele>641.3333333333334</ele><time>2026-04-20T12:38:24.815Z</time></trkpt><trkpt lat="42.8957517" lon="11.551615"><ele>643.6666666666667</ele><time>2026-04-20T12:38:25.814Z</time></trkpt><trkpt lat="42.89581" lon="11.5518267"><ele>646.0</ele><time>2026-04-20T12:38:26.814Z</time></trkpt><trkpt lat="42.8958417" lon="11.5520417"><ele>646.6666666666667</ele><time>2026-04-20T12:38:27.814Z</time></trkpt><trkpt lat="42.8958633" lon="11.5522567"><ele>647.3333333333334</ele><time>2026-04-20T12:38:28.812Z</time></trkpt><trkpt lat="42.8958917" lon="11.55247"><ele>648.0</ele><time>2026-04-20T12:38:29.812Z</time></trkpt><trkpt lat="42.89594" lon="11.5526683"><ele>646.0</ele><time>2026-04-20T12:38:30.815Z</time></trkpt><trkpt lat="42.89601" lon="11.55284"><ele>644.0</ele><time>2026-04-20T12:38:31.812Z</time></trkpt><trkpt lat="42.89609" lon="11.5529817"><ele>642.0</ele><time>2026-04-20T12:38:32.812Z</time></trkpt><trkpt lat="42.89619" lon="11.5530783"><ele>640.0</ele><time>2026-04-20T12:38:33.811Z</time></trkpt><trkpt lat="42.89631" lon="11.5531383"><ele>640.0</ele><time>2026-04-20T12:38:34.812Z</time></trkpt><trkpt lat="42.8964467" lon="11.5531933"><ele>640.0</ele><time>2026-04-20T12:38:35.812Z</time></trkpt><trkpt lat="42.8965883" lon="11.55328"><ele>640.0</ele><time>2026-04-20T12:38:36.81Z</time></trkpt><trkpt lat="42.8967217" lon="11.5534017"><ele>640.6666666666667</ele><time>2026-04-20T12:38:37.815Z</time></trkpt><trkpt lat="42.8968483" lon="11.5535283"><ele>641.3333333333334</ele><time>2026-04-20T12:38:38.817Z</time></trkpt><trkpt lat="42.8969917" lon="11.55364"><ele>642.0</ele><time>2026-04-20T12:38:39.814Z</time></trkpt><trkpt lat="42.89715" lon="11.55371"><ele>642.0</ele><time>2026-04-20T12:38:40.811Z</time></trkpt><trkpt lat="42.89732" lon="11.5537483"><ele>642.0</ele><time>2026-04-20T12:38:41.814Z</time></trkpt><trkpt lat="42.897495" lon="11.553775"><ele>642.0</ele><time>2026-04-20T12:38:42.815Z</time></trkpt><trkpt lat="42.8976583" lon="11.5538183"><ele>637.0</ele><time>2026-04-20T12:38:43.813Z</time></trkpt><trkpt lat="42.8978017" lon="11.5539017"><ele>632.0</ele><time>2026-04-20T12:38:44.814Z</time></trkpt><trkpt lat="42.8979167" lon="11.55403"><ele>627.0</ele><time>2026-04-20T12:38:45.816Z</time></trkpt><trkpt lat="42.8979983" lon="11.5541967"><ele>627.0</ele><time>2026-04-20T12:38:46.815Z</time></trkpt><trkpt lat="42.89805" lon="11.554395"><ele>627.0</ele><time>2026-04-20T12:38:47.814Z</time></trkpt><trkpt lat="42.898085" lon="11.5545983"><ele>627.0</ele><time>2026-04-20T12:38:48.813Z</time></trkpt><trkpt lat="42.8981233" lon="11.5547917"><ele>628.75</ele><time>2026-04-20T12:38:49.816Z</time></trkpt><trkpt lat="42.8981833" lon="11.5549617"><ele>630.5</ele><time>2026-04-20T12:38:50.815Z</time></trkpt><trkpt lat="42.8982717" lon="11.555095"><ele>632.25</ele><time>2026-04-20T12:38:51.812Z</time></trkpt><trkpt lat="42.8983917" lon="11.5551967"><ele>634.0</ele><time>2026-04-20T12:38:52.813Z</time></trkpt><trkpt lat="42.898525" lon="11.5552783"><ele>631.0</ele><time>2026-04-20T12:38:53.815Z</time></trkpt><trkpt lat="42.89866" lon="11.5553667"><ele>628.0</ele><time>2026-04-20T12:38:54.814Z</time></trkpt><trkpt lat="42.89879" lon="11.5554833"><ele>625.0</ele><time>2026-04-20T12:38:55.813Z</time></trkpt><trkpt lat="42.898915" lon="11.5556317"><ele>625.0</ele><time>2026-04-20T12:38:56.814Z</time></trkpt><trkpt lat="42.899035" lon="11.5557967"><ele>625.0</ele><time>2026-04-20T12:38:57.812Z</time></trkpt><trkpt lat="42.89916" lon="11.5559633"><ele>625.0</ele><time>2026-04-20T12:38:58.813Z</time></trkpt><trkpt lat="42.8992833" lon="11.5561317"><ele>622.6666666666667</ele><time>2026-04-20T12:38:59.813Z</time></trkpt><trkpt lat="42.8994067" lon="11.5562983"><ele>620.3333333333334</ele><time>2026-04-20T12:39:00.813Z</time></trkpt><trkpt lat="42.899535" lon="11.5564567"><ele>618.0</ele><time>2026-04-20T12:39:01.813Z</time></trkpt><trkpt lat="42.89967" lon="11.5565933"><ele>618.0</ele><time>2026-04-20T12:39:02.813Z</time></trkpt><trkpt lat="42.89982" lon="11.5567067"><ele>618.0</ele><time>2026-04-20T12:39:03.813Z</time></trkpt><trkpt lat="42.8999733" lon="11.5568033"><ele>618.0</ele><time>2026-04-20T12:39:04.81Z</time></trkpt><trkpt lat="42.9001317" lon="11.55689"><ele>617.6666666666666</ele><time>2026-04-20T12:39:05.811Z</time></trkpt><trkpt lat="42.9002833" lon="11.5569733"><ele>617.3333333333333</ele><time>2026-04-20T12:39:06.809Z</time></trkpt><trkpt lat="42.9004267" lon="11.5570533"><ele>617.0</ele><time>2026-04-20T12:39:07.812Z</time></trkpt><trkpt lat="42.9005683" lon="11.5571133"><ele>618.25</ele><time>2026-04-20T12:39:08.809Z</time></trkpt><trkpt lat="42.900715" lon="11.55714"><ele>619.5</ele><time>2026-04-20T12:39:09.81Z</time></trkpt><trkpt lat="42.9008633" lon="11.5571233"><ele>620.75</ele><time>2026-04-20T12:39:10.809Z</time></trkpt><trkpt lat="42.90101" lon="11.55707"><ele>622.0</ele><time>2026-04-20T12:39:11.813Z</time></trkpt><trkpt lat="42.901145" lon="11.5569817"><ele>622.0</ele><time>2026-04-20T12:39:12.812Z</time></trkpt><trkpt lat="42.901275" lon="11.5568667"><ele>622.0</ele><time>2026-04-20T12:39:13.812Z</time></trkpt><trkpt lat="42.9014033" lon="11.5567383"><ele>622.0</ele><time>2026-04-20T12:39:14.813Z</time></trkpt><trkpt lat="42.9015267" lon="11.5566067"><ele>622.0</ele><time>2026-04-20T12:39:15.813Z</time></trkpt><trkpt lat="42.9016517" lon="11.5564783"><ele>622.0</ele><time>2026-04-20T12:39:16.814Z</time></trkpt><trkpt lat="42.9017717" lon="11.5563567"><ele>622.0</ele><time>2026-04-20T12:39:17.813Z</time></trkpt><trkpt lat="42.901885" lon="11.5562467"><ele>622.0</ele><time>2026-04-20T12:39:18.811Z</time></trkpt><trkpt lat="42.9019883" lon="11.55615"><ele>622.4</ele><time>2026-04-20T12:39:19.811Z</time></trkpt><trkpt lat="42.9020833" lon="11.5560633"><ele>622.8000000000001</ele><time>2026-04-20T12:39:20.81Z</time></trkpt><trkpt lat="42.9021733" lon="11.5559867"><ele>623.2</ele><time>2026-04-20T12:39:21.811Z</time></trkpt><trkpt lat="42.9022633" lon="11.5559183"><ele>623.6</ele><time>2026-04-20T12:39:22.811Z</time></trkpt><trkpt lat="42.9023567" lon="11.5558667"><ele>624.0</ele><time>2026-04-20T12:39:23.811Z</time></trkpt><trkpt lat="42.9024583" lon="11.555835"><ele>624.0</ele><time>2026-04-20T12:39:24.812Z</time></trkpt><trkpt lat="42.9025733" lon="11.5558217"><ele>624.0</ele><time>2026-04-20T12:39:25.811Z</time></trkpt><trkpt lat="42.9026967" lon="11.5558233"><ele>624.0</ele><time>2026-04-20T12:39:26.814Z</time></trkpt><trkpt lat="42.902825" lon="11.5558267"><ele>624.0</ele><time>2026-04-20T12:39:27.811Z</time></trkpt><trkpt lat="42.9029583" lon="11.555835"><ele>628.25</ele><time>2026-04-20T12:39:28.811Z</time></trkpt><trkpt lat="42.903095" lon="11.555835"><ele>632.5</ele><time>2026-04-20T12:39:29.811Z</time></trkpt><trkpt lat="42.9032333" lon="11.5558367"><ele>636.75</ele><time>2026-04-20T12:39:30.81Z</time></trkpt><trkpt lat="42.903375" lon="11.5558433"><ele>641.0</ele><time>2026-04-20T12:39:31.812Z</time></trkpt><trkpt lat="42.9035133" lon="11.5558467"><ele>641.0</ele><time>2026-04-20T12:39:32.811Z</time></trkpt><trkpt lat="42.9036367" lon="11.5558433"><ele>641.0</ele><time>2026-04-20T12:39:33.811Z</time></trkpt><trkpt lat="42.90374" lon="11.5558517"><ele>641.0</ele><time>2026-04-20T12:39:34.811Z</time></trkpt><trkpt lat="42.9038217" lon="11.5558833"><ele>641.0</ele><time>2026-04-20T12:39:35.812Z</time></trkpt><trkpt lat="42.9038783" lon="11.555935"><ele>641.0</ele><time>2026-04-20T12:39:36.811Z</time></trkpt><trkpt lat="42.9038983" lon="11.5560167"><ele>641.0</ele><time>2026-04-20T12:39:37.811Z</time></trkpt><trkpt lat="42.9038417" lon="11.556145"><ele>641.0</ele><time>2026-04-20T12:39:39.811Z</time></trkpt><trkpt lat="42.9037867" lon="11.55619"><ele>641.0</ele><time>2026-04-20T12:39:40.812Z</time></trkpt><trkpt lat="42.903725" lon="11.5562383"><ele>641.0</ele><time>2026-04-20T12:39:41.811Z</time></trkpt><trkpt lat="42.9036917" lon="11.5563933"><ele>641.0</ele><time>2026-04-20T12:39:43.81Z</time></trkpt><trkpt lat="42.9037383" lon="11.556485"><ele>641.0</ele><time>2026-04-20T12:39:44.812Z</time></trkpt><trkpt lat="42.9038017" lon="11.5565717"><ele>641.0</ele><time>2026-04-20T12:39:45.813Z</time></trkpt><trkpt lat="42.90388" lon="11.556685"><ele>644.0</ele><time>2026-04-20T12:39:46.813Z</time></trkpt><trkpt lat="42.9040233" lon="11.5568633"><ele>647.0</ele><time>2026-04-20T12:39:47.812Z</time></trkpt><trkpt lat="42.9041567" lon="11.5570183"><ele>650.0</ele><time>2026-04-20T12:39:48.809Z</time></trkpt><trkpt lat="42.9042783" lon="11.5571783"><ele>650.6666666666666</ele><time>2026-04-20T12:39:49.811Z</time></trkpt><trkpt lat="42.9044017" lon="11.5573467"><ele>651.3333333333334</ele><time>2026-04-20T12:39:50.81Z</time></trkpt><trkpt lat="42.904515" lon="11.5575183"><ele>652.0</ele><time>2026-04-20T12:39:51.81Z</time></trkpt><trkpt lat="42.904605" lon="11.5576967"><ele>654.25</ele><time>2026-04-20T12:39:52.809Z</time></trkpt><trkpt lat="42.90467" lon="11.5578783"><ele>656.5</ele><time>2026-04-20T12:39:53.812Z</time></trkpt><trkpt lat="42.9047083" lon="11.5580533"><ele>658.75</ele><time>2026-04-20T12:39:54.81Z</time></trkpt><trkpt lat="42.904715" lon="11.5582133"><ele>661.0</ele><time>2026-04-20T12:39:55.812Z</time></trkpt><trkpt lat="42.90469" lon="11.5583467"><ele>661.0</ele><time>2026-04-20T12:39:56.811Z</time></trkpt><trkpt lat="42.9046383" lon="11.55846"><ele>661.0</ele><time>2026-04-20T12:39:57.811Z</time></trkpt><trkpt lat="42.9045617" lon="11.5585667"><ele>661.0</ele><time>2026-04-20T12:39:58.811Z</time></trkpt><trkpt lat="42.9044733" lon="11.5586817"><ele>661.0</ele><time>2026-04-20T12:39:59.814Z</time></trkpt><trkpt lat="42.9043683" lon="11.5588083"><ele>661.6666666666667</ele><time>2026-04-20T12:40:00.817Z</time></trkpt><trkpt lat="42.9042583" lon="11.5589433"><ele>662.3333333333334</ele><time>2026-04-20T12:40:01.813Z</time></trkpt><trkpt lat="42.9041367" lon="11.5590867"><ele>663.0</ele><time>2026-04-20T12:40:02.814Z</time></trkpt><trkpt lat="42.90401" lon="11.5592333"><ele>665.6666666666666</ele><time>2026-04-20T12:40:03.813Z</time></trkpt><trkpt lat="42.9038817" lon="11.559385"><ele>668.3333333333333</ele><time>2026-04-20T12:40:04.809Z</time></trkpt><trkpt lat="42.9037483" lon="11.5595367"><ele>671.0</ele><time>2026-04-20T12:40:05.813Z</time></trkpt><trkpt lat="42.903615" lon="11.5596867"><ele>672.0</ele><time>2026-04-20T12:40:06.813Z</time></trkpt><trkpt lat="42.903485" lon="11.5598317"><ele>673.0</ele><time>2026-04-20T12:40:07.814Z</time></trkpt><trkpt lat="42.9033667" lon="11.559965"><ele>674.0</ele><time>2026-04-20T12:40:08.813Z</time></trkpt><trkpt lat="42.9032733" lon="11.560085"><ele>675.4000000000001</ele><time>2026-04-20T12:40:09.815Z</time></trkpt><trkpt lat="42.9032033" lon="11.5602033"><ele>676.8</ele><time>2026-04-20T12:40:10.816Z</time></trkpt><trkpt lat="42.903175" lon="11.5603183"><ele>678.2</ele><time>2026-04-20T12:40:11.812Z</time></trkpt><trkpt lat="42.903185" lon="11.560445"><ele>679.5999999999999</ele><time>2026-04-20T12:40:12.814Z</time></trkpt><trkpt lat="42.9032283" lon="11.5605783"><ele>681.0</ele><time>2026-04-20T12:40:13.812Z</time></trkpt><trkpt lat="42.9032917" lon="11.5607167"><ele>681.6666666666666</ele><time>2026-04-20T12:40:14.814Z</time></trkpt><trkpt lat="42.9033767" lon="11.5608683"><ele>682.3333333333333</ele><time>2026-04-20T12:40:15.813Z</time></trkpt><trkpt lat="42.9034767" lon="11.56103"><ele>683.0</ele><time>2026-04-20T12:40:16.813Z</time></trkpt><trkpt lat="42.9035683" lon="11.56121"><ele>684.5</ele><time>2026-04-20T12:40:17.812Z</time></trkpt><trkpt lat="42.9036583" lon="11.561385"><ele>686.0</ele><time>2026-04-20T12:40:18.81Z</time></trkpt><trkpt lat="42.9037217" lon="11.56155"><ele>687.5</ele><time>2026-04-20T12:40:19.811Z</time></trkpt><trkpt lat="42.9037617" lon="11.5616933"><ele>689.0</ele><time>2026-04-20T12:40:20.811Z</time></trkpt><trkpt lat="42.90376" lon="11.5618167"><ele>689.0</ele><time>2026-04-20T12:40:21.81Z</time></trkpt><trkpt lat="42.903735" lon="11.5619067"><ele>689.0</ele><time>2026-04-20T12:40:22.812Z</time></trkpt><trkpt lat="42.9036817" lon="11.5619567"><ele>689.0</ele><time>2026-04-20T12:40:23.811Z</time></trkpt><trkpt lat="42.9036117" lon="11.5619767"><ele>689.0</ele><time>2026-04-20T12:40:24.811Z</time></trkpt><trkpt lat="42.9035217" lon="11.5619617"><ele>689.0</ele><time>2026-04-20T12:40:25.81Z</time></trkpt><trkpt lat="42.90342" lon="11.5619467"><ele>689.0</ele><time>2026-04-20T12:40:26.811Z</time></trkpt><trkpt lat="42.9032883" lon="11.5619167"><ele>692.4000000000001</ele><time>2026-04-20T12:40:27.81Z</time></trkpt><trkpt lat="42.903155" lon="11.561895"><ele>695.8</ele><time>2026-04-20T12:40:28.812Z</time></trkpt><trkpt lat="42.90304" lon="11.5618783"><ele>699.2</ele><time>2026-04-20T12:40:29.811Z</time></trkpt><trkpt lat="42.902935" lon="11.5618717"><ele>702.5999999999999</ele><time>2026-04-20T12:40:30.812Z</time></trkpt><trkpt lat="42.9028483" lon="11.56188"><ele>706.0</ele><time>2026-04-20T12:40:31.811Z</time></trkpt><trkpt lat="42.9027733" lon="11.5619183"><ele>706.5</ele><time>2026-04-20T12:40:32.81Z</time></trkpt><trkpt lat="42.90271" lon="11.5620383"><ele>707.0</ele><time>2026-04-20T12:40:34.811Z</time></trkpt><trkpt lat="42.9027767" lon="11.5622233"><ele>707.5</ele><time>2026-04-20T12:40:36.816Z</time></trkpt><trkpt lat="42.9028483" lon="11.5623367"><ele>708.0</ele><time>2026-04-20T12:40:37.813Z</time></trkpt><trkpt lat="42.9028833" lon="11.56245"><ele>708.0</ele><time>2026-04-20T12:40:38.814Z</time></trkpt><trkpt lat="42.9028833" lon="11.5625517"><ele>708.0</ele><time>2026-04-20T12:40:39.813Z</time></trkpt><trkpt lat="42.9027883" lon="11.56266"><ele>708.0</ele><time>2026-04-20T12:40:41.813Z</time></trkpt><trkpt lat="42.9026867" lon="11.5626567"><ele>708.0</ele><time>2026-04-20T12:40:42.813Z</time></trkpt><trkpt lat="42.90259" lon="11.562645"><ele>708.0</ele><time>2026-04-20T12:40:43.813Z</time></trkpt><trkpt lat="42.9024817" lon="11.5626033"><ele>710.0</ele><time>2026-04-20T12:40:44.814Z</time></trkpt><trkpt lat="42.9023867" lon="11.562585"><ele>712.0</ele><time>2026-04-20T12:40:45.813Z</time></trkpt><trkpt lat="42.90231" lon="11.5625633"><ele>714.0</ele><time>2026-04-20T12:40:46.81Z</time></trkpt><trkpt lat="42.9022" lon="11.5625917"><ele>716.0</ele><time>2026-04-20T12:40:48.81Z</time></trkpt><trkpt lat="42.9021667" lon="11.562665"><ele>718.0</ele><time>2026-04-20T12:40:49.811Z</time></trkpt><trkpt lat="42.90218" lon="11.5627767"><ele>720.0</ele><time>2026-04-20T12:40:50.811Z</time></trkpt><trkpt lat="42.90224" lon="11.56293"><ele>723.3333333333334</ele><time>2026-04-20T12:40:51.81Z</time></trkpt><trkpt lat="42.9023183" lon="11.5630767"><ele>726.6666666666667</ele><time>2026-04-20T12:40:52.811Z</time></trkpt><trkpt lat="42.9024067" lon="11.5632633"><ele>730.0</ele><time>2026-04-20T12:40:53.81Z</time></trkpt><trkpt lat="42.9024983" lon="11.5634667"><ele>729.3333333333334</ele><time>2026-04-20T12:40:54.81Z</time></trkpt><trkpt lat="42.9026017" lon="11.5636783"><ele>728.6666666666666</ele><time>2026-04-20T12:40:55.811Z</time></trkpt><trkpt lat="42.9027067" lon="11.5639067"><ele>728.0</ele><time>2026-04-20T12:40:56.811Z</time></trkpt><trkpt lat="42.9028133" lon="11.5641467"><ele>728.0</ele><time>2026-04-20T12:40:57.812Z</time></trkpt><trkpt lat="42.9029217" lon="11.564405"><ele>728.0</ele><time>2026-04-20T12:40:58.812Z</time></trkpt><trkpt lat="42.9030367" lon="11.5646733"><ele>728.0</ele><time>2026-04-20T12:40:59.815Z</time></trkpt><trkpt lat="42.90316" lon="11.5649467"><ele>733.5</ele><time>2026-04-20T12:41:00.813Z</time></trkpt><trkpt lat="42.90328" lon="11.5652333"><ele>739.0</ele><time>2026-04-20T12:41:01.813Z</time></trkpt><trkpt lat="42.9034" lon="11.5655167"><ele>740.5</ele><time>2026-04-20T12:41:02.813Z</time></trkpt><trkpt lat="42.903535" lon="11.5658"><ele>742.0</ele><time>2026-04-20T12:41:03.81Z</time></trkpt><trkpt lat="42.9036683" lon="11.5660683"><ele>743.3333333333334</ele><time>2026-04-20T12:41:04.814Z</time></trkpt><trkpt lat="42.90379" lon="11.566315"><ele>744.6666666666666</ele><time>2026-04-20T12:41:05.81Z</time></trkpt><trkpt lat="42.9038867" lon="11.566545"><ele>746.0</ele><time>2026-04-20T12:41:06.818Z</time></trkpt><trkpt lat="42.90397" lon="11.566755"><ele>746.0</ele><time>2026-04-20T12:41:07.814Z</time></trkpt><trkpt lat="42.904045" lon="11.5669667"><ele>746.0</ele><time>2026-04-20T12:41:08.813Z</time></trkpt><trkpt lat="42.90409" lon="11.5671967"><ele>746.0</ele><time>2026-04-20T12:41:09.815Z</time></trkpt><trkpt lat="42.9041167" lon="11.567445"><ele>746.3333333333333</ele><time>2026-04-20T12:41:10.813Z</time></trkpt><trkpt lat="42.9041317" lon="11.5676983"><ele>746.6666666666666</ele><time>2026-04-20T12:41:11.813Z</time></trkpt><trkpt lat="42.9041383" lon="11.5679417"><ele>747.0</ele><time>2026-04-20T12:41:12.813Z</time></trkpt><trkpt lat="42.9041417" lon="11.568165"><ele>747.25</ele><time>2026-04-20T12:41:13.813Z</time></trkpt><trkpt lat="42.9041267" lon="11.5683683"><ele>747.5</ele><time>2026-04-20T12:41:14.814Z</time></trkpt><trkpt lat="42.904085" lon="11.568555"><ele>747.75</ele><time>2026-04-20T12:41:15.814Z</time></trkpt><trkpt lat="42.9040167" lon="11.568735"><ele>748.0</ele><time>2026-04-20T12:41:16.814Z</time></trkpt><trkpt lat="42.90393" lon="11.5689183"><ele>746.3333333333334</ele><time>2026-04-20T12:41:17.815Z</time></trkpt><trkpt lat="42.903835" lon="11.5691067"><ele>744.6666666666666</ele><time>2026-04-20T12:41:18.811Z</time></trkpt><trkpt lat="42.9037333" lon="11.5692983"><ele>743.0</ele><time>2026-04-20T12:41:19.811Z</time></trkpt><trkpt lat="42.9036333" lon="11.56949"><ele>741.3333333333333</ele><time>2026-04-20T12:41:20.81Z</time></trkpt><trkpt lat="42.9035317" lon="11.569675"><ele>739.6666666666666</ele><time>2026-04-20T12:41:21.81Z</time></trkpt><trkpt lat="42.9034367" lon="11.56985"><ele>738.0</ele><time>2026-04-20T12:41:22.811Z</time></trkpt><trkpt lat="42.90335" lon="11.5700133"><ele>743.5</ele><time>2026-04-20T12:41:23.812Z</time></trkpt><trkpt lat="42.903285" lon="11.570165"><ele>749.0</ele><time>2026-04-20T12:41:24.815Z</time></trkpt><trkpt lat="42.9032533" lon="11.5703117"><ele>754.5</ele><time>2026-04-20T12:41:25.813Z</time></trkpt><trkpt lat="42.9032533" lon="11.570465"><ele>760.0</ele><time>2026-04-20T12:41:26.811Z</time></trkpt><trkpt lat="42.9032833" lon="11.5706317"><ele>761.3333333333334</ele><time>2026-04-20T12:41:27.816Z</time></trkpt><trkpt lat="42.90333" lon="11.5708133"><ele>762.6666666666666</ele><time>2026-04-20T12:41:28.814Z</time></trkpt><trkpt lat="42.9033767" lon="11.5710083"><ele>764.0</ele><time>2026-04-20T12:41:29.816Z</time></trkpt><trkpt lat="42.90342" lon="11.5712167"><ele>759.0</ele><time>2026-04-20T12:41:30.815Z</time></trkpt><trkpt lat="42.903475" lon="11.57143"><ele>754.0</ele><time>2026-04-20T12:41:31.814Z</time></trkpt><trkpt lat="42.9035233" lon="11.5716567"><ele>749.0</ele><time>2026-04-20T12:41:32.814Z</time></trkpt><trkpt lat="42.903585" lon="11.57189"><ele>750.0</ele><time>2026-04-20T12:41:33.813Z</time></trkpt><trkpt lat="42.9036417" lon="11.5721233"><ele>751.0</ele><time>2026-04-20T12:41:34.814Z</time></trkpt><trkpt lat="42.9036983" lon="11.57234"><ele>752.0</ele><time>2026-04-20T12:41:35.812Z</time></trkpt><trkpt lat="42.90374" lon="11.5725517"><ele>752.0</ele><time>2026-04-20T12:41:36.812Z</time></trkpt><trkpt lat="42.903755" lon="11.572765"><ele>752.0</ele><time>2026-04-20T12:41:37.815Z</time></trkpt><trkpt lat="42.9037667" lon="11.572985"><ele>752.0</ele><time>2026-04-20T12:41:38.815Z</time></trkpt><trkpt lat="42.90377" lon="11.5732167"><ele>751.0</ele><time>2026-04-20T12:41:39.814Z</time></trkpt><trkpt lat="42.9037617" lon="11.573465"><ele>750.0</ele><time>2026-04-20T12:41:40.813Z</time></trkpt><trkpt lat="42.903745" lon="11.5737167"><ele>749.0</ele><time>2026-04-20T12:41:41.815Z</time></trkpt><trkpt lat="42.9037217" lon="11.5739683"><ele>748.0</ele><time>2026-04-20T12:41:42.814Z</time></trkpt><trkpt lat="42.9036867" lon="11.574225"><ele>747.0</ele><time>2026-04-20T12:41:43.82Z</time></trkpt><trkpt lat="42.903645" lon="11.5744817"><ele>746.0</ele><time>2026-04-20T12:41:44.814Z</time></trkpt><trkpt lat="42.9035933" lon="11.574735"><ele>745.6666666666666</ele><time>2026-04-20T12:41:45.812Z</time></trkpt><trkpt lat="42.903535" lon="11.5749917"><ele>745.3333333333334</ele><time>2026-04-20T12:41:46.811Z</time></trkpt><trkpt lat="42.9034683" lon="11.5752433"><ele>745.0</ele><time>2026-04-20T12:41:47.811Z</time></trkpt><trkpt lat="42.9034033" lon="11.5754817"><ele>750.0</ele><time>2026-04-20T12:41:48.811Z</time></trkpt><trkpt lat="42.903355" lon="11.5756933"><ele>755.0</ele><time>2026-04-20T12:41:49.811Z</time></trkpt><trkpt lat="42.90332" lon="11.57588"><ele>760.0</ele><time>2026-04-20T12:41:50.81Z</time></trkpt><trkpt lat="42.9033033" lon="11.576045"><ele>765.0</ele><time>2026-04-20T12:41:51.81Z</time></trkpt><trkpt lat="42.9033283" lon="11.5762"><ele>765.0</ele><time>2026-04-20T12:41:52.811Z</time></trkpt><trkpt lat="42.9033983" lon="11.576345"><ele>765.0</ele><time>2026-04-20T12:41:53.811Z</time></trkpt><trkpt lat="42.9034983" lon="11.5764767"><ele>765.0</ele><time>2026-04-20T12:41:54.809Z</time></trkpt><trkpt lat="42.9036133" lon="11.5765983"><ele>765.0</ele><time>2026-04-20T12:41:55.81Z</time></trkpt><trkpt lat="42.9037617" lon="11.5767017"><ele>760.6666666666666</ele><time>2026-04-20T12:41:56.812Z</time></trkpt><trkpt lat="42.90388" lon="11.576825"><ele>756.3333333333333</ele><time>2026-04-20T12:41:57.813Z</time></trkpt><trkpt lat="42.9039917" lon="11.5769683"><ele>752.0</ele><time>2026-04-20T12:41:58.814Z</time></trkpt><trkpt lat="42.9040717" lon="11.57714"><ele>752.0</ele><time>2026-04-20T12:41:59.814Z</time></trkpt><trkpt lat="42.9041233" lon="11.577325"><ele>752.0</ele><time>2026-04-20T12:42:00.814Z</time></trkpt><trkpt lat="42.9041367" lon="11.5775233"><ele>752.0</ele><time>2026-04-20T12:42:01.813Z</time></trkpt><trkpt lat="42.9041433" lon="11.5777233"><ele>752.0</ele><time>2026-04-20T12:42:02.815Z</time></trkpt><trkpt lat="42.9041467" lon="11.5779267"><ele>751.25</ele><time>2026-04-20T12:42:03.814Z</time></trkpt><trkpt lat="42.9041733" lon="11.5781133"><ele>750.5</ele><time>2026-04-20T12:42:04.811Z</time></trkpt><trkpt lat="42.904225" lon="11.5782767"><ele>749.75</ele><time>2026-04-20T12:42:05.811Z</time></trkpt><trkpt lat="42.904295" lon="11.57842"><ele>749.0</ele><time>2026-04-20T12:42:06.813Z</time></trkpt><trkpt lat="42.9043917" lon="11.578555"><ele>749.6666666666666</ele><time>2026-04-20T12:42:07.816Z</time></trkpt><trkpt lat="42.9045267" lon="11.5786483"><ele>750.3333333333334</ele><time>2026-04-20T12:42:08.813Z</time></trkpt><trkpt lat="42.9046783" lon="11.57872"><ele>751.0</ele><time>2026-04-20T12:42:09.814Z</time></trkpt><trkpt lat="42.9048267" lon="11.578795"><ele>751.0</ele><time>2026-04-20T12:42:10.814Z</time></trkpt><trkpt lat="42.9049733" lon="11.578875"><ele>751.0</ele><time>2026-04-20T12:42:11.812Z</time></trkpt><trkpt lat="42.9051167" lon="11.5789583"><ele>751.0</ele><time>2026-04-20T12:42:12.814Z</time></trkpt><trkpt lat="42.9052383" lon="11.5790533"><ele>750.8</ele><time>2026-04-20T12:42:13.818Z</time></trkpt><trkpt lat="42.9053317" lon="11.57917"><ele>750.5999999999999</ele><time>2026-04-20T12:42:14.81Z</time></trkpt><trkpt lat="42.9053983" lon="11.5792983"><ele>750.4</ele><time>2026-04-20T12:42:15.814Z</time></trkpt><trkpt lat="42.9054317" lon="11.5794283"><ele>750.2</ele><time>2026-04-20T12:42:16.813Z</time></trkpt><trkpt lat="42.9054467" lon="11.5795367"><ele>750.0</ele><time>2026-04-20T12:42:17.814Z</time></trkpt><trkpt lat="42.905465" lon="11.579665"><ele>750.8333333333334</ele><time>2026-04-20T12:42:19.815Z</time></trkpt><trkpt lat="42.9054717" lon="11.57976"><ele>751.6666666666666</ele><time>2026-04-20T12:42:22.813Z</time></trkpt><trkpt lat="42.905475" lon="11.579865"><ele>752.5</ele><time>2026-04-20T12:43:46.814Z</time></trkpt><trkpt lat="42.905485" lon="11.5799833"><ele>753.3333333333333</ele><time>2026-04-20T12:43:48.813Z</time></trkpt><trkpt lat="42.9055" lon="11.5801117"><ele>754.1666666666666</ele><time>2026-04-20T12:43:50.813Z</time></trkpt><trkpt lat="42.90552" lon="11.5802483"><ele>755.0</ele><time>2026-04-20T12:43:52.81Z</time></trkpt><trkpt lat="42.9055367" lon="11.580395"><ele>755.0</ele><time>2026-04-20T12:43:54.813Z</time></trkpt><trkpt lat="42.9055433" lon="11.5805467"><ele>755.0</ele><time>2026-04-20T12:43:56.813Z</time></trkpt><trkpt lat="42.9055483" lon="11.5806333"><ele>755.0</ele><time>2026-04-20T12:43:57.815Z</time></trkpt><trkpt lat="42.9055583" lon="11.580725"><ele>755.0</ele><time>2026-04-20T12:43:58.813Z</time></trkpt><trkpt lat="42.905565" lon="11.5808183"><ele>755.0</ele><time>2026-04-20T12:43:59.814Z</time></trkpt><trkpt lat="42.9055717" lon="11.580905"><ele>755.0</ele><time>2026-04-20T12:44:00.812Z</time></trkpt><trkpt lat="42.9055767" lon="11.5809917"><ele>755.0</ele><time>2026-04-20T12:44:01.812Z</time></trkpt><trkpt lat="42.9055817" lon="11.5810833"><ele>755.0</ele><time>2026-04-20T12:44:02.813Z</time></trkpt><trkpt lat="42.9055883" lon="11.581175"><ele>755.0</ele><time>2026-04-20T12:44:03.814Z</time></trkpt><trkpt lat="42.9056017" lon="11.58127"><ele>755.0</ele><time>2026-04-20T12:44:04.814Z</time></trkpt><trkpt lat="42.9056167" lon="11.5813717"><ele>755.0</ele><time>2026-04-20T12:44:05.814Z</time></trkpt><trkpt lat="42.9056317" lon="11.581475"><ele>755.0</ele><time>2026-04-20T12:44:06.812Z</time></trkpt><trkpt lat="42.9056533" lon="11.5815867"><ele>755.0</ele><time>2026-04-20T12:44:07.812Z</time></trkpt><trkpt lat="42.9056767" lon="11.5817083"><ele>755.0</ele><time>2026-04-20T12:44:08.813Z</time></trkpt><trkpt lat="42.9057067" lon="11.5818267"><ele>755.0</ele><time>2026-04-20T12:44:09.814Z</time></trkpt><trkpt lat="42.90574" lon="11.58195"><ele>755.0</ele><time>2026-04-20T12:44:10.81Z</time></trkpt><trkpt lat="42.9057833" lon="11.5820717"><ele>755.0</ele><time>2026-04-20T12:44:11.811Z</time></trkpt><trkpt lat="42.9058367" lon="11.582195"><ele>755.0</ele><time>2026-04-20T12:44:12.81Z</time></trkpt><trkpt lat="42.905885" lon="11.5823167"><ele>754.75</ele><time>2026-04-20T12:44:13.81Z</time></trkpt><trkpt lat="42.905945" lon="11.582445"><ele>754.5</ele><time>2026-04-20T12:44:14.813Z</time></trkpt><trkpt lat="42.9060083" lon="11.5825867"><ele>754.25</ele><time>2026-04-20T12:44:15.811Z</time></trkpt><trkpt lat="42.906075" lon="11.582725"><ele>754.0</ele><time>2026-04-20T12:44:16.813Z</time></trkpt><trkpt lat="42.9061383" lon="11.5828567"><ele>754.0</ele><time>2026-04-20T12:44:17.813Z</time></trkpt><trkpt lat="42.9062" lon="11.5829917"><ele>754.0</ele><time>2026-04-20T12:44:18.814Z</time></trkpt><trkpt lat="42.9062617" lon="11.5831233"><ele>754.0</ele><time>2026-04-20T12:44:19.813Z</time></trkpt><trkpt lat="42.9063283" lon="11.583255"><ele>754.0</ele><time>2026-04-20T12:44:20.814Z</time></trkpt><trkpt lat="42.9063933" lon="11.5833883"><ele>754.0</ele><time>2026-04-20T12:44:21.813Z</time></trkpt><trkpt lat="42.9064533" lon="11.58352"><ele>754.0</ele><time>2026-04-20T12:44:22.814Z</time></trkpt><trkpt lat="42.90651" lon="11.5836533"><ele>754.0</ele><time>2026-04-20T12:44:23.814Z</time></trkpt><trkpt lat="42.9065717" lon="11.5837833"><ele>754.0</ele><time>2026-04-20T12:44:24.816Z</time></trkpt><trkpt lat="42.906635" lon="11.5839067"><ele>753.75</ele><time>2026-04-20T12:44:25.814Z</time></trkpt><trkpt lat="42.906705" lon="11.5840283"><ele>753.5</ele><time>2026-04-20T12:44:26.813Z</time></trkpt><trkpt lat="42.9067867" lon="11.5841483"><ele>753.25</ele><time>2026-04-20T12:44:27.817Z</time></trkpt><trkpt lat="42.9068767" lon="11.5842517"><ele>753.0</ele><time>2026-04-20T12:44:28.813Z</time></trkpt><trkpt lat="42.9069733" lon="11.58434"><ele>753.0</ele><time>2026-04-20T12:44:29.813Z</time></trkpt><trkpt lat="42.90708" lon="11.58442"><ele>753.0</ele><time>2026-04-20T12:44:30.815Z</time></trkpt><trkpt lat="42.9071883" lon="11.5844917"><ele>753.0</ele><time>2026-04-20T12:44:31.811Z</time></trkpt><trkpt lat="42.9072983" lon="11.584565"><ele>753.0</ele><time>2026-04-20T12:44:32.812Z</time></trkpt><trkpt lat="42.9074083" lon="11.584635"><ele>753.25</ele><time>2026-04-20T12:44:33.811Z</time></trkpt><trkpt lat="42.9075167" lon="11.584705"><ele>753.5</ele><time>2026-04-20T12:44:34.813Z</time></trkpt><trkpt lat="42.9076267" lon="11.5847767"><ele>753.75</ele><time>2026-04-20T12:44:35.812Z</time></trkpt><trkpt lat="42.90774" lon="11.5848433"><ele>754.0</ele><time>2026-04-20T12:44:36.814Z</time></trkpt><trkpt lat="42.90786" lon="11.5849133"><ele>754.0</ele><time>2026-04-20T12:44:37.809Z</time></trkpt><trkpt lat="42.9079833" lon="11.58498"><ele>754.0</ele><time>2026-04-20T12:44:38.811Z</time></trkpt><trkpt lat="42.908115" lon="11.58505"><ele>754.0</ele><time>2026-04-20T12:44:39.811Z</time></trkpt><trkpt lat="42.90825" lon="11.585105"><ele>754.0</ele><time>2026-04-20T12:44:40.813Z</time></trkpt><trkpt lat="42.9083917" lon="11.585135"><ele>754.3333333333334</ele><time>2026-04-20T12:44:41.815Z</time></trkpt><trkpt lat="42.90854" lon="11.5851333"><ele>754.6666666666666</ele><time>2026-04-20T12:44:42.813Z</time></trkpt><trkpt lat="42.9087" lon="11.5850983"><ele>755.0</ele><time>2026-04-20T12:44:43.813Z</time></trkpt><trkpt lat="42.908865" lon="11.5850383"><ele>755.0</ele><time>2026-04-20T12:44:44.813Z</time></trkpt><trkpt lat="42.9090267" lon="11.584955"><ele>755.0</ele><time>2026-04-20T12:44:45.814Z</time></trkpt><trkpt lat="42.90919" lon="11.5848733"><ele>755.0</ele><time>2026-04-20T12:44:46.814Z</time></trkpt><trkpt lat="42.90935" lon="11.58479"><ele>755.3333333333333</ele><time>2026-04-20T12:44:47.814Z</time></trkpt><trkpt lat="42.909505" lon="11.5846983"><ele>755.6666666666666</ele><time>2026-04-20T12:44:48.809Z</time></trkpt><trkpt lat="42.9096517" lon="11.58459"><ele>756.0</ele><time>2026-04-20T12:44:49.813Z</time></trkpt><trkpt lat="42.909785" lon="11.584465"><ele>756.0</ele><time>2026-04-20T12:44:50.814Z</time></trkpt><trkpt lat="42.9099067" lon="11.5843233"><ele>756.0</ele><time>2026-04-20T12:44:51.813Z</time></trkpt><trkpt lat="42.910035" lon="11.5841983"><ele>756.0</ele><time>2026-04-20T12:44:52.813Z</time></trkpt><trkpt lat="42.9101767" lon="11.5841117"><ele>756.5</ele><time>2026-04-20T12:44:53.812Z</time></trkpt><trkpt lat="42.91032" lon="11.5840517"><ele>757.0</ele><time>2026-04-20T12:44:54.814Z</time></trkpt><trkpt lat="42.91046" lon="11.58402"><ele>757.5</ele><time>2026-04-20T12:44:55.813Z</time></trkpt><trkpt lat="42.9105833" lon="11.58402"><ele>758.0</ele><time>2026-04-20T12:44:56.813Z</time></trkpt><trkpt lat="42.9106933" lon="11.5840517"><ele>758.0</ele><time>2026-04-20T12:44:57.813Z</time></trkpt><trkpt lat="42.91079" lon="11.584115"><ele>758.0</ele><time>2026-04-20T12:44:58.81Z</time></trkpt><trkpt lat="42.9108733" lon="11.5842167"><ele>758.0</ele><time>2026-04-20T12:44:59.814Z</time></trkpt><trkpt lat="42.9109517" lon="11.5843333"><ele>758.0</ele><time>2026-04-20T12:45:00.814Z</time></trkpt><trkpt lat="42.9110267" lon="11.584465"><ele>759.75</ele><time>2026-04-20T12:45:01.814Z</time></trkpt><trkpt lat="42.911105" lon="11.58459"><ele>761.5</ele><time>2026-04-20T12:45:02.811Z</time></trkpt><trkpt lat="42.9111933" lon="11.5846883"><ele>763.25</ele><time>2026-04-20T12:45:03.811Z</time></trkpt><trkpt lat="42.9113" lon="11.5847583"><ele>765.0</ele><time>2026-04-20T12:45:04.811Z</time></trkpt><trkpt lat="42.9114167" lon="11.5848133"><ele>765.0</ele><time>2026-04-20T12:45:05.812Z</time></trkpt><trkpt lat="42.9115417" lon="11.5848583"><ele>765.0</ele><time>2026-04-20T12:45:06.81Z</time></trkpt><trkpt lat="42.9116733" lon="11.5849033"><ele>765.0</ele><time>2026-04-20T12:45:07.812Z</time></trkpt><trkpt lat="42.9118083" lon="11.5849483"><ele>765.0</ele><time>2026-04-20T12:45:08.81Z</time></trkpt><trkpt lat="42.9119483" lon="11.58499"><ele>765.3333333333334</ele><time>2026-04-20T12:45:09.811Z</time></trkpt><trkpt lat="42.9120933" lon="11.5850267"><ele>765.6666666666667</ele><time>2026-04-20T12:45:10.81Z</time></trkpt><trkpt lat="42.912245" lon="11.5850567"><ele>766.0</ele><time>2026-04-20T12:45:11.814Z</time></trkpt><trkpt lat="42.9124033" lon="11.5850833"><ele>766.0</ele><time>2026-04-20T12:45:12.815Z</time></trkpt><trkpt lat="42.91257" lon="11.585105"><ele>766.0</ele><time>2026-04-20T12:45:13.814Z</time></trkpt><trkpt lat="42.9127417" lon="11.5851283"><ele>766.0</ele><time>2026-04-20T12:45:14.818Z</time></trkpt><trkpt lat="42.9129083" lon="11.5851467"><ele>766.0</ele><time>2026-04-20T12:45:15.813Z</time></trkpt><trkpt lat="42.913065" lon="11.5851617"><ele>766.0</ele><time>2026-04-20T12:45:16.816Z</time></trkpt><trkpt lat="42.9132133" lon="11.5851617"><ele>766.0</ele><time>2026-04-20T12:45:17.813Z</time></trkpt><trkpt lat="42.9133517" lon="11.5851217"><ele>766.0</ele><time>2026-04-20T12:45:18.814Z</time></trkpt><trkpt lat="42.9134867" lon="11.5850517"><ele>767.5</ele><time>2026-04-20T12:45:19.813Z</time></trkpt><trkpt lat="42.9136183" lon="11.5849767"><ele>769.0</ele><time>2026-04-20T12:45:20.815Z</time></trkpt><trkpt lat="42.9137483" lon="11.58492"><ele>770.5</ele><time>2026-04-20T12:45:21.814Z</time></trkpt><trkpt lat="42.91388" lon="11.58489"><ele>772.0</ele><time>2026-04-20T12:45:22.814Z</time></trkpt><trkpt lat="42.9140133" lon="11.5848817"><ele>772.0</ele><time>2026-04-20T12:45:23.815Z</time></trkpt><trkpt lat="42.9141383" lon="11.5848817"><ele>772.0</ele><time>2026-04-20T12:45:24.814Z</time></trkpt><trkpt lat="42.91425" lon="11.5848867"><ele>772.0</ele><time>2026-04-20T12:45:25.813Z</time></trkpt><trkpt lat="42.91435" lon="11.5848917"><ele>772.0</ele><time>2026-04-20T12:45:26.811Z</time></trkpt><trkpt lat="42.9144483" lon="11.5848983"><ele>772.0</ele><time>2026-04-20T12:45:27.813Z</time></trkpt><trkpt lat="42.9145383" lon="11.5849"><ele>772.1428571428572</ele><time>2026-04-20T12:45:28.813Z</time></trkpt><trkpt lat="42.9146183" lon="11.5849033"><ele>772.2857142857143</ele><time>2026-04-20T12:45:29.814Z</time></trkpt><trkpt lat="42.9146933" lon="11.5849067"><ele>772.4285714285714</ele><time>2026-04-20T12:45:30.81Z</time></trkpt><trkpt lat="42.9147633" lon="11.584915"><ele>772.5714285714287</ele><time>2026-04-20T12:45:31.812Z</time></trkpt><trkpt lat="42.914835" lon="11.5849217"><ele>772.7142857142857</ele><time>2026-04-20T12:45:32.815Z</time></trkpt><trkpt lat="42.9149067" lon="11.58493"><ele>772.8571428571429</ele><time>2026-04-20T12:45:33.814Z</time></trkpt><trkpt lat="42.9149717" lon="11.5849317"><ele>773.0</ele><time>2026-04-20T12:45:34.813Z</time></trkpt><trkpt lat="42.91504" lon="11.5849317"><ele>771.2</ele><time>2026-04-20T12:45:35.811Z</time></trkpt><trkpt lat="42.915115" lon="11.5849283"><ele>769.4</ele><time>2026-04-20T12:45:36.814Z</time></trkpt><trkpt lat="42.9152" lon="11.584925"><ele>767.6</ele><time>2026-04-20T12:45:37.811Z</time></trkpt><trkpt lat="42.915295" lon="11.5849267"><ele>765.8000000000001</ele><time>2026-04-20T12:45:38.812Z</time></trkpt><trkpt lat="42.9153967" lon="11.5849467"><ele>764.0</ele><time>2026-04-20T12:45:39.811Z</time></trkpt><trkpt lat="42.9155" lon="11.5850017"><ele>764.0</ele><time>2026-04-20T12:45:40.811Z</time></trkpt><trkpt lat="42.9155967" lon="11.5850883"><ele>764.0</ele><time>2026-04-20T12:45:41.813Z</time></trkpt><trkpt lat="42.91568" lon="11.5852117"><ele>764.0</ele><time>2026-04-20T12:45:42.815Z</time></trkpt><trkpt lat="42.9157533" lon="11.58536"><ele>764.0</ele><time>2026-04-20T12:45:43.814Z</time></trkpt><trkpt lat="42.9158233" lon="11.5855167"><ele>761.75</ele><time>2026-04-20T12:45:44.814Z</time></trkpt><trkpt lat="42.9159067" lon="11.585655"><ele>759.5</ele><time>2026-04-20T12:45:45.814Z</time></trkpt><trkpt lat="42.9160117" lon="11.5857667"><ele>757.25</ele><time>2026-04-20T12:45:46.814Z</time></trkpt><trkpt lat="42.91613" lon="11.5858567"><ele>755.0</ele><time>2026-04-20T12:45:47.814Z</time></trkpt><trkpt lat="42.916255" lon="11.585925"><ele>755.0</ele><time>2026-04-20T12:45:48.812Z</time></trkpt><trkpt lat="42.916385" lon="11.585975"><ele>755.0</ele><time>2026-04-20T12:45:49.811Z</time></trkpt><trkpt lat="42.9165117" lon="11.586015"><ele>755.0</ele><time>2026-04-20T12:45:50.811Z</time></trkpt><trkpt lat="42.9166367" lon="11.5860417"><ele>755.0</ele><time>2026-04-20T12:45:51.811Z</time></trkpt><trkpt lat="42.916765" lon="11.586055"><ele>752.25</ele><time>2026-04-20T12:45:52.812Z</time></trkpt><trkpt lat="42.9168917" lon="11.5860533"><ele>749.5</ele><time>2026-04-20T12:45:53.81Z</time></trkpt><trkpt lat="42.91702" lon="11.5860567"><ele>746.75</ele><time>2026-04-20T12:45:54.814Z</time></trkpt><trkpt lat="42.9171433" lon="11.5860767"><ele>744.0</ele><time>2026-04-20T12:45:55.814Z</time></trkpt><trkpt lat="42.917255" lon="11.5861167"><ele>744.0</ele><time>2026-04-20T12:45:56.813Z</time></trkpt><trkpt lat="42.9173533" lon="11.58618"><ele>744.0</ele><time>2026-04-20T12:45:57.814Z</time></trkpt><trkpt lat="42.9174483" lon="11.5862667"><ele>744.0</ele><time>2026-04-20T12:45:58.814Z</time></trkpt><trkpt lat="42.9175433" lon="11.5863717"><ele>744.0</ele><time>2026-04-20T12:45:59.814Z</time></trkpt><trkpt lat="42.9176433" lon="11.5864817"><ele>744.0</ele><time>2026-04-20T12:46:00.813Z</time></trkpt><trkpt lat="42.9177467" lon="11.5866"><ele>744.0</ele><time>2026-04-20T12:46:01.814Z</time></trkpt><trkpt lat="42.91785" lon="11.5867183"><ele>744.0</ele><time>2026-04-20T12:46:02.812Z</time></trkpt><trkpt lat="42.9179567" lon="11.58684"><ele>744.0</ele><time>2026-04-20T12:46:03.811Z</time></trkpt><trkpt lat="42.9180567" lon="11.5869567"><ele>745.5</ele><time>2026-04-20T12:46:04.813Z</time></trkpt><trkpt lat="42.9181533" lon="11.5870733"><ele>747.0</ele><time>2026-04-20T12:46:05.811Z</time></trkpt><trkpt lat="42.9182517" lon="11.58719"><ele>748.5</ele><time>2026-04-20T12:46:06.811Z</time></trkpt><trkpt lat="42.9183483" lon="11.5873"><ele>750.0</ele><time>2026-04-20T12:46:07.813Z</time></trkpt><trkpt lat="42.9184433" lon="11.58739"><ele>750.0</ele><time>2026-04-20T12:46:08.813Z</time></trkpt><trkpt lat="42.9185483" lon="11.5874567"><ele>750.0</ele><time>2026-04-20T12:46:09.815Z</time></trkpt><trkpt lat="42.918655" lon="11.5875067"><ele>750.0</ele><time>2026-04-20T12:46:10.813Z</time></trkpt><trkpt lat="42.9187633" lon="11.58755"><ele>750.0</ele><time>2026-04-20T12:46:11.814Z</time></trkpt><trkpt lat="42.9188683" lon="11.5876"><ele>750.0</ele><time>2026-04-20T12:46:12.814Z</time></trkpt><trkpt lat="42.91897" lon="11.5876467"><ele>750.0</ele><time>2026-04-20T12:46:13.815Z</time></trkpt><trkpt lat="42.9190633" lon="11.5876817"><ele>750.0</ele><time>2026-04-20T12:46:14.814Z</time></trkpt><trkpt lat="42.9191483" lon="11.5877083"><ele>750.0</ele><time>2026-04-20T12:46:15.813Z</time></trkpt><trkpt lat="42.9192233" lon="11.58772"><ele>750.0</ele><time>2026-04-20T12:46:16.813Z</time></trkpt><trkpt lat="42.9192933" lon="11.5877267"><ele>750.0</ele><time>2026-04-20T12:46:17.812Z</time></trkpt><trkpt lat="42.9193633" lon="11.5877567"><ele>750.0</ele><time>2026-04-20T12:46:18.812Z</time></trkpt><trkpt lat="42.9194333" lon="11.5877967"><ele>750.0</ele><time>2026-04-20T12:46:19.811Z</time></trkpt><trkpt lat="42.9195" lon="11.5878417"><ele>750.0</ele><time>2026-04-20T12:46:20.813Z</time></trkpt><trkpt lat="42.9195617" lon="11.5878833"><ele>750.0</ele><time>2026-04-20T12:46:21.812Z</time></trkpt><trkpt lat="42.91962" lon="11.5879183"><ele>750.0</ele><time>2026-04-20T12:46:22.811Z</time></trkpt><trkpt lat="42.9197167" lon="11.5879767"><ele>750.0</ele><time>2026-04-20T12:46:24.813Z</time></trkpt><trkpt lat="42.9196867" lon="11.5879167"><ele>750.0</ele><time>2026-04-20T12:50:14.816Z</time></trkpt><trkpt lat="42.919585" lon="11.5878633"><ele>750.0</ele><time>2026-04-20T12:50:16.811Z</time></trkpt><trkpt lat="42.9194917" lon="11.5877767"><ele>750.0</ele><time>2026-04-20T12:50:18.814Z</time></trkpt><trkpt lat="42.9194383" lon="11.58768"><ele>750.0</ele><time>2026-04-20T12:50:20.812Z</time></trkpt><trkpt lat="42.9194633" lon="11.5875683"><ele>750.0</ele><time>2026-04-20T12:50:22.813Z</time></trkpt><trkpt lat="42.9195633" lon="11.58743"><ele>750.0</ele><time>2026-04-20T12:50:24.814Z</time></trkpt><trkpt lat="42.9196333" lon="11.58735"><ele>750.0</ele><time>2026-04-20T12:50:25.813Z</time></trkpt><trkpt lat="42.919705" lon="11.5872567"><ele>750.0</ele><time>2026-04-20T12:50:26.814Z</time></trkpt><trkpt lat="42.9197783" lon="11.5871567"><ele>750.0</ele><time>2026-04-20T12:50:27.816Z</time></trkpt><trkpt lat="42.9198533" lon="11.5870517"><ele>750.0</ele><time>2026-04-20T12:50:28.813Z</time></trkpt><trkpt lat="42.91994" lon="11.586945"><ele>750.0</ele><time>2026-04-20T12:50:29.814Z</time></trkpt><trkpt lat="42.9200317" lon="11.58685"><ele>749.0</ele><time>2026-04-20T12:50:30.814Z</time></trkpt><trkpt lat="42.9201317" lon="11.5867617"><ele>748.0</ele><time>2026-04-20T12:50:31.815Z</time></trkpt><trkpt lat="42.92024" lon="11.5866767"><ele>747.0</ele><time>2026-04-20T12:50:32.813Z</time></trkpt><trkpt lat="42.92034" lon="11.5865867"><ele>746.0</ele><time>2026-04-20T12:50:33.814Z</time></trkpt><trkpt lat="42.920435" lon="11.5864917"><ele>746.0</ele><time>2026-04-20T12:50:34.816Z</time></trkpt><trkpt lat="42.92052" lon="11.58638"><ele>746.0</ele><time>2026-04-20T12:50:35.814Z</time></trkpt><trkpt lat="42.9205967" lon="11.586255"><ele>746.0</ele><time>2026-04-20T12:50:36.811Z</time></trkpt><trkpt lat="42.9206717" lon="11.58612"><ele>746.0</ele><time>2026-04-20T12:50:37.815Z</time></trkpt><trkpt lat="42.9207483" lon="11.5859767"><ele>746.1999999999999</ele><time>2026-04-20T12:50:38.816Z</time></trkpt><trkpt lat="42.9208117" lon="11.5858383"><ele>746.4</ele><time>2026-04-20T12:50:39.811Z</time></trkpt><trkpt lat="42.9208483" lon="11.58569"><ele>746.6</ele><time>2026-04-20T12:50:40.812Z</time></trkpt><trkpt lat="42.92086" lon="11.585545"><ele>746.8</ele><time>2026-04-20T12:50:41.814Z</time></trkpt><trkpt lat="42.9208467" lon="11.5853983"><ele>747.0</ele><time>2026-04-20T12:50:42.814Z</time></trkpt><trkpt lat="42.9208117" lon="11.58525"><ele>745.5</ele><time>2026-04-20T12:50:43.814Z</time></trkpt><trkpt lat="42.9207633" lon="11.5850967"><ele>744.0</ele><time>2026-04-20T12:50:44.812Z</time></trkpt><trkpt lat="42.920705" lon="11.5849467"><ele>742.5</ele><time>2026-04-20T12:50:45.812Z</time></trkpt><trkpt lat="42.9206483" lon="11.5848017"><ele>741.0</ele><time>2026-04-20T12:50:46.812Z</time></trkpt><trkpt lat="42.9206" lon="11.584675"><ele>741.0</ele><time>2026-04-20T12:50:47.812Z</time></trkpt><trkpt lat="42.9205783" lon="11.584565"><ele>741.0</ele><time>2026-04-20T12:50:48.811Z</time></trkpt><trkpt lat="42.9205683" lon="11.58446"><ele>741.0</ele><time>2026-04-20T12:50:49.815Z</time></trkpt><trkpt lat="42.920585" lon="11.5843633"><ele>741.0</ele><time>2026-04-20T12:50:50.814Z</time></trkpt><trkpt lat="42.9206433" lon="11.5842817"><ele>741.0</ele><time>2026-04-20T12:50:51.814Z</time></trkpt><trkpt lat="42.920715" lon="11.5842133"><ele>741.0</ele><time>2026-04-20T12:50:52.814Z</time></trkpt><trkpt lat="42.92083" lon="11.584175"><ele>736.75</ele><time>2026-04-20T12:50:53.813Z</time></trkpt><trkpt lat="42.9209667" lon="11.58416"><ele>732.5</ele><time>2026-04-20T12:50:54.814Z</time></trkpt><trkpt lat="42.92109" lon="11.584155"><ele>728.25</ele><time>2026-04-20T12:50:55.813Z</time></trkpt><trkpt lat="42.9212" lon="11.5841767"><ele>724.0</ele><time>2026-04-20T12:50:56.815Z</time></trkpt><trkpt lat="42.9212933" lon="11.5842317"><ele>724.0</ele><time>2026-04-20T12:50:57.814Z</time></trkpt><trkpt lat="42.9213817" lon="11.5843083"><ele>724.0</ele><time>2026-04-20T12:50:58.814Z</time></trkpt><trkpt lat="42.921475" lon="11.5843783"><ele>724.0</ele><time>2026-04-20T12:50:59.811Z</time></trkpt><trkpt lat="42.9215883" lon="11.5844283"><ele>724.0</ele><time>2026-04-20T12:51:00.811Z</time></trkpt><trkpt lat="42.921705" lon="11.5844467"><ele>724.0</ele><time>2026-04-20T12:51:01.811Z</time></trkpt><trkpt lat="42.9218167" lon="11.584455"><ele>722.4000000000001</ele><time>2026-04-20T12:51:02.814Z</time></trkpt><trkpt lat="42.9219233" lon="11.58445"><ele>720.8</ele><time>2026-04-20T12:51:03.814Z</time></trkpt><trkpt lat="42.9220233" lon="11.5844317"><ele>719.2</ele><time>2026-04-20T12:51:04.814Z</time></trkpt><trkpt lat="42.9221067" lon="11.5843883"><ele>717.5999999999999</ele><time>2026-04-20T12:51:05.813Z</time></trkpt><trkpt lat="42.9221917" lon="11.5843283"><ele>716.0</ele><time>2026-04-20T12:51:06.814Z</time></trkpt><trkpt lat="42.922265" lon="11.5842133"><ele>716.0</ele><time>2026-04-20T12:51:07.814Z</time></trkpt><trkpt lat="42.9223367" lon="11.5840883"><ele>716.0</ele><time>2026-04-20T12:51:08.814Z</time></trkpt><trkpt lat="42.9224083" lon="11.5839567"><ele>716.0</ele><time>2026-04-20T12:51:09.815Z</time></trkpt><trkpt lat="42.922485" lon="11.5838183"><ele>716.0</ele><time>2026-04-20T12:51:10.814Z</time></trkpt><trkpt lat="42.92256" lon="11.5836833"><ele>712.0</ele><time>2026-04-20T12:51:11.815Z</time></trkpt><trkpt lat="42.9226367" lon="11.5835467"><ele>708.0</ele><time>2026-04-20T12:51:12.814Z</time></trkpt><trkpt lat="42.9227133" lon="11.5834067"><ele>704.0</ele><time>2026-04-20T12:51:13.814Z</time></trkpt><trkpt lat="42.9227867" lon="11.583275"><ele>700.0</ele><time>2026-04-20T12:51:14.814Z</time></trkpt><trkpt lat="42.9228517" lon="11.5831617"><ele>700.0</ele><time>2026-04-20T12:51:15.815Z</time></trkpt><trkpt lat="42.92291" lon="11.5830833"><ele>700.0</ele><time>2026-04-20T12:51:16.813Z</time></trkpt><trkpt lat="42.9230167" lon="11.5830133"><ele>700.0</ele><time>2026-04-20T12:51:18.811Z</time></trkpt><trkpt lat="42.92308" lon="11.583045"><ele>700.0</ele><time>2026-04-20T12:51:19.811Z</time></trkpt><trkpt lat="42.9231433" lon="11.5831233"><ele>700.0</ele><time>2026-04-20T12:51:20.811Z</time></trkpt><trkpt lat="42.9232083" lon="11.58324"><ele>700.0</ele><time>2026-04-20T12:51:21.814Z</time></trkpt><trkpt lat="42.9232683" lon="11.5833333"><ele>700.0</ele><time>2026-04-20T12:51:22.811Z</time></trkpt><trkpt lat="42.9233283" lon="11.583405"><ele>700.0</ele><time>2026-04-20T12:51:23.811Z</time></trkpt><trkpt lat="42.9233967" lon="11.58344"><ele>700.0</ele><time>2026-04-20T12:51:24.811Z</time></trkpt><trkpt lat="42.9234667" lon="11.5834417"><ele>700.0</ele><time>2026-04-20T12:51:25.81Z</time></trkpt><trkpt lat="42.923525" lon="11.583405"><ele>700.0</ele><time>2026-04-20T12:51:26.811Z</time></trkpt><trkpt lat="42.9235567" lon="11.583315"><ele>696.75</ele><time>2026-04-20T12:51:27.811Z</time></trkpt><trkpt lat="42.9235617" lon="11.5831983"><ele>693.5</ele><time>2026-04-20T12:51:28.811Z</time></trkpt><trkpt lat="42.9235567" lon="11.5830783"><ele>690.25</ele><time>2026-04-20T12:51:29.81Z</time></trkpt><trkpt lat="42.9235033" lon="11.5828933"><ele>687.0</ele><time>2026-04-20T12:51:30.813Z</time></trkpt><trkpt lat="42.9234333" lon="11.5826867"><ele>688.0</ele><time>2026-04-20T12:51:31.81Z</time></trkpt><trkpt lat="42.9233833" lon="11.582485"><ele>689.0</ele><time>2026-04-20T12:51:32.815Z</time></trkpt><trkpt lat="42.9233333" lon="11.5822883"><ele>690.0</ele><time>2026-04-20T12:51:33.812Z</time></trkpt><trkpt lat="42.9232683" lon="11.5820883"><ele>685.6666666666666</ele><time>2026-04-20T12:51:34.81Z</time></trkpt><trkpt lat="42.9231933" lon="11.5818917"><ele>681.3333333333333</ele><time>2026-04-20T12:51:35.812Z</time></trkpt><trkpt lat="42.9231067" lon="11.581705"><ele>677.0</ele><time>2026-04-20T12:51:36.809Z</time></trkpt><trkpt lat="42.9230083" lon="11.5815383"><ele>677.0</ele><time>2026-04-20T12:51:37.816Z</time></trkpt><trkpt lat="42.9229017" lon="11.58139"><ele>677.0</ele><time>2026-04-20T12:51:38.813Z</time></trkpt><trkpt lat="42.922795" lon="11.5812633"><ele>677.0</ele><time>2026-04-20T12:51:39.813Z</time></trkpt><trkpt lat="42.9226883" lon="11.581145"><ele>677.0</ele><time>2026-04-20T12:51:40.814Z</time></trkpt><trkpt lat="42.9226017" lon="11.5810283"><ele>676.6</ele><time>2026-04-20T12:51:41.817Z</time></trkpt><trkpt lat="42.9225283" lon="11.5809133"><ele>676.2</ele><time>2026-04-20T12:51:42.812Z</time></trkpt><trkpt lat="42.9224733" lon="11.5807917"><ele>675.8</ele><time>2026-04-20T12:51:43.813Z</time></trkpt><trkpt lat="42.9224417" lon="11.5806517"><ele>675.4</ele><time>2026-04-20T12:51:44.813Z</time></trkpt><trkpt lat="42.9224217" lon="11.5804917"><ele>675.0</ele><time>2026-04-20T12:51:45.813Z</time></trkpt><trkpt lat="42.9224117" lon="11.5803267"><ele>675.0</ele><time>2026-04-20T12:51:46.812Z</time></trkpt><trkpt lat="42.9224133" lon="11.5801683"><ele>675.0</ele><time>2026-04-20T12:51:47.814Z</time></trkpt><trkpt lat="42.9224267" lon="11.58002"><ele>675.0</ele><time>2026-04-20T12:51:48.81Z</time></trkpt><trkpt lat="42.9224617" lon="11.57988"><ele>675.0</ele><time>2026-04-20T12:51:49.811Z</time></trkpt><trkpt lat="42.9225167" lon="11.5797467"><ele>675.0</ele><time>2026-04-20T12:51:50.811Z</time></trkpt><trkpt lat="42.9225967" lon="11.5796183"><ele>672.75</ele><time>2026-04-20T12:51:51.812Z</time></trkpt><trkpt lat="42.922685" lon="11.5794983"><ele>670.5</ele><time>2026-04-20T12:51:52.81Z</time></trkpt><trkpt lat="42.9227817" lon="11.5794017"><ele>668.25</ele><time>2026-04-20T12:51:53.811Z</time></trkpt><trkpt lat="42.922885" lon="11.5793433"><ele>666.0</ele><time>2026-04-20T12:51:54.812Z</time></trkpt><trkpt lat="42.9229967" lon="11.5793233"><ele>666.0</ele><time>2026-04-20T12:51:55.809Z</time></trkpt><trkpt lat="42.9231133" lon="11.5793633"><ele>666.0</ele><time>2026-04-20T12:51:56.81Z</time></trkpt><trkpt lat="42.9232267" lon="11.5794333"><ele>666.0</ele><time>2026-04-20T12:51:57.813Z</time></trkpt><trkpt lat="42.92334" lon="11.5795083"><ele>666.0</ele><time>2026-04-20T12:51:58.811Z</time></trkpt><trkpt lat="42.9234583" lon="11.5795733"><ele>662.75</ele><time>2026-04-20T12:51:59.811Z</time></trkpt><trkpt lat="42.923575" lon="11.579615"><ele>659.5</ele><time>2026-04-20T12:52:00.813Z</time></trkpt><trkpt lat="42.9236883" lon="11.5796267"><ele>656.25</ele><time>2026-04-20T12:52:01.809Z</time></trkpt><trkpt lat="42.92381" lon="11.5796033"><ele>653.0</ele><time>2026-04-20T12:52:02.813Z</time></trkpt><trkpt lat="42.9239317" lon="11.5795517"><ele>653.75</ele><time>2026-04-20T12:52:03.809Z</time></trkpt><trkpt lat="42.9240617" lon="11.5795"><ele>654.5</ele><time>2026-04-20T12:52:04.812Z</time></trkpt><trkpt lat="42.9241833" lon="11.5794533"><ele>655.25</ele><time>2026-04-20T12:52:05.81Z</time></trkpt><trkpt lat="42.9242983" lon="11.579405"><ele>656.0</ele><time>2026-04-20T12:52:06.809Z</time></trkpt><trkpt lat="42.9243983" lon="11.5793433"><ele>653.8333333333333</ele><time>2026-04-20T12:52:07.812Z</time></trkpt><trkpt lat="42.92447" lon="11.5792583"><ele>651.6666666666666</ele><time>2026-04-20T12:52:08.811Z</time></trkpt><trkpt lat="42.92452" lon="11.579165"><ele>649.5</ele><time>2026-04-20T12:52:09.81Z</time></trkpt><trkpt lat="42.9245467" lon="11.5790633"><ele>647.3333333333334</ele><time>2026-04-20T12:52:10.811Z</time></trkpt><trkpt lat="42.9245433" lon="11.5789683"><ele>645.1666666666667</ele><time>2026-04-20T12:52:11.81Z</time></trkpt><trkpt lat="42.9245033" lon="11.5788783"><ele>643.0</ele><time>2026-04-20T12:52:12.81Z</time></trkpt><trkpt lat="42.9244267" lon="11.5787917"><ele>643.0</ele><time>2026-04-20T12:52:13.811Z</time></trkpt><trkpt lat="42.9243217" lon="11.5787117"><ele>643.0</ele><time>2026-04-20T12:52:14.809Z</time></trkpt><trkpt lat="42.9242067" lon="11.5786367"><ele>643.0</ele><time>2026-04-20T12:52:15.816Z</time></trkpt><trkpt lat="42.92409" lon="11.57855"><ele>643.0</ele><time>2026-04-20T12:52:16.813Z</time></trkpt><trkpt lat="42.9239733" lon="11.57845"><ele>644.0</ele><time>2026-04-20T12:52:17.813Z</time></trkpt><trkpt lat="42.92386" lon="11.5783383"><ele>645.0</ele><time>2026-04-20T12:52:18.81Z</time></trkpt><trkpt lat="42.923745" lon="11.5782117"><ele>646.0</ele><time>2026-04-20T12:52:19.811Z</time></trkpt><trkpt lat="42.9236317" lon="11.5780817"><ele>647.0</ele><time>2026-04-20T12:52:20.813Z</time></trkpt><trkpt lat="42.9235117" lon="11.5779533"><ele>646.6666666666666</ele><time>2026-04-20T12:52:21.809Z</time></trkpt><trkpt lat="42.923385" lon="11.5778267"><ele>646.3333333333334</ele><time>2026-04-20T12:52:22.811Z</time></trkpt><trkpt lat="42.923255" lon="11.5777033"><ele>646.0</ele><time>2026-04-20T12:52:23.811Z</time></trkpt><trkpt lat="42.923125" lon="11.5775817"><ele>646.0</ele><time>2026-04-20T12:52:24.81Z</time></trkpt><trkpt lat="42.92301" lon="11.5774533"><ele>646.0</ele><time>2026-04-20T12:52:25.81Z</time></trkpt><trkpt lat="42.922905" lon="11.577315"><ele>646.0</ele><time>2026-04-20T12:52:26.811Z</time></trkpt><trkpt lat="42.9228167" lon="11.5771633"><ele>646.0</ele><time>2026-04-20T12:52:27.812Z</time></trkpt><trkpt lat="42.9227417" lon="11.5770083"><ele>644.75</ele><time>2026-04-20T12:52:28.809Z</time></trkpt><trkpt lat="42.9226783" lon="11.5768567"><ele>643.5</ele><time>2026-04-20T12:52:29.812Z</time></trkpt><trkpt lat="42.9226233" lon="11.576695"><ele>642.25</ele><time>2026-04-20T12:52:30.814Z</time></trkpt><trkpt lat="42.9225783" lon="11.5765217"><ele>641.0</ele><time>2026-04-20T12:52:31.812Z</time></trkpt><trkpt lat="42.9225283" lon="11.5763567"><ele>641.0</ele><time>2026-04-20T12:52:32.813Z</time></trkpt><trkpt lat="42.9224633" lon="11.5762033"><ele>641.0</ele><time>2026-04-20T12:52:33.81Z</time></trkpt><trkpt lat="42.9223883" lon="11.57604"><ele>641.0</ele><time>2026-04-20T12:52:34.81Z</time></trkpt><trkpt lat="42.9223" lon="11.5758833"><ele>641.0</ele><time>2026-04-20T12:52:35.814Z</time></trkpt><trkpt lat="42.92221" lon="11.5757367"><ele>639.1999999999999</ele><time>2026-04-20T12:52:36.813Z</time></trkpt><trkpt lat="42.9221267" lon="11.5756"><ele>637.4</ele><time>2026-04-20T12:52:37.814Z</time></trkpt><trkpt lat="42.9220567" lon="11.575475"><ele>635.6</ele><time>2026-04-20T12:52:38.817Z</time></trkpt><trkpt lat="42.9219983" lon="11.5753633"><ele>633.8</ele><time>2026-04-20T12:52:39.814Z</time></trkpt><trkpt lat="42.921965" lon="11.5752567"><ele>632.0</ele><time>2026-04-20T12:52:40.813Z</time></trkpt><trkpt lat="42.9219483" lon="11.5751617"><ele>628.5</ele><time>2026-04-20T12:52:41.814Z</time></trkpt><trkpt lat="42.9219833" lon="11.5749967"><ele>625.0</ele><time>2026-04-20T12:52:43.812Z</time></trkpt><trkpt lat="42.922075" lon="11.5749317"><ele>621.5</ele><time>2026-04-20T12:52:44.813Z</time></trkpt><trkpt lat="42.9221883" lon="11.57488"><ele>618.0</ele><time>2026-04-20T12:52:45.814Z</time></trkpt><trkpt lat="42.9223" lon="11.57485"><ele>618.0</ele><time>2026-04-20T12:52:46.813Z</time></trkpt><trkpt lat="42.922405" lon="11.574845"><ele>618.0</ele><time>2026-04-20T12:52:47.812Z</time></trkpt><trkpt lat="42.92251" lon="11.5748917"><ele>618.0</ele><time>2026-04-20T12:52:48.81Z</time></trkpt><trkpt lat="42.9226017" lon="11.5749733"><ele>618.0</ele><time>2026-04-20T12:52:49.813Z</time></trkpt><trkpt lat="42.922695" lon="11.5750817"><ele>618.0</ele><time>2026-04-20T12:52:50.81Z</time></trkpt><trkpt lat="42.9227917" lon="11.5751883"><ele>619.5</ele><time>2026-04-20T12:52:51.81Z</time></trkpt><trkpt lat="42.9229117" lon="11.575285"><ele>621.0</ele><time>2026-04-20T12:52:52.812Z</time></trkpt><trkpt lat="42.923035" lon="11.57537"><ele>622.5</ele><time>2026-04-20T12:52:53.811Z</time></trkpt><trkpt lat="42.9231533" lon="11.5754433"><ele>624.0</ele><time>2026-04-20T12:52:54.811Z</time></trkpt><trkpt lat="42.9232683" lon="11.57549"><ele>624.0</ele><time>2026-04-20T12:52:55.812Z</time></trkpt><trkpt lat="42.9233883" lon="11.5755033"><ele>624.0</ele><time>2026-04-20T12:52:56.81Z</time></trkpt><trkpt lat="42.9235083" lon="11.57548"><ele>624.0</ele><time>2026-04-20T12:52:57.81Z</time></trkpt><trkpt lat="42.9236267" lon="11.575435"><ele>624.0</ele><time>2026-04-20T12:52:58.81Z</time></trkpt><trkpt lat="42.9237467" lon="11.5753867"><ele>624.0</ele><time>2026-04-20T12:52:59.814Z</time></trkpt><trkpt lat="42.9238633" lon="11.5753417"><ele>624.0</ele><time>2026-04-20T12:53:00.812Z</time></trkpt><trkpt lat="42.923975" lon="11.5753133"><ele>624.0</ele><time>2026-04-20T12:53:01.813Z</time></trkpt><trkpt lat="42.9240767" lon="11.5753183"><ele>624.0</ele><time>2026-04-20T12:53:02.815Z</time></trkpt><trkpt lat="42.924175" lon="11.5753667"><ele>624.0</ele><time>2026-04-20T12:53:03.813Z</time></trkpt><trkpt lat="42.9242667" lon="11.575445"><ele>620.6</ele><time>2026-04-20T12:53:04.814Z</time></trkpt><trkpt lat="42.92435" lon="11.575545"><ele>617.2</ele><time>2026-04-20T12:53:05.813Z</time></trkpt><trkpt lat="42.9244317" lon="11.5756433"><ele>613.8000000000001</ele><time>2026-04-20T12:53:06.814Z</time></trkpt><trkpt lat="42.9245167" lon="11.5757183"><ele>610.4</ele><time>2026-04-20T12:53:07.81Z</time></trkpt><trkpt lat="42.9246033" lon="11.575755"><ele>607.0</ele><time>2026-04-20T12:53:08.813Z</time></trkpt><trkpt lat="42.92469" lon="11.5757567"><ele>607.0</ele><time>2026-04-20T12:53:09.813Z</time></trkpt><trkpt lat="42.9247667" lon="11.5757183"><ele>607.0</ele><time>2026-04-20T12:53:10.814Z</time></trkpt><trkpt lat="42.9248383" lon="11.5756667"><ele>607.0</ele><time>2026-04-20T12:53:11.811Z</time></trkpt><trkpt lat="42.924885" lon="11.5755367"><ele>607.0</ele><time>2026-04-20T12:53:12.814Z</time></trkpt><trkpt lat="42.92491" lon="11.5753667"><ele>607.0</ele><time>2026-04-20T12:53:13.812Z</time></trkpt><trkpt lat="42.924915" lon="11.575195"><ele>605.6</ele><time>2026-04-20T12:53:14.815Z</time></trkpt><trkpt lat="42.92492" lon="11.5750533"><ele>604.2</ele><time>2026-04-20T12:53:15.813Z</time></trkpt><trkpt lat="42.9249" lon="11.574925"><ele>602.8</ele><time>2026-04-20T12:53:16.814Z</time></trkpt><trkpt lat="42.9248633" lon="11.5748083"><ele>601.4</ele><time>2026-04-20T12:53:17.813Z</time></trkpt><trkpt lat="42.9248067" lon="11.5746983"><ele>600.0</ele><time>2026-04-20T12:53:18.812Z</time></trkpt><trkpt lat="42.9247183" lon="11.5745833"><ele>597.5</ele><time>2026-04-20T12:53:19.811Z</time></trkpt><trkpt lat="42.9246367" lon="11.5744467"><ele>595.0</ele><time>2026-04-20T12:53:20.811Z</time></trkpt><trkpt lat="42.92457" lon="11.5742817"><ele>592.5</ele><time>2026-04-20T12:53:21.811Z</time></trkpt><trkpt lat="42.924515" lon="11.5740967"><ele>590.0</ele><time>2026-04-20T12:53:22.812Z</time></trkpt><trkpt lat="42.9244683" lon="11.5739167"><ele>590.0</ele><time>2026-04-20T12:53:23.81Z</time></trkpt><trkpt lat="42.9244183" lon="11.57375"><ele>590.0</ele><time>2026-04-20T12:53:24.813Z</time></trkpt><trkpt lat="42.92436" lon="11.5736117"><ele>590.0</ele><time>2026-04-20T12:53:25.811Z</time></trkpt><trkpt lat="42.9242767" lon="11.5735083"><ele>590.0</ele><time>2026-04-20T12:53:26.814Z</time></trkpt><trkpt lat="42.924175" lon="11.5734383"><ele>588.5</ele><time>2026-04-20T12:53:27.813Z</time></trkpt><trkpt lat="42.924065" lon="11.5734067"><ele>587.0</ele><time>2026-04-20T12:53:28.811Z</time></trkpt><trkpt lat="42.923945" lon="11.573415"><ele>585.5</ele><time>2026-04-20T12:53:29.811Z</time></trkpt><trkpt lat="42.92382" lon="11.5734383"><ele>584.0</ele><time>2026-04-20T12:53:30.81Z</time></trkpt><trkpt lat="42.923685" lon="11.5734867"><ele>584.0</ele><time>2026-04-20T12:53:31.811Z</time></trkpt><trkpt lat="42.9235483" lon="11.5735367"><ele>584.0</ele><time>2026-04-20T12:53:32.811Z</time></trkpt><trkpt lat="42.9234117" lon="11.573595"><ele>584.0</ele><time>2026-04-20T12:53:33.81Z</time></trkpt><trkpt lat="42.9232783" lon="11.5736417"><ele>584.0</ele><time>2026-04-20T12:53:34.813Z</time></trkpt><trkpt lat="42.9231433" lon="11.5736767"><ele>583.0</ele><time>2026-04-20T12:53:35.811Z</time></trkpt><trkpt lat="42.92301" lon="11.5736767"><ele>582.0</ele><time>2026-04-20T12:53:36.814Z</time></trkpt><trkpt lat="42.9228833" lon="11.5736533"><ele>581.0</ele><time>2026-04-20T12:53:37.814Z</time></trkpt><trkpt lat="42.9227733" lon="11.5735917"><ele>580.0</ele><time>2026-04-20T12:53:38.812Z</time></trkpt><trkpt lat="42.9226883" lon="11.5735033"><ele>580.0</ele><time>2026-04-20T12:53:39.809Z</time></trkpt><trkpt lat="42.92264" lon="11.5733833"><ele>580.0</ele><time>2026-04-20T12:53:40.811Z</time></trkpt><trkpt lat="42.9226333" lon="11.5732517"><ele>580.0</ele><time>2026-04-20T12:53:41.813Z</time></trkpt><trkpt lat="42.9226567" lon="11.5731267"><ele>580.0</ele><time>2026-04-20T12:53:42.814Z</time></trkpt><trkpt lat="42.9227133" lon="11.5730083"><ele>580.0</ele><time>2026-04-20T12:53:43.815Z</time></trkpt><trkpt lat="42.922795" lon="11.572905"><ele>577.25</ele><time>2026-04-20T12:53:44.813Z</time></trkpt><trkpt lat="42.9229133" lon="11.5728133"><ele>574.5</ele><time>2026-04-20T12:53:45.814Z</time></trkpt><trkpt lat="42.92302" lon="11.572725"><ele>571.75</ele><time>2026-04-20T12:53:46.813Z</time></trkpt><trkpt lat="42.9231117" lon="11.5726367"><ele>569.0</ele><time>2026-04-20T12:53:47.811Z</time></trkpt><trkpt lat="42.923185" lon="11.572545"><ele>569.0</ele><time>2026-04-20T12:53:48.811Z</time></trkpt><trkpt lat="42.9232417" lon="11.572435"><ele>569.0</ele><time>2026-04-20T12:53:49.813Z</time></trkpt><trkpt lat="42.9232617" lon="11.5723117"><ele>569.0</ele><time>2026-04-20T12:53:50.813Z</time></trkpt><trkpt lat="42.9232667" lon="11.5721983"><ele>569.0</ele><time>2026-04-20T12:53:51.811Z</time></trkpt><trkpt lat="42.9232383" lon="11.5720967"><ele>569.0</ele><time>2026-04-20T12:53:52.813Z</time></trkpt><trkpt lat="42.9231667" lon="11.5720233"><ele>569.0</ele><time>2026-04-20T12:53:53.812Z</time></trkpt><trkpt lat="42.9230983" lon="11.5719717"><ele>569.0</ele><time>2026-04-20T12:53:54.811Z</time></trkpt><trkpt lat="42.922965" lon="11.571995"><ele>569.0</ele><time>2026-04-20T12:53:55.811Z</time></trkpt><trkpt lat="42.9228667" lon="11.57202"><ele>569.0</ele><time>2026-04-20T12:53:56.811Z</time></trkpt><trkpt lat="42.92274" lon="11.5721817"><ele>569.0</ele><time>2026-04-20T12:53:57.813Z</time></trkpt><trkpt lat="42.922615" lon="11.5723017"><ele>567.75</ele><time>2026-04-20T12:53:58.811Z</time></trkpt><trkpt lat="42.9224967" lon="11.572395"><ele>566.5</ele><time>2026-04-20T12:53:59.811Z</time></trkpt><trkpt lat="42.922385" lon="11.5724683"><ele>565.25</ele><time>2026-04-20T12:54:00.813Z</time></trkpt><trkpt lat="42.92228" lon="11.5724883"><ele>564.0</ele><time>2026-04-20T12:54:01.814Z</time></trkpt><trkpt lat="42.922185" lon="11.5724667"><ele>564.0</ele><time>2026-04-20T12:54:02.814Z</time></trkpt><trkpt lat="42.9220967" lon="11.5724167"><ele>564.0</ele><time>2026-04-20T12:54:03.814Z</time></trkpt><trkpt lat="42.9220233" lon="11.5723367"><ele>564.0</ele><time>2026-04-20T12:54:04.814Z</time></trkpt><trkpt lat="42.9219767" lon="11.57221"><ele>564.0</ele><time>2026-04-20T12:54:05.812Z</time></trkpt><trkpt lat="42.9219383" lon="11.5720467"><ele>564.0</ele><time>2026-04-20T12:54:06.81Z</time></trkpt><trkpt lat="42.9219067" lon="11.5718583"><ele>560.75</ele><time>2026-04-20T12:54:07.814Z</time></trkpt><trkpt lat="42.9218717" lon="11.5716667"><ele>557.5</ele><time>2026-04-20T12:54:08.816Z</time></trkpt><trkpt lat="42.921845" lon="11.5714717"><ele>554.25</ele><time>2026-04-20T12:54:09.814Z</time></trkpt><trkpt lat="42.9218417" lon="11.5712767"><ele>551.0</ele><time>2026-04-20T12:54:10.813Z</time></trkpt><trkpt lat="42.9218467" lon="11.5710783"><ele>549.0</ele><time>2026-04-20T12:54:11.814Z</time></trkpt><trkpt lat="42.921855" lon="11.5708783"><ele>547.0</ele><time>2026-04-20T12:54:12.814Z</time></trkpt><trkpt lat="42.9218567" lon="11.57068"><ele>545.0</ele><time>2026-04-20T12:54:13.814Z</time></trkpt><trkpt lat="42.9218517" lon="11.5704883"><ele>543.0</ele><time>2026-04-20T12:54:14.814Z</time></trkpt><trkpt lat="42.9218467" lon="11.5703183"><ele>542.0</ele><time>2026-04-20T12:54:15.813Z</time></trkpt><trkpt lat="42.92183" lon="11.5701733"><ele>541.0</ele><time>2026-04-20T12:54:16.814Z</time></trkpt><trkpt lat="42.9217983" lon="11.5700517"><ele>540.0</ele><time>2026-04-20T12:54:17.814Z</time></trkpt><trkpt lat="42.9217383" lon="11.5699417"><ele>539.0</ele><time>2026-04-20T12:54:18.814Z</time></trkpt><trkpt lat="42.9216483" lon="11.5698483"><ele>538.0</ele><time>2026-04-20T12:54:19.814Z</time></trkpt><trkpt lat="42.9215467" lon="11.5697683"><ele>538.0</ele><time>2026-04-20T12:54:20.813Z</time></trkpt><trkpt lat="42.9214383" lon="11.5696867"><ele>538.0</ele><time>2026-04-20T12:54:21.817Z</time></trkpt><trkpt lat="42.9213367" lon="11.5695967"><ele>538.0</ele><time>2026-04-20T12:54:22.814Z</time></trkpt><trkpt lat="42.9212467" lon="11.5694917"><ele>538.0</ele><time>2026-04-20T12:54:23.814Z</time></trkpt><trkpt lat="42.9211767" lon="11.5693833"><ele>536.6</ele><time>2026-04-20T12:54:24.814Z</time></trkpt><trkpt lat="42.921125" lon="11.569255"><ele>535.1999999999999</ele><time>2026-04-20T12:54:25.814Z</time></trkpt><trkpt lat="42.9210883" lon="11.5691117"><ele>533.8</ele><time>2026-04-20T12:54:26.814Z</time></trkpt><trkpt lat="42.9210617" lon="11.5689633"><ele>532.4</ele><time>2026-04-20T12:54:27.815Z</time></trkpt><trkpt lat="42.9210383" lon="11.5688083"><ele>531.0</ele><time>2026-04-20T12:54:28.814Z</time></trkpt><trkpt lat="42.921035" lon="11.5686417"><ele>530.5</ele><time>2026-04-20T12:54:29.815Z</time></trkpt><trkpt lat="42.9210433" lon="11.5684667"><ele>530.0</ele><time>2026-04-20T12:54:30.813Z</time></trkpt><trkpt lat="42.92107" lon="11.5682933"><ele>529.5</ele><time>2026-04-20T12:54:31.814Z</time></trkpt><trkpt lat="42.9211117" lon="11.5681233"><ele>529.0</ele><time>2026-04-20T12:54:32.814Z</time></trkpt><trkpt lat="42.921155" lon="11.5679533"><ele>527.0</ele><time>2026-04-20T12:54:33.814Z</time></trkpt><trkpt lat="42.9211867" lon="11.567785"><ele>525.0</ele><time>2026-04-20T12:54:34.81Z</time></trkpt><trkpt lat="42.9212033" lon="11.56762"><ele>523.0</ele><time>2026-04-20T12:54:35.815Z</time></trkpt><trkpt lat="42.9211967" lon="11.5674617"><ele>521.0</ele><time>2026-04-20T12:54:36.813Z</time></trkpt><trkpt lat="42.92116" lon="11.567315"><ele>521.0</ele><time>2026-04-20T12:54:37.81Z</time></trkpt><trkpt lat="42.9211133" lon="11.5671717"><ele>521.0</ele><time>2026-04-20T12:54:38.812Z</time></trkpt><trkpt lat="42.9210717" lon="11.5670267"><ele>521.0</ele><time>2026-04-20T12:54:39.814Z</time></trkpt><trkpt lat="42.9210533" lon="11.5668733"><ele>521.0</ele><time>2026-04-20T12:54:40.813Z</time></trkpt><trkpt lat="42.92106" lon="11.5667133"><ele>518.75</ele><time>2026-04-20T12:54:41.814Z</time></trkpt><trkpt lat="42.92108" lon="11.5665467"><ele>516.5</ele><time>2026-04-20T12:54:42.814Z</time></trkpt><trkpt lat="42.9211117" lon="11.5663817"><ele>514.25</ele><time>2026-04-20T12:54:43.814Z</time></trkpt><trkpt lat="42.9211467" lon="11.56621"><ele>512.0</ele><time>2026-04-20T12:54:44.815Z</time></trkpt><trkpt lat="42.9211867" lon="11.5660333"><ele>510.25</ele><time>2026-04-20T12:54:45.814Z</time></trkpt><trkpt lat="42.921235" lon="11.56586"><ele>508.5</ele><time>2026-04-20T12:54:46.814Z</time></trkpt><trkpt lat="42.9212833" lon="11.565695"><ele>506.75</ele><time>2026-04-20T12:54:47.814Z</time></trkpt><trkpt lat="42.9213317" lon="11.5655333"><ele>505.0</ele><time>2026-04-20T12:54:48.814Z</time></trkpt><trkpt lat="42.9213783" lon="11.56537"><ele>502.8</ele><time>2026-04-20T12:54:49.814Z</time></trkpt><trkpt lat="42.9214167" lon="11.5652117"><ele>500.6</ele><time>2026-04-20T12:54:50.82Z</time></trkpt><trkpt lat="42.92146" lon="11.56507"><ele>498.4</ele><time>2026-04-20T12:54:51.817Z</time></trkpt><trkpt lat="42.92151" lon="11.564955"><ele>496.2</ele><time>2026-04-20T12:54:52.813Z</time></trkpt><trkpt lat="42.9215833" lon="11.564875"><ele>494.0</ele><time>2026-04-20T12:54:53.814Z</time></trkpt><trkpt lat="42.9216733" lon="11.564825"><ele>492.75</ele><time>2026-04-20T12:54:54.813Z</time></trkpt><trkpt lat="42.9217817" lon="11.5648017"><ele>491.5</ele><time>2026-04-20T12:54:55.813Z</time></trkpt><trkpt lat="42.921905" lon="11.5647883"><ele>490.25</ele><time>2026-04-20T12:54:56.814Z</time></trkpt><trkpt lat="42.9220333" lon="11.56478"><ele>489.0</ele><time>2026-04-20T12:54:57.814Z</time></trkpt><trkpt lat="42.9221617" lon="11.5647783"><ele>489.0</ele><time>2026-04-20T12:54:58.813Z</time></trkpt><trkpt lat="42.9222833" lon="11.564795"><ele>489.0</ele><time>2026-04-20T12:54:59.814Z</time></trkpt><trkpt lat="42.92239" lon="11.564815"><ele>489.0</ele><time>2026-04-20T12:55:00.814Z</time></trkpt><trkpt lat="42.9224833" lon="11.5648383"><ele>489.0</ele><time>2026-04-20T12:55:01.814Z</time></trkpt><trkpt lat="42.9225633" lon="11.56485"><ele>489.0</ele><time>2026-04-20T12:55:02.813Z</time></trkpt><trkpt lat="42.922635" lon="11.5648367"><ele>488.3333333333333</ele><time>2026-04-20T12:55:03.812Z</time></trkpt><trkpt lat="42.9226933" lon="11.5647817"><ele>487.66666666666663</ele><time>2026-04-20T12:55:04.813Z</time></trkpt><trkpt lat="42.922735" lon="11.564695"><ele>487.0</ele><time>2026-04-20T12:55:05.812Z</time></trkpt><trkpt lat="42.922765" lon="11.5646"><ele>486.3333333333333</ele><time>2026-04-20T12:55:06.813Z</time></trkpt><trkpt lat="42.92278" lon="11.5644917"><ele>485.66666666666663</ele><time>2026-04-20T12:55:07.814Z</time></trkpt><trkpt lat="42.9228067" lon="11.5643483"><ele>485.0</ele><time>2026-04-20T12:55:09.81Z</time></trkpt><trkpt lat="42.9228383" lon="11.5642333"><ele>483.0</ele><time>2026-04-20T12:55:40.813Z</time></trkpt><trkpt lat="42.9228967" lon="11.5641817"><ele>481.0</ele><time>2026-04-20T12:55:41.814Z</time></trkpt><trkpt lat="42.922975" lon="11.5641283"><ele>479.0</ele><time>2026-04-20T12:55:42.814Z</time></trkpt><trkpt lat="42.9230733" lon="11.564075"><ele>477.0</ele><time>2026-04-20T12:55:43.814Z</time></trkpt><trkpt lat="42.9231867" lon="11.5640167"><ele>475.0</ele><time>2026-04-20T12:55:44.816Z</time></trkpt><trkpt lat="42.9233083" lon="11.5639483"><ele>473.75</ele><time>2026-04-20T12:55:45.816Z</time></trkpt><trkpt lat="42.92344" lon="11.5638733"><ele>472.5</ele><time>2026-04-20T12:55:46.814Z</time></trkpt><trkpt lat="42.92357" lon="11.5637933"><ele>471.25</ele><time>2026-04-20T12:55:47.814Z</time></trkpt><trkpt lat="42.9237017" lon="11.5637183"><ele>470.0</ele><time>2026-04-20T12:55:48.814Z</time></trkpt><trkpt lat="42.923835" lon="11.5636767"><ele>470.0</ele><time>2026-04-20T12:55:49.814Z</time></trkpt><trkpt lat="42.92396" lon="11.563675"><ele>470.0</ele><time>2026-04-20T12:55:50.813Z</time></trkpt><trkpt lat="42.9240883" lon="11.5637083"><ele>470.0</ele><time>2026-04-20T12:55:51.814Z</time></trkpt><trkpt lat="42.9242083" lon="11.5637683"><ele>470.0</ele><time>2026-04-20T12:55:52.814Z</time></trkpt><trkpt lat="42.9243283" lon="11.5638467"><ele>467.75</ele><time>2026-04-20T12:55:53.815Z</time></trkpt><trkpt lat="42.92445" lon="11.5639283"><ele>465.5</ele><time>2026-04-20T12:55:54.813Z</time></trkpt><trkpt lat="42.9245767" lon="11.5640117"><ele>463.25</ele><time>2026-04-20T12:55:55.813Z</time></trkpt><trkpt lat="42.9247083" lon="11.5641"><ele>461.0</ele><time>2026-04-20T12:55:56.813Z</time></trkpt><trkpt lat="42.9248383" lon="11.5641883"><ele>461.0</ele><time>2026-04-20T12:55:57.813Z</time></trkpt><trkpt lat="42.924965" lon="11.5642867"><ele>461.0</ele><time>2026-04-20T12:55:58.814Z</time></trkpt><trkpt lat="42.925085" lon="11.5643783"><ele>461.0</ele><time>2026-04-20T12:55:59.815Z</time></trkpt><trkpt lat="42.9252067" lon="11.5644667"><ele>461.0</ele><time>2026-04-20T12:56:00.816Z</time></trkpt><trkpt lat="42.9253283" lon="11.5645517"><ele>461.0</ele><time>2026-04-20T12:56:01.814Z</time></trkpt><trkpt lat="42.9254483" lon="11.5646317"><ele>461.0</ele><time>2026-04-20T12:56:02.813Z</time></trkpt><trkpt lat="42.9255667" lon="11.5647033"><ele>461.0</ele><time>2026-04-20T12:56:03.814Z</time></trkpt><trkpt lat="42.92569" lon="11.5647567"><ele>461.0</ele><time>2026-04-20T12:56:04.814Z</time></trkpt><trkpt lat="42.9258167" lon="11.5647867"><ele>458.75</ele><time>2026-04-20T12:56:05.814Z</time></trkpt><trkpt lat="42.9259417" lon="11.5648167"><ele>456.5</ele><time>2026-04-20T12:56:06.813Z</time></trkpt><trkpt lat="42.9260617" lon="11.56485"><ele>454.25</ele><time>2026-04-20T12:56:07.814Z</time></trkpt><trkpt lat="42.92618" lon="11.5648833"><ele>452.0</ele><time>2026-04-20T12:56:08.814Z</time></trkpt><trkpt lat="42.9262967" lon="11.56492"><ele>452.0</ele><time>2026-04-20T12:56:09.813Z</time></trkpt><trkpt lat="42.9264117" lon="11.5649467"><ele>452.0</ele><time>2026-04-20T12:56:10.813Z</time></trkpt><trkpt lat="42.926525" lon="11.5649583"><ele>452.0</ele><time>2026-04-20T12:56:11.813Z</time></trkpt><trkpt lat="42.9266367" lon="11.5649433"><ele>452.0</ele><time>2026-04-20T12:56:12.812Z</time></trkpt><trkpt lat="42.9267367" lon="11.5648817"><ele>451.75</ele><time>2026-04-20T12:56:13.813Z</time></trkpt><trkpt lat="42.9268267" lon="11.5647767"><ele>451.5</ele><time>2026-04-20T12:56:14.814Z</time></trkpt><trkpt lat="42.9269067" lon="11.5646417"><ele>451.25</ele><time>2026-04-20T12:56:15.813Z</time></trkpt><trkpt lat="42.9269767" lon="11.56449"><ele>451.0</ele><time>2026-04-20T12:56:16.813Z</time></trkpt><trkpt lat="42.927045" lon="11.5643267"><ele>450.25</ele><time>2026-04-20T12:56:17.813Z</time></trkpt><trkpt lat="42.9271117" lon="11.564165"><ele>449.5</ele><time>2026-04-20T12:56:18.812Z</time></trkpt><trkpt lat="42.9271767" lon="11.564"><ele>448.75</ele><time>2026-04-20T12:56:19.813Z</time></trkpt><trkpt lat="42.9272383" lon="11.563835"><ele>448.0</ele><time>2026-04-20T12:56:20.813Z</time></trkpt><trkpt lat="42.9273067" lon="11.5636767"><ele>445.75</ele><time>2026-04-20T12:56:21.813Z</time></trkpt><trkpt lat="42.9273783" lon="11.563525"><ele>443.5</ele><time>2026-04-20T12:56:22.813Z</time></trkpt><trkpt lat="42.927455" lon="11.563365"><ele>441.25</ele><time>2026-04-20T12:56:23.812Z</time></trkpt><trkpt lat="42.9275383" lon="11.5632133"><ele>439.0</ele><time>2026-04-20T12:56:24.813Z</time></trkpt><trkpt lat="42.9276233" lon="11.5630683"><ele>439.0</ele><time>2026-04-20T12:56:25.813Z</time></trkpt><trkpt lat="42.9277183" lon="11.56294"><ele>439.0</ele><time>2026-04-20T12:56:26.818Z</time></trkpt><trkpt lat="42.9278133" lon="11.5628183"><ele>439.0</ele><time>2026-04-20T12:56:27.812Z</time></trkpt><trkpt lat="42.9279033" lon="11.562695"><ele>439.0</ele><time>2026-04-20T12:56:28.814Z</time></trkpt><trkpt lat="42.9279833" lon="11.5625617"><ele>437.75</ele><time>2026-04-20T12:56:29.813Z</time></trkpt><trkpt lat="42.9280517" lon="11.5624183"><ele>436.5</ele><time>2026-04-20T12:56:30.813Z</time></trkpt><trkpt lat="42.9281133" lon="11.5622683"><ele>435.25</ele><time>2026-04-20T12:56:31.814Z</time></trkpt><trkpt lat="42.928175" lon="11.5621183"><ele>434.0</ele><time>2026-04-20T12:56:32.813Z</time></trkpt><trkpt lat="42.9282367" lon="11.5619733"><ele>431.5</ele><time>2026-04-20T12:56:33.813Z</time></trkpt><trkpt lat="42.9282933" lon="11.56183"><ele>429.0</ele><time>2026-04-20T12:56:34.814Z</time></trkpt><trkpt lat="42.9283383" lon="11.5616833"><ele>426.5</ele><time>2026-04-20T12:56:35.812Z</time></trkpt><trkpt lat="42.9283783" lon="11.561535"><ele>424.0</ele><time>2026-04-20T12:56:36.813Z</time></trkpt><trkpt lat="42.9284183" lon="11.5613933"><ele>423.2</ele><time>2026-04-20T12:56:37.813Z</time></trkpt><trkpt lat="42.9284467" lon="11.5612533"><ele>422.4</ele><time>2026-04-20T12:56:38.813Z</time></trkpt><trkpt lat="42.9284783" lon="11.5611133"><ele>421.6</ele><time>2026-04-20T12:56:39.813Z</time></trkpt><trkpt lat="42.9285117" lon="11.5609783"><ele>420.8</ele><time>2026-04-20T12:56:40.812Z</time></trkpt><trkpt lat="42.92855" lon="11.5608467"><ele>420.0</ele><time>2026-04-20T12:56:41.815Z</time></trkpt><trkpt lat="42.9285917" lon="11.560725"><ele>419.2</ele><time>2026-04-20T12:56:42.815Z</time></trkpt><trkpt lat="42.92864" lon="11.5606217"><ele>418.4</ele><time>2026-04-20T12:56:43.812Z</time></trkpt><trkpt lat="42.9286967" lon="11.56054"><ele>417.6</ele><time>2026-04-20T12:56:44.814Z</time></trkpt><trkpt lat="42.9287767" lon="11.560495"><ele>416.8</ele><time>2026-04-20T12:56:45.813Z</time></trkpt><trkpt lat="42.92886" lon="11.5604617"><ele>416.0</ele><time>2026-04-20T12:56:46.813Z</time></trkpt><trkpt lat="42.928965" lon="11.560455"><ele>416.0</ele><time>2026-04-20T12:56:47.811Z</time></trkpt><trkpt lat="42.9290817" lon="11.5604567"><ele>416.0</ele><time>2026-04-20T12:56:48.81Z</time></trkpt><trkpt lat="42.9292083" lon="11.5604667"><ele>416.0</ele><time>2026-04-20T12:56:49.81Z</time></trkpt><trkpt lat="42.9293417" lon="11.5604733"><ele>416.0</ele><time>2026-04-20T12:56:50.813Z</time></trkpt><trkpt lat="42.9294883" lon="11.5604833"><ele>415.0</ele><time>2026-04-20T12:56:51.81Z</time></trkpt><trkpt lat="42.9296383" lon="11.5604933"><ele>414.0</ele><time>2026-04-20T12:56:52.809Z</time></trkpt><trkpt lat="42.929795" lon="11.5605033"><ele>413.0</ele><time>2026-04-20T12:56:53.814Z</time></trkpt><trkpt lat="42.929955" lon="11.5605083"><ele>410.0</ele><time>2026-04-20T12:56:54.81Z</time></trkpt><trkpt lat="42.9301233" lon="11.5605167"><ele>407.0</ele><time>2026-04-20T12:56:55.809Z</time></trkpt><trkpt lat="42.9302917" lon="11.56052"><ele>404.0</ele><time>2026-04-20T12:56:56.809Z</time></trkpt><trkpt lat="42.930465" lon="11.5605233"><ele>404.0</ele><time>2026-04-20T12:56:57.81Z</time></trkpt><trkpt lat="42.93064" lon="11.560535"><ele>404.0</ele><time>2026-04-20T12:56:58.81Z</time></trkpt><trkpt lat="42.930815" lon="11.5605483"><ele>404.0</ele><time>2026-04-20T12:56:59.819Z</time></trkpt><trkpt lat="42.930985" lon="11.56056"><ele>402.3333333333333</ele><time>2026-04-20T12:57:00.812Z</time></trkpt><trkpt lat="42.93115" lon="11.5605683"><ele>400.66666666666663</ele><time>2026-04-20T12:57:01.812Z</time></trkpt><trkpt lat="42.9313117" lon="11.560575"><ele>399.0</ele><time>2026-04-20T12:57:02.813Z</time></trkpt><trkpt lat="42.9314667" lon="11.56058"><ele>399.0</ele><time>2026-04-20T12:57:03.812Z</time></trkpt><trkpt lat="42.931615" lon="11.5605717"><ele>399.0</ele><time>2026-04-20T12:57:04.812Z</time></trkpt><trkpt lat="42.9317617" lon="11.560545"><ele>399.0</ele><time>2026-04-20T12:57:05.813Z</time></trkpt><trkpt lat="42.9319017" lon="11.5604967"><ele>399.0</ele><time>2026-04-20T12:57:06.812Z</time></trkpt><trkpt lat="42.9320333" lon="11.560435"><ele>395.5</ele><time>2026-04-20T12:57:07.811Z</time></trkpt><trkpt lat="42.9321483" lon="11.5603617"><ele>392.0</ele><time>2026-04-20T12:57:08.813Z</time></trkpt><trkpt lat="42.9322467" lon="11.5602633"><ele>388.5</ele><time>2026-04-20T12:57:09.813Z</time></trkpt><trkpt lat="42.93233" lon="11.5601433"><ele>385.0</ele><time>2026-04-20T12:57:10.811Z</time></trkpt><trkpt lat="42.93239" lon="11.560005"><ele>385.0</ele><time>2026-04-20T12:57:11.811Z</time></trkpt><trkpt lat="42.9324233" lon="11.5598233"><ele>385.0</ele><time>2026-04-20T12:57:12.81Z</time></trkpt><trkpt lat="42.9324267" lon="11.5596483"><ele>385.0</ele><time>2026-04-20T12:57:13.817Z</time></trkpt><trkpt lat="42.9324183" lon="11.5594633"><ele>385.0</ele><time>2026-04-20T12:57:14.813Z</time></trkpt><trkpt lat="42.93241" lon="11.5592817"><ele>384.5</ele><time>2026-04-20T12:57:15.813Z</time></trkpt><trkpt lat="42.9324017" lon="11.5591033"><ele>384.0</ele><time>2026-04-20T12:57:16.809Z</time></trkpt><trkpt lat="42.9324133" lon="11.5589267"><ele>383.5</ele><time>2026-04-20T12:57:17.815Z</time></trkpt><trkpt lat="42.9324317" lon="11.5587467"><ele>383.0</ele><time>2026-04-20T12:57:18.813Z</time></trkpt><trkpt lat="42.93246" lon="11.5585667"><ele>383.0</ele><time>2026-04-20T12:57:19.809Z</time></trkpt><trkpt lat="42.932495" lon="11.5583817"><ele>383.0</ele><time>2026-04-20T12:57:20.81Z</time></trkpt><trkpt lat="42.9325383" lon="11.558195"><ele>383.0</ele><time>2026-04-20T12:57:21.81Z</time></trkpt><trkpt lat="42.9325867" lon="11.5580083"><ele>383.0</ele><time>2026-04-20T12:57:22.813Z</time></trkpt><trkpt lat="42.9326317" lon="11.5578283"><ele>378.0</ele><time>2026-04-20T12:57:23.814Z</time></trkpt><trkpt lat="42.9326767" lon="11.5576533"><ele>373.0</ele><time>2026-04-20T12:57:24.81Z</time></trkpt><trkpt lat="42.9327083" lon="11.5574767"><ele>368.0</ele><time>2026-04-20T12:57:25.81Z</time></trkpt><trkpt lat="42.9327233" lon="11.5573017"><ele>363.0</ele><time>2026-04-20T12:57:26.811Z</time></trkpt><trkpt lat="42.9327133" lon="11.5571267"><ele>363.0</ele><time>2026-04-20T12:57:27.813Z</time></trkpt><trkpt lat="42.9326833" lon="11.5569567"><ele>363.0</ele><time>2026-04-20T12:57:28.81Z</time></trkpt><trkpt lat="42.9326383" lon="11.5567983"><ele>363.0</ele><time>2026-04-20T12:57:29.814Z</time></trkpt><trkpt lat="42.932575" lon="11.5566417"><ele>363.0</ele><time>2026-04-20T12:57:30.81Z</time></trkpt><trkpt lat="42.9324967" lon="11.5564867"><ele>363.0</ele><time>2026-04-20T12:57:31.811Z</time></trkpt><trkpt lat="42.932415" lon="11.556325"><ele>363.0</ele><time>2026-04-20T12:57:32.81Z</time></trkpt><trkpt lat="42.932335" lon="11.5561517"><ele>363.0</ele><time>2026-04-20T12:57:33.81Z</time></trkpt><trkpt lat="42.932275" lon="11.555965"><ele>363.0</ele><time>2026-04-20T12:57:34.814Z</time></trkpt><trkpt lat="42.9322367" lon="11.5557733"><ele>363.0</ele><time>2026-04-20T12:57:35.812Z</time></trkpt><trkpt lat="42.932225" lon="11.55559"><ele>363.0</ele><time>2026-04-20T12:57:36.814Z</time></trkpt><trkpt lat="42.9322367" lon="11.5554133"><ele>363.0</ele><time>2026-04-20T12:57:37.813Z</time></trkpt><trkpt lat="42.9322583" lon="11.55525"><ele>363.0</ele><time>2026-04-20T12:57:38.814Z</time></trkpt><trkpt lat="42.932295" lon="11.5551083"><ele>363.1666666666667</ele><time>2026-04-20T12:57:39.812Z</time></trkpt><trkpt lat="42.9323367" lon="11.554995"><ele>363.3333333333333</ele><time>2026-04-20T12:57:40.814Z</time></trkpt><trkpt lat="42.9323867" lon="11.5549"><ele>363.5</ele><time>2026-04-20T12:57:41.814Z</time></trkpt><trkpt lat="42.9324317" lon="11.5548183"><ele>363.66666666666663</ele><time>2026-04-20T12:57:42.809Z</time></trkpt><trkpt lat="42.9324867" lon="11.5547633"><ele>363.8333333333333</ele><time>2026-04-20T12:57:43.814Z</time></trkpt><trkpt lat="42.93255" lon="11.55474"><ele>364.0</ele><time>2026-04-20T12:57:44.813Z</time></trkpt><trkpt lat="42.9326183" lon="11.554755"><ele>365.79999999999995</ele><time>2026-04-20T12:57:45.814Z</time></trkpt><trkpt lat="42.9326833" lon="11.554815"><ele>367.59999999999997</ele><time>2026-04-20T12:57:46.81Z</time></trkpt><trkpt lat="42.9327533" lon="11.5548817"><ele>369.4</ele><time>2026-04-20T12:57:47.809Z</time></trkpt><trkpt lat="42.9328433" lon="11.55495"><ele>371.2</ele><time>2026-04-20T12:57:48.81Z</time></trkpt><trkpt lat="42.9329467" lon="11.555015"><ele>373.0</ele><time>2026-04-20T12:57:49.811Z</time></trkpt><trkpt lat="42.933065" lon="11.5550667"><ele>373.0</ele><time>2026-04-20T12:57:50.812Z</time></trkpt><trkpt lat="42.9331917" lon="11.5551083"><ele>373.0</ele><time>2026-04-20T12:57:51.81Z</time></trkpt><trkpt lat="42.9333267" lon="11.5551483"><ele>373.0</ele><time>2026-04-20T12:57:52.81Z</time></trkpt><trkpt lat="42.9334633" lon="11.5552117"><ele>373.0</ele><time>2026-04-20T12:57:53.81Z</time></trkpt><trkpt lat="42.9335967" lon="11.5553"><ele>374.0</ele><time>2026-04-20T12:57:54.81Z</time></trkpt><trkpt lat="42.9337183" lon="11.5554117"><ele>375.0</ele><time>2026-04-20T12:57:55.81Z</time></trkpt><trkpt lat="42.93383" lon="11.5555567"><ele>376.0</ele><time>2026-04-20T12:57:56.814Z</time></trkpt><trkpt lat="42.9339233" lon="11.5557183"><ele>376.0</ele><time>2026-04-20T12:57:57.813Z</time></trkpt><trkpt lat="42.93401" lon="11.5558767"><ele>376.0</ele><time>2026-04-20T12:57:58.814Z</time></trkpt><trkpt lat="42.9341083" lon="11.5560083"><ele>376.0</ele><time>2026-04-20T12:57:59.813Z</time></trkpt><trkpt lat="42.93421" lon="11.556105"><ele>376.0</ele><time>2026-04-20T12:58:00.815Z</time></trkpt><trkpt lat="42.9343267" lon="11.5561567"><ele>377.75</ele><time>2026-04-20T12:58:01.811Z</time></trkpt><trkpt lat="42.9344483" lon="11.5561833"><ele>379.5</ele><time>2026-04-20T12:58:02.811Z</time></trkpt><trkpt lat="42.9345733" lon="11.5561717"><ele>381.25</ele><time>2026-04-20T12:58:03.814Z</time></trkpt><trkpt lat="42.9347067" lon="11.556155"><ele>383.0</ele><time>2026-04-20T12:58:04.812Z</time></trkpt><trkpt lat="42.9348483" lon="11.556145"><ele>383.0</ele><time>2026-04-20T12:58:05.811Z</time></trkpt><trkpt lat="42.9349967" lon="11.55614"><ele>383.0</ele><time>2026-04-20T12:58:06.813Z</time></trkpt><trkpt lat="42.9351483" lon="11.5561383"><ele>383.0</ele><time>2026-04-20T12:58:07.813Z</time></trkpt><trkpt lat="42.9352933" lon="11.5561317"><ele>383.0</ele><time>2026-04-20T12:58:08.816Z</time></trkpt><trkpt lat="42.9354283" lon="11.5561367"><ele>382.75</ele><time>2026-04-20T12:58:09.814Z</time></trkpt><trkpt lat="42.93555" lon="11.55617"><ele>382.5</ele><time>2026-04-20T12:58:10.813Z</time></trkpt><trkpt lat="42.9356583" lon="11.55624"><ele>382.25</ele><time>2026-04-20T12:58:11.814Z</time></trkpt><trkpt lat="42.9357483" lon="11.5563283"><ele>382.0</ele><time>2026-04-20T12:58:12.814Z</time></trkpt><trkpt lat="42.9358233" lon="11.55643"><ele>386.0</ele><time>2026-04-20T12:58:13.811Z</time></trkpt><trkpt lat="42.9359017" lon="11.5565333"><ele>390.0</ele><time>2026-04-20T12:58:14.813Z</time></trkpt><trkpt lat="42.9359833" lon="11.5566383"><ele>394.0</ele><time>2026-04-20T12:58:15.812Z</time></trkpt><trkpt lat="42.9360683" lon="11.5567517"><ele>398.0</ele><time>2026-04-20T12:58:16.814Z</time></trkpt><trkpt lat="42.9361533" lon="11.55687"><ele>398.0</ele><time>2026-04-20T12:58:17.811Z</time></trkpt><trkpt lat="42.9362367" lon="11.556995"><ele>398.0</ele><time>2026-04-20T12:58:18.81Z</time></trkpt><trkpt lat="42.9363217" lon="11.5571233"><ele>398.0</ele><time>2026-04-20T12:58:19.811Z</time></trkpt><trkpt lat="42.93641" lon="11.55725"><ele>398.0</ele><time>2026-04-20T12:58:20.811Z</time></trkpt><trkpt lat="42.9365083" lon="11.5573617"><ele>396.25</ele><time>2026-04-20T12:58:21.81Z</time></trkpt><trkpt lat="42.9366183" lon="11.5574567"><ele>394.5</ele><time>2026-04-20T12:58:22.81Z</time></trkpt><trkpt lat="42.9367467" lon="11.55753"><ele>392.75</ele><time>2026-04-20T12:58:23.81Z</time></trkpt><trkpt lat="42.9368817" lon="11.5575817"><ele>391.0</ele><time>2026-04-20T12:58:24.81Z</time></trkpt><trkpt lat="42.9369983" lon="11.5576183"><ele>391.0</ele><time>2026-04-20T12:58:25.813Z</time></trkpt><trkpt lat="42.9371" lon="11.557625"><ele>391.0</ele><time>2026-04-20T12:58:26.814Z</time></trkpt><trkpt lat="42.9371967" lon="11.557595"><ele>391.0</ele><time>2026-04-20T12:58:27.813Z</time></trkpt><trkpt lat="42.9372833" lon="11.5575183"><ele>391.0</ele><time>2026-04-20T12:58:28.814Z</time></trkpt><trkpt lat="42.9373617" lon="11.5574067"><ele>391.0</ele><time>2026-04-20T12:58:29.813Z</time></trkpt><trkpt lat="42.9374483" lon="11.5572983"><ele>391.0</ele><time>2026-04-20T12:58:30.813Z</time></trkpt><trkpt lat="42.93755" lon="11.5572017"><ele>391.0</ele><time>2026-04-20T12:58:31.814Z</time></trkpt><trkpt lat="42.9376667" lon="11.5571333"><ele>391.0</ele><time>2026-04-20T12:58:32.816Z</time></trkpt><trkpt lat="42.9377717" lon="11.5570833"><ele>391.0</ele><time>2026-04-20T12:58:33.815Z</time></trkpt><trkpt lat="42.9378667" lon="11.5570733"><ele>394.20000000000005</ele><time>2026-04-20T12:58:34.814Z</time></trkpt><trkpt lat="42.9379533" lon="11.5570967"><ele>397.40000000000003</ele><time>2026-04-20T12:58:35.814Z</time></trkpt><trkpt lat="42.938025" lon="11.5571583"><ele>400.6</ele><time>2026-04-20T12:58:36.814Z</time></trkpt><trkpt lat="42.9380733" lon="11.557255"><ele>403.8</ele><time>2026-04-20T12:58:37.814Z</time></trkpt><trkpt lat="42.9380917" lon="11.557385"><ele>407.0</ele><time>2026-04-20T12:58:38.814Z</time></trkpt><trkpt lat="42.9380883" lon="11.55754"><ele>407.0</ele><time>2026-04-20T12:58:39.813Z</time></trkpt><trkpt lat="42.93811" lon="11.557695"><ele>407.0</ele><time>2026-04-20T12:58:40.813Z</time></trkpt><trkpt lat="42.9381567" lon="11.5578333"><ele>407.0</ele><time>2026-04-20T12:58:41.811Z</time></trkpt><trkpt lat="42.9382283" lon="11.5579517"><ele>407.0</ele><time>2026-04-20T12:58:42.81Z</time></trkpt><trkpt lat="42.9383367" lon="11.5580367"><ele>407.0</ele><time>2026-04-20T12:58:43.814Z</time></trkpt><trkpt lat="42.938475" lon="11.5580833"><ele>407.0</ele><time>2026-04-20T12:58:44.813Z</time></trkpt><trkpt lat="42.938625" lon="11.558115"><ele>407.0</ele><time>2026-04-20T12:58:45.814Z</time></trkpt><trkpt lat="42.9387867" lon="11.5581417"><ele>407.0</ele><time>2026-04-20T12:58:46.814Z</time></trkpt><trkpt lat="42.938955" lon="11.5581817"><ele>407.0</ele><time>2026-04-20T12:58:47.811Z</time></trkpt><trkpt lat="42.9391317" lon="11.5582367"><ele>407.0</ele><time>2026-04-20T12:58:48.81Z</time></trkpt><trkpt lat="42.9393183" lon="11.558305"><ele>409.0</ele><time>2026-04-20T12:58:49.811Z</time></trkpt><trkpt lat="42.93951" lon="11.558375"><ele>411.0</ele><time>2026-04-20T12:58:50.811Z</time></trkpt><trkpt lat="42.9397067" lon="11.5584417"><ele>413.0</ele><time>2026-04-20T12:58:51.811Z</time></trkpt><trkpt lat="42.9399067" lon="11.5585067"><ele>413.66666666666663</ele><time>2026-04-20T12:58:52.811Z</time></trkpt><trkpt lat="42.940105" lon="11.5585667"><ele>414.33333333333337</ele><time>2026-04-20T12:58:53.81Z</time></trkpt><trkpt lat="42.9403067" lon="11.5586333"><ele>415.0</ele><time>2026-04-20T12:58:54.815Z</time></trkpt><trkpt lat="42.9405083" lon="11.5587033"><ele>413.0</ele><time>2026-04-20T12:58:55.814Z</time></trkpt><trkpt lat="42.9407067" lon="11.5587717"><ele>411.0</ele><time>2026-04-20T12:58:56.813Z</time></trkpt><trkpt lat="42.940895" lon="11.5588433"><ele>409.0</ele><time>2026-04-20T12:58:57.816Z</time></trkpt><trkpt lat="42.9410717" lon="11.5589217"><ele>413.6666666666667</ele><time>2026-04-20T12:58:58.814Z</time></trkpt><trkpt lat="42.9412383" lon="11.5590167"><ele>418.33333333333337</ele><time>2026-04-20T12:58:59.814Z</time></trkpt><trkpt lat="42.9413967" lon="11.5591217"><ele>423.0</ele><time>2026-04-20T12:59:00.814Z</time></trkpt><trkpt lat="42.941555" lon="11.5592333"><ele>423.0</ele><time>2026-04-20T12:59:01.813Z</time></trkpt><trkpt lat="42.9417067" lon="11.5593483"><ele>423.0</ele><time>2026-04-20T12:59:02.814Z</time></trkpt><trkpt lat="42.9418567" lon="11.5594683"><ele>423.0</ele><time>2026-04-20T12:59:03.814Z</time></trkpt><trkpt lat="42.9420017" lon="11.5595917"><ele>423.66666666666663</ele><time>2026-04-20T12:59:04.815Z</time></trkpt><trkpt lat="42.942145" lon="11.55972"><ele>424.3333333333333</ele><time>2026-04-20T12:59:05.814Z</time></trkpt><trkpt lat="42.9422817" lon="11.5598483"><ele>425.0</ele><time>2026-04-20T12:59:06.814Z</time></trkpt><trkpt lat="42.94241" lon="11.559975"><ele>425.0</ele><time>2026-04-20T12:59:07.814Z</time></trkpt><trkpt lat="42.9425333" lon="11.5600933"><ele>425.0</ele><time>2026-04-20T12:59:08.81Z</time></trkpt><trkpt lat="42.942655" lon="11.5602"><ele>425.0</ele><time>2026-04-20T12:59:09.81Z</time></trkpt><trkpt lat="42.9427817" lon="11.5602767"><ele>425.0</ele><time>2026-04-20T12:59:10.815Z</time></trkpt><trkpt lat="42.9429133" lon="11.5603133"><ele>427.3333333333333</ele><time>2026-04-20T12:59:11.81Z</time></trkpt><trkpt lat="42.9430567" lon="11.5602983"><ele>429.66666666666663</ele><time>2026-04-20T12:59:12.816Z</time></trkpt><trkpt lat="42.9432067" lon="11.5602417"><ele>432.0</ele><time>2026-04-20T12:59:13.811Z</time></trkpt><trkpt lat="42.9433583" lon="11.5601617"><ele>431.66666666666663</ele><time>2026-04-20T12:59:14.814Z</time></trkpt><trkpt lat="42.9435133" lon="11.5600683"><ele>431.3333333333333</ele><time>2026-04-20T12:59:15.814Z</time></trkpt><trkpt lat="42.943665" lon="11.5599617"><ele>431.0</ele><time>2026-04-20T12:59:16.814Z</time></trkpt><trkpt lat="42.9438133" lon="11.55984"><ele>431.0</ele><time>2026-04-20T12:59:17.811Z</time></trkpt><trkpt lat="42.9439483" lon="11.5597333"><ele>431.0</ele><time>2026-04-20T12:59:18.811Z</time></trkpt><trkpt lat="42.9440733" lon="11.5596467"><ele>431.0</ele><time>2026-04-20T12:59:19.811Z</time></trkpt><trkpt lat="42.944195" lon="11.5595833"><ele>431.0</ele><time>2026-04-20T12:59:20.811Z</time></trkpt><trkpt lat="42.94431" lon="11.5595583"><ele>434.0</ele><time>2026-04-20T12:59:21.811Z</time></trkpt><trkpt lat="42.9444267" lon="11.5595567"><ele>437.0</ele><time>2026-04-20T12:59:22.812Z</time></trkpt><trkpt lat="42.9445433" lon="11.559585"><ele>440.0</ele><time>2026-04-20T12:59:23.811Z</time></trkpt><trkpt lat="42.9446633" lon="11.559655"><ele>443.0</ele><time>2026-04-20T12:59:24.814Z</time></trkpt><trkpt lat="42.944775" lon="11.5597617"><ele>443.0</ele><time>2026-04-20T12:59:25.814Z</time></trkpt><trkpt lat="42.9448817" lon="11.5598933"><ele>443.0</ele><time>2026-04-20T12:59:26.813Z</time></trkpt><trkpt lat="42.9449833" lon="11.5600467"><ele>443.0</ele><time>2026-04-20T12:59:27.813Z</time></trkpt><trkpt lat="42.9450833" lon="11.5602133"><ele>446.3333333333333</ele><time>2026-04-20T12:59:28.814Z</time></trkpt><trkpt lat="42.9451833" lon="11.560395"><ele>449.66666666666663</ele><time>2026-04-20T12:59:29.817Z</time></trkpt><trkpt lat="42.94528" lon="11.56059"><ele>453.0</ele><time>2026-04-20T12:59:30.814Z</time></trkpt><trkpt lat="42.9453733" lon="11.5607867"><ele>453.0</ele><time>2026-04-20T12:59:31.81Z</time></trkpt><trkpt lat="42.9454683" lon="11.56098"><ele>453.0</ele><time>2026-04-20T12:59:32.811Z</time></trkpt><trkpt lat="42.9455783" lon="11.5611583"><ele>453.0</ele><time>2026-04-20T12:59:33.81Z</time></trkpt><trkpt lat="42.9457" lon="11.5613233"><ele>455.33333333333337</ele><time>2026-04-20T12:59:34.812Z</time></trkpt><trkpt lat="42.945835" lon="11.5614767"><ele>457.6666666666667</ele><time>2026-04-20T12:59:35.814Z</time></trkpt><trkpt lat="42.9459783" lon="11.56162"><ele>460.0</ele><time>2026-04-20T12:59:36.813Z</time></trkpt><trkpt lat="42.94612" lon="11.5617517"><ele>460.0</ele><time>2026-04-20T12:59:37.814Z</time></trkpt><trkpt lat="42.9462533" lon="11.561875"><ele>460.0</ele><time>2026-04-20T12:59:38.816Z</time></trkpt><trkpt lat="42.9463867" lon="11.56198"><ele>460.0</ele><time>2026-04-20T12:59:39.811Z</time></trkpt><trkpt lat="42.9465317" lon="11.562055"><ele>456.6666666666667</ele><time>2026-04-20T12:59:40.812Z</time></trkpt><trkpt lat="42.94668" lon="11.5620883"><ele>453.33333333333337</ele><time>2026-04-20T12:59:41.818Z</time></trkpt><trkpt lat="42.9468417" lon="11.562085"><ele>450.0</ele><time>2026-04-20T12:59:42.813Z</time></trkpt><trkpt lat="42.947" lon="11.562065"><ele>456.0</ele><time>2026-04-20T12:59:43.811Z</time></trkpt><trkpt lat="42.9471633" lon="11.5620283"><ele>462.0</ele><time>2026-04-20T12:59:44.814Z</time></trkpt><trkpt lat="42.94733" lon="11.5619867"><ele>468.0</ele><time>2026-04-20T12:59:45.814Z</time></trkpt><trkpt lat="42.9475017" lon="11.5619533"><ele>471.0</ele><time>2026-04-20T12:59:46.811Z</time></trkpt><trkpt lat="42.947675" lon="11.5619333"><ele>474.0</ele><time>2026-04-20T12:59:47.811Z</time></trkpt><trkpt lat="42.94785" lon="11.5619333"><ele>477.0</ele><time>2026-04-20T12:59:48.811Z</time></trkpt><trkpt lat="42.9480167" lon="11.5619583"><ele>477.0</ele><time>2026-04-20T12:59:49.812Z</time></trkpt><trkpt lat="42.9481617" lon="11.5620067"><ele>477.0</ele><time>2026-04-20T12:59:50.813Z</time></trkpt><trkpt lat="42.9482867" lon="11.5620867"><ele>477.0</ele><time>2026-04-20T12:59:51.811Z</time></trkpt><trkpt lat="42.9483967" lon="11.562205"><ele>477.0</ele><time>2026-04-20T12:59:52.816Z</time></trkpt><trkpt lat="42.9484967" lon="11.562345"><ele>477.5</ele><time>2026-04-20T12:59:53.812Z</time></trkpt><trkpt lat="42.948595" lon="11.5624867"><ele>478.0</ele><time>2026-04-20T12:59:54.813Z</time></trkpt><trkpt lat="42.9486933" lon="11.5626117"><ele>478.5</ele><time>2026-04-20T12:59:55.815Z</time></trkpt><trkpt lat="42.9488033" lon="11.5627067"><ele>479.0</ele><time>2026-04-20T12:59:56.814Z</time></trkpt><trkpt lat="42.94893" lon="11.562755"><ele>479.0</ele><time>2026-04-20T12:59:57.812Z</time></trkpt><trkpt lat="42.9490633" lon="11.56279"><ele>479.0</ele><time>2026-04-20T12:59:58.812Z</time></trkpt><trkpt lat="42.9492017" lon="11.5628117"><ele>479.0</ele><time>2026-04-20T12:59:59.814Z</time></trkpt><trkpt lat="42.9493333" lon="11.5628317"><ele>479.0</ele><time>2026-04-20T13:00:00.819Z</time></trkpt><trkpt lat="42.9494533" lon="11.5628617"><ele>482.5</ele><time>2026-04-20T13:00:01.813Z</time></trkpt><trkpt lat="42.9495567" lon="11.5629367"><ele>486.0</ele><time>2026-04-20T13:00:02.81Z</time></trkpt><trkpt lat="42.9496367" lon="11.5630517"><ele>489.5</ele><time>2026-04-20T13:00:03.811Z</time></trkpt><trkpt lat="42.9496883" lon="11.5632083"><ele>493.0</ele><time>2026-04-20T13:00:04.81Z</time></trkpt><trkpt lat="42.949725" lon="11.5633617"><ele>493.0</ele><time>2026-04-20T13:00:05.81Z</time></trkpt><trkpt lat="42.94978" lon="11.5635233"><ele>493.0</ele><time>2026-04-20T13:00:06.812Z</time></trkpt><trkpt lat="42.9498667" lon="11.563665"><ele>493.0</ele><time>2026-04-20T13:00:07.814Z</time></trkpt><trkpt lat="42.9499783" lon="11.5637867"><ele>493.0</ele><time>2026-04-20T13:00:08.814Z</time></trkpt><trkpt lat="42.9501067" lon="11.5639033"><ele>494.33333333333337</ele><time>2026-04-20T13:00:09.811Z</time></trkpt><trkpt lat="42.95024" lon="11.5640217"><ele>495.66666666666663</ele><time>2026-04-20T13:00:10.812Z</time></trkpt><trkpt lat="42.9503717" lon="11.5641467"><ele>497.0</ele><time>2026-04-20T13:00:11.812Z</time></trkpt><trkpt lat="42.9504967" lon="11.56428"><ele>497.0</ele><time>2026-04-20T13:00:12.81Z</time></trkpt><trkpt lat="42.9506183" lon="11.564415"><ele>497.0</ele><time>2026-04-20T13:00:13.812Z</time></trkpt><trkpt lat="42.9507333" lon="11.564545"><ele>497.0</ele><time>2026-04-20T13:00:14.811Z</time></trkpt><trkpt lat="42.9508433" lon="11.56468"><ele>496.75</ele><time>2026-04-20T13:00:15.811Z</time></trkpt><trkpt lat="42.95095" lon="11.56482"><ele>496.5</ele><time>2026-04-20T13:00:16.811Z</time></trkpt><trkpt lat="42.95105" lon="11.564965"><ele>496.25</ele><time>2026-04-20T13:00:17.811Z</time></trkpt><trkpt lat="42.9511383" lon="11.56512"><ele>496.0</ele><time>2026-04-20T13:00:18.81Z</time></trkpt><trkpt lat="42.95122" lon="11.5652833"><ele>495.5</ele><time>2026-04-20T13:00:19.811Z</time></trkpt><trkpt lat="42.9513" lon="11.565445"><ele>495.0</ele><time>2026-04-20T13:00:20.811Z</time></trkpt><trkpt lat="42.9513733" lon="11.5656083"><ele>494.5</ele><time>2026-04-20T13:00:21.81Z</time></trkpt><trkpt lat="42.9514467" lon="11.5657717"><ele>494.0</ele><time>2026-04-20T13:00:22.81Z</time></trkpt><trkpt lat="42.9515183" lon="11.5659267"><ele>494.0</ele><time>2026-04-20T13:00:23.81Z</time></trkpt><trkpt lat="42.9515883" lon="11.5660767"><ele>494.0</ele><time>2026-04-20T13:00:24.813Z</time></trkpt><trkpt lat="42.951655" lon="11.566215"><ele>494.0</ele><time>2026-04-20T13:00:25.814Z</time></trkpt><trkpt lat="42.9517233" lon="11.56634"><ele>494.0</ele><time>2026-04-20T13:00:26.814Z</time></trkpt><trkpt lat="42.9517883" lon="11.566445"><ele>492.8333333333333</ele><time>2026-04-20T13:00:27.813Z</time></trkpt><trkpt lat="42.9518567" lon="11.5665317"><ele>491.66666666666663</ele><time>2026-04-20T13:00:28.81Z</time></trkpt><trkpt lat="42.95192" lon="11.5666033"><ele>490.5</ele><time>2026-04-20T13:00:29.81Z</time></trkpt><trkpt lat="42.95197" lon="11.5666567"><ele>489.33333333333337</ele><time>2026-04-20T13:00:30.811Z</time></trkpt><trkpt lat="42.952035" lon="11.5667333"><ele>488.1666666666667</ele><time>2026-04-20T13:00:32.812Z</time></trkpt><trkpt lat="42.95199" lon="11.5666383"><ele>487.0</ele><time>2026-04-20T13:01:15.812Z</time></trkpt><trkpt lat="42.9519033" lon="11.5665617"><ele>487.00000000000006</ele><time>2026-04-20T13:01:17.811Z</time></trkpt><trkpt lat="42.9518217" lon="11.5664767"><ele>487.0</ele><time>2026-04-20T13:01:19.812Z</time></trkpt><trkpt lat="42.9517567" lon="11.5663933"><ele>487.0</ele><time>2026-04-20T13:01:21.812Z</time></trkpt><trkpt lat="42.9516917" lon="11.5663667"><ele>487.0</ele><time>2026-04-20T13:01:24.815Z</time></trkpt><trkpt lat="42.9516733" lon="11.5664817"><ele>487.00000000000006</ele><time>2026-04-20T13:01:27.816Z</time></trkpt><trkpt lat="42.9516883" lon="11.5666083"><ele>487.0</ele><time>2026-04-20T13:01:29.814Z</time></trkpt><trkpt lat="42.9516917" lon="11.5667267"><ele>487.00000000000006</ele><time>2026-04-20T13:01:31.814Z</time></trkpt><trkpt lat="42.9516983" lon="11.56684"><ele>487.0</ele><time>2026-04-20T13:01:33.811Z</time></trkpt><trkpt lat="42.95173" lon="11.5669733"><ele>487.0</ele><time>2026-04-20T13:01:35.813Z</time></trkpt><trkpt lat="42.9517517" lon="11.567055"><ele>487.0</ele><time>2026-04-20T13:01:36.818Z</time></trkpt><trkpt lat="42.951775" lon="11.567145"><ele>487.00000000000006</ele><time>2026-04-20T13:01:37.816Z</time></trkpt><trkpt lat="42.9518033" lon="11.5672467"><ele>487.0</ele><time>2026-04-20T13:01:38.81Z</time></trkpt><trkpt lat="42.9518383" lon="11.5673533"><ele>488.1666666666667</ele><time>2026-04-20T13:01:39.811Z</time></trkpt><trkpt lat="42.95188" lon="11.5674667"><ele>489.33333333333337</ele><time>2026-04-20T13:01:40.811Z</time></trkpt><trkpt lat="42.951925" lon="11.5675783"><ele>490.5</ele><time>2026-04-20T13:01:41.813Z</time></trkpt><trkpt lat="42.9519733" lon="11.5676817"><ele>491.66666666666663</ele><time>2026-04-20T13:01:42.813Z</time></trkpt><trkpt lat="42.9520217" lon="11.5677817"><ele>492.8333333333333</ele><time>2026-04-20T13:01:43.814Z</time></trkpt><trkpt lat="42.9520617" lon="11.5678767"><ele>494.0</ele><time>2026-04-20T13:01:44.813Z</time></trkpt><trkpt lat="42.9520983" lon="11.56797"><ele>495.28571428571433</ele><time>2026-04-20T13:01:45.813Z</time></trkpt><trkpt lat="42.952135" lon="11.5680583"><ele>496.57142857142856</ele><time>2026-04-20T13:01:46.814Z</time></trkpt><trkpt lat="42.9521633" lon="11.5681383"><ele>497.8571428571429</ele><time>2026-04-20T13:01:47.814Z</time></trkpt><trkpt lat="42.95219" lon="11.5682183"><ele>499.14285714285717</ele><time>2026-04-20T13:01:48.813Z</time></trkpt><trkpt lat="42.9522083" lon="11.5683017"><ele>500.42857142857144</ele><time>2026-04-20T13:01:49.814Z</time></trkpt><trkpt lat="42.952225" lon="11.5683883"><ele>501.7142857142857</ele><time>2026-04-20T13:01:50.813Z</time></trkpt><trkpt lat="42.952235" lon="11.568475"><ele>503.0</ele><time>2026-04-20T13:01:51.812Z</time></trkpt><trkpt lat="42.9522433" lon="11.5685617"><ele>504.75</ele><time>2026-04-20T13:01:52.813Z</time></trkpt><trkpt lat="42.9522533" lon="11.5687317"><ele>506.5</ele><time>2026-04-20T13:01:54.813Z</time></trkpt><trkpt lat="42.9522667" lon="11.5689033"><ele>508.25</ele><time>2026-04-20T13:01:56.813Z</time></trkpt><trkpt lat="42.9522717" lon="11.5690717"><ele>510.0</ele><time>2026-04-20T13:01:58.81Z</time></trkpt><trkpt lat="42.952265" lon="11.5692367"><ele>510.0</ele><time>2026-04-20T13:02:00.811Z</time></trkpt><trkpt lat="42.95225" lon="11.5694"><ele>510.0</ele><time>2026-04-20T13:02:02.812Z</time></trkpt><trkpt lat="42.9522417" lon="11.5695583"><ele>510.0</ele><time>2026-04-20T13:02:04.813Z</time></trkpt><trkpt lat="42.9522383" lon="11.5697167"><ele>510.0</ele><time>2026-04-20T13:02:06.811Z</time></trkpt><trkpt lat="42.95226" lon="11.56987"><ele>511.5</ele><time>2026-04-20T13:02:08.814Z</time></trkpt><trkpt lat="42.9523" lon="11.570015"><ele>513.0</ele><time>2026-04-20T13:02:10.813Z</time></trkpt><trkpt lat="42.9523333" lon="11.5701633"><ele>514.5</ele><time>2026-04-20T13:02:12.813Z</time></trkpt><trkpt lat="42.952355" lon="11.5703233"><ele>516.0</ele><time>2026-04-20T13:02:14.818Z</time></trkpt><trkpt lat="42.9523783" lon="11.57047"><ele>517.3333333333334</ele><time>2026-04-20T13:02:16.813Z</time></trkpt><trkpt lat="42.9524317" lon="11.5706133"><ele>518.6666666666666</ele><time>2026-04-20T13:02:18.813Z</time></trkpt><trkpt lat="42.95248" lon="11.5706817"><ele>520.0</ele><time>2026-04-20T13:02:19.813Z</time></trkpt><trkpt lat="42.9525367" lon="11.5707483"><ele>521.3333333333333</ele><time>2026-04-20T13:02:20.814Z</time></trkpt><trkpt lat="42.952605" lon="11.5708217"><ele>522.6666666666666</ele><time>2026-04-20T13:02:21.812Z</time></trkpt><trkpt lat="42.9526733" lon="11.57089"><ele>524.0</ele><time>2026-04-20T13:02:22.812Z</time></trkpt><trkpt lat="42.9527467" lon="11.5709383"><ele>524.1666666666666</ele><time>2026-04-20T13:02:23.813Z</time></trkpt><trkpt lat="42.9528217" lon="11.5709717"><ele>524.3333333333333</ele><time>2026-04-20T13:02:24.813Z</time></trkpt><trkpt lat="42.9528983" lon="11.5709983"><ele>524.5</ele><time>2026-04-20T13:02:25.813Z</time></trkpt><trkpt lat="42.9529783" lon="11.5710383"><ele>524.6666666666666</ele><time>2026-04-20T13:02:26.815Z</time></trkpt><trkpt lat="42.9530517" lon="11.5711"><ele>524.8333333333334</ele><time>2026-04-20T13:02:27.813Z</time></trkpt><trkpt lat="42.9531133" lon="11.5711833"><ele>525.0</ele><time>2026-04-20T13:02:28.812Z</time></trkpt><trkpt lat="42.9531717" lon="11.5712817"><ele>527.4</ele><time>2026-04-20T13:02:29.81Z</time></trkpt><trkpt lat="42.9532333" lon="11.5713933"><ele>529.8</ele><time>2026-04-20T13:02:30.814Z</time></trkpt><trkpt lat="42.9533017" lon="11.5715067"><ele>532.2</ele><time>2026-04-20T13:02:31.814Z</time></trkpt><trkpt lat="42.9533767" lon="11.5716133"><ele>534.6</ele><time>2026-04-20T13:02:32.811Z</time></trkpt><trkpt lat="42.9534517" lon="11.57171"><ele>537.0</ele><time>2026-04-20T13:02:33.82Z</time></trkpt><trkpt lat="42.95353" lon="11.57181"><ele>537.0</ele><time>2026-04-20T13:02:34.818Z</time></trkpt><trkpt lat="42.9536067" lon="11.571925"><ele>537.0</ele><time>2026-04-20T13:02:35.813Z</time></trkpt><trkpt lat="42.9536783" lon="11.5720533"><ele>537.0</ele><time>2026-04-20T13:02:36.813Z</time></trkpt><trkpt lat="42.9537517" lon="11.57217"><ele>537.0</ele><time>2026-04-20T13:02:37.811Z</time></trkpt><trkpt lat="42.9538233" lon="11.5722633"><ele>537.0</ele><time>2026-04-20T13:02:38.813Z</time></trkpt><trkpt lat="42.9538933" lon="11.5723283"><ele>538.2857142857142</ele><time>2026-04-20T13:02:39.813Z</time></trkpt><trkpt lat="42.9539583" lon="11.572365"><ele>539.5714285714286</ele><time>2026-04-20T13:02:40.812Z</time></trkpt><trkpt lat="42.9540333" lon="11.5723733"><ele>540.8571428571429</ele><time>2026-04-20T13:02:41.813Z</time></trkpt><trkpt lat="42.9541117" lon="11.5723533"><ele>542.1428571428571</ele><time>2026-04-20T13:02:42.819Z</time></trkpt><trkpt lat="42.9541883" lon="11.5723283"><ele>543.4285714285714</ele><time>2026-04-20T13:02:43.812Z</time></trkpt><trkpt lat="42.9542583" lon="11.5723167"><ele>544.7142857142857</ele><time>2026-04-20T13:02:44.814Z</time></trkpt><trkpt lat="42.9543267" lon="11.5723383"><ele>546.0</ele><time>2026-04-20T13:02:45.813Z</time></trkpt><trkpt lat="42.95439" lon="11.57239"><ele>546.0</ele><time>2026-04-20T13:02:46.814Z</time></trkpt><trkpt lat="42.954445" lon="11.572465"><ele>546.0</ele><time>2026-04-20T13:02:47.818Z</time></trkpt><trkpt lat="42.9545017" lon="11.5725533"><ele>546.0</ele><time>2026-04-20T13:02:48.814Z</time></trkpt><trkpt lat="42.9545483" lon="11.57266"><ele>546.0</ele><time>2026-04-20T13:02:49.814Z</time></trkpt><trkpt lat="42.9546" lon="11.5727767"><ele>546.0</ele><time>2026-04-20T13:02:50.815Z</time></trkpt><trkpt lat="42.9546517" lon="11.5729033"><ele>548.6</ele><time>2026-04-20T13:02:51.814Z</time></trkpt><trkpt lat="42.9546967" lon="11.5730433"><ele>551.2</ele><time>2026-04-20T13:02:52.813Z</time></trkpt><trkpt lat="42.9547317" lon="11.573185"><ele>553.8</ele><time>2026-04-20T13:02:53.813Z</time></trkpt><trkpt lat="42.954755" lon="11.57332"><ele>556.4</ele><time>2026-04-20T13:02:54.81Z</time></trkpt><trkpt lat="42.9547767" lon="11.5734433"><ele>559.0</ele><time>2026-04-20T13:02:55.811Z</time></trkpt><trkpt lat="42.9547833" lon="11.57356"><ele>559.0</ele><time>2026-04-20T13:02:56.811Z</time></trkpt><trkpt lat="42.9547833" lon="11.5736733"><ele>559.0</ele><time>2026-04-20T13:02:57.813Z</time></trkpt><trkpt lat="42.95477" lon="11.57378"><ele>559.0</ele><time>2026-04-20T13:02:58.811Z</time></trkpt><trkpt lat="42.9547583" lon="11.57388"><ele>559.0</ele><time>2026-04-20T13:02:59.818Z</time></trkpt><trkpt lat="42.9547567" lon="11.5739683"><ele>559.0</ele><time>2026-04-20T13:03:00.814Z</time></trkpt><trkpt lat="42.9548183" lon="11.5741233"><ele>559.0</ele><time>2026-04-20T13:03:02.815Z</time></trkpt><trkpt lat="42.9548817" lon="11.5741867"><ele>558.8333333333334</ele><time>2026-04-20T13:03:03.814Z</time></trkpt><trkpt lat="42.9549633" lon="11.57424"><ele>558.6666666666667</ele><time>2026-04-20T13:03:04.813Z</time></trkpt><trkpt lat="42.9550417" lon="11.5742967"><ele>558.5</ele><time>2026-04-20T13:03:05.812Z</time></trkpt><trkpt lat="42.9551167" lon="11.5743567"><ele>558.3333333333334</ele><time>2026-04-20T13:03:06.81Z</time></trkpt><trkpt lat="42.955185" lon="11.5744117"><ele>558.1666666666666</ele><time>2026-04-20T13:03:07.81Z</time></trkpt><trkpt lat="42.9552483" lon="11.5744667"><ele>558.0</ele><time>2026-04-20T13:03:08.811Z</time></trkpt><trkpt lat="42.9553133" lon="11.5745267"><ele>558.4</ele><time>2026-04-20T13:03:09.819Z</time></trkpt><trkpt lat="42.9553817" lon="11.5745883"><ele>558.8</ele><time>2026-04-20T13:03:10.814Z</time></trkpt><trkpt lat="42.955455" lon="11.5746567"><ele>559.2</ele><time>2026-04-20T13:03:11.815Z</time></trkpt><trkpt lat="42.955535" lon="11.5747283"><ele>559.6</ele><time>2026-04-20T13:03:12.814Z</time></trkpt><trkpt lat="42.955615" lon="11.5748117"><ele>560.0</ele><time>2026-04-20T13:03:13.815Z</time></trkpt><trkpt lat="42.9556917" lon="11.5749033"><ele>560.0</ele><time>2026-04-20T13:03:14.814Z</time></trkpt><trkpt lat="42.9557617" lon="11.5749883"><ele>560.0</ele><time>2026-04-20T13:03:15.815Z</time></trkpt><trkpt lat="42.9558367" lon="11.5750583"><ele>560.0</ele><time>2026-04-20T13:03:16.814Z</time></trkpt><trkpt lat="42.95592" lon="11.5751183"><ele>560.0</ele><time>2026-04-20T13:03:17.813Z</time></trkpt><trkpt lat="42.95601" lon="11.5751717"><ele>560.0</ele><time>2026-04-20T13:03:18.81Z</time></trkpt><trkpt lat="42.956105" lon="11.57523"><ele>559.75</ele><time>2026-04-20T13:03:19.814Z</time></trkpt><trkpt lat="42.9562017" lon="11.5752983"><ele>559.5</ele><time>2026-04-20T13:03:20.812Z</time></trkpt><trkpt lat="42.9563033" lon="11.5753783"><ele>559.25</ele><time>2026-04-20T13:03:21.811Z</time></trkpt><trkpt lat="42.9564083" lon="11.5754667"><ele>559.0</ele><time>2026-04-20T13:03:22.811Z</time></trkpt><trkpt lat="42.9565033" lon="11.575565"><ele>559.0</ele><time>2026-04-20T13:03:23.812Z</time></trkpt><trkpt lat="42.9565817" lon="11.57567"><ele>559.0</ele><time>2026-04-20T13:03:24.811Z</time></trkpt><trkpt lat="42.956645" lon="11.5757817"><ele>559.0</ele><time>2026-04-20T13:03:25.811Z</time></trkpt><trkpt lat="42.9566917" lon="11.5759033"><ele>559.0</ele><time>2026-04-20T13:03:26.816Z</time></trkpt><trkpt lat="42.95672" lon="11.5760367"><ele>559.0</ele><time>2026-04-20T13:03:27.81Z</time></trkpt><trkpt lat="42.9567317" lon="11.576175"><ele>559.2</ele><time>2026-04-20T13:03:28.813Z</time></trkpt><trkpt lat="42.9567367" lon="11.576315"><ele>559.4</ele><time>2026-04-20T13:03:29.814Z</time></trkpt><trkpt lat="42.9567467" lon="11.5764617"><ele>559.6</ele><time>2026-04-20T13:03:30.814Z</time></trkpt><trkpt lat="42.9567683" lon="11.5766083"><ele>559.8</ele><time>2026-04-20T13:03:31.811Z</time></trkpt><trkpt lat="42.9568033" lon="11.5767617"><ele>560.0</ele><time>2026-04-20T13:03:32.811Z</time></trkpt><trkpt lat="42.9568433" lon="11.576915"><ele>560.5</ele><time>2026-04-20T13:03:33.811Z</time></trkpt><trkpt lat="42.956885" lon="11.5770767"><ele>561.0</ele><time>2026-04-20T13:03:34.814Z</time></trkpt><trkpt lat="42.956925" lon="11.5772467"><ele>561.5</ele><time>2026-04-20T13:03:35.812Z</time></trkpt><trkpt lat="42.9569567" lon="11.577425"><ele>562.0</ele><time>2026-04-20T13:03:36.81Z</time></trkpt><trkpt lat="42.956985" lon="11.5776133"><ele>562.0</ele><time>2026-04-20T13:03:37.815Z</time></trkpt><trkpt lat="42.9570117" lon="11.5778"><ele>562.0</ele><time>2026-04-20T13:03:38.811Z</time></trkpt><trkpt lat="42.9570367" lon="11.5779817"><ele>562.0</ele><time>2026-04-20T13:03:39.814Z</time></trkpt><trkpt lat="42.9570567" lon="11.57815"><ele>562.0</ele><time>2026-04-20T13:03:40.814Z</time></trkpt><trkpt lat="42.9570683" lon="11.5783067"><ele>563.2</ele><time>2026-04-20T13:03:41.812Z</time></trkpt><trkpt lat="42.95707" lon="11.5784583"><ele>564.4000000000001</ele><time>2026-04-20T13:03:42.813Z</time></trkpt><trkpt lat="42.9570517" lon="11.5786"><ele>565.5999999999999</ele><time>2026-04-20T13:03:43.814Z</time></trkpt><trkpt lat="42.9570133" lon="11.5787283"><ele>566.8</ele><time>2026-04-20T13:03:44.814Z</time></trkpt><trkpt lat="42.9569533" lon="11.578845"><ele>568.0</ele><time>2026-04-20T13:03:45.814Z</time></trkpt><trkpt lat="42.9568767" lon="11.5789533"><ele>568.0</ele><time>2026-04-20T13:03:46.814Z</time></trkpt><trkpt lat="42.9567883" lon="11.5790633"><ele>568.0</ele><time>2026-04-20T13:03:47.817Z</time></trkpt><trkpt lat="42.9567" lon="11.5791883"><ele>568.0</ele><time>2026-04-20T13:03:48.81Z</time></trkpt><trkpt lat="42.9566067" lon="11.5793233"><ele>568.0</ele><time>2026-04-20T13:03:49.813Z</time></trkpt><trkpt lat="42.95651" lon="11.5794733"><ele>570.5</ele><time>2026-04-20T13:03:50.812Z</time></trkpt><trkpt lat="42.9564083" lon="11.5796233"><ele>573.0</ele><time>2026-04-20T13:03:51.813Z</time></trkpt><trkpt lat="42.9563033" lon="11.5797633"><ele>575.5</ele><time>2026-04-20T13:03:52.811Z</time></trkpt><trkpt lat="42.9562017" lon="11.5798933"><ele>578.0</ele><time>2026-04-20T13:03:53.81Z</time></trkpt><trkpt lat="42.9561083" lon="11.580015"><ele>578.0</ele><time>2026-04-20T13:03:54.811Z</time></trkpt><trkpt lat="42.9560317" lon="11.58014"><ele>578.0</ele><time>2026-04-20T13:03:55.812Z</time></trkpt><trkpt lat="42.9559633" lon="11.58028"><ele>578.0</ele><time>2026-04-20T13:03:56.811Z</time></trkpt><trkpt lat="42.955905" lon="11.5804367"><ele>578.0</ele><time>2026-04-20T13:03:57.81Z</time></trkpt><trkpt lat="42.9558517" lon="11.5805983"><ele>579.75</ele><time>2026-04-20T13:03:58.811Z</time></trkpt><trkpt lat="42.955795" lon="11.5807667"><ele>581.5</ele><time>2026-04-20T13:03:59.814Z</time></trkpt><trkpt lat="42.9557383" lon="11.580935"><ele>583.25</ele><time>2026-04-20T13:04:00.815Z</time></trkpt><trkpt lat="42.9556783" lon="11.5811017"><ele>585.0</ele><time>2026-04-20T13:04:01.814Z</time></trkpt><trkpt lat="42.95562" lon="11.5812717"><ele>585.0</ele><time>2026-04-20T13:04:02.815Z</time></trkpt><trkpt lat="42.9555633" lon="11.5814383"><ele>585.0</ele><time>2026-04-20T13:04:03.814Z</time></trkpt><trkpt lat="42.9554983" lon="11.5816"><ele>585.0</ele><time>2026-04-20T13:04:04.814Z</time></trkpt><trkpt lat="42.9554283" lon="11.58176"><ele>585.0</ele><time>2026-04-20T13:04:05.814Z</time></trkpt><trkpt lat="42.9553533" lon="11.58191"><ele>582.5</ele><time>2026-04-20T13:04:06.81Z</time></trkpt><trkpt lat="42.95527" lon="11.58206"><ele>580.0</ele><time>2026-04-20T13:04:07.81Z</time></trkpt><trkpt lat="42.95518" lon="11.5822133"><ele>577.5</ele><time>2026-04-20T13:04:08.81Z</time></trkpt><trkpt lat="42.9550817" lon="11.5823583"><ele>575.0</ele><time>2026-04-20T13:04:09.812Z</time></trkpt><trkpt lat="42.9549767" lon="11.5825083"><ele>579.25</ele><time>2026-04-20T13:04:10.81Z</time></trkpt><trkpt lat="42.9548717" lon="11.5826517"><ele>583.5</ele><time>2026-04-20T13:04:11.813Z</time></trkpt><trkpt lat="42.9547633" lon="11.5827867"><ele>587.75</ele><time>2026-04-20T13:04:12.811Z</time></trkpt><trkpt lat="42.95466" lon="11.5829017"><ele>592.0</ele><time>2026-04-20T13:04:13.816Z</time></trkpt><trkpt lat="42.9545633" lon="11.58301"><ele>592.0</ele><time>2026-04-20T13:04:14.815Z</time></trkpt><trkpt lat="42.9544767" lon="11.5831183"><ele>592.0</ele><time>2026-04-20T13:04:15.817Z</time></trkpt><trkpt lat="42.9543933" lon="11.5832267"><ele>592.0</ele><time>2026-04-20T13:04:16.818Z</time></trkpt><trkpt lat="42.9543267" lon="11.5833367"><ele>592.0</ele><time>2026-04-20T13:04:17.812Z</time></trkpt><trkpt lat="42.9542733" lon="11.5834567"><ele>592.0</ele><time>2026-04-20T13:04:18.811Z</time></trkpt><trkpt lat="42.9542233" lon="11.5835867"><ele>593.5</ele><time>2026-04-20T13:04:19.812Z</time></trkpt><trkpt lat="42.95418" lon="11.5837317"><ele>595.0</ele><time>2026-04-20T13:04:20.811Z</time></trkpt><trkpt lat="42.9541383" lon="11.58389"><ele>596.5</ele><time>2026-04-20T13:04:21.811Z</time></trkpt><trkpt lat="42.9540983" lon="11.58406"><ele>598.0</ele><time>2026-04-20T13:04:22.811Z</time></trkpt><trkpt lat="42.9540567" lon="11.5842367"><ele>598.0</ele><time>2026-04-20T13:04:23.81Z</time></trkpt><trkpt lat="42.9540167" lon="11.584415"><ele>598.0</ele><time>2026-04-20T13:04:24.81Z</time></trkpt><trkpt lat="42.9539783" lon="11.584585"><ele>598.0</ele><time>2026-04-20T13:04:25.81Z</time></trkpt><trkpt lat="42.9539483" lon="11.58475"><ele>598.0</ele><time>2026-04-20T13:04:26.81Z</time></trkpt><trkpt lat="42.9539317" lon="11.5849017"><ele>597.4</ele><time>2026-04-20T13:04:27.812Z</time></trkpt><trkpt lat="42.953925" lon="11.585045"><ele>596.8</ele><time>2026-04-20T13:04:28.81Z</time></trkpt><trkpt lat="42.953935" lon="11.5851783"><ele>596.2</ele><time>2026-04-20T13:04:29.81Z</time></trkpt><trkpt lat="42.9539683" lon="11.5853133"><ele>595.6</ele><time>2026-04-20T13:04:30.811Z</time></trkpt><trkpt lat="42.9540217" lon="11.585445"><ele>595.0</ele><time>2026-04-20T13:04:31.81Z</time></trkpt><trkpt lat="42.9540817" lon="11.5855767"><ele>596.4</ele><time>2026-04-20T13:04:32.812Z</time></trkpt><trkpt lat="42.9541383" lon="11.585715"><ele>597.8</ele><time>2026-04-20T13:04:33.811Z</time></trkpt><trkpt lat="42.9541833" lon="11.5858517"><ele>599.2</ele><time>2026-04-20T13:04:34.81Z</time></trkpt><trkpt lat="42.9542233" lon="11.5859817"><ele>600.6</ele><time>2026-04-20T13:04:35.811Z</time></trkpt><trkpt lat="42.9542633" lon="11.5861067"><ele>602.0</ele><time>2026-04-20T13:04:36.81Z</time></trkpt><trkpt lat="42.9543167" lon="11.586215"><ele>602.6</ele><time>2026-04-20T13:04:37.81Z</time></trkpt><trkpt lat="42.9543933" lon="11.5863033"><ele>603.2</ele><time>2026-04-20T13:04:38.811Z</time></trkpt><trkpt lat="42.9544783" lon="11.5863883"><ele>603.8</ele><time>2026-04-20T13:04:39.815Z</time></trkpt><trkpt lat="42.95457" lon="11.58647"><ele>604.4</ele><time>2026-04-20T13:04:40.812Z</time></trkpt><trkpt lat="42.95468" lon="11.58655"><ele>605.0</ele><time>2026-04-20T13:04:41.813Z</time></trkpt><trkpt lat="42.9547917" lon="11.5866267"><ele>605.0</ele><time>2026-04-20T13:04:42.811Z</time></trkpt><trkpt lat="42.9549067" lon="11.5866933"><ele>605.0</ele><time>2026-04-20T13:04:43.809Z</time></trkpt><trkpt lat="42.95503" lon="11.5867583"><ele>605.0</ele><time>2026-04-20T13:04:44.812Z</time></trkpt><trkpt lat="42.955145" lon="11.5868167"><ele>605.0</ele><time>2026-04-20T13:04:45.811Z</time></trkpt><trkpt lat="42.9552433" lon="11.58686"><ele>603.2</ele><time>2026-04-20T13:04:46.813Z</time></trkpt><trkpt lat="42.9553283" lon="11.5869183"><ele>601.4</ele><time>2026-04-20T13:04:47.81Z</time></trkpt><trkpt lat="42.9554083" lon="11.586995"><ele>599.6</ele><time>2026-04-20T13:04:48.811Z</time></trkpt><trkpt lat="42.9554983" lon="11.5870883"><ele>597.8</ele><time>2026-04-20T13:04:49.811Z</time></trkpt><trkpt lat="42.9555933" lon="11.5871817"><ele>596.0</ele><time>2026-04-20T13:04:50.811Z</time></trkpt><trkpt lat="42.955695" lon="11.5872717"><ele>601.25</ele><time>2026-04-20T13:04:51.812Z</time></trkpt><trkpt lat="42.9558017" lon="11.5873533"><ele>606.5</ele><time>2026-04-20T13:04:52.811Z</time></trkpt><trkpt lat="42.955905" lon="11.587435"><ele>611.75</ele><time>2026-04-20T13:04:53.812Z</time></trkpt><trkpt lat="42.956" lon="11.5875233"><ele>617.0</ele><time>2026-04-20T13:04:54.811Z</time></trkpt><trkpt lat="42.9560933" lon="11.587605"><ele>617.0</ele><time>2026-04-20T13:04:55.813Z</time></trkpt><trkpt lat="42.9561883" lon="11.587685"><ele>617.0</ele><time>2026-04-20T13:04:56.813Z</time></trkpt><trkpt lat="42.956285" lon="11.5877617"><ele>617.0</ele><time>2026-04-20T13:04:57.812Z</time></trkpt><trkpt lat="42.956375" lon="11.587835"><ele>617.0</ele><time>2026-04-20T13:04:58.811Z</time></trkpt><trkpt lat="42.9564517" lon="11.5879067"><ele>617.0</ele><time>2026-04-20T13:04:59.813Z</time></trkpt><trkpt lat="42.9565183" lon="11.5879883"><ele>616.8000000000001</ele><time>2026-04-20T13:05:00.813Z</time></trkpt><trkpt lat="42.9565783" lon="11.588095"><ele>616.6</ele><time>2026-04-20T13:05:01.811Z</time></trkpt><trkpt lat="42.9566433" lon="11.5882183"><ele>616.4000000000001</ele><time>2026-04-20T13:05:02.809Z</time></trkpt><trkpt lat="42.956705" lon="11.58835"><ele>616.2</ele><time>2026-04-20T13:05:03.81Z</time></trkpt><trkpt lat="42.9567583" lon="11.5884867"><ele>616.0</ele><time>2026-04-20T13:05:04.81Z</time></trkpt><trkpt lat="42.95679" lon="11.5886283"><ele>618.2</ele><time>2026-04-20T13:05:05.81Z</time></trkpt><trkpt lat="42.95681" lon="11.5887783"><ele>620.4000000000001</ele><time>2026-04-20T13:05:06.813Z</time></trkpt><trkpt lat="42.9568217" lon="11.5889333"><ele>622.6</ele><time>2026-04-20T13:05:07.813Z</time></trkpt><trkpt lat="42.9568317" lon="11.58909"><ele>624.8000000000001</ele><time>2026-04-20T13:05:08.814Z</time></trkpt><trkpt lat="42.9568317" lon="11.5892383"><ele>627.0</ele><time>2026-04-20T13:05:09.813Z</time></trkpt><trkpt lat="42.9568233" lon="11.58937"><ele>627.0</ele><time>2026-04-20T13:05:10.813Z</time></trkpt><trkpt lat="42.9567967" lon="11.58948"><ele>627.0</ele><time>2026-04-20T13:05:11.813Z</time></trkpt><trkpt lat="42.9567533" lon="11.5895683"><ele>627.0</ele><time>2026-04-20T13:05:12.813Z</time></trkpt><trkpt lat="42.9566967" lon="11.5896433"><ele>627.0</ele><time>2026-04-20T13:05:13.812Z</time></trkpt><trkpt lat="42.956635" lon="11.5897067"><ele>627.0</ele><time>2026-04-20T13:05:14.819Z</time></trkpt><trkpt lat="42.9565833" lon="11.5897683"><ele>627.0</ele><time>2026-04-20T13:05:15.814Z</time></trkpt><trkpt lat="42.956535" lon="11.5898333"><ele>629.8</ele><time>2026-04-20T13:05:16.81Z</time></trkpt><trkpt lat="42.9565167" lon="11.58996"><ele>632.6</ele><time>2026-04-20T13:05:18.813Z</time></trkpt><trkpt lat="42.9566083" lon="11.5900833"><ele>635.4</ele><time>2026-04-20T13:05:20.812Z</time></trkpt><trkpt lat="42.9566667" lon="11.590145"><ele>638.1999999999999</ele><time>2026-04-20T13:05:21.81Z</time></trkpt><trkpt lat="42.956735" lon="11.5902117"><ele>641.0</ele><time>2026-04-20T13:05:22.815Z</time></trkpt><trkpt lat="42.9568133" lon="11.5902783"><ele>643.1999999999999</ele><time>2026-04-20T13:05:23.812Z</time></trkpt><trkpt lat="42.9568917" lon="11.5903433"><ele>645.4</ele><time>2026-04-20T13:05:24.813Z</time></trkpt><trkpt lat="42.9569733" lon="11.5904033"><ele>647.6</ele><time>2026-04-20T13:05:25.818Z</time></trkpt><trkpt lat="42.9570583" lon="11.590465"><ele>649.8</ele><time>2026-04-20T13:05:26.816Z</time></trkpt><trkpt lat="42.9571433" lon="11.5905333"><ele>652.0</ele><time>2026-04-20T13:05:27.81Z</time></trkpt><trkpt lat="42.957235" lon="11.5905983"><ele>652.0</ele><time>2026-04-20T13:05:28.812Z</time></trkpt><trkpt lat="42.9573283" lon="11.5906617"><ele>652.0</ele><time>2026-04-20T13:05:29.81Z</time></trkpt><trkpt lat="42.9574183" lon="11.5907133"><ele>652.0</ele><time>2026-04-20T13:05:30.812Z</time></trkpt><trkpt lat="42.9574967" lon="11.5907583"><ele>652.0</ele><time>2026-04-20T13:05:31.81Z</time></trkpt><trkpt lat="42.9575633" lon="11.5907983"><ele>652.0</ele><time>2026-04-20T13:05:32.813Z</time></trkpt><trkpt lat="42.95763" lon="11.59085"><ele>652.0</ele><time>2026-04-20T13:05:33.813Z</time></trkpt><trkpt lat="42.9576933" lon="11.590925"><ele>652.1666666666667</ele><time>2026-04-20T13:05:34.812Z</time></trkpt><trkpt lat="42.9577483" lon="11.5910167"><ele>652.3333333333334</ele><time>2026-04-20T13:05:35.81Z</time></trkpt><trkpt lat="42.9577983" lon="11.591105"><ele>652.5</ele><time>2026-04-20T13:05:36.811Z</time></trkpt><trkpt lat="42.957855" lon="11.5911783"><ele>652.6666666666666</ele><time>2026-04-20T13:05:37.813Z</time></trkpt><trkpt lat="42.9579167" lon="11.59124"><ele>652.8333333333333</ele><time>2026-04-20T13:05:38.811Z</time></trkpt><trkpt lat="42.957975" lon="11.5912733"><ele>653.0</ele><time>2026-04-20T13:05:39.811Z</time></trkpt><trkpt lat="42.9580433" lon="11.5912833"><ele>654.6666666666666</ele><time>2026-04-20T13:05:40.811Z</time></trkpt><trkpt lat="42.9581233" lon="11.5912783"><ele>656.3333333333333</ele><time>2026-04-20T13:05:41.81Z</time></trkpt><trkpt lat="42.9582067" lon="11.5912783"><ele>658.0</ele><time>2026-04-20T13:05:42.814Z</time></trkpt><trkpt lat="42.9582883" lon="11.59129"><ele>659.6666666666666</ele><time>2026-04-20T13:05:43.813Z</time></trkpt><trkpt lat="42.9583633" lon="11.5913117"><ele>661.3333333333334</ele><time>2026-04-20T13:05:44.811Z</time></trkpt><trkpt lat="42.95843" lon="11.5913383"><ele>663.0</ele><time>2026-04-20T13:05:45.813Z</time></trkpt><trkpt lat="42.9584867" lon="11.5913783"><ele>663.0</ele><time>2026-04-20T13:05:46.81Z</time></trkpt><trkpt lat="42.958555" lon="11.5915183"><ele>663.0</ele><time>2026-04-20T13:05:48.809Z</time></trkpt><trkpt lat="42.9585517" lon="11.591605"><ele>663.0</ele><time>2026-04-20T13:05:49.811Z</time></trkpt><trkpt lat="42.9585417" lon="11.5916933"><ele>663.0</ele><time>2026-04-20T13:05:50.81Z</time></trkpt><trkpt lat="42.9584967" lon="11.5917983"><ele>663.0</ele><time>2026-04-20T13:05:51.81Z</time></trkpt><trkpt lat="42.958455" lon="11.591905"><ele>663.0</ele><time>2026-04-20T13:05:52.811Z</time></trkpt><trkpt lat="42.95843" lon="11.592035"><ele>663.8</ele><time>2026-04-20T13:05:53.81Z</time></trkpt><trkpt lat="42.958415" lon="11.5921733"><ele>664.5999999999999</ele><time>2026-04-20T13:05:54.81Z</time></trkpt><trkpt lat="42.9584017" lon="11.592315"><ele>665.4000000000001</ele><time>2026-04-20T13:05:55.812Z</time></trkpt><trkpt lat="42.9583967" lon="11.5924483"><ele>666.2</ele><time>2026-04-20T13:05:56.814Z</time></trkpt><trkpt lat="42.95839" lon="11.592575"><ele>667.0</ele><time>2026-04-20T13:05:57.814Z</time></trkpt><trkpt lat="42.958375" lon="11.5926967"><ele>666.8333333333334</ele><time>2026-04-20T13:05:58.813Z</time></trkpt><trkpt lat="42.9583567" lon="11.59281"><ele>666.6666666666667</ele><time>2026-04-20T13:05:59.814Z</time></trkpt><trkpt lat="42.9583333" lon="11.5929133"><ele>666.5</ele><time>2026-04-20T13:06:00.815Z</time></trkpt><trkpt lat="42.9583" lon="11.5930033"><ele>666.3333333333334</ele><time>2026-04-20T13:06:01.811Z</time></trkpt><trkpt lat="42.95825" lon="11.59309"><ele>666.1666666666666</ele><time>2026-04-20T13:06:02.811Z</time></trkpt><trkpt lat="42.9581783" lon="11.5931783"><ele>666.0</ele><time>2026-04-20T13:06:03.81Z</time></trkpt><trkpt lat="42.9580967" lon="11.5932683"><ele>666.0</ele><time>2026-04-20T13:06:04.809Z</time></trkpt><trkpt lat="42.9579917" lon="11.5933583"><ele>666.0</ele><time>2026-04-20T13:06:05.81Z</time></trkpt><trkpt lat="42.9579" lon="11.59347"><ele>666.0</ele><time>2026-04-20T13:06:06.811Z</time></trkpt><trkpt lat="42.95781" lon="11.5935883"><ele>666.0</ele><time>2026-04-20T13:06:07.81Z</time></trkpt><trkpt lat="42.9577267" lon="11.5937083"><ele>665.4</ele><time>2026-04-20T13:06:08.811Z</time></trkpt><trkpt lat="42.9576483" lon="11.59382"><ele>664.8</ele><time>2026-04-20T13:06:09.812Z</time></trkpt><trkpt lat="42.9575817" lon="11.59393"><ele>664.1999999999999</ele><time>2026-04-20T13:06:10.814Z</time></trkpt><trkpt lat="42.9575433" lon="11.5940433"><ele>663.5999999999999</ele><time>2026-04-20T13:06:11.812Z</time></trkpt><trkpt lat="42.9575333" lon="11.5941683"><ele>663.0</ele><time>2026-04-20T13:06:12.812Z</time></trkpt><trkpt lat="42.9575467" lon="11.5943083"><ele>663.0</ele><time>2026-04-20T13:06:13.813Z</time></trkpt><trkpt lat="42.9575783" lon="11.5944633"><ele>663.0</ele><time>2026-04-20T13:06:14.813Z</time></trkpt><trkpt lat="42.9576167" lon="11.5946417"><ele>663.0</ele><time>2026-04-20T13:06:15.813Z</time></trkpt><trkpt lat="42.95766" lon="11.5948383"><ele>663.0</ele><time>2026-04-20T13:06:16.814Z</time></trkpt><trkpt lat="42.957705" lon="11.59505"><ele>663.6666666666666</ele><time>2026-04-20T13:06:17.812Z</time></trkpt><trkpt lat="42.9577467" lon="11.5952667"><ele>664.3333333333333</ele><time>2026-04-20T13:06:18.814Z</time></trkpt><trkpt lat="42.95779" lon="11.5954817"><ele>665.0</ele><time>2026-04-20T13:06:19.813Z</time></trkpt><trkpt lat="42.9578383" lon="11.595685"><ele>666.75</ele><time>2026-04-20T13:06:20.814Z</time></trkpt><trkpt lat="42.9578933" lon="11.595875"><ele>668.5</ele><time>2026-04-20T13:06:21.813Z</time></trkpt><trkpt lat="42.9579433" lon="11.5960317"><ele>670.25</ele><time>2026-04-20T13:06:22.813Z</time></trkpt><trkpt lat="42.957995" lon="11.5961617"><ele>672.0</ele><time>2026-04-20T13:06:23.812Z</time></trkpt><trkpt lat="42.9580467" lon="11.5962633"><ele>673.8333333333334</ele><time>2026-04-20T13:06:24.813Z</time></trkpt><trkpt lat="42.9580983" lon="11.5963517"><ele>675.6666666666666</ele><time>2026-04-20T13:06:25.813Z</time></trkpt><trkpt lat="42.95816" lon="11.5964283"><ele>677.5</ele><time>2026-04-20T13:06:26.811Z</time></trkpt><trkpt lat="42.958215" lon="11.5965067"><ele>679.3333333333333</ele><time>2026-04-20T13:06:27.813Z</time></trkpt><trkpt lat="42.9582567" lon="11.5965833"><ele>681.1666666666666</ele><time>2026-04-20T13:06:28.811Z</time></trkpt><trkpt lat="42.9582717" lon="11.5967167"><ele>683.0</ele><time>2026-04-20T13:06:30.811Z</time></trkpt><trkpt lat="42.9581683" lon="11.5967917"><ele>683.0</ele><time>2026-04-20T13:06:32.811Z</time></trkpt><trkpt lat="42.958095" lon="11.5968167"><ele>683.0</ele><time>2026-04-20T13:06:33.81Z</time></trkpt><trkpt lat="42.9580067" lon="11.5968417"><ele>683.0</ele><time>2026-04-20T13:06:34.812Z</time></trkpt><trkpt lat="42.957915" lon="11.59688"><ele>683.0</ele><time>2026-04-20T13:06:35.811Z</time></trkpt><trkpt lat="42.9578367" lon="11.596925"><ele>683.0</ele><time>2026-04-20T13:06:36.813Z</time></trkpt><trkpt lat="42.957775" lon="11.5969783"><ele>683.0</ele><time>2026-04-20T13:06:37.811Z</time></trkpt><trkpt lat="42.9577333" lon="11.5971233"><ele>685.0</ele><time>2026-04-20T13:06:39.81Z</time></trkpt><trkpt lat="42.9577517" lon="11.5972117"><ele>687.0</ele><time>2026-04-20T13:06:40.815Z</time></trkpt><trkpt lat="42.9577833" lon="11.597295"><ele>689.0</ele><time>2026-04-20T13:06:41.813Z</time></trkpt><trkpt lat="42.9578467" lon="11.5973883"><ele>691.0</ele><time>2026-04-20T13:06:42.813Z</time></trkpt><trkpt lat="42.9579117" lon="11.59749"><ele>693.0</ele><time>2026-04-20T13:06:43.813Z</time></trkpt><trkpt lat="42.957975" lon="11.5975883"><ele>695.0</ele><time>2026-04-20T13:06:44.818Z</time></trkpt><trkpt lat="42.958045" lon="11.5976733"><ele>695.0</ele><time>2026-04-20T13:06:45.813Z</time></trkpt><trkpt lat="42.958115" lon="11.59775"><ele>695.0</ele><time>2026-04-20T13:06:46.814Z</time></trkpt><trkpt lat="42.9581917" lon="11.59781"><ele>695.0</ele><time>2026-04-20T13:06:47.813Z</time></trkpt><trkpt lat="42.9582717" lon="11.5978617"><ele>695.0</ele><time>2026-04-20T13:06:48.813Z</time></trkpt><trkpt lat="42.9583533" lon="11.5979283"><ele>695.0</ele><time>2026-04-20T13:06:49.812Z</time></trkpt><trkpt lat="42.9584267" lon="11.598005"><ele>693.1666666666666</ele><time>2026-04-20T13:06:50.814Z</time></trkpt><trkpt lat="42.9584833" lon="11.5980833"><ele>691.3333333333333</ele><time>2026-04-20T13:06:51.816Z</time></trkpt><trkpt lat="42.95851" lon="11.59818"><ele>689.5</ele><time>2026-04-20T13:06:52.813Z</time></trkpt><trkpt lat="42.9585217" lon="11.5982883"><ele>687.6666666666666</ele><time>2026-04-20T13:06:53.812Z</time></trkpt><trkpt lat="42.958505" lon="11.598405"><ele>685.8333333333334</ele><time>2026-04-20T13:06:54.812Z</time></trkpt><trkpt lat="42.9584767" lon="11.5985133"><ele>684.0</ele><time>2026-04-20T13:06:55.814Z</time></trkpt><trkpt lat="42.958455" lon="11.5986117"><ele>686.0</ele><time>2026-04-20T13:06:56.814Z</time></trkpt><trkpt lat="42.95845" lon="11.5987033"><ele>688.0</ele><time>2026-04-20T13:06:57.814Z</time></trkpt><trkpt lat="42.9584633" lon="11.5987967"><ele>690.0</ele><time>2026-04-20T13:06:58.814Z</time></trkpt><trkpt lat="42.958495" lon="11.5988833"><ele>692.0</ele><time>2026-04-20T13:06:59.816Z</time></trkpt><trkpt lat="42.958555" lon="11.5989667"><ele>694.0</ele><time>2026-04-20T13:07:00.814Z</time></trkpt><trkpt lat="42.9586233" lon="11.59905"><ele>696.0</ele><time>2026-04-20T13:07:01.81Z</time></trkpt><trkpt lat="42.9586783" lon="11.5991467"><ele>696.0</ele><time>2026-04-20T13:07:02.814Z</time></trkpt><trkpt lat="42.958725" lon="11.5992517"><ele>696.0</ele><time>2026-04-20T13:07:03.81Z</time></trkpt><trkpt lat="42.9587617" lon="11.5993617"><ele>696.0</ele><time>2026-04-20T13:07:04.811Z</time></trkpt><trkpt lat="42.9587883" lon="11.5994733"><ele>696.0</ele><time>2026-04-20T13:07:05.811Z</time></trkpt><trkpt lat="42.9588033" lon="11.5995933"><ele>696.0</ele><time>2026-04-20T13:07:06.813Z</time></trkpt><trkpt lat="42.9588083" lon="11.5997317"><ele>697.25</ele><time>2026-04-20T13:07:07.815Z</time></trkpt><trkpt lat="42.958805" lon="11.5998883"><ele>698.5</ele><time>2026-04-20T13:07:08.814Z</time></trkpt><trkpt lat="42.9587967" lon="11.60006"><ele>699.75</ele><time>2026-04-20T13:07:09.813Z</time></trkpt><trkpt lat="42.95878" lon="11.60024"><ele>701.0</ele><time>2026-04-20T13:07:10.811Z</time></trkpt><trkpt lat="42.9587567" lon="11.6004283"><ele>702.75</ele><time>2026-04-20T13:07:11.813Z</time></trkpt><trkpt lat="42.95873" lon="11.6006183"><ele>704.5</ele><time>2026-04-20T13:07:12.814Z</time></trkpt><trkpt lat="42.9587017" lon="11.6008067"><ele>706.25</ele><time>2026-04-20T13:07:13.813Z</time></trkpt><trkpt lat="42.95868" lon="11.6009933"><ele>708.0</ele><time>2026-04-20T13:07:14.815Z</time></trkpt><trkpt lat="42.9586633" lon="11.6011917"><ele>709.3333333333334</ele><time>2026-04-20T13:07:15.816Z</time></trkpt><trkpt lat="42.9586483" lon="11.6014083"><ele>710.6666666666667</ele><time>2026-04-20T13:07:16.817Z</time></trkpt><trkpt lat="42.9586267" lon="11.601625"><ele>712.0</ele><time>2026-04-20T13:07:17.812Z</time></trkpt><trkpt lat="42.958605" lon="11.6018283"><ele>712.75</ele><time>2026-04-20T13:07:18.814Z</time></trkpt><trkpt lat="42.958585" lon="11.6020233"><ele>713.5</ele><time>2026-04-20T13:07:19.814Z</time></trkpt><trkpt lat="42.9585783" lon="11.6022133"><ele>714.25</ele><time>2026-04-20T13:07:20.814Z</time></trkpt><trkpt lat="42.9585817" lon="11.6024"><ele>715.0</ele><time>2026-04-20T13:07:21.81Z</time></trkpt><trkpt lat="42.9585867" lon="11.602595"><ele>715.0</ele><time>2026-04-20T13:07:22.813Z</time></trkpt><trkpt lat="42.95858" lon="11.602795"><ele>715.0</ele><time>2026-04-20T13:07:23.813Z</time></trkpt><trkpt lat="42.9585583" lon="11.6029867"><ele>715.0</ele><time>2026-04-20T13:07:24.814Z</time></trkpt><trkpt lat="42.958535" lon="11.6031567"><ele>715.0</ele><time>2026-04-20T13:07:25.814Z</time></trkpt><trkpt lat="42.958515" lon="11.6033033"><ele>715.3333333333334</ele><time>2026-04-20T13:07:26.814Z</time></trkpt><trkpt lat="42.9585033" lon="11.6034333"><ele>715.6666666666667</ele><time>2026-04-20T13:07:27.814Z</time></trkpt><trkpt lat="42.9584983" lon="11.60356"><ele>716.0</ele><time>2026-04-20T13:07:28.813Z</time></trkpt><trkpt lat="42.9584983" lon="11.6036833"><ele>716.3333333333334</ele><time>2026-04-20T13:07:29.811Z</time></trkpt><trkpt lat="42.95851" lon="11.6037967"><ele>716.6666666666666</ele><time>2026-04-20T13:07:30.81Z</time></trkpt><trkpt lat="42.9585333" lon="11.6039"><ele>717.0</ele><time>2026-04-20T13:07:31.814Z</time></trkpt><trkpt lat="42.9585817" lon="11.6039917"><ele>718.75</ele><time>2026-04-20T13:07:32.814Z</time></trkpt><trkpt lat="42.95866" lon="11.6040817"><ele>720.5</ele><time>2026-04-20T13:07:33.815Z</time></trkpt><trkpt lat="42.958765" lon="11.6041817"><ele>722.25</ele><time>2026-04-20T13:07:34.81Z</time></trkpt><trkpt lat="42.95887" lon="11.6042933"><ele>724.0</ele><time>2026-04-20T13:07:35.811Z</time></trkpt><trkpt lat="42.9589633" lon="11.604425"><ele>725.5</ele><time>2026-04-20T13:07:36.814Z</time></trkpt><trkpt lat="42.9590467" lon="11.6045683"><ele>727.0</ele><time>2026-04-20T13:07:37.81Z</time></trkpt><trkpt lat="42.9591167" lon="11.6047217"><ele>728.5</ele><time>2026-04-20T13:07:38.813Z</time></trkpt><trkpt lat="42.9591717" lon="11.6048883"><ele>730.0</ele><time>2026-04-20T13:07:39.811Z</time></trkpt><trkpt lat="42.959215" lon="11.60507"><ele>725.5</ele><time>2026-04-20T13:07:40.814Z</time></trkpt><trkpt lat="42.9592433" lon="11.6052633"><ele>721.0</ele><time>2026-04-20T13:07:41.812Z</time></trkpt><trkpt lat="42.9592617" lon="11.605465"><ele>716.5</ele><time>2026-04-20T13:07:42.814Z</time></trkpt><trkpt lat="42.959265" lon="11.605645"><ele>712.0</ele><time>2026-04-20T13:07:43.814Z</time></trkpt><trkpt lat="42.95925" lon="11.605805"><ele>712.0</ele><time>2026-04-20T13:07:44.814Z</time></trkpt><trkpt lat="42.9592283" lon="11.6059683"><ele>712.0</ele><time>2026-04-20T13:07:45.813Z</time></trkpt><trkpt lat="42.9592083" lon="11.6061467"><ele>712.0</ele><time>2026-04-20T13:07:46.81Z</time></trkpt><trkpt lat="42.9592033" lon="11.606355"><ele>712.0</ele><time>2026-04-20T13:07:47.814Z</time></trkpt><trkpt lat="42.9592117" lon="11.60659"><ele>712.0</ele><time>2026-04-20T13:07:48.814Z</time></trkpt><trkpt lat="42.9592267" lon="11.6068467"><ele>712.0</ele><time>2026-04-20T13:07:49.813Z</time></trkpt><trkpt lat="42.9592483" lon="11.6071017"><ele>712.0</ele><time>2026-04-20T13:07:50.811Z</time></trkpt><trkpt lat="42.95927" lon="11.6073417"><ele>712.0</ele><time>2026-04-20T13:07:51.811Z</time></trkpt><trkpt lat="42.9592983" lon="11.6075733"><ele>712.0</ele><time>2026-04-20T13:07:52.816Z</time></trkpt><trkpt lat="42.9593333" lon="11.6077883"><ele>712.0</ele><time>2026-04-20T13:07:53.812Z</time></trkpt><trkpt lat="42.9593833" lon="11.6079833"><ele>714.25</ele><time>2026-04-20T13:07:54.814Z</time></trkpt><trkpt lat="42.959445" lon="11.6081583"><ele>716.5</ele><time>2026-04-20T13:07:55.814Z</time></trkpt><trkpt lat="42.959495" lon="11.6083233"><ele>718.75</ele><time>2026-04-20T13:07:56.814Z</time></trkpt><trkpt lat="42.9595333" lon="11.60849"><ele>721.0</ele><time>2026-04-20T13:07:57.814Z</time></trkpt><trkpt lat="42.9595567" lon="11.608655"><ele>722.8</ele><time>2026-04-20T13:07:58.813Z</time></trkpt><trkpt lat="42.9595667" lon="11.6088"><ele>724.5999999999999</ele><time>2026-04-20T13:07:59.81Z</time></trkpt><trkpt lat="42.9595617" lon="11.6089283"><ele>726.4</ele><time>2026-04-20T13:08:00.81Z</time></trkpt><trkpt lat="42.9595533" lon="11.6090567"><ele>728.2</ele><time>2026-04-20T13:08:01.816Z</time></trkpt><trkpt lat="42.9595433" lon="11.6091917"><ele>730.0</ele><time>2026-04-20T13:08:02.815Z</time></trkpt><trkpt lat="42.9595333" lon="11.609335"><ele>730.0</ele><time>2026-04-20T13:08:03.814Z</time></trkpt><trkpt lat="42.9595267" lon="11.6094883"><ele>730.0</ele><time>2026-04-20T13:08:04.814Z</time></trkpt><trkpt lat="42.959535" lon="11.609655"><ele>730.0</ele><time>2026-04-20T13:08:05.814Z</time></trkpt><trkpt lat="42.959555" lon="11.6098283"><ele>730.0</ele><time>2026-04-20T13:08:06.814Z</time></trkpt><trkpt lat="42.9595917" lon="11.6100083"><ele>729.25</ele><time>2026-04-20T13:08:07.813Z</time></trkpt><trkpt lat="42.9596417" lon="11.610185"><ele>728.5</ele><time>2026-04-20T13:08:08.811Z</time></trkpt><trkpt lat="42.9596883" lon="11.610345"><ele>727.75</ele><time>2026-04-20T13:08:09.813Z</time></trkpt><trkpt lat="42.95974" lon="11.6104967"><ele>727.0</ele><time>2026-04-20T13:08:10.812Z</time></trkpt><trkpt lat="42.9598" lon="11.6106417"><ele>726.0</ele><time>2026-04-20T13:08:11.813Z</time></trkpt><trkpt lat="42.95987" lon="11.6107733"><ele>725.0</ele><time>2026-04-20T13:08:12.812Z</time></trkpt><trkpt lat="42.9599583" lon="11.6108883"><ele>724.0</ele><time>2026-04-20T13:08:13.813Z</time></trkpt><trkpt lat="42.9600617" lon="11.611"><ele>723.0</ele><time>2026-04-20T13:08:14.813Z</time></trkpt><trkpt lat="42.96018" lon="11.6111133"><ele>721.3333333333334</ele><time>2026-04-20T13:08:15.81Z</time></trkpt><trkpt lat="42.960315" lon="11.6112367"><ele>719.6666666666667</ele><time>2026-04-20T13:08:16.816Z</time></trkpt><trkpt lat="42.9604533" lon="11.6113633"><ele>718.0</ele><time>2026-04-20T13:08:17.813Z</time></trkpt><trkpt lat="42.9605867" lon="11.6114883"><ele>718.0</ele><time>2026-04-20T13:08:18.813Z</time></trkpt><trkpt lat="42.9607117" lon="11.6116183"><ele>718.0</ele><time>2026-04-20T13:08:19.813Z</time></trkpt><trkpt lat="42.9608233" lon="11.6117467"><ele>718.0</ele><time>2026-04-20T13:08:20.911Z</time></trkpt><trkpt lat="42.9609917" lon="11.61199"><ele>716.8</ele><time>2026-04-20T13:08:22.813Z</time></trkpt><trkpt lat="42.961065" lon="11.6120833"><ele>715.5999999999999</ele><time>2026-04-20T13:08:23.813Z</time></trkpt><trkpt lat="42.9611467" lon="11.6121533"><ele>714.4000000000001</ele><time>2026-04-20T13:08:24.813Z</time></trkpt><trkpt lat="42.961235" lon="11.6122067"><ele>713.2</ele><time>2026-04-20T13:08:25.813Z</time></trkpt><trkpt lat="42.9613183" lon="11.6122517"><ele>712.0</ele><time>2026-04-20T13:08:26.813Z</time></trkpt><trkpt lat="42.9614033" lon="11.6123"><ele>712.0</ele><time>2026-04-20T13:08:27.904Z</time></trkpt><trkpt lat="42.96149" lon="11.612345"><ele>712.0</ele><time>2026-04-20T13:08:28.811Z</time></trkpt><trkpt lat="42.961575" lon="11.6123933"><ele>712.0</ele><time>2026-04-20T13:08:29.813Z</time></trkpt><trkpt lat="42.961655" lon="11.6124517"><ele>712.0</ele><time>2026-04-20T13:08:30.81Z</time></trkpt><trkpt lat="42.9617317" lon="11.6125267"><ele>712.0</ele><time>2026-04-20T13:08:31.812Z</time></trkpt><trkpt lat="42.9618033" lon="11.6126217"><ele>709.0</ele><time>2026-04-20T13:08:32.811Z</time></trkpt><trkpt lat="42.9618633" lon="11.6127367"><ele>706.0</ele><time>2026-04-20T13:08:33.812Z</time></trkpt><trkpt lat="42.9619183" lon="11.61288"><ele>703.0</ele><time>2026-04-20T13:08:34.813Z</time></trkpt><trkpt lat="42.9619517" lon="11.613045"><ele>700.0</ele><time>2026-04-20T13:08:35.81Z</time></trkpt><trkpt lat="42.9619867" lon="11.61323"><ele>699.25</ele><time>2026-04-20T13:08:36.813Z</time></trkpt><trkpt lat="42.9619917" lon="11.6134183"><ele>698.5</ele><time>2026-04-20T13:08:37.812Z</time></trkpt><trkpt lat="42.9619817" lon="11.6136067"><ele>697.75</ele><time>2026-04-20T13:08:38.812Z</time></trkpt><trkpt lat="42.96196" lon="11.613795"><ele>697.0</ele><time>2026-04-20T13:08:39.81Z</time></trkpt><trkpt lat="42.9619367" lon="11.6139783"><ele>696.25</ele><time>2026-04-20T13:08:40.813Z</time></trkpt><trkpt lat="42.961925" lon="11.61415"><ele>695.5</ele><time>2026-04-20T13:08:41.813Z</time></trkpt><trkpt lat="42.9619267" lon="11.6143167"><ele>694.75</ele><time>2026-04-20T13:08:42.81Z</time></trkpt><trkpt lat="42.9619367" lon="11.6144883"><ele>694.0</ele><time>2026-04-20T13:08:43.813Z</time></trkpt><trkpt lat="42.9619667" lon="11.6146567"><ele>693.6</ele><time>2026-04-20T13:08:44.813Z</time></trkpt><trkpt lat="42.9620117" lon="11.6148167"><ele>693.2</ele><time>2026-04-20T13:08:45.813Z</time></trkpt><trkpt lat="42.9620633" lon="11.6149583"><ele>692.8000000000001</ele><time>2026-04-20T13:08:46.812Z</time></trkpt><trkpt lat="42.9621033" lon="11.6150867"><ele>692.4000000000001</ele><time>2026-04-20T13:08:47.815Z</time></trkpt><trkpt lat="42.9621317" lon="11.61522"><ele>692.0</ele><time>2026-04-20T13:08:48.815Z</time></trkpt><trkpt lat="42.962145" lon="11.6153583"><ele>691.6666666666666</ele><time>2026-04-20T13:08:49.812Z</time></trkpt><trkpt lat="42.9621433" lon="11.6154933"><ele>691.3333333333333</ele><time>2026-04-20T13:08:50.813Z</time></trkpt><trkpt lat="42.9621367" lon="11.6156217"><ele>691.0</ele><time>2026-04-20T13:08:51.813Z</time></trkpt><trkpt lat="42.962135" lon="11.6157367"><ele>690.6666666666666</ele><time>2026-04-20T13:08:52.813Z</time></trkpt><trkpt lat="42.962145" lon="11.6158567"><ele>690.3333333333334</ele><time>2026-04-20T13:08:53.813Z</time></trkpt><trkpt lat="42.9621717" lon="11.615955"><ele>690.0</ele><time>2026-04-20T13:08:54.813Z</time></trkpt><trkpt lat="42.9622733" lon="11.616055"><ele>690.0</ele><time>2026-04-20T13:08:56.813Z</time></trkpt><trkpt lat="42.96235" lon="11.616055"><ele>690.0</ele><time>2026-04-20T13:08:57.809Z</time></trkpt><trkpt lat="42.9624517" lon="11.61605"><ele>690.0</ele><time>2026-04-20T13:08:58.809Z</time></trkpt><trkpt lat="42.9625617" lon="11.61605"><ele>690.0</ele><time>2026-04-20T13:08:59.817Z</time></trkpt><trkpt lat="42.96274" lon="11.616005"><ele>686.6666666666666</ele><time>2026-04-20T13:09:00.811Z</time></trkpt><trkpt lat="42.9629167" lon="11.61597"><ele>683.3333333333333</ele><time>2026-04-20T13:09:01.811Z</time></trkpt><trkpt lat="42.9630933" lon="11.6159367"><ele>680.0</ele><time>2026-04-20T13:09:02.809Z</time></trkpt><trkpt lat="42.9632783" lon="11.6159133"><ele>678.6666666666666</ele><time>2026-04-20T13:09:03.809Z</time></trkpt><trkpt lat="42.9634617" lon="11.6158983"><ele>677.3333333333334</ele><time>2026-04-20T13:09:04.81Z</time></trkpt><trkpt lat="42.96364" lon="11.6158917"><ele>676.0</ele><time>2026-04-20T13:09:05.81Z</time></trkpt><trkpt lat="42.9638" lon="11.6159017"><ele>676.0</ele><time>2026-04-20T13:09:06.813Z</time></trkpt><trkpt lat="42.9639467" lon="11.6159117"><ele>676.0</ele><time>2026-04-20T13:09:07.81Z</time></trkpt><trkpt lat="42.9640867" lon="11.6159267"><ele>676.0</ele><time>2026-04-20T13:09:08.813Z</time></trkpt><trkpt lat="42.9642217" lon="11.6159367"><ele>676.0</ele><time>2026-04-20T13:09:09.814Z</time></trkpt><trkpt lat="42.9643567" lon="11.6159383"><ele>675.5</ele><time>2026-04-20T13:09:10.812Z</time></trkpt><trkpt lat="42.964485" lon="11.6159167"><ele>675.0</ele><time>2026-04-20T13:09:11.81Z</time></trkpt><trkpt lat="42.9646017" lon="11.615885"><ele>674.5</ele><time>2026-04-20T13:09:12.813Z</time></trkpt><trkpt lat="42.9647183" lon="11.6158567"><ele>674.0</ele><time>2026-04-20T13:09:13.811Z</time></trkpt><trkpt lat="42.964835" lon="11.6158333"><ele>674.0</ele><time>2026-04-20T13:09:14.811Z</time></trkpt><trkpt lat="42.9649533" lon="11.615815"><ele>674.0</ele><time>2026-04-20T13:09:15.811Z</time></trkpt><trkpt lat="42.9650683" lon="11.6158083"><ele>674.0</ele><time>2026-04-20T13:09:16.814Z</time></trkpt><trkpt lat="42.965185" lon="11.61582"><ele>674.0</ele><time>2026-04-20T13:09:17.811Z</time></trkpt><trkpt lat="42.9653033" lon="11.6158417"><ele>672.2</ele><time>2026-04-20T13:09:18.816Z</time></trkpt><trkpt lat="42.9654167" lon="11.615875"><ele>670.4000000000001</ele><time>2026-04-20T13:09:19.81Z</time></trkpt><trkpt lat="42.9655183" lon="11.6159117"><ele>668.6</ele><time>2026-04-20T13:09:20.812Z</time></trkpt><trkpt lat="42.9656233" lon="11.61595"><ele>666.8</ele><time>2026-04-20T13:09:21.812Z</time></trkpt><trkpt lat="42.9657167" lon="11.6159833"><ele>665.0</ele><time>2026-04-20T13:09:22.813Z</time></trkpt><trkpt lat="42.965805" lon="11.61603"><ele>663.8</ele><time>2026-04-20T13:09:23.814Z</time></trkpt><trkpt lat="42.9658867" lon="11.616075"><ele>662.6</ele><time>2026-04-20T13:09:24.809Z</time></trkpt><trkpt lat="42.965985" lon="11.6161383"><ele>661.4000000000001</ele><time>2026-04-20T13:09:25.81Z</time></trkpt><trkpt lat="42.9660783" lon="11.6162233"><ele>660.2</ele><time>2026-04-20T13:09:26.813Z</time></trkpt><trkpt lat="42.966175" lon="11.6163117"><ele>659.0</ele><time>2026-04-20T13:09:27.809Z</time></trkpt><trkpt lat="42.9662533" lon="11.616405"><ele>659.0</ele><time>2026-04-20T13:09:28.809Z</time></trkpt><trkpt lat="42.9663283" lon="11.616495"><ele>659.0</ele><time>2026-04-20T13:09:29.81Z</time></trkpt><trkpt lat="42.9663883" lon="11.6165717"><ele>659.0</ele><time>2026-04-20T13:09:30.811Z</time></trkpt><trkpt lat="42.9664483" lon="11.6166317"><ele>659.0</ele><time>2026-04-20T13:09:31.813Z</time></trkpt><trkpt lat="42.9665317" lon="11.6166967"><ele>659.0</ele><time>2026-04-20T13:09:33.814Z</time></trkpt><trkpt lat="42.9666017" lon="11.6167083"><ele>659.0</ele><time>2026-04-20T13:10:13.81Z</time></trkpt><trkpt lat="42.9667033" lon="11.6167133"><ele>659.2</ele><time>2026-04-20T13:10:15.813Z</time></trkpt><trkpt lat="42.9667833" lon="11.6167217"><ele>659.4000000000001</ele><time>2026-04-20T13:10:16.813Z</time></trkpt><trkpt lat="42.9668817" lon="11.616725"><ele>659.6</ele><time>2026-04-20T13:10:17.812Z</time></trkpt><trkpt lat="42.966985" lon="11.616725"><ele>659.8</ele><time>2026-04-20T13:10:18.81Z</time></trkpt><trkpt lat="42.967085" lon="11.6167183"><ele>660.0</ele><time>2026-04-20T13:10:19.811Z</time></trkpt><trkpt lat="42.9671783" lon="11.61671"><ele>660.0</ele><time>2026-04-20T13:10:20.81Z</time></trkpt><trkpt lat="42.9672667" lon="11.6166933"><ele>660.0</ele><time>2026-04-20T13:10:21.81Z</time></trkpt><trkpt lat="42.9673483" lon="11.616675"><ele>660.0</ele><time>2026-04-20T13:10:22.81Z</time></trkpt><trkpt lat="42.9674217" lon="11.6166583"><ele>660.0</ele><time>2026-04-20T13:10:23.811Z</time></trkpt><trkpt lat="42.967485" lon="11.616645"><ele>660.0</ele><time>2026-04-20T13:10:24.81Z</time></trkpt><trkpt lat="42.9676" lon="11.6166417"><ele>660.0</ele><time>2026-04-20T13:10:26.813Z</time></trkpt><trkpt lat="42.9676967" lon="11.6166833"><ele>660.0</ele><time>2026-04-20T13:10:28.813Z</time></trkpt><trkpt lat="42.967755" lon="11.6167583"><ele>660.0</ele><time>2026-04-20T13:10:30.815Z</time></trkpt><trkpt lat="42.9677883" lon="11.6168783"><ele>660.0</ele><time>2026-04-20T13:10:32.814Z</time></trkpt><trkpt lat="42.9678117" lon="11.6169583"><ele>660.0</ele><time>2026-04-20T13:10:33.811Z</time></trkpt><trkpt lat="42.9678417" lon="11.6170517"><ele>660.0</ele><time>2026-04-20T13:10:34.814Z</time></trkpt><trkpt lat="42.9678783" lon="11.617155"><ele>660.0</ele><time>2026-04-20T13:10:35.811Z</time></trkpt><trkpt lat="42.9679217" lon="11.6172683"><ele>660.0</ele><time>2026-04-20T13:10:36.814Z</time></trkpt><trkpt lat="42.9679633" lon="11.61738"><ele>660.0</ele><time>2026-04-20T13:10:37.81Z</time></trkpt><trkpt lat="42.968" lon="11.6174867"><ele>660.0</ele><time>2026-04-20T13:10:38.815Z</time></trkpt><trkpt lat="42.968045" lon="11.6175917"><ele>660.0</ele><time>2026-04-20T13:10:39.812Z</time></trkpt><trkpt lat="42.9680933" lon="11.6176883"><ele>660.0</ele><time>2026-04-20T13:10:40.814Z</time></trkpt><trkpt lat="42.9681533" lon="11.6177683"><ele>660.0</ele><time>2026-04-20T13:10:41.813Z</time></trkpt><trkpt lat="42.9682283" lon="11.61784"><ele>656.25</ele><time>2026-04-20T13:10:42.814Z</time></trkpt><trkpt lat="42.9683217" lon="11.6178967"><ele>652.5</ele><time>2026-04-20T13:10:43.814Z</time></trkpt><trkpt lat="42.9684217" lon="11.6179617"><ele>648.75</ele><time>2026-04-20T13:10:44.814Z</time></trkpt><trkpt lat="42.9685283" lon="11.6180317"><ele>645.0</ele><time>2026-04-20T13:10:45.811Z</time></trkpt><trkpt lat="42.968635" lon="11.6181033"><ele>644.75</ele><time>2026-04-20T13:10:46.813Z</time></trkpt><trkpt lat="42.9687383" lon="11.6181767"><ele>644.5</ele><time>2026-04-20T13:10:47.811Z</time></trkpt><trkpt lat="42.9688467" lon="11.6182567"><ele>644.25</ele><time>2026-04-20T13:10:48.812Z</time></trkpt><trkpt lat="42.968945" lon="11.6183283"><ele>644.0</ele><time>2026-04-20T13:10:49.811Z</time></trkpt><trkpt lat="42.969035" lon="11.6184067"><ele>644.0</ele><time>2026-04-20T13:10:50.814Z</time></trkpt><trkpt lat="42.9691217" lon="11.6184933"><ele>644.0</ele><time>2026-04-20T13:10:51.812Z</time></trkpt><trkpt lat="42.9692017" lon="11.6185867"><ele>644.0</ele><time>2026-04-20T13:10:52.813Z</time></trkpt><trkpt lat="42.9692583" lon="11.6186933"><ele>644.0</ele><time>2026-04-20T13:10:53.813Z</time></trkpt><trkpt lat="42.9693067" lon="11.6188067"><ele>644.0</ele><time>2026-04-20T13:10:54.812Z</time></trkpt><trkpt lat="42.9693517" lon="11.61893"><ele>642.1666666666666</ele><time>2026-04-20T13:10:55.811Z</time></trkpt><trkpt lat="42.9693983" lon="11.6190483"><ele>640.3333333333333</ele><time>2026-04-20T13:10:56.814Z</time></trkpt><trkpt lat="42.96944" lon="11.6191567"><ele>638.5</ele><time>2026-04-20T13:10:57.815Z</time></trkpt><trkpt lat="42.96948" lon="11.61926"><ele>636.6666666666666</ele><time>2026-04-20T13:10:58.81Z</time></trkpt><trkpt lat="42.9695167" lon="11.6193583"><ele>634.8333333333334</ele><time>2026-04-20T13:10:59.811Z</time></trkpt><trkpt lat="42.96955" lon="11.61945"><ele>633.0</ele><time>2026-04-20T13:11:00.812Z</time></trkpt><trkpt lat="42.96957" lon="11.61954"><ele>631.0</ele><time>2026-04-20T13:11:01.809Z</time></trkpt><trkpt lat="42.969575" lon="11.6196383"><ele>629.0</ele><time>2026-04-20T13:11:02.814Z</time></trkpt><trkpt lat="42.96956" lon="11.6197317"><ele>627.0</ele><time>2026-04-20T13:11:03.812Z</time></trkpt><trkpt lat="42.9695167" lon="11.6198217"><ele>625.0</ele><time>2026-04-20T13:11:04.809Z</time></trkpt><trkpt lat="42.969445" lon="11.619915"><ele>623.0</ele><time>2026-04-20T13:11:05.811Z</time></trkpt><trkpt lat="42.9693633" lon="11.6200067"><ele>621.0</ele><time>2026-04-20T13:11:06.81Z</time></trkpt><trkpt lat="42.96927" lon="11.620105"><ele>620.6666666666666</ele><time>2026-04-20T13:11:07.813Z</time></trkpt><trkpt lat="42.96918" lon="11.62019"><ele>620.3333333333334</ele><time>2026-04-20T13:11:08.814Z</time></trkpt><trkpt lat="42.9691117" lon="11.6202667"><ele>620.0</ele><time>2026-04-20T13:11:09.814Z</time></trkpt><trkpt lat="42.96905" lon="11.6203367"><ele>619.6666666666667</ele><time>2026-04-20T13:11:10.81Z</time></trkpt><trkpt lat="42.9689983" lon="11.62041"><ele>619.3333333333334</ele><time>2026-04-20T13:11:11.81Z</time></trkpt><trkpt lat="42.9689617" lon="11.620495"><ele>619.0</ele><time>2026-04-20T13:11:12.813Z</time></trkpt><trkpt lat="42.9689333" lon="11.6205833"><ele>616.6666666666667</ele><time>2026-04-20T13:11:13.813Z</time></trkpt><trkpt lat="42.96891" lon="11.62068"><ele>614.3333333333334</ele><time>2026-04-20T13:11:14.811Z</time></trkpt><trkpt lat="42.9689167" lon="11.6207783"><ele>612.0</ele><time>2026-04-20T13:11:15.815Z</time></trkpt><trkpt lat="42.968945" lon="11.6208883"><ele>609.6666666666666</ele><time>2026-04-20T13:11:16.815Z</time></trkpt><trkpt lat="42.9689783" lon="11.6209967"><ele>607.3333333333333</ele><time>2026-04-20T13:11:17.812Z</time></trkpt><trkpt lat="42.9690083" lon="11.621105"><ele>605.0</ele><time>2026-04-20T13:11:18.812Z</time></trkpt><trkpt lat="42.9690283" lon="11.62121"><ele>602.6</ele><time>2026-04-20T13:11:19.81Z</time></trkpt><trkpt lat="42.9690583" lon="11.6213083"><ele>600.2</ele><time>2026-04-20T13:11:20.811Z</time></trkpt><trkpt lat="42.9691017" lon="11.6213867"><ele>597.8</ele><time>2026-04-20T13:11:21.811Z</time></trkpt><trkpt lat="42.9691533" lon="11.6214533"><ele>595.4</ele><time>2026-04-20T13:11:22.814Z</time></trkpt><trkpt lat="42.9692233" lon="11.62159"><ele>593.0</ele><time>2026-04-20T13:11:24.814Z</time></trkpt><trkpt lat="42.9691933" lon="11.621765"><ele>592.6666666666666</ele><time>2026-04-20T13:11:26.815Z</time></trkpt><trkpt lat="42.9691567" lon="11.6218617"><ele>592.3333333333333</ele><time>2026-04-20T13:11:27.814Z</time></trkpt><trkpt lat="42.9691217" lon="11.6219633"><ele>592.0</ele><time>2026-04-20T13:11:28.812Z</time></trkpt><trkpt lat="42.9690967" lon="11.6220617"><ele>591.6666666666666</ele><time>2026-04-20T13:11:29.815Z</time></trkpt><trkpt lat="42.9690867" lon="11.622155"><ele>591.3333333333334</ele><time>2026-04-20T13:11:30.814Z</time></trkpt><trkpt lat="42.9691083" lon="11.6223133"><ele>591.0</ele><time>2026-04-20T13:11:32.813Z</time></trkpt><trkpt lat="42.9691917" lon="11.6224217"><ele>589.0</ele><time>2026-04-20T13:11:34.814Z</time></trkpt><trkpt lat="42.9692667" lon="11.6224383"><ele>587.0</ele><time>2026-04-20T13:11:35.816Z</time></trkpt><trkpt lat="42.9693417" lon="11.6224417"><ele>585.0</ele><time>2026-04-20T13:11:36.814Z</time></trkpt><trkpt lat="42.9694417" lon="11.6224233"><ele>583.0</ele><time>2026-04-20T13:11:37.814Z</time></trkpt><trkpt lat="42.9695417" lon="11.6224167"><ele>581.0</ele><time>2026-04-20T13:11:38.812Z</time></trkpt><trkpt lat="42.96963" lon="11.6224317"><ele>579.0</ele><time>2026-04-20T13:11:39.811Z</time></trkpt><trkpt lat="42.96971" lon="11.6224717"><ele>579.0</ele><time>2026-04-20T13:11:40.814Z</time></trkpt><trkpt lat="42.9697683" lon="11.6225383"><ele>579.0</ele><time>2026-04-20T13:11:41.813Z</time></trkpt><trkpt lat="42.9698033" lon="11.6226283"><ele>579.0</ele><time>2026-04-20T13:11:42.812Z</time></trkpt><trkpt lat="42.969825" lon="11.622735"><ele>579.0</ele><time>2026-04-20T13:11:43.814Z</time></trkpt><trkpt lat="42.969835" lon="11.6228667"><ele>579.0</ele><time>2026-04-20T13:11:44.813Z</time></trkpt><trkpt lat="42.969845" lon="11.6230033"><ele>579.0</ele><time>2026-04-20T13:11:45.813Z</time></trkpt><trkpt lat="42.9698467" lon="11.6231417"><ele>577.2</ele><time>2026-04-20T13:11:46.814Z</time></trkpt><trkpt lat="42.9698483" lon="11.6232783"><ele>575.4</ele><time>2026-04-20T13:11:47.811Z</time></trkpt><trkpt lat="42.9698583" lon="11.62341"><ele>573.6</ele><time>2026-04-20T13:11:48.81Z</time></trkpt><trkpt lat="42.9698733" lon="11.6235383"><ele>571.8</ele><time>2026-04-20T13:11:49.814Z</time></trkpt><trkpt lat="42.9698917" lon="11.623665"><ele>570.0</ele><time>2026-04-20T13:11:50.811Z</time></trkpt><trkpt lat="42.9699083" lon="11.6237883"><ele>571.6</ele><time>2026-04-20T13:11:51.811Z</time></trkpt><trkpt lat="42.9699267" lon="11.6239083"><ele>573.2</ele><time>2026-04-20T13:11:52.81Z</time></trkpt><trkpt lat="42.9699583" lon="11.6240283"><ele>574.8</ele><time>2026-04-20T13:11:53.812Z</time></trkpt><trkpt lat="42.9699883" lon="11.6241483"><ele>576.4</ele><time>2026-04-20T13:11:54.814Z</time></trkpt><trkpt lat="42.9700383" lon="11.624265"><ele>578.0</ele><time>2026-04-20T13:11:55.814Z</time></trkpt><trkpt lat="42.9701017" lon="11.6243883"><ele>577.75</ele><time>2026-04-20T13:11:56.815Z</time></trkpt><trkpt lat="42.9701633" lon="11.62452"><ele>577.5</ele><time>2026-04-20T13:11:57.814Z</time></trkpt><trkpt lat="42.9702217" lon="11.6246617"><ele>577.25</ele><time>2026-04-20T13:11:58.815Z</time></trkpt><trkpt lat="42.9702717" lon="11.6248133"><ele>577.0</ele><time>2026-04-20T13:11:59.813Z</time></trkpt><trkpt lat="42.9703067" lon="11.6249667"><ele>577.0</ele><time>2026-04-20T13:12:00.813Z</time></trkpt><trkpt lat="42.97033" lon="11.6251067"><ele>577.0</ele><time>2026-04-20T13:12:01.814Z</time></trkpt><trkpt lat="42.9703417" lon="11.6252267"><ele>577.0</ele><time>2026-04-20T13:12:02.814Z</time></trkpt><trkpt lat="42.970345" lon="11.6253367"><ele>577.0</ele><time>2026-04-20T13:12:03.814Z</time></trkpt><trkpt lat="42.9703517" lon="11.6254367"><ele>577.0</ele><time>2026-04-20T13:12:04.811Z</time></trkpt><trkpt lat="42.9703633" lon="11.6255283"><ele>577.0</ele><time>2026-04-20T13:12:05.811Z</time></trkpt><trkpt lat="42.9703867" lon="11.6256167"><ele>576.0</ele><time>2026-04-20T13:12:06.813Z</time></trkpt><trkpt lat="42.9704217" lon="11.6257"><ele>575.0</ele><time>2026-04-20T13:12:07.819Z</time></trkpt><trkpt lat="42.9704717" lon="11.6257833"><ele>574.0</ele><time>2026-04-20T13:12:08.814Z</time></trkpt><trkpt lat="42.9705217" lon="11.6258683"><ele>573.0</ele><time>2026-04-20T13:12:09.817Z</time></trkpt><trkpt lat="42.9705717" lon="11.625955"><ele>572.0</ele><time>2026-04-20T13:12:10.815Z</time></trkpt><trkpt lat="42.970615" lon="11.6260417"><ele>571.0</ele><time>2026-04-20T13:12:11.815Z</time></trkpt><trkpt lat="42.9706433" lon="11.62614"><ele>568.0</ele><time>2026-04-20T13:12:12.814Z</time></trkpt><trkpt lat="42.970675" lon="11.6262367"><ele>565.0</ele><time>2026-04-20T13:12:13.813Z</time></trkpt><trkpt lat="42.9707017" lon="11.6263417"><ele>562.0</ele><time>2026-04-20T13:12:14.813Z</time></trkpt><trkpt lat="42.9707133" lon="11.6264517"><ele>559.0</ele><time>2026-04-20T13:12:15.811Z</time></trkpt><trkpt lat="42.9707083" lon="11.6265633"><ele>556.0</ele><time>2026-04-20T13:12:16.814Z</time></trkpt><trkpt lat="42.9706983" lon="11.6266767"><ele>553.0</ele><time>2026-04-20T13:12:17.817Z</time></trkpt><trkpt lat="42.9706933" lon="11.626785"><ele>553.0</ele><time>2026-04-20T13:12:18.81Z</time></trkpt><trkpt lat="42.97069" lon="11.626895"><ele>553.0</ele><time>2026-04-20T13:12:19.81Z</time></trkpt><trkpt lat="42.9706933" lon="11.6269983"><ele>553.0</ele><time>2026-04-20T13:12:20.811Z</time></trkpt><trkpt lat="42.9707" lon="11.62711"><ele>553.0</ele><time>2026-04-20T13:12:21.81Z</time></trkpt><trkpt lat="42.9707117" lon="11.6272283"><ele>553.0</ele><time>2026-04-20T13:12:22.81Z</time></trkpt><trkpt lat="42.9707283" lon="11.6273633"><ele>553.0</ele><time>2026-04-20T13:12:23.811Z</time></trkpt><trkpt lat="42.9707567" lon="11.6275033"><ele>550.1999999999999</ele><time>2026-04-20T13:12:24.809Z</time></trkpt><trkpt lat="42.970795" lon="11.6276383"><ele>547.4</ele><time>2026-04-20T13:12:25.814Z</time></trkpt><trkpt lat="42.9708417" lon="11.6277617"><ele>544.5999999999999</ele><time>2026-04-20T13:12:26.814Z</time></trkpt><trkpt lat="42.97089" lon="11.6278867"><ele>541.8</ele><time>2026-04-20T13:12:27.813Z</time></trkpt><trkpt lat="42.9709233" lon="11.6280217"><ele>539.0</ele><time>2026-04-20T13:12:28.813Z</time></trkpt><trkpt lat="42.9709433" lon="11.6281633"><ele>544.2</ele><time>2026-04-20T13:12:29.813Z</time></trkpt><trkpt lat="42.97095" lon="11.6283083"><ele>549.4</ele><time>2026-04-20T13:12:30.809Z</time></trkpt><trkpt lat="42.9709533" lon="11.6284583"><ele>554.6</ele><time>2026-04-20T13:12:31.813Z</time></trkpt><trkpt lat="42.9709533" lon="11.6286033"><ele>559.8</ele><time>2026-04-20T13:12:32.814Z</time></trkpt><trkpt lat="42.97095" lon="11.6287433"><ele>565.0</ele><time>2026-04-20T13:12:33.816Z</time></trkpt><trkpt lat="42.9709433" lon="11.6288667"><ele>565.0</ele><time>2026-04-20T13:12:34.815Z</time></trkpt><trkpt lat="42.9709267" lon="11.62897"><ele>565.0</ele><time>2026-04-20T13:12:35.813Z</time></trkpt><trkpt lat="42.9709033" lon="11.629055"><ele>565.0</ele><time>2026-04-20T13:12:36.813Z</time></trkpt><trkpt lat="42.9708767" lon="11.6292017"><ele>565.0</ele><time>2026-04-20T13:12:38.81Z</time></trkpt><trkpt lat="42.9708833" lon="11.6293717"><ele>565.0</ele><time>2026-04-20T13:12:40.809Z</time></trkpt><trkpt lat="42.970885" lon="11.62947"><ele>563.5</ele><time>2026-04-20T13:12:41.812Z</time></trkpt><trkpt lat="42.9708883" lon="11.62957"><ele>562.0</ele><time>2026-04-20T13:12:42.812Z</time></trkpt><trkpt lat="42.9708867" lon="11.62968"><ele>560.5</ele><time>2026-04-20T13:12:43.814Z</time></trkpt><trkpt lat="42.9708733" lon="11.629785"><ele>559.0</ele><time>2026-04-20T13:12:44.813Z</time></trkpt><trkpt lat="42.970845" lon="11.6298767"><ele>557.5</ele><time>2026-04-20T13:12:45.814Z</time></trkpt><trkpt lat="42.9707833" lon="11.6299383"><ele>556.0</ele><time>2026-04-20T13:12:46.813Z</time></trkpt><trkpt lat="42.9707017" lon="11.62997"><ele>550.6666666666667</ele><time>2026-04-20T13:12:47.81Z</time></trkpt><trkpt lat="42.97061" lon="11.6299783"><ele>545.3333333333334</ele><time>2026-04-20T13:12:48.81Z</time></trkpt><trkpt lat="42.970525" lon="11.6299683"><ele>540.0</ele><time>2026-04-20T13:12:49.81Z</time></trkpt><trkpt lat="42.97045" lon="11.6299433"><ele>534.6666666666666</ele><time>2026-04-20T13:12:50.81Z</time></trkpt><trkpt lat="42.9703883" lon="11.629915"><ele>529.3333333333333</ele><time>2026-04-20T13:12:51.81Z</time></trkpt><trkpt lat="42.9703" lon="11.6298933"><ele>524.0</ele><time>2026-04-20T13:12:53.809Z</time></trkpt><trkpt lat="42.97025" lon="11.629965"><ele>524.0</ele><time>2026-04-20T13:12:55.816Z</time></trkpt><trkpt lat="42.9702383" lon="11.6301533"><ele>524.0</ele><time>2026-04-20T13:12:57.812Z</time></trkpt><trkpt lat="42.9702367" lon="11.6302917"><ele>524.0</ele><time>2026-04-20T13:12:58.813Z</time></trkpt><trkpt lat="42.9702333" lon="11.6304517"><ele>524.0</ele><time>2026-04-20T13:12:59.813Z</time></trkpt><trkpt lat="42.9702333" lon="11.63062"><ele>521.75</ele><time>2026-04-20T13:13:00.813Z</time></trkpt><trkpt lat="42.9702283" lon="11.6307917"><ele>519.5</ele><time>2026-04-20T13:13:01.813Z</time></trkpt><trkpt lat="42.970225" lon="11.6309633"><ele>517.25</ele><time>2026-04-20T13:13:02.813Z</time></trkpt><trkpt lat="42.9702217" lon="11.6311267"><ele>515.0</ele><time>2026-04-20T13:13:03.813Z</time></trkpt><trkpt lat="42.9702183" lon="11.63128"><ele>514.4</ele><time>2026-04-20T13:13:04.813Z</time></trkpt><trkpt lat="42.9702217" lon="11.6314267"><ele>513.8</ele><time>2026-04-20T13:13:05.813Z</time></trkpt><trkpt lat="42.9702367" lon="11.6315733"><ele>513.2</ele><time>2026-04-20T13:13:06.814Z</time></trkpt><trkpt lat="42.9702617" lon="11.631725"><ele>512.6</ele><time>2026-04-20T13:13:07.813Z</time></trkpt><trkpt lat="42.9702867" lon="11.6318783"><ele>512.0</ele><time>2026-04-20T13:13:08.814Z</time></trkpt><trkpt lat="42.9703117" lon="11.632025"><ele>511.0</ele><time>2026-04-20T13:13:09.813Z</time></trkpt><trkpt lat="42.9703417" lon="11.6321633"><ele>510.00000000000006</ele><time>2026-04-20T13:13:10.814Z</time></trkpt><trkpt lat="42.9703883" lon="11.6322933"><ele>509.00000000000006</ele><time>2026-04-20T13:13:11.813Z</time></trkpt><trkpt lat="42.9704567" lon="11.6324133"><ele>508.0</ele><time>2026-04-20T13:13:12.814Z</time></trkpt><trkpt lat="42.97053" lon="11.63253"><ele>507.0</ele><time>2026-04-20T13:13:13.813Z</time></trkpt><trkpt lat="42.970595" lon="11.63264"><ele>507.0</ele><time>2026-04-20T13:13:14.818Z</time></trkpt><trkpt lat="42.97065" lon="11.6327567"><ele>507.00000000000006</ele><time>2026-04-20T13:13:15.818Z</time></trkpt><trkpt lat="42.970675" lon="11.63288"><ele>507.00000000000006</ele><time>2026-04-20T13:13:16.814Z</time></trkpt><trkpt lat="42.9706867" lon="11.6330117"><ele>507.0</ele><time>2026-04-20T13:13:17.811Z</time></trkpt><trkpt lat="42.9706817" lon="11.6331483"><ele>507.0</ele><time>2026-04-20T13:13:18.809Z</time></trkpt><trkpt lat="42.9706767" lon="11.63329"><ele>505.8</ele><time>2026-04-20T13:13:19.811Z</time></trkpt><trkpt lat="42.9706783" lon="11.6334317"><ele>504.6</ele><time>2026-04-20T13:13:20.811Z</time></trkpt><trkpt lat="42.9706983" lon="11.63357"><ele>503.40000000000003</ele><time>2026-04-20T13:13:21.811Z</time></trkpt><trkpt lat="42.97073" lon="11.6337"><ele>502.20000000000005</ele><time>2026-04-20T13:13:22.811Z</time></trkpt><trkpt lat="42.9707733" lon="11.633825"><ele>501.0</ele><time>2026-04-20T13:13:23.818Z</time></trkpt><trkpt lat="42.97082" lon="11.6339517"><ele>501.0</ele><time>2026-04-20T13:13:24.814Z</time></trkpt><trkpt lat="42.9708767" lon="11.63408"><ele>501.0</ele><time>2026-04-20T13:13:25.813Z</time></trkpt><trkpt lat="42.9709383" lon="11.6342067"><ele>501.0</ele><time>2026-04-20T13:13:26.814Z</time></trkpt><trkpt lat="42.9709983" lon="11.634325"><ele>501.0</ele><time>2026-04-20T13:13:27.813Z</time></trkpt><trkpt lat="42.971045" lon="11.63444"><ele>501.0</ele><time>2026-04-20T13:13:28.813Z</time></trkpt><trkpt lat="42.9710833" lon="11.6345583"><ele>501.0</ele><time>2026-04-20T13:13:29.813Z</time></trkpt><trkpt lat="42.9711083" lon="11.634685"><ele>501.0</ele><time>2026-04-20T13:13:30.813Z</time></trkpt><trkpt lat="42.971115" lon="11.6348217"><ele>501.0</ele><time>2026-04-20T13:13:31.813Z</time></trkpt><trkpt lat="42.9711117" lon="11.634965"><ele>501.0</ele><time>2026-04-20T13:13:32.813Z</time></trkpt><trkpt lat="42.971105" lon="11.635105"><ele>501.0</ele><time>2026-04-20T13:13:33.813Z</time></trkpt><trkpt lat="42.9711" lon="11.6352383"><ele>499.20000000000005</ele><time>2026-04-20T13:13:34.812Z</time></trkpt><trkpt lat="42.971095" lon="11.63536"><ele>497.40000000000003</ele><time>2026-04-20T13:13:35.812Z</time></trkpt><trkpt lat="42.9710933" lon="11.6354683"><ele>495.6</ele><time>2026-04-20T13:13:36.809Z</time></trkpt><trkpt lat="42.9710917" lon="11.6355633"><ele>493.8</ele><time>2026-04-20T13:13:37.814Z</time></trkpt><trkpt lat="42.9710617" lon="11.6357183"><ele>492.0</ele><time>2026-04-20T13:13:39.813Z</time></trkpt><trkpt lat="42.9710317" lon="11.6358483"><ele>492.0</ele><time>2026-04-20T13:13:41.812Z</time></trkpt><trkpt lat="42.97104" lon="11.6359383"><ele>492.00000000000006</ele><time>2026-04-20T13:13:43.813Z</time></trkpt><trkpt lat="42.9711017" lon="11.6360167"><ele>492.00000000000006</ele><time>2026-04-20T13:14:03.813Z</time></trkpt><trkpt lat="42.9712067" lon="11.63612"><ele>492.0</ele><time>2026-04-20T13:14:05.814Z</time></trkpt><trkpt lat="42.97127" lon="11.6361933"><ele>492.0</ele><time>2026-04-20T13:14:06.813Z</time></trkpt><trkpt lat="42.9713317" lon="11.6362767"><ele>490.6666666666667</ele><time>2026-04-20T13:14:07.814Z</time></trkpt><trkpt lat="42.9713833" lon="11.6363717"><ele>489.33333333333337</ele><time>2026-04-20T13:14:08.813Z</time></trkpt><trkpt lat="42.97143" lon="11.63647"><ele>488.0</ele><time>2026-04-20T13:14:09.81Z</time></trkpt><trkpt lat="42.97147" lon="11.63658"><ele>486.6666666666667</ele><time>2026-04-20T13:14:10.817Z</time></trkpt><trkpt lat="42.971495" lon="11.63669"><ele>485.33333333333337</ele><time>2026-04-20T13:14:11.818Z</time></trkpt><trkpt lat="42.9715133" lon="11.6368083"><ele>484.0</ele><time>2026-04-20T13:14:12.812Z</time></trkpt><trkpt lat="42.97153" lon="11.6369283"><ele>483.6666666666667</ele><time>2026-04-20T13:14:13.813Z</time></trkpt><trkpt lat="42.9715467" lon="11.63704"><ele>483.33333333333337</ele><time>2026-04-20T13:14:14.814Z</time></trkpt><trkpt lat="42.9715617" lon="11.6371417"><ele>483.0</ele><time>2026-04-20T13:14:15.813Z</time></trkpt><trkpt lat="42.9715817" lon="11.63723"><ele>482.66666666666663</ele><time>2026-04-20T13:14:16.813Z</time></trkpt><trkpt lat="42.971615" lon="11.63731"><ele>482.3333333333333</ele><time>2026-04-20T13:14:17.81Z</time></trkpt><trkpt lat="42.9716617" lon="11.6373933"><ele>482.0</ele><time>2026-04-20T13:14:18.811Z</time></trkpt><trkpt lat="42.9717217" lon="11.6374783"><ele>482.0</ele><time>2026-04-20T13:14:19.811Z</time></trkpt><trkpt lat="42.9718017" lon="11.6375733"><ele>482.0</ele><time>2026-04-20T13:14:20.811Z</time></trkpt><trkpt lat="42.9719" lon="11.6376833"><ele>482.0</ele><time>2026-04-20T13:14:21.811Z</time></trkpt><trkpt lat="42.971995" lon="11.637795"><ele>482.0</ele><time>2026-04-20T13:14:22.81Z</time></trkpt><trkpt lat="42.9720883" lon="11.6379017"><ele>477.0</ele><time>2026-04-20T13:14:23.81Z</time></trkpt><trkpt lat="42.9721833" lon="11.6380067"><ele>472.00000000000006</ele><time>2026-04-20T13:14:24.811Z</time></trkpt><trkpt lat="42.972275" lon="11.6380967"><ele>467.00000000000006</ele><time>2026-04-20T13:14:25.811Z</time></trkpt><trkpt lat="42.97236" lon="11.638185"><ele>462.0</ele><time>2026-04-20T13:14:26.812Z</time></trkpt><trkpt lat="42.97244" lon="11.638265"><ele>457.0</ele><time>2026-04-20T13:14:27.811Z</time></trkpt><trkpt lat="42.97252" lon="11.6383383"><ele>458.20000000000005</ele><time>2026-04-20T13:14:28.81Z</time></trkpt><trkpt lat="42.972605" lon="11.6384083"><ele>459.40000000000003</ele><time>2026-04-20T13:14:29.81Z</time></trkpt><trkpt lat="42.97269" lon="11.638475"><ele>460.59999999999997</ele><time>2026-04-20T13:14:30.81Z</time></trkpt><trkpt lat="42.9727733" lon="11.6385317"><ele>461.79999999999995</ele><time>2026-04-20T13:14:31.812Z</time></trkpt><trkpt lat="42.972865" lon="11.638575"><ele>463.0</ele><time>2026-04-20T13:14:32.811Z</time></trkpt><trkpt lat="42.9729733" lon="11.6386133"><ele>458.25</ele><time>2026-04-20T13:14:33.81Z</time></trkpt><trkpt lat="42.973085" lon="11.6386417"><ele>453.5</ele><time>2026-04-20T13:14:34.812Z</time></trkpt><trkpt lat="42.9732017" lon="11.6386733"><ele>448.75</ele><time>2026-04-20T13:14:35.811Z</time></trkpt><trkpt lat="42.973325" lon="11.6387167"><ele>444.0</ele><time>2026-04-20T13:14:36.812Z</time></trkpt><trkpt lat="42.9734467" lon="11.63877"><ele>444.0</ele><time>2026-04-20T13:14:37.811Z</time></trkpt><trkpt lat="42.97356" lon="11.6388383"><ele>444.0</ele><time>2026-04-20T13:14:38.811Z</time></trkpt><trkpt lat="42.973655" lon="11.6389183"><ele>444.0</ele><time>2026-04-20T13:14:39.814Z</time></trkpt><trkpt lat="42.97374" lon="11.6389933"><ele>444.0</ele><time>2026-04-20T13:14:40.81Z</time></trkpt><trkpt lat="42.9738367" lon="11.63907"><ele>444.0</ele><time>2026-04-20T13:14:41.811Z</time></trkpt><trkpt lat="42.9739317" lon="11.639135"><ele>444.0</ele><time>2026-04-20T13:14:42.812Z</time></trkpt><trkpt lat="42.97403" lon="11.6391817"><ele>444.0</ele><time>2026-04-20T13:14:43.812Z</time></trkpt><trkpt lat="42.9741217" lon="11.639205"><ele>444.0</ele><time>2026-04-20T13:14:44.812Z</time></trkpt><trkpt lat="42.9742083" lon="11.6392"><ele>444.0</ele><time>2026-04-20T13:14:45.814Z</time></trkpt><trkpt lat="42.9742917" lon="11.63919"><ele>444.0</ele><time>2026-04-20T13:14:46.811Z</time></trkpt><trkpt lat="42.9743633" lon="11.6391867"><ele>444.0</ele><time>2026-04-20T13:14:47.812Z</time></trkpt><trkpt lat="42.9744267" lon="11.639195"><ele>443.4</ele><time>2026-04-20T13:14:48.814Z</time></trkpt><trkpt lat="42.9745217" lon="11.6392917"><ele>442.79999999999995</ele><time>2026-04-20T13:14:50.811Z</time></trkpt><trkpt lat="42.9745467" lon="11.6393867"><ele>442.20000000000005</ele><time>2026-04-20T13:14:51.811Z</time></trkpt><trkpt lat="42.97456" lon="11.6394817"><ele>441.6</ele><time>2026-04-20T13:14:52.813Z</time></trkpt><trkpt lat="42.9745317" lon="11.639635"><ele>441.0</ele><time>2026-04-20T13:14:54.814Z</time></trkpt><trkpt lat="42.9744167" lon="11.6397267"><ele>437.25</ele><time>2026-04-20T13:14:56.814Z</time></trkpt><trkpt lat="42.974315" lon="11.63975"><ele>433.5</ele><time>2026-04-20T13:14:57.813Z</time></trkpt><trkpt lat="42.9742167" lon="11.6397817"><ele>429.75</ele><time>2026-04-20T13:14:58.812Z</time></trkpt><trkpt lat="42.9740667" lon="11.639785"><ele>426.0</ele><time>2026-04-20T13:14:59.812Z</time></trkpt><trkpt lat="42.9739517" lon="11.6397917"><ele>426.0</ele><time>2026-04-20T13:15:00.816Z</time></trkpt><trkpt lat="42.97384" lon="11.63979"><ele>426.0</ele><time>2026-04-20T13:15:01.81Z</time></trkpt><trkpt lat="42.973735" lon="11.639785"><ele>426.0</ele><time>2026-04-20T13:15:02.811Z</time></trkpt><trkpt lat="42.9736333" lon="11.6397733"><ele>426.0</ele><time>2026-04-20T13:15:03.811Z</time></trkpt><trkpt lat="42.9735217" lon="11.639765"><ele>426.0</ele><time>2026-04-20T13:15:04.811Z</time></trkpt><trkpt lat="42.9734" lon="11.6397583"><ele>425.5</ele><time>2026-04-20T13:15:05.811Z</time></trkpt><trkpt lat="42.9732767" lon="11.639755"><ele>425.0</ele><time>2026-04-20T13:15:06.812Z</time></trkpt><trkpt lat="42.9731567" lon="11.6397533"><ele>424.5</ele><time>2026-04-20T13:15:07.811Z</time></trkpt><trkpt lat="42.97305" lon="11.6397567"><ele>424.0</ele><time>2026-04-20T13:15:08.811Z</time></trkpt><trkpt lat="42.97295" lon="11.63976"><ele>424.0</ele><time>2026-04-20T13:15:09.81Z</time></trkpt><trkpt lat="42.9728517" lon="11.6397717"><ele>424.0</ele><time>2026-04-20T13:15:10.81Z</time></trkpt><trkpt lat="42.9727583" lon="11.6397983"><ele>424.0</ele><time>2026-04-20T13:15:11.814Z</time></trkpt><trkpt lat="42.97267" lon="11.6398417"><ele>424.0</ele><time>2026-04-20T13:15:12.811Z</time></trkpt><trkpt lat="42.9725867" lon="11.639885"><ele>424.0</ele><time>2026-04-20T13:15:13.814Z</time></trkpt><trkpt lat="42.9725167" lon="11.6399367"><ele>423.50000000000006</ele><time>2026-04-20T13:15:14.811Z</time></trkpt><trkpt lat="42.9724617" lon="11.6399917"><ele>423.0</ele><time>2026-04-20T13:15:15.814Z</time></trkpt><trkpt lat="42.9723967" lon="11.6400967"><ele>422.5</ele><time>2026-04-20T13:15:17.814Z</time></trkpt><trkpt lat="42.9723633" lon="11.6401833"><ele>422.0</ele><time>2026-04-20T13:15:19.812Z</time></trkpt><trkpt lat="42.9723867" lon="11.6402717"><ele>421.50000000000006</ele><time>2026-04-20T13:16:01.814Z</time></trkpt><trkpt lat="42.9724883" lon="11.6403183"><ele>421.0</ele><time>2026-04-20T13:16:04.81Z</time></trkpt><trkpt lat="42.97262" lon="11.6403483"><ele>418.8</ele><time>2026-04-20T13:16:06.814Z</time></trkpt><trkpt lat="42.9727067" lon="11.640365"><ele>416.6</ele><time>2026-04-20T13:16:07.811Z</time></trkpt><trkpt lat="42.9728067" lon="11.64039"><ele>414.4</ele><time>2026-04-20T13:16:08.814Z</time></trkpt><trkpt lat="42.9729283" lon="11.6404233"><ele>412.2</ele><time>2026-04-20T13:16:09.814Z</time></trkpt><trkpt lat="42.9730583" lon="11.6404617"><ele>410.0</ele><time>2026-04-20T13:16:10.814Z</time></trkpt><trkpt lat="42.9731917" lon="11.6404983"><ele>410.0</ele><time>2026-04-20T13:16:11.811Z</time></trkpt><trkpt lat="42.9733233" lon="11.6405267"><ele>410.0</ele><time>2026-04-20T13:16:12.812Z</time></trkpt><trkpt lat="42.9734583" lon="11.6405417"><ele>410.0</ele><time>2026-04-20T13:16:13.814Z</time></trkpt><trkpt lat="42.9736" lon="11.64055"><ele>410.0</ele><time>2026-04-20T13:16:14.81Z</time></trkpt><trkpt lat="42.9737517" lon="11.6405583"><ele>409.3333333333333</ele><time>2026-04-20T13:16:15.815Z</time></trkpt><trkpt lat="42.9739083" lon="11.64056"><ele>408.66666666666663</ele><time>2026-04-20T13:16:16.813Z</time></trkpt><trkpt lat="42.9740617" lon="11.6405633"><ele>408.0</ele><time>2026-04-20T13:16:17.814Z</time></trkpt><trkpt lat="42.9742167" lon="11.6405633"><ele>407.25</ele><time>2026-04-20T13:16:18.811Z</time></trkpt><trkpt lat="42.9743683" lon="11.64057"><ele>406.5</ele><time>2026-04-20T13:16:19.811Z</time></trkpt><trkpt lat="42.9745067" lon="11.64058"><ele>405.75</ele><time>2026-04-20T13:16:20.811Z</time></trkpt><trkpt lat="42.97463" lon="11.6405883"><ele>405.0</ele><time>2026-04-20T13:16:21.811Z</time></trkpt><trkpt lat="42.9747467" lon="11.6406017"><ele>405.0</ele><time>2026-04-20T13:16:22.811Z</time></trkpt><trkpt lat="42.9748617" lon="11.6406183"><ele>405.0</ele><time>2026-04-20T13:16:23.813Z</time></trkpt><trkpt lat="42.974975" lon="11.6406533"><ele>405.0</ele><time>2026-04-20T13:16:24.812Z</time></trkpt><trkpt lat="42.97509" lon="11.6407017"><ele>405.0</ele><time>2026-04-20T13:16:25.811Z</time></trkpt><trkpt lat="42.9752033" lon="11.6407633"><ele>405.5</ele><time>2026-04-20T13:16:26.81Z</time></trkpt><trkpt lat="42.975315" lon="11.640825"><ele>406.0</ele><time>2026-04-20T13:16:27.81Z</time></trkpt><trkpt lat="42.9754283" lon="11.6408833"><ele>406.5</ele><time>2026-04-20T13:16:28.809Z</time></trkpt><trkpt lat="42.9755467" lon="11.6409283"><ele>407.0</ele><time>2026-04-20T13:16:29.813Z</time></trkpt><trkpt lat="42.975665" lon="11.640965"><ele>407.0</ele><time>2026-04-20T13:16:30.81Z</time></trkpt><trkpt lat="42.9757867" lon="11.641005"><ele>407.0</ele><time>2026-04-20T13:16:31.81Z</time></trkpt><trkpt lat="42.9759067" lon="11.641055"><ele>407.0</ele><time>2026-04-20T13:16:32.812Z</time></trkpt><trkpt lat="42.9760183" lon="11.641115"><ele>407.0</ele><time>2026-04-20T13:16:33.813Z</time></trkpt><trkpt lat="42.9761283" lon="11.6411933"><ele>404.25</ele><time>2026-04-20T13:16:34.814Z</time></trkpt><trkpt lat="42.9762317" lon="11.641295"><ele>401.5</ele><time>2026-04-20T13:16:35.814Z</time></trkpt><trkpt lat="42.9763317" lon="11.6414083"><ele>398.75</ele><time>2026-04-20T13:16:36.813Z</time></trkpt><trkpt lat="42.9764267" lon="11.6415267"><ele>396.0</ele><time>2026-04-20T13:16:37.812Z</time></trkpt><trkpt lat="42.9765217" lon="11.641645"><ele>396.0</ele><time>2026-04-20T13:16:38.814Z</time></trkpt><trkpt lat="42.976625" lon="11.6417467"><ele>396.0</ele><time>2026-04-20T13:16:39.813Z</time></trkpt><trkpt lat="42.9767317" lon="11.641835"><ele>396.0</ele><time>2026-04-20T13:16:40.814Z</time></trkpt><trkpt lat="42.9768433" lon="11.6419133"><ele>396.0</ele><time>2026-04-20T13:16:41.812Z</time></trkpt><trkpt lat="42.9769567" lon="11.6419917"><ele>394.75</ele><time>2026-04-20T13:16:42.813Z</time></trkpt><trkpt lat="42.977075" lon="11.6420633"><ele>393.5</ele><time>2026-04-20T13:16:43.812Z</time></trkpt><trkpt lat="42.9771933" lon="11.6421333"><ele>392.25</ele><time>2026-04-20T13:16:44.813Z</time></trkpt><trkpt lat="42.9773117" lon="11.6422067"><ele>391.0</ele><time>2026-04-20T13:16:45.812Z</time></trkpt><trkpt lat="42.9774317" lon="11.64228"><ele>393.0</ele><time>2026-04-20T13:16:46.813Z</time></trkpt><trkpt lat="42.9775533" lon="11.6423533"><ele>395.0</ele><time>2026-04-20T13:16:47.81Z</time></trkpt><trkpt lat="42.977675" lon="11.6424283"><ele>397.0</ele><time>2026-04-20T13:16:48.81Z</time></trkpt><trkpt lat="42.9777983" lon="11.6425017"><ele>399.0</ele><time>2026-04-20T13:16:49.811Z</time></trkpt><trkpt lat="42.9779217" lon="11.64258"><ele>399.0</ele><time>2026-04-20T13:16:50.811Z</time></trkpt><trkpt lat="42.9780467" lon="11.64266"><ele>399.0</ele><time>2026-04-20T13:16:51.81Z</time></trkpt><trkpt lat="42.9781733" lon="11.6427433"><ele>399.0</ele><time>2026-04-20T13:16:52.809Z</time></trkpt><trkpt lat="42.9783017" lon="11.6428317"><ele>399.0</ele><time>2026-04-20T13:16:53.81Z</time></trkpt><trkpt lat="42.97843" lon="11.6429233"><ele>398.25</ele><time>2026-04-20T13:16:54.812Z</time></trkpt><trkpt lat="42.9785533" lon="11.6430183"><ele>397.5</ele><time>2026-04-20T13:16:55.811Z</time></trkpt><trkpt lat="42.9786717" lon="11.6431117"><ele>396.75</ele><time>2026-04-20T13:16:56.812Z</time></trkpt><trkpt lat="42.9787833" lon="11.6431967"><ele>396.0</ele><time>2026-04-20T13:16:57.812Z</time></trkpt><trkpt lat="42.978885" lon="11.6432717"><ele>396.0</ele><time>2026-04-20T13:16:58.813Z</time></trkpt><trkpt lat="42.9789817" lon="11.64333"><ele>396.0</ele><time>2026-04-20T13:16:59.813Z</time></trkpt><trkpt lat="42.9790683" lon="11.643365"><ele>396.0</ele><time>2026-04-20T13:17:00.812Z</time></trkpt><trkpt lat="42.979155" lon="11.6433667"><ele>396.0</ele><time>2026-04-20T13:17:01.816Z</time></trkpt><trkpt lat="42.979235" lon="11.64335"><ele>396.0</ele><time>2026-04-20T13:17:02.816Z</time></trkpt><trkpt lat="42.9793183" lon="11.6433167"><ele>395.5</ele><time>2026-04-20T13:17:03.81Z</time></trkpt><trkpt lat="42.9794033" lon="11.643255"><ele>395.0</ele><time>2026-04-20T13:17:04.812Z</time></trkpt><trkpt lat="42.97949" lon="11.6431633"><ele>394.5</ele><time>2026-04-20T13:17:05.811Z</time></trkpt><trkpt lat="42.97959" lon="11.6430367"><ele>394.0</ele><time>2026-04-20T13:17:06.812Z</time></trkpt><trkpt lat="42.9796833" lon="11.6429183"><ele>394.0</ele><time>2026-04-20T13:17:07.812Z</time></trkpt><trkpt lat="42.97977" lon="11.6428117"><ele>394.0</ele><time>2026-04-20T13:17:08.813Z</time></trkpt><trkpt lat="42.9798433" lon="11.64271"><ele>394.0</ele><time>2026-04-20T13:17:09.81Z</time></trkpt><trkpt lat="42.97991" lon="11.6425983"><ele>394.0</ele><time>2026-04-20T13:17:10.811Z</time></trkpt><trkpt lat="42.9799667" lon="11.64247"><ele>394.0</ele><time>2026-04-20T13:17:11.811Z</time></trkpt><trkpt lat="42.980015" lon="11.6423233"><ele>396.0</ele><time>2026-04-20T13:17:12.81Z</time></trkpt><trkpt lat="42.9800583" lon="11.6421533"><ele>398.0</ele><time>2026-04-20T13:17:13.812Z</time></trkpt><trkpt lat="42.9801017" lon="11.6419717"><ele>400.0</ele><time>2026-04-20T13:17:14.811Z</time></trkpt><trkpt lat="42.98015" lon="11.64178"><ele>402.0</ele><time>2026-04-20T13:17:15.813Z</time></trkpt><trkpt lat="42.980205" lon="11.6415833"><ele>402.75</ele><time>2026-04-20T13:17:16.815Z</time></trkpt><trkpt lat="42.98026" lon="11.6413917"><ele>403.5</ele><time>2026-04-20T13:17:17.811Z</time></trkpt><trkpt lat="42.9803067" lon="11.641215"><ele>404.25</ele><time>2026-04-20T13:17:18.814Z</time></trkpt><trkpt lat="42.9803417" lon="11.6410417"><ele>405.0</ele><time>2026-04-20T13:17:19.813Z</time></trkpt><trkpt lat="42.9803617" lon="11.6408633"><ele>406.0</ele><time>2026-04-20T13:17:20.811Z</time></trkpt><trkpt lat="42.980365" lon="11.6406767"><ele>407.0</ele><time>2026-04-20T13:17:21.81Z</time></trkpt><trkpt lat="42.980355" lon="11.6404867"><ele>408.0</ele><time>2026-04-20T13:17:22.813Z</time></trkpt><trkpt lat="42.9803367" lon="11.64029"><ele>409.0</ele><time>2026-04-20T13:17:23.812Z</time></trkpt><trkpt lat="42.9803167" lon="11.64009"><ele>410.25</ele><time>2026-04-20T13:17:24.811Z</time></trkpt><trkpt lat="42.980295" lon="11.63989"><ele>411.5</ele><time>2026-04-20T13:17:25.814Z</time></trkpt><trkpt lat="42.9802733" lon="11.6397033"><ele>412.75</ele><time>2026-04-20T13:17:26.81Z</time></trkpt><trkpt lat="42.9802633" lon="11.6395383"><ele>414.0</ele><time>2026-04-20T13:17:27.815Z</time></trkpt><trkpt lat="42.9802683" lon="11.6393967"><ele>416.0</ele><time>2026-04-20T13:17:28.813Z</time></trkpt><trkpt lat="42.980295" lon="11.6392767"><ele>418.0</ele><time>2026-04-20T13:17:29.813Z</time></trkpt><trkpt lat="42.9803467" lon="11.6391733"><ele>420.0</ele><time>2026-04-20T13:17:30.813Z</time></trkpt><trkpt lat="42.9804117" lon="11.63909"><ele>422.0</ele><time>2026-04-20T13:17:31.813Z</time></trkpt><trkpt lat="42.9804867" lon="11.63903"><ele>424.0</ele><time>2026-04-20T13:17:32.813Z</time></trkpt><trkpt lat="42.9805767" lon="11.6389983"><ele>424.0</ele><time>2026-04-20T13:17:33.814Z</time></trkpt><trkpt lat="42.9806817" lon="11.639015"><ele>424.0</ele><time>2026-04-20T13:17:34.813Z</time></trkpt><trkpt lat="42.9807867" lon="11.63907"><ele>424.0</ele><time>2026-04-20T13:17:35.814Z</time></trkpt><trkpt lat="42.9808883" lon="11.639135"><ele>424.0</ele><time>2026-04-20T13:17:36.815Z</time></trkpt><trkpt lat="42.980985" lon="11.6392417"><ele>423.33333333333337</ele><time>2026-04-20T13:17:37.811Z</time></trkpt><trkpt lat="42.9810933" lon="11.6393683"><ele>422.66666666666663</ele><time>2026-04-20T13:17:38.814Z</time></trkpt><trkpt lat="42.981205" lon="11.6395133"><ele>422.0</ele><time>2026-04-20T13:17:39.815Z</time></trkpt><trkpt lat="42.9813233" lon="11.639665"><ele>422.0</ele><time>2026-04-20T13:17:40.814Z</time></trkpt><trkpt lat="42.9814433" lon="11.6398133"><ele>422.0</ele><time>2026-04-20T13:17:41.813Z</time></trkpt><trkpt lat="42.9815583" lon="11.6399467"><ele>422.0</ele><time>2026-04-20T13:17:42.813Z</time></trkpt><trkpt lat="42.981665" lon="11.64007"><ele>422.16666666666663</ele><time>2026-04-20T13:17:43.813Z</time></trkpt><trkpt lat="42.9817567" lon="11.640175"><ele>422.3333333333333</ele><time>2026-04-20T13:17:44.814Z</time></trkpt><trkpt lat="42.9818333" lon="11.6402533"><ele>422.5</ele><time>2026-04-20T13:17:45.812Z</time></trkpt><trkpt lat="42.9819083" lon="11.6403033"><ele>422.66666666666663</ele><time>2026-04-20T13:17:46.813Z</time></trkpt><trkpt lat="42.9819817" lon="11.6403333"><ele>422.8333333333333</ele><time>2026-04-20T13:17:47.81Z</time></trkpt><trkpt lat="42.9820533" lon="11.6403467"><ele>423.0</ele><time>2026-04-20T13:17:48.81Z</time></trkpt><trkpt lat="42.982165" lon="11.640295"><ele>423.0</ele><time>2026-04-20T13:17:50.811Z</time></trkpt><trkpt lat="42.9822183" lon="11.640235"><ele>423.0</ele><time>2026-04-20T13:17:51.81Z</time></trkpt><trkpt lat="42.9822817" lon="11.6401617"><ele>423.0</ele><time>2026-04-20T13:17:52.81Z</time></trkpt><trkpt lat="42.9823533" lon="11.6400767"><ele>423.0</ele><time>2026-04-20T13:17:53.81Z</time></trkpt><trkpt lat="42.9824367" lon="11.639985"><ele>423.0</ele><time>2026-04-20T13:17:54.813Z</time></trkpt><trkpt lat="42.9825317" lon="11.6398817"><ele>422.5</ele><time>2026-04-20T13:17:55.813Z</time></trkpt><trkpt lat="42.9826367" lon="11.6397717"><ele>422.0</ele><time>2026-04-20T13:17:56.813Z</time></trkpt><trkpt lat="42.9827517" lon="11.639655"><ele>421.5</ele><time>2026-04-20T13:17:57.81Z</time></trkpt><trkpt lat="42.98287" lon="11.6395383"><ele>421.0</ele><time>2026-04-20T13:17:58.813Z</time></trkpt><trkpt lat="42.982985" lon="11.6394367"><ele>421.0</ele><time>2026-04-20T13:17:59.811Z</time></trkpt><trkpt lat="42.9830983" lon="11.6393683"><ele>421.0</ele><time>2026-04-20T13:18:00.814Z</time></trkpt><trkpt lat="42.983215" lon="11.6393267"><ele>421.0</ele><time>2026-04-20T13:18:01.814Z</time></trkpt><trkpt lat="42.9833317" lon="11.639315"><ele>421.0</ele><time>2026-04-20T13:18:02.813Z</time></trkpt><trkpt lat="42.98344" lon="11.6393233"><ele>419.6</ele><time>2026-04-20T13:18:03.809Z</time></trkpt><trkpt lat="42.9835417" lon="11.6393367"><ele>418.20000000000005</ele><time>2026-04-20T13:18:04.813Z</time></trkpt><trkpt lat="42.9836383" lon="11.6393467"><ele>416.79999999999995</ele><time>2026-04-20T13:18:05.813Z</time></trkpt><trkpt lat="42.9837267" lon="11.6393417"><ele>415.4</ele><time>2026-04-20T13:18:06.814Z</time></trkpt><trkpt lat="42.983815" lon="11.6393267"><ele>414.0</ele><time>2026-04-20T13:18:07.813Z</time></trkpt><trkpt lat="42.983895" lon="11.6393"><ele>414.0</ele><time>2026-04-20T13:18:08.81Z</time></trkpt><trkpt lat="42.9839717" lon="11.6392717"><ele>414.0</ele><time>2026-04-20T13:18:09.81Z</time></trkpt><trkpt lat="42.9840533" lon="11.6392433"><ele>414.0</ele><time>2026-04-20T13:18:10.814Z</time></trkpt><trkpt lat="42.984135" lon="11.6392183"><ele>414.0</ele><time>2026-04-20T13:18:11.814Z</time></trkpt><trkpt lat="42.9842183" lon="11.6391883"><ele>414.0</ele><time>2026-04-20T13:18:12.812Z</time></trkpt><trkpt lat="42.98431" lon="11.6391583"><ele>414.0</ele><time>2026-04-20T13:18:13.815Z</time></trkpt><trkpt lat="42.9844033" lon="11.6391333"><ele>412.6</ele><time>2026-04-20T13:18:14.814Z</time></trkpt><trkpt lat="42.9844983" lon="11.6391217"><ele>411.2</ele><time>2026-04-20T13:18:15.815Z</time></trkpt><trkpt lat="42.9845967" lon="11.639125"><ele>409.8</ele><time>2026-04-20T13:18:16.811Z</time></trkpt><trkpt lat="42.9846967" lon="11.6391467"><ele>408.40000000000003</ele><time>2026-04-20T13:18:17.814Z</time></trkpt><trkpt lat="42.9848067" lon="11.63918"><ele>407.0</ele><time>2026-04-20T13:18:18.815Z</time></trkpt><trkpt lat="42.984925" lon="11.639225"><ele>404.5</ele><time>2026-04-20T13:18:19.814Z</time></trkpt><trkpt lat="42.9850517" lon="11.6392717"><ele>402.0</ele><time>2026-04-20T13:18:20.813Z</time></trkpt><trkpt lat="42.9851867" lon="11.6393217"><ele>399.5</ele><time>2026-04-20T13:18:21.811Z</time></trkpt><trkpt lat="42.9853167" lon="11.6393733"><ele>397.0</ele><time>2026-04-20T13:18:22.813Z</time></trkpt><trkpt lat="42.98545" lon="11.6394233"><ele>395.5</ele><time>2026-04-20T13:18:23.816Z</time></trkpt><trkpt lat="42.9855783" lon="11.6394733"><ele>394.0</ele><time>2026-04-20T13:18:24.814Z</time></trkpt><trkpt lat="42.9857" lon="11.639525"><ele>392.5</ele><time>2026-04-20T13:18:25.814Z</time></trkpt><trkpt lat="42.985805" lon="11.6395783"><ele>391.0</ele><time>2026-04-20T13:18:26.813Z</time></trkpt><trkpt lat="42.9858967" lon="11.6396367"><ele>391.0</ele><time>2026-04-20T13:18:27.819Z</time></trkpt><trkpt lat="42.9859783" lon="11.6397167"><ele>391.0</ele><time>2026-04-20T13:18:28.813Z</time></trkpt><trkpt lat="42.986055" lon="11.6398233"><ele>391.0</ele><time>2026-04-20T13:18:29.813Z</time></trkpt><trkpt lat="42.9861317" lon="11.639945"><ele>391.0</ele><time>2026-04-20T13:18:30.812Z</time></trkpt><trkpt lat="42.98621" lon="11.6400767"><ele>391.0</ele><time>2026-04-20T13:18:31.812Z</time></trkpt><trkpt lat="42.9862817" lon="11.640215"><ele>391.0</ele><time>2026-04-20T13:18:32.813Z</time></trkpt><trkpt lat="42.9863517" lon="11.6403383"><ele>391.0</ele><time>2026-04-20T13:18:33.814Z</time></trkpt><trkpt lat="42.9864183" lon="11.6404433"><ele>391.0</ele><time>2026-04-20T13:18:34.815Z</time></trkpt><trkpt lat="42.986485" lon="11.640535"><ele>391.0</ele><time>2026-04-20T13:18:35.811Z</time></trkpt><trkpt lat="42.9865617" lon="11.6405967"><ele>392.4</ele><time>2026-04-20T13:18:36.813Z</time></trkpt><trkpt lat="42.9866483" lon="11.6406267"><ele>393.8</ele><time>2026-04-20T13:18:37.814Z</time></trkpt><trkpt lat="42.9867467" lon="11.6406217"><ele>395.2</ele><time>2026-04-20T13:18:38.814Z</time></trkpt><trkpt lat="42.986865" lon="11.6405783"><ele>396.59999999999997</ele><time>2026-04-20T13:18:39.813Z</time></trkpt><trkpt lat="42.9869817" lon="11.6405233"><ele>398.0</ele><time>2026-04-20T13:18:40.814Z</time></trkpt><trkpt lat="42.98708" lon="11.6404617"><ele>397.2</ele><time>2026-04-20T13:18:41.813Z</time></trkpt><trkpt lat="42.9871533" lon="11.6403867"><ele>396.4</ele><time>2026-04-20T13:18:42.82Z</time></trkpt><trkpt lat="42.987205" lon="11.640285"><ele>395.59999999999997</ele><time>2026-04-20T13:18:43.809Z</time></trkpt><trkpt lat="42.9872367" lon="11.6401633"><ele>394.79999999999995</ele><time>2026-04-20T13:18:44.813Z</time></trkpt><trkpt lat="42.9872567" lon="11.6400183"><ele>394.0</ele><time>2026-04-20T13:18:45.816Z</time></trkpt><trkpt lat="42.9872767" lon="11.6398567"><ele>394.0</ele><time>2026-04-20T13:18:46.813Z</time></trkpt><trkpt lat="42.9872967" lon="11.6396867"><ele>394.0</ele><time>2026-04-20T13:18:47.813Z</time></trkpt><trkpt lat="42.9873117" lon="11.6395167"><ele>394.0</ele><time>2026-04-20T13:18:48.814Z</time></trkpt><trkpt lat="42.9873317" lon="11.639355"><ele>394.0</ele><time>2026-04-20T13:18:49.814Z</time></trkpt><trkpt lat="42.987365" lon="11.6391967"><ele>394.75</ele><time>2026-04-20T13:18:50.814Z</time></trkpt><trkpt lat="42.9874167" lon="11.6390483"><ele>395.5</ele><time>2026-04-20T13:18:51.813Z</time></trkpt><trkpt lat="42.9874833" lon="11.6389"><ele>396.25</ele><time>2026-04-20T13:18:52.811Z</time></trkpt><trkpt lat="42.9875583" lon="11.638755"><ele>397.0</ele><time>2026-04-20T13:18:53.813Z</time></trkpt><trkpt lat="42.98764" lon="11.638605"><ele>394.25</ele><time>2026-04-20T13:18:54.813Z</time></trkpt><trkpt lat="42.9877233" lon="11.63845"><ele>391.5</ele><time>2026-04-20T13:18:55.813Z</time></trkpt><trkpt lat="42.9878083" lon="11.6382917"><ele>388.75</ele><time>2026-04-20T13:18:56.814Z</time></trkpt><trkpt lat="42.9878917" lon="11.6381367"><ele>386.0</ele><time>2026-04-20T13:18:57.813Z</time></trkpt><trkpt lat="42.9879717" lon="11.637995"><ele>386.0</ele><time>2026-04-20T13:18:58.814Z</time></trkpt><trkpt lat="42.9880433" lon="11.63787"><ele>386.0</ele><time>2026-04-20T13:18:59.813Z</time></trkpt><trkpt lat="42.98812" lon="11.6377633"><ele>386.0</ele><time>2026-04-20T13:19:00.814Z</time></trkpt><trkpt lat="42.9882033" lon="11.63767"><ele>386.0</ele><time>2026-04-20T13:19:01.813Z</time></trkpt><trkpt lat="42.9882933" lon="11.6375833"><ele>386.0</ele><time>2026-04-20T13:19:02.811Z</time></trkpt><trkpt lat="42.9883883" lon="11.6375"><ele>383.25</ele><time>2026-04-20T13:19:03.817Z</time></trkpt><trkpt lat="42.9884867" lon="11.637415"><ele>380.5</ele><time>2026-04-20T13:19:04.814Z</time></trkpt><trkpt lat="42.9885867" lon="11.63733"><ele>377.75</ele><time>2026-04-20T13:19:05.812Z</time></trkpt><trkpt lat="42.98869" lon="11.637255"><ele>375.0</ele><time>2026-04-20T13:19:06.814Z</time></trkpt><trkpt lat="42.988795" lon="11.6371983"><ele>375.0</ele><time>2026-04-20T13:19:07.813Z</time></trkpt><trkpt lat="42.9889033" lon="11.6371633"><ele>375.0</ele><time>2026-04-20T13:19:08.814Z</time></trkpt><trkpt lat="42.9890133" lon="11.6371467"><ele>375.0</ele><time>2026-04-20T13:19:09.814Z</time></trkpt><trkpt lat="42.9891267" lon="11.6371333"><ele>375.0</ele><time>2026-04-20T13:19:10.81Z</time></trkpt><trkpt lat="42.9892417" lon="11.6371233"><ele>374.25</ele><time>2026-04-20T13:19:11.815Z</time></trkpt><trkpt lat="42.9893633" lon="11.6371083"><ele>373.5</ele><time>2026-04-20T13:19:12.814Z</time></trkpt><trkpt lat="42.9894867" lon="11.63708"><ele>372.75</ele><time>2026-04-20T13:19:13.813Z</time></trkpt><trkpt lat="42.98962" lon="11.6370383"><ele>372.0</ele><time>2026-04-20T13:19:14.814Z</time></trkpt><trkpt lat="42.98976" lon="11.63698"><ele>370.6666666666667</ele><time>2026-04-20T13:19:15.813Z</time></trkpt><trkpt lat="42.9899017" lon="11.6369167"><ele>369.33333333333337</ele><time>2026-04-20T13:19:16.812Z</time></trkpt><trkpt lat="42.9900483" lon="11.6368467"><ele>368.0</ele><time>2026-04-20T13:19:17.811Z</time></trkpt><trkpt lat="42.9901933" lon="11.636775"><ele>368.0</ele><time>2026-04-20T13:19:18.813Z</time></trkpt><trkpt lat="42.9903367" lon="11.636705"><ele>368.0</ele><time>2026-04-20T13:19:19.814Z</time></trkpt><trkpt lat="42.9904767" lon="11.6366383"><ele>368.0</ele><time>2026-04-20T13:19:20.813Z</time></trkpt><trkpt lat="42.9906117" lon="11.6365567"><ele>368.0</ele><time>2026-04-20T13:19:21.814Z</time></trkpt><trkpt lat="42.9907417" lon="11.63646"><ele>367.6666666666667</ele><time>2026-04-20T13:19:22.813Z</time></trkpt><trkpt lat="42.9908733" lon="11.6363567"><ele>367.3333333333333</ele><time>2026-04-20T13:19:23.813Z</time></trkpt><trkpt lat="42.991005" lon="11.6362483"><ele>367.0</ele><time>2026-04-20T13:19:24.817Z</time></trkpt><trkpt lat="42.9911433" lon="11.6361417"><ele>364.0</ele><time>2026-04-20T13:19:25.814Z</time></trkpt><trkpt lat="42.991285" lon="11.6360367"><ele>361.0</ele><time>2026-04-20T13:19:26.815Z</time></trkpt><trkpt lat="42.9914217" lon="11.635935"><ele>358.0</ele><time>2026-04-20T13:19:27.814Z</time></trkpt><trkpt lat="42.9915533" lon="11.635835"><ele>358.0</ele><time>2026-04-20T13:19:28.813Z</time></trkpt><trkpt lat="42.9916733" lon="11.6357317"><ele>358.0</ele><time>2026-04-20T13:19:29.813Z</time></trkpt><trkpt lat="42.9917867" lon="11.6356267"><ele>358.0</ele><time>2026-04-20T13:19:30.809Z</time></trkpt><trkpt lat="42.9918967" lon="11.6355267"><ele>358.0</ele><time>2026-04-20T13:19:31.81Z</time></trkpt><trkpt lat="42.9920017" lon="11.6354267"><ele>358.5</ele><time>2026-04-20T13:19:32.814Z</time></trkpt><trkpt lat="42.9921067" lon="11.63533"><ele>359.0</ele><time>2026-04-20T13:19:33.813Z</time></trkpt><trkpt lat="42.9922033" lon="11.6352283"><ele>359.5</ele><time>2026-04-20T13:19:34.814Z</time></trkpt><trkpt lat="42.9922933" lon="11.6351117"><ele>360.0</ele><time>2026-04-20T13:19:35.814Z</time></trkpt><trkpt lat="42.9923783" lon="11.634985"><ele>359.5</ele><time>2026-04-20T13:19:36.81Z</time></trkpt><trkpt lat="42.992455" lon="11.63484"><ele>359.0</ele><time>2026-04-20T13:19:37.814Z</time></trkpt><trkpt lat="42.992515" lon="11.6346733"><ele>358.5</ele><time>2026-04-20T13:19:38.814Z</time></trkpt><trkpt lat="42.9925567" lon="11.6344833"><ele>358.0</ele><time>2026-04-20T13:19:39.815Z</time></trkpt><trkpt lat="42.9925867" lon="11.6342783"><ele>358.0</ele><time>2026-04-20T13:19:40.814Z</time></trkpt><trkpt lat="42.992615" lon="11.6340633"><ele>358.0</ele><time>2026-04-20T13:19:41.814Z</time></trkpt><trkpt lat="42.9926433" lon="11.6338433"><ele>358.0</ele><time>2026-04-20T13:19:42.81Z</time></trkpt><trkpt lat="42.9926767" lon="11.63363"><ele>358.75</ele><time>2026-04-20T13:19:43.813Z</time></trkpt><trkpt lat="42.99271" lon="11.6334267"><ele>359.5</ele><time>2026-04-20T13:19:44.813Z</time></trkpt><trkpt lat="42.9927383" lon="11.6332383"><ele>360.25</ele><time>2026-04-20T13:19:45.81Z</time></trkpt><trkpt lat="42.99276" lon="11.6330567"><ele>361.0</ele><time>2026-04-20T13:19:46.811Z</time></trkpt><trkpt lat="42.9927617" lon="11.6328717"><ele>361.5</ele><time>2026-04-20T13:19:47.813Z</time></trkpt><trkpt lat="42.9927483" lon="11.632685"><ele>362.0</ele><time>2026-04-20T13:19:48.81Z</time></trkpt><trkpt lat="42.992715" lon="11.6324917"><ele>362.5</ele><time>2026-04-20T13:19:49.813Z</time></trkpt><trkpt lat="42.9926767" lon="11.6322883"><ele>363.0</ele><time>2026-04-20T13:19:50.817Z</time></trkpt><trkpt lat="42.99264" lon="11.6320783"><ele>362.3333333333333</ele><time>2026-04-20T13:19:51.812Z</time></trkpt><trkpt lat="42.992605" lon="11.631865"><ele>361.66666666666663</ele><time>2026-04-20T13:19:52.813Z</time></trkpt><trkpt lat="42.9925733" lon="11.6316567"><ele>361.0</ele><time>2026-04-20T13:19:53.812Z</time></trkpt><trkpt lat="42.9925417" lon="11.6314567"><ele>361.0</ele><time>2026-04-20T13:19:54.81Z</time></trkpt><trkpt lat="42.9925183" lon="11.6312717"><ele>361.0</ele><time>2026-04-20T13:19:55.814Z</time></trkpt><trkpt lat="42.992515" lon="11.6311017"><ele>361.0</ele><time>2026-04-20T13:19:56.815Z</time></trkpt><trkpt lat="42.9925367" lon="11.630945"><ele>361.0</ele><time>2026-04-20T13:19:57.813Z</time></trkpt><trkpt lat="42.9925733" lon="11.6308033"><ele>359.0</ele><time>2026-04-20T13:19:58.813Z</time></trkpt><trkpt lat="42.9926217" lon="11.6306733"><ele>357.0</ele><time>2026-04-20T13:19:59.813Z</time></trkpt><trkpt lat="42.9926783" lon="11.630545"><ele>355.0</ele><time>2026-04-20T13:20:00.811Z</time></trkpt><trkpt lat="42.9927367" lon="11.630415"><ele>353.0</ele><time>2026-04-20T13:20:01.813Z</time></trkpt><trkpt lat="42.9927967" lon="11.630285"><ele>351.0</ele><time>2026-04-20T13:20:02.814Z</time></trkpt><trkpt lat="42.9928583" lon="11.6301517"><ele>349.0</ele><time>2026-04-20T13:20:03.814Z</time></trkpt><trkpt lat="42.99292" lon="11.630015"><ele>347.0</ele><time>2026-04-20T13:20:04.814Z</time></trkpt><trkpt lat="42.99298" lon="11.62987"><ele>345.0</ele><time>2026-04-20T13:20:05.814Z</time></trkpt><trkpt lat="42.9930467" lon="11.6297267"><ele>343.0</ele><time>2026-04-20T13:20:06.813Z</time></trkpt><trkpt lat="42.993115" lon="11.6295867"><ele>343.0</ele><time>2026-04-20T13:20:07.813Z</time></trkpt><trkpt lat="42.9931867" lon="11.6294567"><ele>343.0</ele><time>2026-04-20T13:20:08.81Z</time></trkpt><trkpt lat="42.99327" lon="11.6293467"><ele>343.0</ele><time>2026-04-20T13:20:09.811Z</time></trkpt><trkpt lat="42.993365" lon="11.629265"><ele>343.0</ele><time>2026-04-20T13:20:10.814Z</time></trkpt><trkpt lat="42.9934683" lon="11.62921"><ele>343.0</ele><time>2026-04-20T13:20:11.814Z</time></trkpt><trkpt lat="42.9935783" lon="11.6291717"><ele>343.0</ele><time>2026-04-20T13:20:12.814Z</time></trkpt><trkpt lat="42.993705" lon="11.62915"><ele>343.0</ele><time>2026-04-20T13:20:13.813Z</time></trkpt><trkpt lat="42.99384" lon="11.62914"><ele>343.0</ele><time>2026-04-20T13:20:14.813Z</time></trkpt><trkpt lat="42.9939817" lon="11.6291317"><ele>343.0</ele><time>2026-04-20T13:20:15.813Z</time></trkpt><trkpt lat="42.9941183" lon="11.6291233"><ele>343.0</ele><time>2026-04-20T13:20:16.815Z</time></trkpt><trkpt lat="42.9942567" lon="11.6291167"><ele>343.0</ele><time>2026-04-20T13:20:17.814Z</time></trkpt><trkpt lat="42.9943883" lon="11.6291083"><ele>343.0</ele><time>2026-04-20T13:20:18.81Z</time></trkpt><trkpt lat="42.994525" lon="11.6290983"><ele>344.75</ele><time>2026-04-20T13:20:19.814Z</time></trkpt><trkpt lat="42.9946583" lon="11.6290867"><ele>346.5</ele><time>2026-04-20T13:20:20.814Z</time></trkpt><trkpt lat="42.994795" lon="11.6290767"><ele>348.25</ele><time>2026-04-20T13:20:21.811Z</time></trkpt><trkpt lat="42.9949317" lon="11.6290683"><ele>350.0</ele><time>2026-04-20T13:20:22.814Z</time></trkpt><trkpt lat="42.9950733" lon="11.6290617"><ele>351.5</ele><time>2026-04-20T13:20:23.811Z</time></trkpt><trkpt lat="42.9952167" lon="11.6290567"><ele>353.0</ele><time>2026-04-20T13:20:24.811Z</time></trkpt><trkpt lat="42.995355" lon="11.62905"><ele>354.5</ele><time>2026-04-20T13:20:25.813Z</time></trkpt><trkpt lat="42.995495" lon="11.6290433"><ele>356.0</ele><time>2026-04-20T13:20:26.814Z</time></trkpt><trkpt lat="42.9956367" lon="11.629035"><ele>356.0</ele><time>2026-04-20T13:20:27.813Z</time></trkpt><trkpt lat="42.9957867" lon="11.62903"><ele>356.0</ele><time>2026-04-20T13:20:28.814Z</time></trkpt><trkpt lat="42.99593" lon="11.6290233"><ele>356.0</ele><time>2026-04-20T13:20:29.813Z</time></trkpt><trkpt lat="42.9960717" lon="11.629015"><ele>356.0</ele><time>2026-04-20T13:20:30.813Z</time></trkpt><trkpt lat="42.99621" lon="11.6290017"><ele>357.5</ele><time>2026-04-20T13:20:31.813Z</time></trkpt><trkpt lat="42.9963483" lon="11.6289783"><ele>359.0</ele><time>2026-04-20T13:20:32.814Z</time></trkpt><trkpt lat="42.9964817" lon="11.6289333"><ele>360.5</ele><time>2026-04-20T13:20:33.814Z</time></trkpt><trkpt lat="42.996615" lon="11.6288717"><ele>362.0</ele><time>2026-04-20T13:20:34.814Z</time></trkpt><trkpt lat="42.9967517" lon="11.6288067"><ele>362.5</ele><time>2026-04-20T13:20:35.813Z</time></trkpt><trkpt lat="42.9968833" lon="11.628735"><ele>363.0</ele><time>2026-04-20T13:20:36.814Z</time></trkpt><trkpt lat="42.9970167" lon="11.6286667"><ele>363.5</ele><time>2026-04-20T13:20:37.814Z</time></trkpt><trkpt lat="42.99715" lon="11.6286067"><ele>364.0</ele><time>2026-04-20T13:20:38.814Z</time></trkpt><trkpt lat="42.997285" lon="11.6285567"><ele>366.25</ele><time>2026-04-20T13:20:39.814Z</time></trkpt><trkpt lat="42.9974217" lon="11.628525"><ele>368.5</ele><time>2026-04-20T13:20:40.814Z</time></trkpt><trkpt lat="42.9975583" lon="11.6284967"><ele>370.75</ele><time>2026-04-20T13:20:41.814Z</time></trkpt><trkpt lat="42.99769" lon="11.62846"><ele>373.0</ele><time>2026-04-20T13:20:42.814Z</time></trkpt><trkpt lat="42.99782" lon="11.628415"><ele>373.0</ele><time>2026-04-20T13:20:43.814Z</time></trkpt><trkpt lat="42.9979383" lon="11.6283717"><ele>373.0</ele><time>2026-04-20T13:20:44.814Z</time></trkpt><trkpt lat="42.998045" lon="11.6283283"><ele>373.0</ele><time>2026-04-20T13:20:45.813Z</time></trkpt><trkpt lat="42.9981383" lon="11.628275"><ele>373.0</ele><time>2026-04-20T13:20:46.81Z</time></trkpt><trkpt lat="42.9982233" lon="11.6281983"><ele>373.0</ele><time>2026-04-20T13:20:47.812Z</time></trkpt><trkpt lat="42.9982867" lon="11.6280817"><ele>371.75</ele><time>2026-04-20T13:20:48.814Z</time></trkpt><trkpt lat="42.99835" lon="11.627945"><ele>370.5</ele><time>2026-04-20T13:20:49.811Z</time></trkpt><trkpt lat="42.9984067" lon="11.6277933"><ele>369.25</ele><time>2026-04-20T13:20:50.814Z</time></trkpt><trkpt lat="42.9984633" lon="11.62763"><ele>368.0</ele><time>2026-04-20T13:20:51.811Z</time></trkpt><trkpt lat="42.9985283" lon="11.6274583"><ele>368.0</ele><time>2026-04-20T13:20:52.812Z</time></trkpt><trkpt lat="42.9986117" lon="11.627295"><ele>368.0</ele><time>2026-04-20T13:20:53.81Z</time></trkpt><trkpt lat="42.9987117" lon="11.6271283"><ele>368.0</ele><time>2026-04-20T13:20:54.811Z</time></trkpt><trkpt lat="42.9988233" lon="11.62698"><ele>370.6666666666667</ele><time>2026-04-20T13:20:55.812Z</time></trkpt><trkpt lat="42.9989467" lon="11.626845"><ele>373.3333333333333</ele><time>2026-04-20T13:20:56.814Z</time></trkpt><trkpt lat="42.99908" lon="11.6267333"><ele>376.0</ele><time>2026-04-20T13:20:57.815Z</time></trkpt><trkpt lat="42.999225" lon="11.6266417"><ele>376.0</ele><time>2026-04-20T13:20:58.811Z</time></trkpt><trkpt lat="42.9993783" lon="11.6265683"><ele>376.0</ele><time>2026-04-20T13:20:59.815Z</time></trkpt><trkpt lat="42.9995333" lon="11.626515"><ele>376.0</ele><time>2026-04-20T13:21:00.813Z</time></trkpt><trkpt lat="42.9996867" lon="11.6264617"><ele>376.0</ele><time>2026-04-20T13:21:01.814Z</time></trkpt><trkpt lat="42.9998383" lon="11.6264167"><ele>376.0</ele><time>2026-04-20T13:21:02.812Z</time></trkpt><trkpt lat="42.9999817" lon="11.6263783"><ele>376.0</ele><time>2026-04-20T13:21:03.813Z</time></trkpt><trkpt lat="43.0001133" lon="11.6263433"><ele>376.0</ele><time>2026-04-20T13:21:04.813Z</time></trkpt><trkpt lat="43.0002317" lon="11.62631"><ele>376.0</ele><time>2026-04-20T13:21:05.813Z</time></trkpt><trkpt lat="43.0003333" lon="11.6262717"><ele>376.0</ele><time>2026-04-20T13:21:06.814Z</time></trkpt><trkpt lat="43.000425" lon="11.62622"><ele>376.0</ele><time>2026-04-20T13:21:07.814Z</time></trkpt><trkpt lat="43.0005" lon="11.6261433"><ele>376.0</ele><time>2026-04-20T13:21:08.818Z</time></trkpt><trkpt lat="43.0005583" lon="11.6260417"><ele>376.0</ele><time>2026-04-20T13:21:09.813Z</time></trkpt><trkpt lat="43.0006" lon="11.62592"><ele>378.20000000000005</ele><time>2026-04-20T13:21:10.812Z</time></trkpt><trkpt lat="43.0006217" lon="11.6257867"><ele>380.40000000000003</ele><time>2026-04-20T13:21:11.811Z</time></trkpt><trkpt lat="43.0006483" lon="11.625655"><ele>382.6</ele><time>2026-04-20T13:21:12.813Z</time></trkpt><trkpt lat="43.0006867" lon="11.625545"><ele>384.8</ele><time>2026-04-20T13:21:13.812Z</time></trkpt><trkpt lat="43.00074" lon="11.6254567"><ele>387.0</ele><time>2026-04-20T13:21:14.813Z</time></trkpt><trkpt lat="43.0008167" lon="11.62538"><ele>387.25</ele><time>2026-04-20T13:21:15.819Z</time></trkpt><trkpt lat="43.0009167" lon="11.6253133"><ele>387.5</ele><time>2026-04-20T13:21:16.813Z</time></trkpt><trkpt lat="43.0010317" lon="11.62525"><ele>387.75</ele><time>2026-04-20T13:21:17.813Z</time></trkpt><trkpt lat="43.0011583" lon="11.6251933"><ele>388.0</ele><time>2026-04-20T13:21:18.813Z</time></trkpt><trkpt lat="43.001285" lon="11.6251367"><ele>388.0</ele><time>2026-04-20T13:21:19.813Z</time></trkpt><trkpt lat="43.001415" lon="11.6250717"><ele>388.0</ele><time>2026-04-20T13:21:20.814Z</time></trkpt><trkpt lat="43.001545" lon="11.6249983"><ele>388.0</ele><time>2026-04-20T13:21:21.813Z</time></trkpt><trkpt lat="43.0016683" lon="11.6249167"><ele>388.0</ele><time>2026-04-20T13:21:22.813Z</time></trkpt><trkpt lat="43.0017833" lon="11.6248383"><ele>387.6666666666667</ele><time>2026-04-20T13:21:23.813Z</time></trkpt><trkpt lat="43.0018883" lon="11.624775"><ele>387.33333333333337</ele><time>2026-04-20T13:21:24.817Z</time></trkpt><trkpt lat="43.00198" lon="11.6247483"><ele>387.0</ele><time>2026-04-20T13:21:25.813Z</time></trkpt><trkpt lat="43.0020583" lon="11.6247483"><ele>386.66666666666663</ele><time>2026-04-20T13:21:26.813Z</time></trkpt><trkpt lat="43.002135" lon="11.62478"><ele>386.3333333333333</ele><time>2026-04-20T13:21:27.813Z</time></trkpt><trkpt lat="43.0021917" lon="11.6248483"><ele>386.0</ele><time>2026-04-20T13:21:28.813Z</time></trkpt><trkpt lat="43.002215" lon="11.624965"><ele>386.0</ele><time>2026-04-20T13:21:29.812Z</time></trkpt><trkpt lat="43.0022283" lon="11.6250883"><ele>386.0</ele><time>2026-04-20T13:21:30.812Z</time></trkpt><trkpt lat="43.002245" lon="11.6252"><ele>386.0</ele><time>2026-04-20T13:21:31.813Z</time></trkpt><trkpt lat="43.0022667" lon="11.6252933"><ele>386.0</ele><time>2026-04-20T13:21:32.813Z</time></trkpt><trkpt lat="43.002315" lon="11.6254167"><ele>386.0</ele><time>2026-04-20T13:21:34.813Z</time></trkpt><trkpt lat="43.0024483" lon="11.6254267"><ele>385.25</ele><time>2026-04-20T13:21:36.814Z</time></trkpt><trkpt lat="43.0025533" lon="11.6253933"><ele>384.5</ele><time>2026-04-20T13:21:37.812Z</time></trkpt><trkpt lat="43.0026683" lon="11.62535"><ele>383.75</ele><time>2026-04-20T13:21:38.813Z</time></trkpt><trkpt lat="43.0027967" lon="11.6252917"><ele>383.0</ele><time>2026-04-20T13:21:39.813Z</time></trkpt><trkpt lat="43.0029233" lon="11.6252533"><ele>385.25</ele><time>2026-04-20T13:21:40.813Z</time></trkpt><trkpt lat="43.0030533" lon="11.6252483"><ele>387.5</ele><time>2026-04-20T13:21:41.813Z</time></trkpt><trkpt lat="43.003185" lon="11.6252683"><ele>389.75</ele><time>2026-04-20T13:21:42.813Z</time></trkpt><trkpt lat="43.003315" lon="11.6253067"><ele>392.0</ele><time>2026-04-20T13:21:43.813Z</time></trkpt><trkpt lat="43.0034367" lon="11.6253483"><ele>392.0</ele><time>2026-04-20T13:21:44.811Z</time></trkpt><trkpt lat="43.0035483" lon="11.6253833"><ele>392.0</ele><time>2026-04-20T13:21:45.81Z</time></trkpt><trkpt lat="43.0036517" lon="11.6253917"><ele>392.0</ele><time>2026-04-20T13:21:46.81Z</time></trkpt><trkpt lat="43.0037517" lon="11.62538"><ele>392.0</ele><time>2026-04-20T13:21:47.81Z</time></trkpt><trkpt lat="43.0038383" lon="11.62534"><ele>392.0</ele><time>2026-04-20T13:21:48.811Z</time></trkpt><trkpt lat="43.003915" lon="11.6252633"><ele>394.0</ele><time>2026-04-20T13:21:49.809Z</time></trkpt><trkpt lat="43.003995" lon="11.62517"><ele>396.0</ele><time>2026-04-20T13:21:50.81Z</time></trkpt><trkpt lat="43.0040783" lon="11.6250667"><ele>398.0</ele><time>2026-04-20T13:21:51.811Z</time></trkpt><trkpt lat="43.00417" lon="11.6249617"><ele>400.0</ele><time>2026-04-20T13:21:52.81Z</time></trkpt><trkpt lat="43.0042683" lon="11.6248567"><ele>401.0</ele><time>2026-04-20T13:21:53.81Z</time></trkpt><trkpt lat="43.0043683" lon="11.6247483"><ele>402.0</ele><time>2026-04-20T13:21:54.813Z</time></trkpt><trkpt lat="43.0044633" lon="11.6246483"><ele>403.0</ele><time>2026-04-20T13:21:55.813Z</time></trkpt><trkpt lat="43.0045533" lon="11.6245733"><ele>404.0</ele><time>2026-04-20T13:21:56.813Z</time></trkpt><trkpt lat="43.0046417" lon="11.624535"><ele>405.0</ele><time>2026-04-20T13:21:57.813Z</time></trkpt><trkpt lat="43.0047283" lon="11.6245267"><ele>405.0</ele><time>2026-04-20T13:21:58.813Z</time></trkpt><trkpt lat="43.0048217" lon="11.6245533"><ele>405.0</ele><time>2026-04-20T13:21:59.813Z</time></trkpt><trkpt lat="43.004895" lon="11.6245917"><ele>405.0</ele><time>2026-04-20T13:22:00.812Z</time></trkpt><trkpt lat="43.004975" lon="11.624675"><ele>405.0</ele><time>2026-04-20T13:22:02.814Z</time></trkpt><trkpt lat="43.0050483" lon="11.6247017"><ele>405.0</ele><time>2026-04-20T13:22:25.814Z</time></trkpt><trkpt lat="43.0050983" lon="11.624755"><ele>405.0</ele><time>2026-04-20T13:22:28.883Z</time></trkpt><trkpt lat="43.00503" lon="11.6247133"><ele>405.0</ele><time>2026-04-20T13:22:40.813Z</time></trkpt><trkpt lat="43.0049233" lon="11.6246217"><ele>405.0</ele><time>2026-04-20T13:22:42.813Z</time></trkpt><trkpt lat="43.0048617" lon="11.624575"><ele>405.0</ele><time>2026-04-20T13:22:43.813Z</time></trkpt><trkpt lat="43.0047983" lon="11.6245467"><ele>405.0</ele><time>2026-04-20T13:22:44.813Z</time></trkpt><trkpt lat="43.0047333" lon="11.6245383"><ele>405.0</ele><time>2026-04-20T13:22:45.812Z</time></trkpt><trkpt lat="43.0046667" lon="11.6245533"><ele>405.0</ele><time>2026-04-20T13:22:46.813Z</time></trkpt><trkpt lat="43.0045983" lon="11.62458"><ele>405.0</ele><time>2026-04-20T13:22:47.81Z</time></trkpt><trkpt lat="43.004525" lon="11.6246267"><ele>405.0</ele><time>2026-04-20T13:22:48.809Z</time></trkpt><trkpt lat="43.0044467" lon="11.62469"><ele>405.0</ele><time>2026-04-20T13:22:49.81Z</time></trkpt><trkpt lat="43.0043683" lon="11.6247567"><ele>405.0</ele><time>2026-04-20T13:22:50.811Z</time></trkpt><trkpt lat="43.0042917" lon="11.624825"><ele>405.0</ele><time>2026-04-20T13:22:51.809Z</time></trkpt><trkpt lat="43.0042217" lon="11.62489"><ele>405.0</ele><time>2026-04-20T13:22:52.81Z</time></trkpt><trkpt lat="43.0041567" lon="11.6249533"><ele>404.0</ele><time>2026-04-20T13:22:53.81Z</time></trkpt><trkpt lat="43.0041" lon="11.6250067"><ele>403.0</ele><time>2026-04-20T13:22:54.813Z</time></trkpt><trkpt lat="43.0040233" lon="11.625105"><ele>402.0</ele><time>2026-04-20T13:22:56.812Z</time></trkpt><trkpt lat="43.0039967" lon="11.625225"><ele>401.0</ele><time>2026-04-20T13:22:58.813Z</time></trkpt><trkpt lat="43.004005" lon="11.625385"><ele>400.0</ele><time>2026-04-20T13:23:00.812Z</time></trkpt><trkpt lat="43.00398" lon="11.6255567"><ele>398.6666666666667</ele><time>2026-04-20T13:23:02.813Z</time></trkpt><trkpt lat="43.003945" lon="11.6256617"><ele>397.33333333333337</ele><time>2026-04-20T13:23:03.813Z</time></trkpt><trkpt lat="43.0039" lon="11.62577"><ele>396.0</ele><time>2026-04-20T13:23:04.812Z</time></trkpt><trkpt lat="43.0038583" lon="11.62588"><ele>394.66666666666663</ele><time>2026-04-20T13:23:05.813Z</time></trkpt><trkpt lat="43.0038267" lon="11.6259833"><ele>393.3333333333333</ele><time>2026-04-20T13:23:06.814Z</time></trkpt><trkpt lat="43.0038033" lon="11.626085"><ele>392.0</ele><time>2026-04-20T13:23:07.813Z</time></trkpt><trkpt lat="43.0037967" lon="11.6261967"><ele>391.20000000000005</ele><time>2026-04-20T13:23:08.811Z</time></trkpt><trkpt lat="43.003795" lon="11.62632"><ele>390.4</ele><time>2026-04-20T13:23:09.813Z</time></trkpt><trkpt lat="43.0038" lon="11.6264483"><ele>389.6</ele><time>2026-04-20T13:23:10.813Z</time></trkpt><trkpt lat="43.0038033" lon="11.6265783"><ele>388.79999999999995</ele><time>2026-04-20T13:23:11.812Z</time></trkpt><trkpt lat="43.0038183" lon="11.6267017"><ele>388.0</ele><time>2026-04-20T13:23:12.813Z</time></trkpt><trkpt lat="43.00384" lon="11.6268283"><ele>388.0</ele><time>2026-04-20T13:23:13.81Z</time></trkpt><trkpt lat="43.0038683" lon="11.6269517"><ele>388.0</ele><time>2026-04-20T13:23:14.812Z</time></trkpt><trkpt lat="43.0039017" lon="11.6270883"><ele>388.0</ele><time>2026-04-20T13:23:15.811Z</time></trkpt><trkpt lat="43.0039367" lon="11.62723"><ele>388.0</ele><time>2026-04-20T13:23:16.814Z</time></trkpt><trkpt lat="43.0039633" lon="11.627375"><ele>388.0</ele><time>2026-04-20T13:23:17.812Z</time></trkpt><trkpt lat="43.0039883" lon="11.6275233"><ele>387.2</ele><time>2026-04-20T13:23:18.814Z</time></trkpt><trkpt lat="43.004005" lon="11.6276683"><ele>386.4</ele><time>2026-04-20T13:23:19.811Z</time></trkpt><trkpt lat="43.0040167" lon="11.6278083"><ele>385.59999999999997</ele><time>2026-04-20T13:23:20.812Z</time></trkpt><trkpt lat="43.00403" lon="11.62795"><ele>384.79999999999995</ele><time>2026-04-20T13:23:21.814Z</time></trkpt><trkpt lat="43.0040433" lon="11.628085"><ele>384.0</ele><time>2026-04-20T13:23:22.814Z</time></trkpt><trkpt lat="43.0040567" lon="11.6282133"><ele>383.5</ele><time>2026-04-20T13:23:23.811Z</time></trkpt><trkpt lat="43.0040817" lon="11.6283283"><ele>383.0</ele><time>2026-04-20T13:23:24.81Z</time></trkpt><trkpt lat="43.0041083" lon="11.6284317"><ele>382.5</ele><time>2026-04-20T13:23:25.81Z</time></trkpt><trkpt lat="43.0041483" lon="11.62852"><ele>382.0</ele><time>2026-04-20T13:23:26.811Z</time></trkpt><trkpt lat="43.0041867" lon="11.6285967"><ele>381.5</ele><time>2026-04-20T13:23:27.814Z</time></trkpt><trkpt lat="43.0042283" lon="11.6287517"><ele>381.0</ele><time>2026-04-20T13:23:29.814Z</time></trkpt><trkpt lat="43.004225" lon="11.62884"><ele>380.0</ele><time>2026-04-20T13:23:30.813Z</time></trkpt><trkpt lat="43.00421" lon="11.62893"><ele>379.0</ele><time>2026-04-20T13:23:31.814Z</time></trkpt><trkpt lat="43.0042" lon="11.629015"><ele>378.0</ele><time>2026-04-20T13:23:32.814Z</time></trkpt><trkpt lat="43.0041883" lon="11.6291667"><ele>377.0</ele><time>2026-04-20T13:23:34.81Z</time></trkpt><trkpt lat="43.0042833" lon="11.6292733"><ele>376.0</ele><time>2026-04-20T13:23:36.81Z</time></trkpt><trkpt lat="43.0043467" lon="11.62932"><ele>375.0</ele><time>2026-04-20T13:23:37.814Z</time></trkpt><trkpt lat="43.0044183" lon="11.6293683"><ele>375.0</ele><time>2026-04-20T13:23:38.811Z</time></trkpt><trkpt lat="43.0044917" lon="11.6294067"><ele>375.0</ele><time>2026-04-20T13:23:39.814Z</time></trkpt><trkpt lat="43.004565" lon="11.6294333"><ele>375.0</ele><time>2026-04-20T13:23:40.813Z</time></trkpt><trkpt lat="43.00464" lon="11.6294433"><ele>375.0</ele><time>2026-04-20T13:23:41.812Z</time></trkpt><trkpt lat="43.004715" lon="11.629445"><ele>375.0</ele><time>2026-04-20T13:23:42.814Z</time></trkpt><trkpt lat="43.0047867" lon="11.6294383"><ele>375.0</ele><time>2026-04-20T13:23:43.812Z</time></trkpt><trkpt lat="43.0048567" lon="11.6294233"><ele>375.0</ele><time>2026-04-20T13:23:44.813Z</time></trkpt><trkpt lat="43.0049233" lon="11.6294133"><ele>375.0</ele><time>2026-04-20T13:23:45.813Z</time></trkpt><trkpt lat="43.004995" lon="11.6294067"><ele>375.0</ele><time>2026-04-20T13:23:46.811Z</time></trkpt><trkpt lat="43.0050667" lon="11.6294033"><ele>375.0</ele><time>2026-04-20T13:23:47.81Z</time></trkpt><trkpt lat="43.0051333" lon="11.6294"><ele>375.0</ele><time>2026-04-20T13:23:48.811Z</time></trkpt><trkpt lat="43.0052" lon="11.6294"><ele>375.0</ele><time>2026-04-20T13:23:49.811Z</time></trkpt><trkpt lat="43.0052683" lon="11.6294133"><ele>375.0</ele><time>2026-04-20T13:23:50.81Z</time></trkpt><trkpt lat="43.005335" lon="11.6294467"><ele>375.0</ele><time>2026-04-20T13:23:51.81Z</time></trkpt><trkpt lat="43.005395" lon="11.6295"><ele>372.3333333333333</ele><time>2026-04-20T13:23:52.813Z</time></trkpt><trkpt lat="43.0054467" lon="11.62959"><ele>369.6666666666667</ele><time>2026-04-20T13:23:53.811Z</time></trkpt><trkpt lat="43.0054983" lon="11.6296867"><ele>367.0</ele><time>2026-04-20T13:23:54.811Z</time></trkpt><trkpt lat="43.0055383" lon="11.62978"><ele>364.33333333333337</ele><time>2026-04-20T13:23:55.814Z</time></trkpt><trkpt lat="43.0055783" lon="11.629865"><ele>361.6666666666667</ele><time>2026-04-20T13:23:56.814Z</time></trkpt><trkpt lat="43.0056217" lon="11.629945"><ele>359.0</ele><time>2026-04-20T13:23:57.81Z</time></trkpt><trkpt lat="43.0056733" lon="11.630015"><ele>359.0</ele><time>2026-04-20T13:23:58.814Z</time></trkpt><trkpt lat="43.005735" lon="11.630075"><ele>359.0</ele><time>2026-04-20T13:23:59.813Z</time></trkpt><trkpt lat="43.0058" lon="11.6301217"><ele>359.0</ele><time>2026-04-20T13:24:00.814Z</time></trkpt><trkpt lat="43.0058667" lon="11.6301517"><ele>359.0</ele><time>2026-04-20T13:24:01.814Z</time></trkpt><trkpt lat="43.0059317" lon="11.6301733"><ele>359.0</ele><time>2026-04-20T13:24:02.814Z</time></trkpt><trkpt lat="43.005995" lon="11.6302017"><ele>359.0</ele><time>2026-04-20T13:24:03.815Z</time></trkpt><trkpt lat="43.0060533" lon="11.63024"><ele>359.0</ele><time>2026-04-20T13:24:04.815Z</time></trkpt><trkpt lat="43.00611" lon="11.6302867"><ele>356.33333333333337</ele><time>2026-04-20T13:24:05.814Z</time></trkpt><trkpt lat="43.0061533" lon="11.6303517"><ele>353.6666666666667</ele><time>2026-04-20T13:24:06.815Z</time></trkpt><trkpt lat="43.0061933" lon="11.63052"><ele>351.0</ele><time>2026-04-20T13:24:08.813Z</time></trkpt><trkpt lat="43.0062017" lon="11.6306217"><ele>348.3333333333333</ele><time>2026-04-20T13:24:09.814Z</time></trkpt><trkpt lat="43.00621" lon="11.630735"><ele>345.66666666666663</ele><time>2026-04-20T13:24:10.814Z</time></trkpt><trkpt lat="43.00622" lon="11.63085"><ele>343.0</ele><time>2026-04-20T13:24:11.813Z</time></trkpt><trkpt lat="43.0062283" lon="11.6309617"><ele>343.0</ele><time>2026-04-20T13:24:12.813Z</time></trkpt><trkpt lat="43.0062383" lon="11.6310733"><ele>343.0</ele><time>2026-04-20T13:24:13.814Z</time></trkpt><trkpt lat="43.0062517" lon="11.6311767"><ele>343.0</ele><time>2026-04-20T13:24:14.811Z</time></trkpt><trkpt lat="43.0062633" lon="11.6312717"><ele>343.0</ele><time>2026-04-20T13:24:15.814Z</time></trkpt><trkpt lat="43.0062817" lon="11.63136"><ele>343.0</ele><time>2026-04-20T13:24:16.815Z</time></trkpt><trkpt lat="43.0063467" lon="11.631495"><ele>343.0</ele><time>2026-04-20T13:24:18.814Z</time></trkpt><trkpt lat="43.0063983" lon="11.6315467"><ele>341.5</ele><time>2026-04-20T13:24:19.811Z</time></trkpt><trkpt lat="43.006455" lon="11.6315883"><ele>340.0</ele><time>2026-04-20T13:24:20.812Z</time></trkpt><trkpt lat="43.00652" lon="11.631635"><ele>338.5</ele><time>2026-04-20T13:24:21.811Z</time></trkpt><trkpt lat="43.0065783" lon="11.6316817"><ele>337.0</ele><time>2026-04-20T13:24:22.811Z</time></trkpt><trkpt lat="43.006635" lon="11.6317283"><ele>335.5</ele><time>2026-04-20T13:24:23.813Z</time></trkpt><trkpt lat="43.0067383" lon="11.631825"><ele>334.0</ele><time>2026-04-20T13:24:25.814Z</time></trkpt><trkpt lat="43.00679" lon="11.631885"><ele>333.2857142857143</ele><time>2026-04-20T13:24:26.814Z</time></trkpt><trkpt lat="43.006835" lon="11.6319567"><ele>332.57142857142856</ele><time>2026-04-20T13:24:27.813Z</time></trkpt><trkpt lat="43.006865" lon="11.6320417"><ele>331.8571428571429</ele><time>2026-04-20T13:24:28.814Z</time></trkpt><trkpt lat="43.0068867" lon="11.6321333"><ele>331.1428571428571</ele><time>2026-04-20T13:24:29.814Z</time></trkpt><trkpt lat="43.0069" lon="11.6322317"><ele>330.42857142857144</ele><time>2026-04-20T13:24:30.813Z</time></trkpt><trkpt lat="43.0069133" lon="11.632325"><ele>329.7142857142857</ele><time>2026-04-20T13:24:31.813Z</time></trkpt><trkpt lat="43.0069183" lon="11.6324167"><ele>329.0</ele><time>2026-04-20T13:24:32.813Z</time></trkpt><trkpt lat="43.006915" lon="11.6325117"><ele>327.33333333333337</ele><time>2026-04-20T13:24:33.812Z</time></trkpt><trkpt lat="43.0069133" lon="11.6326133"><ele>325.6666666666667</ele><time>2026-04-20T13:24:34.814Z</time></trkpt><trkpt lat="43.0069" lon="11.6327167"><ele>324.0</ele><time>2026-04-20T13:24:35.814Z</time></trkpt><trkpt lat="43.0068833" lon="11.6328267"><ele>322.3333333333333</ele><time>2026-04-20T13:24:36.81Z</time></trkpt><trkpt lat="43.0068617" lon="11.632935"><ele>320.66666666666663</ele><time>2026-04-20T13:24:37.812Z</time></trkpt><trkpt lat="43.0068417" lon="11.633055"><ele>319.0</ele><time>2026-04-20T13:24:38.813Z</time></trkpt><trkpt lat="43.0068233" lon="11.6331933"><ele>317.25</ele><time>2026-04-20T13:24:39.814Z</time></trkpt><trkpt lat="43.0068083" lon="11.6333567"><ele>315.5</ele><time>2026-04-20T13:24:40.814Z</time></trkpt><trkpt lat="43.006795" lon="11.6335467"><ele>313.75</ele><time>2026-04-20T13:24:41.813Z</time></trkpt><trkpt lat="43.0067783" lon="11.633755"><ele>312.0</ele><time>2026-04-20T13:24:42.813Z</time></trkpt><trkpt lat="43.006765" lon="11.633955"><ele>311.0</ele><time>2026-04-20T13:24:43.812Z</time></trkpt><trkpt lat="43.006755" lon="11.6341467"><ele>310.0</ele><time>2026-04-20T13:24:44.812Z</time></trkpt><trkpt lat="43.0067433" lon="11.6343233"><ele>309.0</ele><time>2026-04-20T13:24:45.814Z</time></trkpt><trkpt lat="43.0067333" lon="11.6344733"><ele>308.0</ele><time>2026-04-20T13:24:46.813Z</time></trkpt><trkpt lat="43.0067233" lon="11.6346083"><ele>307.83333333333337</ele><time>2026-04-20T13:24:47.813Z</time></trkpt><trkpt lat="43.0067233" lon="11.63472"><ele>307.6666666666667</ele><time>2026-04-20T13:24:48.813Z</time></trkpt><trkpt lat="43.006735" lon="11.6348283"><ele>307.5</ele><time>2026-04-20T13:24:49.81Z</time></trkpt><trkpt lat="43.0067533" lon="11.634925"><ele>307.3333333333333</ele><time>2026-04-20T13:24:50.815Z</time></trkpt><trkpt lat="43.00684" lon="11.635005"><ele>307.16666666666663</ele><time>2026-04-20T13:24:52.811Z</time></trkpt><trkpt lat="43.0069367" lon="11.635005"><ele>307.0</ele><time>2026-04-20T13:24:53.811Z</time></trkpt><trkpt lat="43.0070517" lon="11.6349933"><ele>307.0</ele><time>2026-04-20T13:24:54.813Z</time></trkpt><trkpt lat="43.0071883" lon="11.6349667"><ele>307.0</ele><time>2026-04-20T13:24:55.814Z</time></trkpt><trkpt lat="43.0073067" lon="11.6349517"><ele>307.0</ele><time>2026-04-20T13:24:56.814Z</time></trkpt><trkpt lat="43.0074117" lon="11.6349417"><ele>307.0</ele><time>2026-04-20T13:24:57.814Z</time></trkpt><trkpt lat="43.0075033" lon="11.6349433"><ele>306.66666666666663</ele><time>2026-04-20T13:24:58.814Z</time></trkpt><trkpt lat="43.007575" lon="11.634945"><ele>306.3333333333333</ele><time>2026-04-20T13:24:59.816Z</time></trkpt><trkpt lat="43.0076767" lon="11.63498"><ele>306.0</ele><time>2026-04-20T13:25:01.813Z</time></trkpt><trkpt lat="43.00779" lon="11.63503"><ele>305.6666666666667</ele><time>2026-04-20T13:25:03.813Z</time></trkpt><trkpt lat="43.0078567" lon="11.6350533"><ele>305.33333333333337</ele><time>2026-04-20T13:25:04.814Z</time></trkpt><trkpt lat="43.0079267" lon="11.6350767"><ele>305.0</ele><time>2026-04-20T13:25:05.813Z</time></trkpt><trkpt lat="43.007995" lon="11.6351083"><ele>305.0</ele><time>2026-04-20T13:25:06.81Z</time></trkpt><trkpt lat="43.0080517" lon="11.6351683"><ele>305.0</ele><time>2026-04-20T13:25:07.811Z</time></trkpt><trkpt lat="43.0080983" lon="11.6352417"><ele>305.0</ele><time>2026-04-20T13:25:08.814Z</time></trkpt><trkpt lat="43.0081283" lon="11.63533"><ele>305.0</ele><time>2026-04-20T13:25:09.811Z</time></trkpt><trkpt lat="43.0081517" lon="11.6354417"><ele>305.0</ele><time>2026-04-20T13:25:10.812Z</time></trkpt><trkpt lat="43.0081683" lon="11.635575"><ele>305.0</ele><time>2026-04-20T13:25:11.814Z</time></trkpt><trkpt lat="43.0081817" lon="11.6357217"><ele>305.5</ele><time>2026-04-20T13:25:12.814Z</time></trkpt><trkpt lat="43.0081967" lon="11.6358867"><ele>306.0</ele><time>2026-04-20T13:25:13.814Z</time></trkpt><trkpt lat="43.0082133" lon="11.6360667"><ele>306.5</ele><time>2026-04-20T13:25:14.814Z</time></trkpt><trkpt lat="43.00823" lon="11.636255"><ele>307.0</ele><time>2026-04-20T13:25:15.813Z</time></trkpt><trkpt lat="43.0082417" lon="11.636445"><ele>308.25</ele><time>2026-04-20T13:25:16.815Z</time></trkpt><trkpt lat="43.0082533" lon="11.63664"><ele>309.5</ele><time>2026-04-20T13:25:17.811Z</time></trkpt><trkpt lat="43.008265" lon="11.6368317"><ele>310.75</ele><time>2026-04-20T13:25:18.812Z</time></trkpt><trkpt lat="43.0082783" lon="11.6370233"><ele>312.0</ele><time>2026-04-20T13:25:19.811Z</time></trkpt><trkpt lat="43.0082883" lon="11.6372"><ele>311.4</ele><time>2026-04-20T13:25:20.813Z</time></trkpt><trkpt lat="43.0082983" lon="11.63736"><ele>310.79999999999995</ele><time>2026-04-20T13:25:21.815Z</time></trkpt><trkpt lat="43.0083117" lon="11.6375117"><ele>310.2</ele><time>2026-04-20T13:25:22.812Z</time></trkpt><trkpt lat="43.008335" lon="11.6376567"><ele>309.59999999999997</ele><time>2026-04-20T13:25:23.812Z</time></trkpt><trkpt lat="43.0083683" lon="11.63779"><ele>309.0</ele><time>2026-04-20T13:25:24.814Z</time></trkpt><trkpt lat="43.0084267" lon="11.63791"><ele>309.0</ele><time>2026-04-20T13:25:25.814Z</time></trkpt><trkpt lat="43.0085" lon="11.6380217"><ele>309.0</ele><time>2026-04-20T13:25:26.814Z</time></trkpt><trkpt lat="43.00858" lon="11.6381317"><ele>309.0</ele><time>2026-04-20T13:25:27.813Z</time></trkpt><trkpt lat="43.0086517" lon="11.6382517"><ele>309.0</ele><time>2026-04-20T13:25:28.814Z</time></trkpt><trkpt lat="43.008715" lon="11.6383867"><ele>309.0</ele><time>2026-04-20T13:25:29.816Z</time></trkpt><trkpt lat="43.0087683" lon="11.63853"><ele>309.0</ele><time>2026-04-20T13:25:30.812Z</time></trkpt><trkpt lat="43.008815" lon="11.63868"><ele>309.0</ele><time>2026-04-20T13:25:31.814Z</time></trkpt><trkpt lat="43.0088617" lon="11.6388267"><ele>309.0</ele><time>2026-04-20T13:25:32.814Z</time></trkpt><trkpt lat="43.0089083" lon="11.63896"><ele>309.0</ele><time>2026-04-20T13:25:33.814Z</time></trkpt><trkpt lat="43.0089633" lon="11.639075"><ele>309.0</ele><time>2026-04-20T13:25:34.813Z</time></trkpt><trkpt lat="43.0090283" lon="11.6391783"><ele>309.0</ele><time>2026-04-20T13:25:35.811Z</time></trkpt><trkpt lat="43.0091017" lon="11.639275"><ele>309.0</ele><time>2026-04-20T13:25:36.813Z</time></trkpt><trkpt lat="43.0091833" lon="11.6393767"><ele>309.0</ele><time>2026-04-20T13:25:37.812Z</time></trkpt><trkpt lat="43.0092683" lon="11.639495"><ele>307.25</ele><time>2026-04-20T13:25:38.813Z</time></trkpt><trkpt lat="43.00934" lon="11.6396333"><ele>305.5</ele><time>2026-04-20T13:25:39.813Z</time></trkpt><trkpt lat="43.0094" lon="11.6397983"><ele>303.75</ele><time>2026-04-20T13:25:40.813Z</time></trkpt><trkpt lat="43.0094483" lon="11.63998"><ele>302.0</ele><time>2026-04-20T13:25:41.813Z</time></trkpt><trkpt lat="43.0094933" lon="11.6401717"><ele>300.75</ele><time>2026-04-20T13:25:42.813Z</time></trkpt><trkpt lat="43.00954" lon="11.6403667"><ele>299.5</ele><time>2026-04-20T13:25:43.813Z</time></trkpt><trkpt lat="43.00959" lon="11.6405567"><ele>298.25</ele><time>2026-04-20T13:25:44.816Z</time></trkpt><trkpt lat="43.009645" lon="11.6407383"><ele>297.0</ele><time>2026-04-20T13:25:45.813Z</time></trkpt><trkpt lat="43.0097067" lon="11.6409117"><ele>297.0</ele><time>2026-04-20T13:25:46.813Z</time></trkpt><trkpt lat="43.009775" lon="11.6410733"><ele>297.0</ele><time>2026-04-20T13:25:47.815Z</time></trkpt><trkpt lat="43.009845" lon="11.641215"><ele>297.0</ele><time>2026-04-20T13:25:48.813Z</time></trkpt><trkpt lat="43.0099283" lon="11.641355"><ele>297.0</ele><time>2026-04-20T13:25:49.813Z</time></trkpt><trkpt lat="43.010025" lon="11.6414883"><ele>296.25</ele><time>2026-04-20T13:25:50.813Z</time></trkpt><trkpt lat="43.0101383" lon="11.6416167"><ele>295.5</ele><time>2026-04-20T13:25:51.813Z</time></trkpt><trkpt lat="43.0102567" lon="11.641745"><ele>294.75</ele><time>2026-04-20T13:25:52.814Z</time></trkpt><trkpt lat="43.0103733" lon="11.6418767"><ele>294.0</ele><time>2026-04-20T13:25:53.813Z</time></trkpt><trkpt lat="43.010485" lon="11.6420183"><ele>293.5</ele><time>2026-04-20T13:25:54.817Z</time></trkpt><trkpt lat="43.0105883" lon="11.642165"><ele>293.0</ele><time>2026-04-20T13:25:55.813Z</time></trkpt><trkpt lat="43.0106917" lon="11.64231"><ele>292.5</ele><time>2026-04-20T13:25:56.814Z</time></trkpt><trkpt lat="43.0107983" lon="11.64244"><ele>292.0</ele><time>2026-04-20T13:25:57.81Z</time></trkpt><trkpt lat="43.0109133" lon="11.6425583"><ele>291.5</ele><time>2026-04-20T13:25:58.812Z</time></trkpt><trkpt lat="43.0110317" lon="11.642665"><ele>291.0</ele><time>2026-04-20T13:25:59.814Z</time></trkpt><trkpt lat="43.0111533" lon="11.6427667"><ele>290.5</ele><time>2026-04-20T13:26:00.813Z</time></trkpt><trkpt lat="43.01128" lon="11.6428683"><ele>290.0</ele><time>2026-04-20T13:26:01.812Z</time></trkpt><trkpt lat="43.0114017" lon="11.6429667"><ele>289.75</ele><time>2026-04-20T13:26:02.813Z</time></trkpt><trkpt lat="43.011515" lon="11.643055"><ele>289.5</ele><time>2026-04-20T13:26:03.812Z</time></trkpt><trkpt lat="43.011625" lon="11.643125"><ele>289.25</ele><time>2026-04-20T13:26:04.813Z</time></trkpt><trkpt lat="43.01174" lon="11.6431717"><ele>289.0</ele><time>2026-04-20T13:26:05.813Z</time></trkpt><trkpt lat="43.0118567" lon="11.6431883"><ele>288.75</ele><time>2026-04-20T13:26:06.813Z</time></trkpt><trkpt lat="43.0119733" lon="11.6431667"><ele>288.5</ele><time>2026-04-20T13:26:07.814Z</time></trkpt><trkpt lat="43.0120867" lon="11.643105"><ele>288.25</ele><time>2026-04-20T13:26:08.813Z</time></trkpt><trkpt lat="43.01219" lon="11.6430283"><ele>288.0</ele><time>2026-04-20T13:26:09.812Z</time></trkpt><trkpt lat="43.0122867" lon="11.6429533"><ele>288.0</ele><time>2026-04-20T13:26:10.813Z</time></trkpt><trkpt lat="43.0123767" lon="11.6429033"><ele>288.0</ele><time>2026-04-20T13:26:11.814Z</time></trkpt><trkpt lat="43.01246" lon="11.642885"><ele>288.0</ele><time>2026-04-20T13:26:12.813Z</time></trkpt><trkpt lat="43.0125367" lon="11.6428883"><ele>288.0</ele><time>2026-04-20T13:26:13.813Z</time></trkpt><trkpt lat="43.0126233" lon="11.6429317"><ele>288.0</ele><time>2026-04-20T13:26:14.81Z</time></trkpt><trkpt lat="43.01271" lon="11.642995"><ele>288.0</ele><time>2026-04-20T13:26:15.812Z</time></trkpt><trkpt lat="43.0128183" lon="11.64307"><ele>286.8</ele><time>2026-04-20T13:26:16.813Z</time></trkpt><trkpt lat="43.01292" lon="11.6431367"><ele>285.6</ele><time>2026-04-20T13:26:17.813Z</time></trkpt><trkpt lat="43.01302" lon="11.6431833"><ele>284.4</ele><time>2026-04-20T13:26:18.813Z</time></trkpt><trkpt lat="43.0131083" lon="11.643215"><ele>283.2</ele><time>2026-04-20T13:26:19.813Z</time></trkpt><trkpt lat="43.0131933" lon="11.6432217"><ele>282.0</ele><time>2026-04-20T13:26:20.813Z</time></trkpt><trkpt lat="43.0132767" lon="11.6432133"><ele>282.2</ele><time>2026-04-20T13:26:21.812Z</time></trkpt><trkpt lat="43.013365" lon="11.6431983"><ele>282.4</ele><time>2026-04-20T13:26:22.813Z</time></trkpt><trkpt lat="43.01347" lon="11.64318"><ele>282.6</ele><time>2026-04-20T13:26:23.812Z</time></trkpt><trkpt lat="43.0135867" lon="11.6431583"><ele>282.8</ele><time>2026-04-20T13:26:24.814Z</time></trkpt><trkpt lat="43.0137133" lon="11.6431433"><ele>283.0</ele><time>2026-04-20T13:26:25.812Z</time></trkpt><trkpt lat="43.0138517" lon="11.6431317"><ele>283.0</ele><time>2026-04-20T13:26:26.814Z</time></trkpt><trkpt lat="43.0139917" lon="11.6431083"><ele>283.0</ele><time>2026-04-20T13:26:27.813Z</time></trkpt><trkpt lat="43.0141367" lon="11.64309"><ele>283.0</ele><time>2026-04-20T13:26:28.812Z</time></trkpt><trkpt lat="43.0142783" lon="11.6430733"><ele>283.0</ele><time>2026-04-20T13:26:29.813Z</time></trkpt><trkpt lat="43.014415" lon="11.643055"><ele>282.25</ele><time>2026-04-20T13:26:30.813Z</time></trkpt><trkpt lat="43.0145433" lon="11.6430383"><ele>281.5</ele><time>2026-04-20T13:26:31.813Z</time></trkpt><trkpt lat="43.0146583" lon="11.6430217"><ele>280.75</ele><time>2026-04-20T13:26:32.811Z</time></trkpt><trkpt lat="43.0147683" lon="11.64301"><ele>280.0</ele><time>2026-04-20T13:26:33.812Z</time></trkpt><trkpt lat="43.0148733" lon="11.6430067"><ele>280.0</ele><time>2026-04-20T13:26:34.809Z</time></trkpt><trkpt lat="43.0149867" lon="11.6429967"><ele>280.0</ele><time>2026-04-20T13:26:35.813Z</time></trkpt><trkpt lat="43.0151" lon="11.6429817"><ele>280.0</ele><time>2026-04-20T13:26:36.812Z</time></trkpt><trkpt lat="43.0152117" lon="11.6429683"><ele>280.0</ele><time>2026-04-20T13:26:37.813Z</time></trkpt><trkpt lat="43.0153233" lon="11.6429533"><ele>279.5</ele><time>2026-04-20T13:26:38.812Z</time></trkpt><trkpt lat="43.0154367" lon="11.6429533"><ele>279.0</ele><time>2026-04-20T13:26:39.812Z</time></trkpt><trkpt lat="43.0155517" lon="11.6429817"><ele>278.5</ele><time>2026-04-20T13:26:40.813Z</time></trkpt><trkpt lat="43.0156667" lon="11.6430383"><ele>278.0</ele><time>2026-04-20T13:26:41.814Z</time></trkpt><trkpt lat="43.015775" lon="11.6431233"><ele>277.0</ele><time>2026-04-20T13:26:42.809Z</time></trkpt><trkpt lat="43.0158733" lon="11.6432167"><ele>276.0</ele><time>2026-04-20T13:26:43.812Z</time></trkpt><trkpt lat="43.01597" lon="11.6433"><ele>275.0</ele><time>2026-04-20T13:26:44.813Z</time></trkpt><trkpt lat="43.0160733" lon="11.643365"><ele>274.0</ele><time>2026-04-20T13:26:45.812Z</time></trkpt><trkpt lat="43.0162033" lon="11.6433967"><ele>274.0</ele><time>2026-04-20T13:26:46.813Z</time></trkpt><trkpt lat="43.016355" lon="11.64342"><ele>274.0</ele><time>2026-04-20T13:26:47.813Z</time></trkpt><trkpt lat="43.01652" lon="11.643445"><ele>274.0</ele><time>2026-04-20T13:26:48.813Z</time></trkpt><trkpt lat="43.0166833" lon="11.6434733"><ele>274.5</ele><time>2026-04-20T13:26:49.809Z</time></trkpt><trkpt lat="43.01684" lon="11.6434967"><ele>275.0</ele><time>2026-04-20T13:26:50.813Z</time></trkpt><trkpt lat="43.016985" lon="11.6435217"><ele>275.5</ele><time>2026-04-20T13:26:51.813Z</time></trkpt><trkpt lat="43.0171183" lon="11.64355"><ele>276.0</ele><time>2026-04-20T13:26:52.813Z</time></trkpt><trkpt lat="43.0172483" lon="11.64358"><ele>276.0</ele><time>2026-04-20T13:26:53.815Z</time></trkpt><trkpt lat="43.017375" lon="11.6436083"><ele>276.0</ele><time>2026-04-20T13:26:54.814Z</time></trkpt><trkpt lat="43.0175117" lon="11.6436317"><ele>276.0</ele><time>2026-04-20T13:26:55.811Z</time></trkpt><trkpt lat="43.0176717" lon="11.64365"><ele>276.0</ele><time>2026-04-20T13:26:56.81Z</time></trkpt><trkpt lat="43.0178333" lon="11.6436667"><ele>273.6666666666667</ele><time>2026-04-20T13:26:57.813Z</time></trkpt><trkpt lat="43.0179867" lon="11.6436733"><ele>271.33333333333337</ele><time>2026-04-20T13:26:58.813Z</time></trkpt><trkpt lat="43.0181367" lon="11.6436767"><ele>269.0</ele><time>2026-04-20T13:26:59.813Z</time></trkpt><trkpt lat="43.0182917" lon="11.6436817"><ele>268.75</ele><time>2026-04-20T13:27:00.813Z</time></trkpt><trkpt lat="43.01844" lon="11.6437017"><ele>268.5</ele><time>2026-04-20T13:27:01.813Z</time></trkpt><trkpt lat="43.018575" lon="11.6437367"><ele>268.25</ele><time>2026-04-20T13:27:02.813Z</time></trkpt><trkpt lat="43.0187017" lon="11.6437833"><ele>268.0</ele><time>2026-04-20T13:27:03.812Z</time></trkpt><trkpt lat="43.0188317" lon="11.643835"><ele>268.0</ele><time>2026-04-20T13:27:04.812Z</time></trkpt><trkpt lat="43.0189567" lon="11.6438867"><ele>268.0</ele><time>2026-04-20T13:27:05.814Z</time></trkpt><trkpt lat="43.019075" lon="11.64394"><ele>268.0</ele><time>2026-04-20T13:27:06.812Z</time></trkpt><trkpt lat="43.0191867" lon="11.6439867"><ele>268.0</ele><time>2026-04-20T13:27:07.813Z</time></trkpt><trkpt lat="43.0192917" lon="11.644025"><ele>268.0</ele><time>2026-04-20T13:27:08.812Z</time></trkpt><trkpt lat="43.0193867" lon="11.6440583"><ele>268.0</ele><time>2026-04-20T13:27:09.814Z</time></trkpt><trkpt lat="43.0194733" lon="11.644085"><ele>268.0</ele><time>2026-04-20T13:27:10.813Z</time></trkpt><trkpt lat="43.0195567" lon="11.6441017"><ele>268.0</ele><time>2026-04-20T13:27:11.813Z</time></trkpt><trkpt lat="43.019635" lon="11.644105"><ele>268.0</ele><time>2026-04-20T13:27:12.815Z</time></trkpt><trkpt lat="43.0197033" lon="11.6440967"><ele>268.0</ele><time>2026-04-20T13:27:13.813Z</time></trkpt><trkpt lat="43.0197967" lon="11.6440667"><ele>268.0</ele><time>2026-04-20T13:27:15.809Z</time></trkpt></trkseg></trk></gpx>